Graceful Lady — 00 — position and weather

sailwx.info

Track history (hours):
 
Tides and Currents Weather Stations Pressure Air Temp Water Temp Dewpoint Dewpoint Depression Visibility Wind Speed Wind Dir Waves Ship Positions

Graceful Lady

Last reported at 2017-Sep-24 17:30 UTC. Time now 2017-Sep-24 17:52 UTC.
Position N 37°33' E 121°23'.

Type: Towing. MMSI: 200009587.

Date/timePositionNaut miles runAvg speedWind from/ knotsBaromVisibWave heightAir tempDewpointWater temp
2017-Sep-24 17:30N 37°33' E 121°23'369332507.4
2017-Sep-24 17:30N 31°23' E 121°37'2850057.5
2017-Sep-24 17:30N 31°40' E 121°11'45490822.7
2017-Sep-24 17:30N 24°32' E 118°19'375122730.1
2017-Sep-24 17:30N 29°47' E 122°08'61571381.3
2017-Sep-24 17:29N 22°59' E 113°34'65246937.7
2017-Sep-24 17:28N 31°59' E 120°27'478114804.1
2017-Sep-24 17:28N 39°56' E 119°42'47995802.1
2017-Sep-24 17:28N 31°57' E 120°05'1604792.3
2017-Sep-24 17:26N 29°53' E 122°03'6272108.6
2017-Sep-24 17:08N 40°20' E 122°01'5124077.1
2017-Sep-24 17:00N 31°57' E 120°08'342615272.9
2017-Sep-24 17:00N 37°33' E 121°23'4671680978.8
2017-Sep-24 17:00N 29°47' E 122°08'375135004.9
2017-Sep-24 17:00N 24°32' E 118°19'447536125.4
2017-Sep-24 17:00N 31°23' E 121°37'706776.5
2017-Sep-24 17:00N 31°59' E 120°27'458114.1
2017-Sep-24 16:59N 31°38' E 121°14'6602377128.5
2017-Sep-24 16:59N 22°59' E 113°34'106458915.6
2017-Sep-24 16:58N 39°56' E 119°42'61415026.4
2017-Sep-24 16:56N 29°53' E 122°03'6129153218.3
2017-Sep-24 16:53N 33°37' W 117°55'613590150.0
2017-Sep-24 16:49N 29°56' E 121°53'112115405.7
2017-Sep-24 16:45N 16°06' E 108°14'162736369.9
2017-Sep-24 16:42N 40°20' E 122°01'9664997.9
2017-Sep-24 16:30N 24°32' E 118°19'461829209.2
2017-Sep-24 16:30N 31°59' E 120°27'1425047.1
2017-Sep-24 16:30N 31°56' E 120°11'342153849.1
2017-Sep-24 16:30N 37°33' E 121°23'369190004.2
2017-Sep-24 16:30N 31°23' E 121°37'249592.4
2017-Sep-24 16:30N 31°38' E 121°14'66044850.3
2017-Sep-24 16:29N 22°59' E 113°34'615245868.8
2017-Sep-24 16:29N 29°47' E 122°08'62039888.7
2017-Sep-24 16:28N 39°56' E 119°42'11010385.5
2017-Sep-24 16:27N 40°20' E 122°01'1626650427.7
2017-Sep-24 16:27N 16°07' E 108°13'112541328.7
2017-Sep-24 16:26N 29°53' E 122°03'872198.4
2017-Sep-24 16:23N 31°20' E 121°59'97254.4
2017-Sep-24 16:00N 31°56' E 120°13'9769666.8
2017-Sep-24 16:00N 31°20' E 121°59'194935.4
2017-Sep-24 16:00N 31°23' E 121°37'1911223.3
2017-Sep-24 16:00N 31°33' E 121°18'3601295969.3
2017-Sep-24 16:00N 37°33' E 121°23'467560319.1
2017-Sep-24 16:00N 29°47' E 122°08'61546100.7
2017-Sep-24 15:59N 22°59' E 113°34'1127811224.1
2017-Sep-24 15:59N 40°20' E 122°01'62710795.3
2017-Sep-24 15:56N 29°53' E 122°03'37828941.6
2017-Sep-24 15:55N 24°32' E 118°19'46130711.5
2017-Sep-24 15:54N 31°59' E 120°27'47815375.4
2017-Sep-24 15:52N 39°56' E 119°42'9262577.0
2017-Sep-24 15:30N 24°32' E 118°19'449202105.5
2017-Sep-24 15:30N 31°33' E 121°18'114204973.0
2017-Sep-24 15:30N 29°47' E 122°08'10032655.4
2017-Sep-24 15:30N 31°23' E 121°37'7630566.0
2017-Sep-24 15:30N 31°57' E 120°16'9688.6
2017-Sep-24 15:29N 31°59' E 120°27'65212824.5
2017-Sep-24 15:26N 22°59' E 113°34'61567129.9
2017-Sep-24 15:26N 29°53' E 122°03'62722339.1
2017-Sep-24 15:24N 40°20' E 122°01'110836.1
2017-Sep-24 15:16N 39°56' E 119°42'5282039.0
2017-Sep-24 15:01N 31°20' E 121°59'192995.3
2017-Sep-24 15:00N 31°23' E 121°37'7538529.5
2017-Sep-24 15:00N 31°58' E 120°19'3391219021.1
2017-Sep-24 15:00N 37°33' E 121°23'467168046.2
2017-Sep-24 15:00N 29°47' E 122°08'37564307.7
2017-Sep-24 14:59N 24°32' E 118°19'27649757.5
2017-Sep-24 14:59N 22°59' E 113°34'65267053.9
2017-Sep-24 14:59N 31°59' E 120°27'47855549.7
2017-Sep-24 14:58N 39°56' E 119°42'61415233.8
2017-Sep-24 14:56N 29°53' E 122°03'6276985.3
2017-Sep-24 14:50N 40°20' E 122°01'9662933.0
2017-Sep-24 14:30N 24°32' E 118°19'461110561.2
2017-Sep-24 14:30N 31°59' E 120°27'337606369.3
2017-Sep-24 14:30N 37°33' E 121°23'3741345512.2
2017-Sep-24 14:30N 31°20' E 121°59'1917225.6
2017-Sep-24 14:30N 31°23' E 121°37'9858791.0
2017-Sep-24 14:30N 29°49' E 122°08'1129181.8
2017-Sep-24 14:29N 31°33' E 121°18'658296216.3
2017-Sep-24 14:29N 22°59' E 113°34'650334438.1
2017-Sep-24 14:29N 32°00' E 120°22'47728623.1
2017-Sep-24 14:28N 39°56' E 119°42'6134412.7
2017-Sep-24 14:20N 29°54' E 122°00'4601436.1
2017-Sep-24 14:00N 37°33' E 121°23'462127978.0
2017-Sep-24 14:00N 29°52' E 122°08'379195104.2
2017-Sep-24 14:00N 24°32' E 118°19'46348994.9
2017-Sep-24 14:00N 32°02' E 120°24'65387038.2
2017-Sep-24 13:59N 22°59' E 113°34'652391147.6
2017-Sep-24 13:59N 31°59' E 120°27'47829690.7
2017-Sep-24 13:58N 39°56' E 119°42'52810272.2
2017-Sep-24 13:55N 31°20' E 121°59'376717.1
2017-Sep-24 13:55N 31°33' E 121°18'1051515.7
2017-Sep-24 13:51N 29°54' E 121°59'86258.5
2017-Sep-24 13:31N 31°20' E 121°59'8662001.4
2017-Sep-24 13:30N 29°54' E 122°08'107386718.4
2017-Sep-24 13:30N 31°33' E 121°18'195623.2
2017-Sep-24 13:30N 31°23' E 121°37'447402122.6
2017-Sep-24 13:30N 24°32' E 118°19'796318476.3
2017-Sep-24 13:30N 37°33' E 121°23'33252034.0
2017-Sep-24 13:30N 32°04' E 120°26'65584275.9
2017-Sep-24 13:29N 22°59' E 113°34'106458915.6
2017-Sep-24 13:28N 39°56' E 119°42'61214998.8
2017-Sep-24 13:26N 29°54' E 121°59'1482850.1
2017-Sep-24 13:23N 31°59' E 120°27'150408.2
2017-Sep-24 13:01N 29°55' E 122°04'10554159.9
2017-Sep-24 13:00N 31°33' E 121°18'360259193.9
2017-Sep-24 13:00N 37°33' E 121°23'796318476.3
2017-Sep-24 13:00N 24°32' E 118°19'27616313.9
2017-Sep-24 12:59N 22°59' E 113°34'65876408.3
2017-Sep-24 12:59N 32°04' E 120°30'1513145.5
2017-Sep-24 12:56N 29°54' E 121°59'6129931.6
2017-Sep-24 12:52N 39°56' E 119°42'110747.4
2017-Sep-24 12:43N 40°20' E 122°01'5402541.5
2017-Sep-24 12:31N 31°20' E 121°59'3741345512.2
2017-Sep-24 12:30N 37°33' E 121°23'4571644464.6
2017-Sep-24 12:30N 29°57' E 122°00'8915220.0
2017-Sep-24 12:30N 31°23' E 121°37'196137.3
2017-Sep-24 12:30N 31°33' E 121°18'65850419.8
2017-Sep-24 12:29N 22°59' E 113°34'106457157.2
2017-Sep-24 12:28N 39°56' E 119°42'61215637.2
2017-Sep-24 12:26N 29°54' E 121°59'550.5
2017-Sep-24 12:19N 29°56' E 121°53'620.0
2017-Sep-24 12:00N 30°01' E 121°59'7940870.8
2017-Sep-24 12:00N 31°20' E 121°59'3744778.3
2017-Sep-24 12:00N 31°33' E 121°18'360431989.8
2017-Sep-24 12:00N 37°33' E 121°23'369189992.7
2017-Sep-24 12:00N 31°23' E 121°37'44743473.2
2017-Sep-24 12:00N 24°32' E 118°19'27647388.1
2017-Sep-24 11:59N 22°59' E 113°34'106458915.9
2017-Sep-24 11:58N 39°56' E 119°42'60939835.8
2017-Sep-24 11:57N 29°57' E 121°53'646.3
2017-Sep-24 11:50N 29°54' E 121°59'3044103.8
2017-Sep-24 11:45N 25°19' E 119°31'91012357.1
2017-Sep-24 11:41N 40°20' E 122°01'5054119.0
2017-Sep-24 11:33N 31°60' E 120°39'4058389.7
2017-Sep-24 11:31N 25°19' E 119°29'3841383981.6
2017-Sep-24 11:30N 31°20' E 121°59'374149501.4
2017-Sep-24 11:30N 37°33' E 121°23'369120910.3
2017-Sep-24 11:30N 31°23' E 121°37'53780564.2
2017-Sep-24 11:30N 40°20' E 122°01'52922387.5
2017-Sep-24 11:28N 31°33' E 121°18'509101865.4
2017-Sep-24 11:28N 39°56' E 119°42'60280234.3
2017-Sep-24 11:28N 30°05' E 121°57'61926222.7
2017-Sep-24 11:26N 22°59' E 113°34'276995150.0
2017-Sep-24 11:26N 24°32' E 118°19'37739871.6
2017-Sep-24 11:26N 29°54' E 121°59'377900.8
2017-Sep-24 11:01N 24°32' E 118°19'4521626547.5
2017-Sep-24 11:00N 31°20' E 121°59'37496108.0
2017-Sep-24 11:00N 37°33' E 121°23'369221658.1
2017-Sep-24 11:00N 31°23' E 121°37'66239074.5
2017-Sep-24 10:59N 22°59' E 113°34'65850419.8
2017-Sep-24 10:58N 31°33' E 121°18'509107857.5
2017-Sep-24 10:58N 39°56' E 119°42'1104486.2
2017-Sep-24 10:57N 40°20' E 122°01'6265354.1
2017-Sep-24 10:50N 29°54' E 121°59'86269.0
2017-Sep-24 10:30N 31°20' E 121°59'374112127.8
2017-Sep-24 10:30N 37°33' E 121°23'3691329991.9
2017-Sep-24 10:30N 31°23' E 121°37'191405.8
2017-Sep-24 10:29N 31°33' E 121°18'658197477.5
2017-Sep-24 10:29N 22°59' E 113°34'106455500.5
2017-Sep-24 10:28N 39°56' E 119°42'6124383.3
2017-Sep-24 10:20N 29°54' E 121°59'3771885.5
2017-Sep-24 10:08N 24°32' E 118°19'4523809.2
2017-Sep-24 10:01N 31°20' E 121°59'452542182.5
2017-Sep-24 10:00N 24°32' E 118°19'796286630.8
2017-Sep-24 10:00N 37°33' E 121°23'360647995.5
2017-Sep-24 10:00N 31°33' E 121°18'196747.8
2017-Sep-24 10:00N 31°23' E 121°37'66239725.5
2017-Sep-24 09:59N 22°59' E 113°34'106461766.4
2017-Sep-24 09:58N 39°56' E 119°42'6122543.0
2017-Sep-24 09:44N 29°54' E 121°59'86389.8
2017-Sep-24 09:30N 31°20' E 121°59'3722390.4
2017-Sep-24 09:30N 31°33' E 121°18'360647984.7
2017-Sep-24 09:30N 37°33' E 121°23'796477714.5
2017-Sep-24 09:30N 24°32' E 118°19'4471608297.2
2017-Sep-24 09:30N 31°23' E 121°37'66241091.5
2017-Sep-24 09:29N 22°59' E 113°34'106458023.3
2017-Sep-24 09:28N 39°56' E 119°42'6122537.2
2017-Sep-24 09:14N 29°54' E 121°59'130874.7
2017-Sep-24 09:05N 31°51' E 120°54'825077.0
2017-Sep-24 09:04N 30°60' E 122°09'4388164.0
2017-Sep-24 09:01N 24°32' E 118°19'449179647.1
2017-Sep-24 09:00N 31°33' E 121°18'3744780.8
2017-Sep-24 09:00N 31°20' E 121°59'374168189.0
2017-Sep-24 09:00N 37°33' E 121°23'3691330072.8
2017-Sep-24 09:00N 31°23' E 121°37'364928.9
2017-Sep-24 09:00N 31°00' E 122°08'66466396.4
2017-Sep-24 08:59N 22°59' E 113°34'106458915.6
2017-Sep-24 08:58N 39°56' E 119°42'61215205.7
2017-Sep-24 08:56N 29°54' E 121°59'126532.8
2017-Sep-24 08:41N 31°48' E 120°56'3461891.4
2017-Sep-24 08:30N 37°33' E 121°23'392282178.4
2017-Sep-24 08:30N 31°02' E 122°05'5060184.7
2017-Sep-24 08:30N 31°33' E 121°18'195613.4
2017-Sep-24 08:30N 31°23' E 121°37'1969087.9
2017-Sep-24 08:30N 31°20' E 121°59'45285607.8
2017-Sep-24 08:30N 24°32' E 118°19'92631459.4
2017-Sep-24 08:28N 39°56' E 119°42'4938967.0
2017-Sep-24 08:25N 31°47' E 120°59'65924448.4
2017-Sep-24 08:23N 22°59' E 113°34'11276211.7
2017-Sep-24 08:12N 40°20' E 122°01'6268050.7
2017-Sep-24 08:08N 29°54' E 121°59'580.6
2017-Sep-24 08:04N 29°56' E 121°53'3767044.9
2017-Sep-24 08:00N 24°32' E 118°19'796573257.4
2017-Sep-24 08:00N 37°33' E 121°23'360647984.7
2017-Sep-24 08:00N 31°33' E 121°18'3744780.8
2017-Sep-24 08:00N 31°20' E 121°59'196280.4
2017-Sep-24 08:00N 31°23' E 121°37'66241812.7
2017-Sep-24 07:59N 22°59' E 113°34'662397377.2
2017-Sep-24 07:59N 31°04' E 122°01'54431058.2
2017-Sep-24 07:58N 39°56' E 119°42'1104486.5
2017-Sep-24 07:57N 40°20' E 122°01'623320557.6
2017-Sep-24 07:56N 29°57' E 121°53'6425.4
2017-Sep-24 07:56N 29°54' E 121°59'911450.8
2017-Sep-24 07:52N 31°22' E 121°30'4431246.1
2017-Sep-24 07:31N 24°32' E 118°19'439315867.7
2017-Sep-24 07:30N 31°06' E 121°57'1450642.7
2017-Sep-24 07:30N 31°20' E 121°59'374269102.4
2017-Sep-24 07:30N 37°33' E 121°23'369221675.2
2017-Sep-24 07:30N 31°23' E 121°37'537241713.1
2017-Sep-24 07:30N 40°20' E 122°01'52943251.2
2017-Sep-24 07:29N 31°33' E 121°18'133554.0
2017-Sep-24 07:29N 31°43' E 121°08'49826778.4
2017-Sep-24 07:28N 39°56' E 119°42'610182852.0
2017-Sep-24 07:28N 29°56' E 121°53'1443079.7
2017-Sep-24 07:25N 31°59' E 120°27'651507.5
2017-Sep-24 07:22N 31°22' E 121°30'921950.5
2017-Sep-24 07:20N 29°54' E 121°59'150568.9
2017-Sep-24 07:04N 31°57' E 120°18'3406277.1
2017-Sep-24 07:01N 37°33' E 121°23'386277853.5
2017-Sep-24 07:00N 31°08' E 121°54'4018018.9
2017-Sep-24 07:00N 31°33' E 121°18'529951526.3
2017-Sep-24 07:00N 40°20' E 122°01'537483426.3
2017-Sep-24 07:00N 31°23' E 121°37'263131.0
2017-Sep-24 07:00N 31°40' E 121°13'233395.1
2017-Sep-24 06:59N 31°22' E 121°30'657236535.5
2017-Sep-24 06:59N 22°59' E 113°34'106458023.3
2017-Sep-24 06:58N 39°56' E 119°42'47825324.4
2017-Sep-24 06:57N 31°59' E 120°27'1481216.5
2017-Sep-24 06:50N 29°54' E 121°59'15130137.5
2017-Sep-24 06:49N 31°57' E 120°17'75392.4
2017-Sep-24 06:38N 31°31' E 121°39'4553685.2
2017-Sep-24 06:30N 24°32' E 118°19'452542182.5
2017-Sep-24 06:30N 31°20' E 121°59'3970776.3
2017-Sep-24 06:30N 31°36' E 121°17'40144573.9
2017-Sep-24 06:30N 31°09' E 121°52'384153627.0
2017-Sep-24 06:30N 37°33' E 121°23'369266010.3
2017-Sep-24 06:30N 31°23' E 121°37'66239722.4
2017-Sep-24 06:29N 22°59' E 113°34'65238473.8
2017-Sep-24 06:28N 31°59' E 120°27'478246005.8
2017-Sep-24 06:28N 39°56' E 119°42'50979720.8
2017-Sep-24 06:28N 31°33' E 121°18'596209.2
2017-Sep-24 06:27N 31°56' E 120°15'723621.2
2017-Sep-24 06:26N 31°22' E 121°30'1180.1
2017-Sep-24 06:17N 31°30' E 121°39'98372.5
2017-Sep-24 06:02N 29°54' E 121°59'37720856.2
2017-Sep-24 06:01N 24°32' E 118°19'452406636.9
2017-Sep-24 06:00N 31°20' E 121°59'1221796.2
2017-Sep-24 06:00N 31°11' E 121°50'1934926.9
2017-Sep-24 06:00N 31°29' E 121°41'3641311343.7
2017-Sep-24 06:00N 37°33' E 121°23'36995003.7
2017-Sep-24 06:00N 31°23' E 121°37'1911226.9
2017-Sep-24 06:00N 31°33' E 121°18'65846465.3
2017-Sep-24 05:59N 22°59' E 113°34'106457157.2
2017-Sep-24 05:58N 39°56' E 119°42'47847835.1
2017-Sep-24 05:57N 31°59' E 120°27'655729.5
2017-Sep-24 05:57N 31°22' E 121°30'761389.6
2017-Sep-24 05:54N 31°56' E 120°10'153939.3
2017-Sep-24 05:44N 29°54' E 121°59'6266669.1
2017-Sep-24 05:38N 40°20' E 122°01'9667645.0
2017-Sep-24 05:30N 24°32' E 118°19'449269431.2
2017-Sep-24 05:30N 31°30' E 121°26'2749015.8
2017-Sep-24 05:30N 31°11' E 121°49'164396.4
2017-Sep-24 05:30N 31°23' E 121°37'369332518.2
2017-Sep-24 05:30N 37°33' E 121°23'360647984.7
2017-Sep-24 05:30N 31°33' E 121°18'65844711.9
2017-Sep-24 05:29N 22°59' E 113°34'106459836.5
2017-Sep-24 05:28N 39°56' E 119°42'52044586.8
2017-Sep-24 05:27N 31°26' E 121°45'7517972.4
2017-Sep-24 05:27N 31°59' E 120°27'651654.3
2017-Sep-24 05:25N 31°22' E 121°30'793829.6
2017-Sep-24 05:24N 31°56' E 120°07'159961.8
2017-Sep-24 05:14N 29°53' E 122°03'3781727.6
2017-Sep-24 05:01N 24°32' E 118°19'449269645.2
2017-Sep-24 05:00N 31°22' E 121°48'1628040.0
2017-Sep-24 05:00N 31°26' E 121°30'367220052.2
2017-Sep-24 05:00N 37°33' E 121°23'37496108.0
2017-Sep-24 05:00N 31°20' E 121°59'125475.8
2017-Sep-24 05:00N 31°11' E 121°49'66054032.0
2017-Sep-24 04:59N 22°59' E 113°34'657295629.8
2017-Sep-24 04:59N 31°22' E 121°30'52131284.1
2017-Sep-24 04:58N 39°56' E 119°42'50973343.1
2017-Sep-24 04:58N 31°33' E 121°18'519653.0
2017-Sep-24 04:57N 31°59' E 120°27'7031344.0
2017-Sep-24 04:57N 31°23' E 121°37'933757.6
2017-Sep-24 04:56N 29°53' E 122°03'1621042.0
2017-Sep-24 04:46N 31°58' E 120°02'6597258.4
2017-Sep-24 04:41N 22°27' E 113°51'33417925.4
2017-Sep-24 04:40N 24°56' E 119°17'93582078.7
2017-Sep-24 04:39N 40°20' E 122°01'9666754.4
2017-Sep-24 04:31N 24°32' E 118°19'446229432.0
2017-Sep-24 04:30N 31°23' E 121°35'369332496.5
2017-Sep-24 04:30N 37°33' E 121°23'369110839.4
2017-Sep-24 04:30N 31°23' E 121°37'1614288.4
2017-Sep-24 04:30N 31°11' E 121°49'3461415.3
2017-Sep-24 04:30N 31°33' E 121°18'2912962.2
2017-Sep-24 04:30N 31°18' E 121°47'66453146.4
2017-Sep-24 04:29N 22°59' E 113°34'65241173.4
2017-Sep-24 04:28N 31°59' E 120°27'478172206.2
2017-Sep-24 04:28N 39°56' E 119°42'1106926.1
2017-Sep-24 04:27N 40°20' E 122°01'62729689.9
2017-Sep-24 04:26N 29°53' E 122°03'6286030.3
2017-Sep-24 04:20N 22°27' E 113°51'33011012.8
2017-Sep-24 04:18N 24°54' E 119°14'4063740.8
2017-Sep-24 04:11N 31°22' E 121°30'949.1
2017-Sep-24 04:00N 31°21' E 121°40'1629098.4
2017-Sep-24 04:00N 31°20' E 121°59'126260.3
2017-Sep-24 04:00N 31°11' E 121°49'440316983.4
2017-Sep-24 04:00N 24°32' E 118°19'449230977.7
2017-Sep-24 04:00N 31°33' E 121°18'360161993.5
2017-Sep-24 04:00N 37°33' E 121°23'375674834.3
2017-Sep-24 04:00N 31°18' E 121°45'785503.8
2017-Sep-24 03:59N 31°59' E 120°27'65117568.1
2017-Sep-24 03:59N 31°22' E 121°30'52134131.0
2017-Sep-24 03:58N 39°56' E 119°42'106433013.2
2017-Sep-24 03:56N 22°59' E 113°34'6165670.0
2017-Sep-24 03:50N 29°53' E 122°03'6275599.2
2017-Sep-24 03:43N 40°20' E 122°01'9664675.4
2017-Sep-24 03:31N 24°32' E 118°19'4521626547.5
2017-Sep-24 03:30N 31°20' E 121°59'1214595.3
2017-Sep-24 03:30N 31°11' E 121°49'33057.1
2017-Sep-24 03:30N 31°14' E 121°47'31112224.9
2017-Sep-24 03:30N 31°33' E 121°18'194813.1
2017-Sep-24 03:30N 31°23' E 121°37'369443364.8
2017-Sep-24 03:30N 37°33' E 121°23'96364176.3
2017-Sep-24 03:29N 22°59' E 113°34'112772430.7
2017-Sep-24 03:28N 40°20' E 122°01'11032886.7
2017-Sep-24 03:28N 39°56' E 119°42'478114804.1
2017-Sep-24 03:28N 31°59' E 120°27'652282.8
2017-Sep-24 03:26N 31°22' E 121°30'4161345.5
2017-Sep-24 03:08N 24°46' E 119°05'4233615.5
2017-Sep-24 03:01N 31°20' E 121°59'3741345512.2
2017-Sep-24 03:00N 37°33' E 121°23'380273676.8
2017-Sep-24 03:00N 31°13' E 121°48'142925.0
2017-Sep-24 03:00N 31°23' E 121°37'420756374.3
2017-Sep-24 03:00N 24°45' E 119°04'41330968.7
2017-Sep-24 02:59N 31°11' E 121°51'661264535.7
2017-Sep-24 02:59N 22°59' E 113°34'112794328.8
2017-Sep-24 02:58N 40°20' E 122°01'507107350.2
2017-Sep-24 02:58N 31°59' E 120°27'478430515.5
2017-Sep-24 02:58N 39°56' E 119°42'50927366.8
2017-Sep-24 02:57N 31°33' E 121°18'4217358.1
2017-Sep-24 02:54N 24°52' E 118°52'3458515.1
2017-Sep-24 02:51N 29°58' E 121°53'10410.0
2017-Sep-24 02:50N 29°53' E 122°03'3781187.9
2017-Sep-24 02:30N 24°32' E 118°19'4401584766.2
2017-Sep-24 02:30N 31°10' E 121°52'813996.0
2017-Sep-24 02:30N 31°16' E 121°46'3781359285.8
2017-Sep-24 02:30N 37°33' E 121°23'385230888.3
2017-Sep-24 02:30N 31°09' E 121°55'219508.8
2017-Sep-24 02:30N 31°23' E 121°37'192700.8
2017-Sep-24 02:30N 31°33' E 121°18'52910513.9
2017-Sep-24 02:27N 40°20' E 122°01'1127122912.7
2017-Sep-24 02:26N 22°59' E 113°34'65219395.7
2017-Sep-24 02:24N 31°59' E 120°27'47813667.2
2017-Sep-24 02:22N 39°56' E 119°42'52113999.8
2017-Sep-24 02:20N 31°22' E 121°30'9437446.0
2017-Sep-24 02:20N 29°53' E 122°03'3781181.7
2017-Sep-24 02:00N 24°32' E 118°19'440316488.7
2017-Sep-24 02:00N 31°08' E 121°56'1629248.1
2017-Sep-24 02:00N 31°19' E 121°42'374449345.9
2017-Sep-24 02:00N 37°33' E 121°23'369120918.2
2017-Sep-24 02:00N 31°23' E 121°37'66241814.9
2017-Sep-24 01:59N 22°59' E 113°34'112786301.3
2017-Sep-24 01:58N 40°20' E 122°01'11019732.5
2017-Sep-24 01:58N 39°56' E 119°42'54142361.9
2017-Sep-24 01:57N 31°06' E 121°59'449264.5
2017-Sep-24 01:57N 31°33' E 121°18'1074578.0
2017-Sep-24 01:56N 29°53' E 122°03'6193656.7
2017-Sep-24 01:45N 23°05' E 113°24'2831135.3
2017-Sep-24 01:31N 24°32' E 118°19'445267139.1
2017-Sep-24 01:30N 31°21' E 121°38'372267551.6
2017-Sep-24 01:30N 37°33' E 121°23'389466728.4
2017-Sep-24 01:30N 31°05' E 122°00'2710796.3
2017-Sep-24 01:30N 31°23' E 121°37'66242561.3
2017-Sep-24 01:29N 22°59' E 113°34'106458023.6
2017-Sep-24 01:28N 39°56' E 119°42'61414929.9
2017-Sep-24 01:26N 29°53' E 122°03'1072136.5
2017-Sep-24 01:23N 31°33' E 121°18'6763903.8
2017-Sep-24 01:12N 22°27' E 113°51'2761407.4
2017-Sep-24 01:00N 24°32' E 118°19'438315684.2
2017-Sep-24 01:00N 31°03' E 122°03'33117489.6
2017-Sep-24 01:00N 31°23' E 121°33'369147784.2
2017-Sep-24 01:00N 37°33' E 121°23'369332535.8
2017-Sep-24 01:00N 31°23' E 121°37'197508.3
2017-Sep-24 01:00N 31°33' E 121°18'65844712.8
2017-Sep-24 00:59N 22°59' E 113°34'106458915.9
2017-Sep-24 00:58N 39°56' E 119°42'61415896.5
2017-Sep-24 00:56N 29°53' E 122°03'6282791.9
2017-Sep-24 00:42N 22°27' E 113°51'6718418.3
2017-Sep-24 00:37N 31°58' E 120°27'4603971.9
2017-Sep-24 00:31N 24°32' E 118°19'43898611.1
2017-Sep-24 00:30N 31°01' E 122°07'393283046.4
2017-Sep-24 00:30N 37°33' E 121°23'36026999.8
2017-Sep-24 00:29N 31°33' E 121°18'658236974.7
2017-Sep-24 00:29N 22°59' E 113°34'106454707.9
2017-Sep-24 00:28N 39°56' E 119°42'9262018.6
2017-Sep-24 00:00N 24°32' E 118°19'438315413.6
2017-Sep-24 00:00N 30°59' E 122°11'3711243.2
2017-Sep-24 00:00N 31°23' E 121°37'369166265.2
2017-Sep-24 00:00N 37°33' E 121°23'96361884.6
2017-Sep-23 23:59N 22°59' E 113°34'106459836.8
2017-Sep-23 23:58N 39°56' E 119°42'113245807.1
2017-Sep-23 23:57N 21°53' E 113°14'7172921.5
2017-Sep-23 23:42N 31°58' E 120°27'4602428.4
2017-Sep-23 23:30N 24°32' E 118°19'44780416.6
2017-Sep-23 23:30N 31°23' E 121°37'369133016.5
2017-Sep-23 23:30N 37°33' E 121°23'96367951.7
2017-Sep-23 23:29N 22°59' E 113°34'106457157.5
2017-Sep-23 23:28N 39°56' E 119°42'4799968.5
2017-Sep-23 23:25N 31°58' E 120°27'10928070.0
2017-Sep-23 23:25N 30°56' E 122°12'398972.4
2017-Sep-23 23:00N 37°33' E 121°23'796286630.8
2017-Sep-23 23:00N 24°32' E 118°19'447804156.3
2017-Sep-23 23:00N 31°23' E 121°37'66242560.8
2017-Sep-23 22:59N 22°59' E 113°34'65818089.7
2017-Sep-23 22:57N 31°33' E 121°18'6712093.2
2017-Sep-23 22:38N 22°56' E 113°17'36621938.3
2017-Sep-23 22:37N 25°20' E 119°25'87619120.9
2017-Sep-23 22:34N 39°56' E 119°42'92615729.7
2017-Sep-23 22:30N 24°32' E 118°19'44773105.1
2017-Sep-23 22:30N 31°23' E 121°37'369102320.4
2017-Sep-23 22:30N 37°33' E 121°23'96315402.4
2017-Sep-23 22:26N 22°59' E 113°34'65822147.2
2017-Sep-23 22:24N 31°33' E 121°18'67252568.7
2017-Sep-23 22:24N 22°55' E 113°17'107341079.1
2017-Sep-23 22:22N 39°56' E 119°42'47918153.0
2017-Sep-23 22:20N 31°58' E 120°27'4601383.6
2017-Sep-23 22:01N 24°32' E 118°19'44789352.9
2017-Sep-23 22:00N 31°23' E 121°37'36957832.3
2017-Sep-23 22:00N 37°33' E 121°23'96391198.4
2017-Sep-23 21:59N 22°59' E 113°34'106456317.0
2017-Sep-23 21:58N 39°56' E 119°42'509366715.6
2017-Sep-23 21:58N 31°33' E 121°18'67375688.5
2017-Sep-23 21:57N 22°54' E 113°17'6652952.9
2017-Sep-23 21:44N 31°58' E 120°27'4602054.8
2017-Sep-23 21:30N 24°32' E 118°19'449134738.7
2017-Sep-23 21:30N 31°33' E 121°18'199650.5
2017-Sep-23 21:30N 31°23' E 121°37'8718451.7
2017-Sep-23 21:30N 29°57' E 121°54'61248961.3
2017-Sep-23 21:29N 22°59' E 113°34'106457157.5
2017-Sep-23 21:28N 39°56' E 119°42'107485907.3
2017-Sep-23 21:27N 22°53' E 113°19'66562960.0
2017-Sep-23 21:27N 31°58' E 120°27'169499.0
2017-Sep-23 21:06N 29°47' E 122°31'3874022.2
2017-Sep-23 21:01N 24°32' E 118°19'796477714.5
2017-Sep-23 21:00N 37°33' E 121°23'973205973.7
2017-Sep-23 21:00N 22°54' E 113°21'670109655.9
2017-Sep-23 21:00N 31°33' E 121°18'50917976.3
2017-Sep-23 20:58N 39°56' E 119°42'106433300.5
2017-Sep-23 20:56N 22°59' E 113°34'66219861.8
2017-Sep-23 20:54N 31°23' E 121°37'1947.6
2017-Sep-23 20:30N 31°33' E 121°18'360129596.9
2017-Sep-23 20:30N 37°33' E 121°23'369133015.9
2017-Sep-23 20:30N 31°23' E 121°37'672806586.0
2017-Sep-23 20:30N 22°54' E 113°24'11709.2
2017-Sep-23 20:29N 22°59' E 113°34'106456317.0
2017-Sep-23 20:28N 39°56' E 119°42'98410674.0
2017-Sep-23 20:23N 23°37' E 117°39'66179.4
2017-Sep-23 20:00N 24°32' E 118°19'285256502.7
2017-Sep-23 20:00N 22°55' E 113°26'970581980.9
2017-Sep-23 20:00N 37°33' E 121°23'369190019.7
2017-Sep-23 20:00N 31°23' E 121°37'191225.5
2017-Sep-23 19:59N 31°33' E 121°18'50924447.7
2017-Sep-23 19:58N 39°56' E 119°42'106434192.5
2017-Sep-23 19:56N 22°59' E 113°34'9834223.0
2017-Sep-23 19:42N 38°58' E 117°50'98923.7
2017-Sep-22 02:01N 22°53' E 113°34'2791003949.7
2017-Sep-22 02:00N 24°32' E 118°19'278125243.6
2017-Sep-22 02:00N 22°37' E 113°42'980141150.2
2017-Sep-22 02:00N 37°33' E 121°23'374336378.1
2017-Sep-22 02:00N 31°20' E 121°59'528135740.2
2017-Sep-22 02:00N 39°56' E 119°42'50996504.1
2017-Sep-22 01:59N 31°33' E 121°18'65913114.5
2017-Sep-22 01:56N 23°05' E 113°24'65236659.7
2017-Sep-22 01:55N 31°58' E 120°27'522940.7
2017-Sep-22 01:54N 31°32' E 121°20'1164.7
2017-Sep-22 01:44N 31°41' E 121°12'3521609.4
2017-Sep-22 01:31N 37°33' E 121°23'9651158432.2
2017-Sep-22 01:30N 22°57' E 113°32'661339987.3
2017-Sep-22 01:30N 31°33' E 121°18'3719191.8
2017-Sep-22 01:30N 31°20' E 121°59'6872474998.5
2017-Sep-22 01:30N 22°33' E 113°44'1087122270.2
2017-Sep-22 01:30N 39°56' E 119°42'926107570.7
2017-Sep-22 01:29N 24°32' E 118°19'28330892.9
2017-Sep-22 01:29N 23°05' E 113°24'65224696.7
2017-Sep-22 01:27N 31°58' E 120°27'42815.4
2017-Sep-22 01:24N 31°41' E 121°12'352902.1
2017-Sep-22 01:01N 37°33' E 121°23'962692394.9
2017-Sep-22 01:00N 23°02' E 113°31'6732421904.7
2017-Sep-22 01:00N 31°20' E 121°59'452101660.4
2017-Sep-22 01:00N 24°32' E 118°19'92698079.2
2017-Sep-22 01:00N 39°56' E 119°42'5091833556.7
2017-Sep-22 01:00N 31°33' E 121°18'10599.7
2017-Sep-22 00:59N 31°41' E 121°12'11460.4
2017-Sep-22 00:57N 31°32' E 121°20'52980.2
2017-Sep-22 00:54N 31°58' E 120°27'338865.5
2017-Sep-22 00:31N 37°33' E 121°23'7961433164.7
2017-Sep-22 00:30N 24°32' E 118°19'2821014199.1
2017-Sep-22 00:30N 23°05' E 113°26'673202048.4
2017-Sep-22 00:30N 31°20' E 121°59'3733548.4
2017-Sep-22 00:30N 31°35' E 121°19'50752141.1
2017-Sep-22 00:30N 39°56' E 119°42'50017660.6
2017-Sep-22 00:28N 31°41' E 121°12'423592.0
2017-Sep-22 00:27N 31°58' E 120°27'5294103.3
2017-Sep-22 00:27N 31°32' E 121°20'361811.5
2017-Sep-22 00:01N 37°33' E 121°23'3591291613.2
2017-Sep-22 00:01N 31°34' E 121°18'4501621379.0
2017-Sep-22 00:00N 24°32' E 118°19'452125120.5
2017-Sep-22 00:00N 31°20' E 121°59'6782441831.6
2017-Sep-22 00:00N 23°02' E 113°21'1064103563.2
2017-Sep-22 00:00N 39°56' E 119°42'50014765.4
2017-Sep-21 23:58N 31°41' E 121°12'111412.5
2017-Sep-21 23:57N 31°32' E 121°20'3591905.4
2017-Sep-21 23:46N 37°25' E 119°56'69272.6
2017-Sep-21 23:31N 37°33' E 121°23'7962866308.2
2017-Sep-21 23:31N 24°32' E 118°19'289520175.9
2017-Sep-21 23:30N 23°03' E 113°18'6792445249.7
2017-Sep-21 23:30N 31°20' E 121°59'377463.5
2017-Sep-21 23:30N 31°33' E 121°18'50959147.7
2017-Sep-21 23:30N 39°56' E 119°42'1524964.6
2017-Sep-21 23:28N 37°25' E 119°56'349104794.2
2017-Sep-21 23:28N 31°41' E 121°12'2393.1
2017-Sep-21 23:13N 31°25' E 121°31'3681793.8
2017-Sep-21 23:01N 37°33' E 121°23'7962866308.2
2017-Sep-21 23:00N 24°32' E 118°19'452542189.0
2017-Sep-21 23:00N 31°20' E 121°59'2615514.3
2017-Sep-21 23:00N 31°26' E 121°29'666266268.3
2017-Sep-21 23:00N 23°03' E 113°18'1064116086.6
2017-Sep-21 23:00N 39°56' E 119°42'50973343.1
2017-Sep-21 22:59N 31°33' E 121°18'101220.1
2017-Sep-21 22:59N 31°41' E 121°12'34922455.9
2017-Sep-21 22:58N 37°25' E 119°56'35934968.4
2017-Sep-21 22:57N 31°32' E 121°20'361811.5
2017-Sep-21 22:31N 37°33' E 121°23'374269102.4
2017-Sep-21 22:30N 31°20' E 121°59'378396.4
2017-Sep-21 22:30N 31°33' E 121°18'4491616864.3
2017-Sep-21 22:30N 24°32' E 118°19'28961197.2
2017-Sep-21 22:30N 23°03' E 113°18'667800246.2
2017-Sep-21 22:30N 31°41' E 121°12'34910392.8
2017-Sep-21 22:28N 37°25' E 119°56'35934047.6
2017-Sep-21 22:27N 31°32' E 121°20'5108747.5
2017-Sep-21 22:24N 39°56' E 119°42'164424.6
2017-Sep-21 22:01N 37°33' E 121°23'7961433154.1
2017-Sep-21 22:00N 24°32' E 118°19'4521626567.1
2017-Sep-21 22:00N 31°20' E 121°59'380124305.0
2017-Sep-21 22:00N 37°26' E 119°55'928208863.6
2017-Sep-21 22:00N 23°03' E 113°18'664125845.6
2017-Sep-21 22:00N 31°33' E 121°18'509305596.3
2017-Sep-21 22:00N 39°56' E 119°42'51012328.7
2017-Sep-21 21:57N 31°32' E 121°20'11196.9
2017-Sep-21 21:54N 31°41' E 121°12'114311.4
2017-Sep-21 21:32N 29°54' E 121°59'46025456.9
2017-Sep-21 21:31N 37°33' E 121°23'7962866308.2
2017-Sep-21 21:31N 24°32' E 118°19'452542189.0
2017-Sep-21 21:30N 31°20' E 121°59'679174661.9
2017-Sep-21 21:30N 23°03' E 113°18'62097009.9
2017-Sep-21 21:30N 29°58' E 121°53'608198928.1
2017-Sep-21 21:30N 39°56' E 119°42'51012085.2
2017-Sep-21 21:27N 31°32' E 121°20'257.6
2017-Sep-21 21:25N 31°33' E 121°18'1051127.2
2017-Sep-21 21:20N 29°54' E 121°60'4601444.3
2017-Sep-21 21:01N 37°33' E 121°23'374672756.1
2017-Sep-21 21:00N 31°20' E 121°59'45240664.2
2017-Sep-21 21:00N 24°32' E 118°19'289173393.1
2017-Sep-21 21:00N 23°03' E 113°18'10641276940.1
2017-Sep-21 21:00N 39°56' E 119°42'51012246.4
2017-Sep-21 20:57N 31°32' E 121°20'2328.6
2017-Sep-21 20:57N 31°33' E 121°18'1075045.2
2017-Sep-21 20:56N 29°54' E 122°04'4601102.1
2017-Sep-21 20:31N 37°33' E 121°23'7961433154.1
2017-Sep-21 20:30N 24°32' E 118°19'92664129.1
2017-Sep-21 20:30N 39°56' E 119°42'52850009.5
2017-Sep-21 20:29N 31°20' E 121°59'361161.8
2017-Sep-21 20:27N 31°32' E 121°20'105838.7
2017-Sep-21 20:20N 29°55' E 122°07'4591441.6
2017-Sep-21 20:01N 37°33' E 121°23'7962866308.2
2017-Sep-21 20:00N 24°32' E 118°19'452813283.6
2017-Sep-21 20:00N 31°20' E 121°59'3440999.2
2017-Sep-21 20:00N 31°31' E 121°21'66557011.3
2017-Sep-21 20:00N 23°03' E 113°18'1064766167.2
2017-Sep-21 20:00N 39°56' E 119°42'5009050.4
2017-Sep-21 19:56N 31°41' E 121°12'1199949.0
2017-Sep-21 19:56N 29°53' E 122°09'4611104.5
2017-Sep-21 19:31N 37°33' E 121°23'7961433154.1
2017-Sep-21 19:30N 24°32' E 118°19'452813283.6
2017-Sep-21 19:30N 31°20' E 121°59'679489049.9
2017-Sep-21 19:30N 23°03' E 113°18'66579855.9
2017-Sep-21 19:30N 31°29' E 121°25'514132059.4
2017-Sep-21 19:30N 39°56' E 119°42'5091539.5
2017-Sep-21 19:10N 31°33' E 121°18'3602330.9
2017-Sep-21 19:01N 37°33' E 121°23'796136490.9
2017-Sep-21 19:00N 24°32' E 118°19'289130067.5
2017-Sep-21 19:00N 23°03' E 113°18'666218024.8
2017-Sep-21 19:00N 31°27' E 121°28'2724409.5
2017-Sep-21 19:00N 31°20' E 121°59'528190036.3
2017-Sep-21 19:00N 39°56' E 119°42'5093118.3
2017-Sep-21 18:50N 31°33' E 121°18'54199.4
2017-Sep-21 18:34N 31°00' E 122°08'40781.4
2017-Sep-21 18:31N 31°25' E 121°32'3681325098.1
2017-Sep-21 18:31N 37°33' E 121°23'374672766.9
2017-Sep-21 18:30N 31°20' E 121°59'67997814.6
2017-Sep-21 18:30N 23°03' E 113°18'28974323.8
2017-Sep-21 18:30N 24°32' E 118°19'926333471.4
2017-Sep-21 18:30N 39°56' E 119°42'54922697.3
2017-Sep-21 18:28N 31°01' E 122°08'531938.6
2017-Sep-21 18:27N 31°33' E 121°18'59157.2
2017-Sep-21 18:04N 30°57' E 122°13'4377521.8
2017-Sep-21 18:01N 24°32' E 118°19'44684489.5
2017-Sep-21 18:00N 31°23' E 121°37'52258706.9
2017-Sep-21 18:00N 39°56' E 119°42'106454724.8
2017-Sep-21 17:58N 23°03' E 113°18'67022539.1
2017-Sep-21 17:57N 31°03' E 122°04'184562.8
2017-Sep-21 17:56N 31°20' E 121°59'251812.1
2017-Sep-21 17:56N 30°58' E 122°12'397947.9
2017-Sep-21 17:31N 37°33' E 121°23'374336383.4
2017-Sep-21 17:30N 31°20' E 121°59'1518389.4
2017-Sep-21 17:30N 31°20' E 121°41'238304.5
2017-Sep-21 17:30N 31°04' E 122°01'43868620.0
2017-Sep-21 17:30N 24°32' E 118°19'926303155.8
2017-Sep-21 17:30N 39°56' E 119°42'54933502.9
2017-Sep-21 17:29N 31°01' E 122°11'67341779.9
2017-Sep-21 17:28N 23°03' E 113°18'6674840.0
2017-Sep-21 17:19N 31°41' E 121°12'2 8.7
2017-Sep-21 17:05N 31°42' E 121°09'12449489.6
2017-Sep-21 17:05N 29°46' E 122°01'62460761.2
2017-Sep-21 17:04N 22°55' E 113°17'2934842.2
2017-Sep-21 17:00N 24°32' E 118°19'289148622.6
2017-Sep-21 17:00N 23°03' E 113°18'668240606.1
2017-Sep-21 17:00N 31°17' E 121°45'376169362.2
2017-Sep-21 17:00N 37°33' E 121°23'974206205.0
2017-Sep-21 17:00N 22°54' E 113°17'1073429247.7
2017-Sep-21 17:00N 39°56' E 119°42'62039167.0
2017-Sep-21 16:59N 29°46' E 122°01'9467433.5
2017-Sep-21 16:59N 31°20' E 121°59'1412766.7
2017-Sep-21 16:59N 31°06' E 121°58'91445.1
2017-Sep-21 16:58N 31°03' E 122°08'611419.9
2017-Sep-21 16:56N 31°41' E 121°12'10316.7
2017-Sep-21 16:54N 31°33' E 121°18'4491161.5
2017-Sep-21 16:31N 24°32' E 118°19'452406636.9
2017-Sep-21 16:30N 31°20' E 121°59'1312105.4
2017-Sep-21 16:30N 31°07' E 121°56'668240455.9
2017-Sep-21 16:30N 23°03' E 113°18'61823650.8
2017-Sep-21 16:29N 29°46' E 122°01'46734330.0
2017-Sep-21 16:28N 37°33' E 121°23'35232470.4
2017-Sep-21 16:27N 31°41' E 121°12'586715.4
2017-Sep-21 16:27N 31°04' E 122°04'54410827.0
2017-Sep-21 16:24N 39°56' E 119°42'50914786.9
2017-Sep-21 16:22N 31°33' E 121°18'675.2
2017-Sep-21 16:17N 31°38' E 121°15'3551286.3
2017-Sep-21 16:01N 37°33' E 121°23'7962866308.1
2017-Sep-21 16:00N 24°32' E 118°19'439263150.4
2017-Sep-21 16:00N 31°07' E 121°54'28102.2
2017-Sep-21 16:00N 31°09' E 121°53'813950.8
2017-Sep-21 16:00N 31°05' E 122°01'1518261.6
2017-Sep-21 16:00N 31°20' E 121°59'39141394.9
2017-Sep-21 16:00N 31°36' E 121°17'667599924.8
2017-Sep-21 16:00N 23°03' E 113°18'1064109452.5
2017-Sep-21 16:00N 39°56' E 119°42'50991677.8
2017-Sep-21 15:59N 31°33' E 121°18'670109706.3
2017-Sep-21 15:59N 22°54' E 113°21'6242257.4
2017-Sep-21 15:42N 29°56' E 121°53'11139917.7
2017-Sep-21 15:42N 31°41' E 121°12'6673434.6
2017-Sep-21 15:31N 23°03' E 113°18'9651736981.4
2017-Sep-21 15:30N 37°33' E 121°23'9711165544.7
2017-Sep-21 15:30N 22°54' E 113°24'671805151.0
2017-Sep-21 15:30N 31°07' E 121°54'5059653.7
2017-Sep-21 15:30N 31°41' E 121°12'4654703.2
2017-Sep-21 15:30N 31°20' E 121°59'3733585.6
2017-Sep-21 15:30N 31°33' E 121°18'4411219.6
2017-Sep-21 15:30N 31°06' E 121°58'439158014.7
2017-Sep-21 15:30N 24°32' E 118°19'926370521.4
2017-Sep-21 15:30N 39°56' E 119°42'50917788.9
2017-Sep-21 15:28N 31°33' E 121°20'1004224.6
2017-Sep-21 15:27N 29°58' E 121°53'4561050.3
2017-Sep-21 15:01N 37°33' E 121°23'7962866287.0
2017-Sep-21 15:00N 24°32' E 118°19'452542182.5
2017-Sep-21 15:00N 31°20' E 121°59'6812450371.2
2017-Sep-21 15:00N 22°55' E 113°27'6691203643.5
2017-Sep-21 15:00N 31°07' E 121°54'1128.0
2017-Sep-21 15:00N 31°07' E 121°56'540162016.4
2017-Sep-21 15:00N 39°56' E 119°42'509366711.3
2017-Sep-21 15:00N 31°33' E 121°18'4815796.4
2017-Sep-21 14:59N 31°05' E 122°04'582156.5
2017-Sep-21 14:58N 31°41' E 121°12'122659.6
2017-Sep-21 14:47N 29°46' E 122°01'4671728.8
2017-Sep-21 14:30N 37°33' E 121°23'965434247.8
2017-Sep-21 14:30N 23°03' E 113°18'153577.9
2017-Sep-21 14:30N 22°53' E 113°30'1071132902.2
2017-Sep-21 14:30N 39°56' E 119°42'540647556.4
2017-Sep-21 14:30N 31°07' E 121°54'1423.8
2017-Sep-21 14:29N 31°08' E 121°53'394990.1
2017-Sep-21 14:29N 31°33' E 121°18'11244978.5
2017-Sep-21 14:29N 29°46' E 122°01'10722667.4
2017-Sep-21 14:28N 31°29' E 121°27'4496262.6
2017-Sep-21 14:24N 24°32' E 118°19'4558950.0
2017-Sep-21 14:21N 31°41' E 121°12'453211.0
2017-Sep-21 14:20N 31°20' E 121°59'5713155.1
2017-Sep-21 14:09N 23°04' E 116°40'5593778.2
2017-Sep-21 14:01N 31°10' E 121°52'667400179.4
2017-Sep-21 14:00N 22°52' E 113°34'9703491398.1
2017-Sep-21 14:00N 37°33' E 121°23'9651157994.2
2017-Sep-21 14:00N 23°03' E 113°18'679611349.2
2017-Sep-21 14:00N 31°20' E 121°59'375167.0
2017-Sep-21 14:00N 31°33' E 121°18'509130969.9
2017-Sep-21 14:00N 39°56' E 119°42'62039866.8
2017-Sep-21 13:59N 29°46' E 122°01'10513475.8
2017-Sep-21 13:58N 31°28' E 121°29'448537404.2
2017-Sep-21 13:58N 24°32' E 118°19'45533425.7
2017-Sep-21 13:57N 31°41' E 121°12'56914026.1
2017-Sep-21 13:55N 23°05' E 116°42'5571370.0
2017-Sep-21 13:31N 31°07' E 121°54'622330.2
2017-Sep-21 13:31N 31°12' E 121°49'3821373522.0
2017-Sep-21 13:31N 37°33' E 121°23'366659157.9
2017-Sep-21 13:30N 31°27' E 121°30'127047.1
2017-Sep-21 13:30N 31°33' E 121°18'663149121.0
2017-Sep-21 13:30N 22°54' E 113°34'172438.8
2017-Sep-21 13:30N 23°03' E 113°18'28994578.6
2017-Sep-21 13:30N 24°32' E 118°19'45556477.3
2017-Sep-21 13:29N 31°41' E 121°12'12218303.2
2017-Sep-21 13:29N 29°46' E 122°01'6207466.7
2017-Sep-21 13:24N 39°56' E 119°42'10209560.0
2017-Sep-21 13:17N 23°08' E 116°44'8983220.1
2017-Sep-21 13:01N 37°33' E 121°23'374672756.1
2017-Sep-21 13:00N 31°20' E 121°59'139662.8
2017-Sep-21 13:00N 31°07' E 121°54'552496515.1
2017-Sep-21 13:00N 23°09' E 116°46'55967064.9
2017-Sep-21 13:00N 31°33' E 121°18'661595134.6
2017-Sep-21 13:00N 22°57' E 113°33'6631193746.5
2017-Sep-21 13:00N 31°25' E 121°31'518466452.1
2017-Sep-21 13:00N 39°56' E 119°42'926107570.0
2017-Sep-21 12:59N 24°32' E 118°19'4552738.9
2017-Sep-21 12:49N 31°41' E 121°12'1222909.3
2017-Sep-21 12:47N 29°46' E 122°01'4671735.9
2017-Sep-21 12:31N 37°33' E 121°23'369663841.8
2017-Sep-21 12:30N 31°24' E 121°32'660791429.1
2017-Sep-21 12:30N 22°59' E 113°34'27627646.4
2017-Sep-21 12:30N 24°32' E 118°19'926333469.3
2017-Sep-21 12:30N 39°56' E 119°42'540647660.1
2017-Sep-21 12:30N 31°07' E 121°54'86820.3
2017-Sep-21 12:30N 31°12' E 121°48'122913.6
2017-Sep-21 12:29N 31°20' E 121°59'3716792.8
2017-Sep-21 12:29N 31°33' E 121°18'664140651.0
2017-Sep-21 12:29N 23°03' E 113°18'66716443.4
2017-Sep-21 12:26N 31°41' E 121°12'1228977.8
2017-Sep-21 12:26N 29°46' E 122°01'4832788.5
2017-Sep-21 12:15N 23°12' E 116°50'48614005.3
2017-Sep-21 12:13N 29°56' E 121°53'6228776.5
2017-Sep-21 12:09N 22°28' E 113°52'6744808.2
2017-Sep-21 12:00N 31°12' E 121°48'658182223.4
2017-Sep-21 12:00N 23°02' E 113°35'1619104.5
2017-Sep-21 12:00N 23°03' E 113°18'664125846.5
2017-Sep-21 12:00N 31°33' E 121°18'3719191.8
2017-Sep-21 12:00N 31°20' E 121°59'1222288.5
2017-Sep-21 12:00N 31°09' E 121°52'222295.0
2017-Sep-21 11:59N 31°21' E 121°31'9710539.1
2017-Sep-21 11:59N 29°49' E 122°05'6187416.3
2017-Sep-21 11:54N 39°56' E 119°42'50039160.5
2017-Sep-21 11:53N 31°41' E 121°12'1116541.3
2017-Sep-21 11:52N 29°56' E 121°53'4848289.9
2017-Sep-21 11:48N 23°14' E 116°53'8902988.0
2017-Sep-21 11:30N 37°33' E 121°23'9601728052.8
2017-Sep-21 11:30N 23°02' E 113°35'163821.2
2017-Sep-21 11:30N 23°03' E 113°18'6671200805.9
2017-Sep-21 11:30N 31°12' E 121°48'53461963.9
2017-Sep-21 11:30N 39°56' E 119°42'52543945.1
2017-Sep-21 11:29N 31°19' E 121°34'295183.7
2017-Sep-21 11:29N 31°41' E 121°12'1117389.2
2017-Sep-21 11:28N 29°56' E 121°53'3343709.7
2017-Sep-21 11:22N 24°39' E 119°55'40715247.6
2017-Sep-21 11:21N 31°13' E 121°48'824691.7
2017-Sep-21 11:20N 29°53' E 122°08'87679.4
2017-Sep-21 11:12N 31°20' E 121°59'3722390.4
2017-Sep-21 11:12N 31°33' E 121°18'6643526.6
2017-Sep-21 11:01N 23°03' E 113°18'6672401658.8
2017-Sep-21 11:01N 31°12' E 121°48'381685413.0
2017-Sep-21 11:00N 37°33' E 121°23'9601152041.6
2017-Sep-21 11:00N 23°02' E 113°35'67047298.7
2017-Sep-21 11:00N 31°20' E 121°59'84438.5
2017-Sep-21 10:48N 29°56' E 121°53'61084401.9
2017-Sep-21 10:48N 39°56' E 119°42'91533602.0
2017-Sep-21 10:46N 24°41' E 119°53'42585071.6
2017-Sep-21 10:46N 31°41' E 121°12'31623.7
2017-Sep-21 10:43N 31°15' E 121°31'861003.4
2017-Sep-21 10:38N 29°54' E 122°07'6307814.8
2017-Sep-21 10:33N 22°28' E 113°52'67618298.7
2017-Sep-21 10:31N 31°20' E 121°41'933005.2
2017-Sep-21 10:31N 31°12' E 121°48'33117859.9
2017-Sep-21 10:30N 31°33' E 121°18'3726868.5
2017-Sep-21 10:30N 31°20' E 121°59'374269106.8
2017-Sep-21 10:30N 37°33' E 121°23'457149665.4
2017-Sep-21 10:30N 29°56' E 121°53'60895229.9
2017-Sep-21 10:30N 23°02' E 113°35'1061636704.4
2017-Sep-21 10:30N 39°56' E 119°42'52955975.0
2017-Sep-21 10:29N 31°15' E 121°30'402180936.3
2017-Sep-21 10:29N 24°42' E 119°53'43828127.9
2017-Sep-21 10:28N 31°58' E 120°27'1513964.5
2017-Sep-21 10:26N 29°54' E 122°07'6301856.1
2017-Sep-21 10:05N 22°28' E 113°52'6758327.5
2017-Sep-21 10:01N 31°22' E 121°37'371445115.5
2017-Sep-21 10:00N 37°33' E 121°23'960157095.7
2017-Sep-21 10:00N 23°02' E 113°35'1061141489.1
2017-Sep-21 10:00N 39°56' E 119°42'479431134.1
2017-Sep-21 10:00N 31°58' E 120°27'8726213.3
2017-Sep-21 09:59N 31°20' E 121°59'1214563.5
2017-Sep-21 09:59N 31°12' E 121°48'3323569.3
2017-Sep-21 09:59N 31°33' E 121°18'416136208.0
2017-Sep-21 09:59N 24°43' E 119°53'3319085.6
2017-Sep-21 09:57N 29°56' E 121°53'12595.3
2017-Sep-21 09:56N 29°54' E 122°07'117993.1
2017-Sep-21 09:49N 31°41' E 121°12'4552785.5
2017-Sep-21 09:39N 24°32' E 118°19'2742926.6
2017-Sep-21 09:33N 22°28' E 113°52'67414988.2
2017-Sep-21 09:31N 31°12' E 121°48'658473751.9
2017-Sep-21 09:30N 23°02' E 113°35'1619174.6
2017-Sep-21 09:30N 23°03' E 113°18'6662396501.9
2017-Sep-21 09:30N 31°24' E 121°32'445145747.1
2017-Sep-21 09:30N 24°32' E 118°19'449323368.8
2017-Sep-21 09:30N 31°33' E 121°18'36080998.1
2017-Sep-21 09:30N 37°33' E 121°23'16445369.2
2017-Sep-21 09:30N 39°56' E 119°42'50034642.0
2017-Sep-21 09:29N 31°41' E 121°12'6779711.7
2017-Sep-21 09:25N 22°28' E 113°52'6303481.2
2017-Sep-21 09:14N 29°54' E 122°07'3811731.2
2017-Sep-21 09:01N 24°32' E 118°19'7962866308.1
2017-Sep-21 09:00N 37°33' E 121°23'374448511.3
2017-Sep-21 09:00N 31°20' E 121°59'1210926.0
2017-Sep-21 09:00N 31°12' E 121°48'53443654.9
2017-Sep-21 09:00N 39°56' E 119°42'1064957705.1
2017-Sep-21 09:00N 23°03' E 113°18'161006.8
2017-Sep-21 08:59N 23°02' E 113°35'65943118.0
2017-Sep-21 08:58N 31°41' E 121°12'10552.8
2017-Sep-21 08:57N 31°33' E 121°18'1077131.6
2017-Sep-21 08:56N 29°54' E 122°07'93340.8
2017-Sep-21 08:39N 31°21' E 121°26'42507.0
2017-Sep-21 08:34N 31°02' E 122°10'4406915.3
2017-Sep-21 08:30N 24°32' E 118°19'7962866287.0
2017-Sep-21 08:30N 37°33' E 121°23'374336378.1
2017-Sep-21 08:30N 31°20' E 121°59'67083214.8
2017-Sep-21 08:30N 23°01' E 113°36'164451.5
2017-Sep-21 08:30N 23°03' E 113°18'10641276959.0
2017-Sep-21 08:30N 39°56' E 119°42'5099307.5
2017-Sep-21 08:26N 31°33' E 121°18'1079169.2
2017-Sep-21 08:26N 29°54' E 122°07'1171363.9
2017-Sep-21 08:21N 31°41' E 121°12'621960.6
2017-Sep-21 08:19N 31°03' E 122°08'4401454.7
2017-Sep-21 08:01N 24°32' E 118°19'4411586875.5
2017-Sep-21 08:00N 31°12' E 121°48'3811370804.4
2017-Sep-21 08:00N 37°33' E 121°23'9603457341.1
2017-Sep-21 08:00N 23°01' E 113°36'6701206598.5
2017-Sep-21 08:00N 31°20' E 121°59'679611345.2
2017-Sep-21 08:00N 23°03' E 113°18'671201441.9
2017-Sep-21 08:00N 31°04' E 122°05'54565400.6
2017-Sep-21 08:00N 39°56' E 119°42'5091833578.0
2017-Sep-21 08:00N 31°33' E 121°18'1071598.0
2017-Sep-21 07:56N 29°54' E 122°07'117652.7
2017-Sep-21 07:45N 31°41' E 121°12'1146.3
2017-Sep-21 07:31N 31°32' E 121°19'4491616679.0
2017-Sep-21 07:30N 24°32' E 118°19'7962866287.0
2017-Sep-21 07:30N 37°33' E 121°23'374448504.1
2017-Sep-21 07:30N 31°20' E 121°59'670120658.2
2017-Sep-21 07:30N 23°01' E 113°36'1619221.5
2017-Sep-21 07:30N 23°03' E 113°18'1064159616.7
2017-Sep-21 07:30N 39°56' E 119°42'6139434.6
2017-Sep-21 07:26N 29°54' E 122°07'1171243.8
2017-Sep-21 07:20N 31°41' E 121°12'42129.5
2017-Sep-21 07:01N 31°12' E 121°48'31113168.4
2017-Sep-21 07:01N 31°32' E 121°19'40144690.1
2017-Sep-21 07:00N 31°07' E 121°56'387696089.7
2017-Sep-21 07:00N 37°33' E 121°23'965868475.3
2017-Sep-21 07:00N 23°03' E 113°18'679271694.4
2017-Sep-21 07:00N 31°20' E 121°59'452406636.9
2017-Sep-21 07:00N 24°32' E 118°19'4552360.1
2017-Sep-21 06:49N 31°41' E 121°12'50030018.6
2017-Sep-21 06:48N 39°56' E 119°42'106254593.2
2017-Sep-21 06:46N 23°01' E 113°36'61713139.5
2017-Sep-21 06:44N 29°54' E 122°07'80364.3
2017-Sep-21 06:30N 31°13' E 121°48'381685283.5
2017-Sep-21 06:30N 37°33' E 121°23'9603457301.3
2017-Sep-21 06:30N 23°01' E 113°36'6701206581.9
2017-Sep-21 06:30N 31°20' E 121°59'6792445249.7
2017-Sep-21 06:30N 23°03' E 113°18'667480539.5
2017-Sep-21 06:30N 31°09' E 121°52'364670.2
2017-Sep-21 06:30N 31°32' E 121°19'510141228.1
2017-Sep-21 06:30N 39°56' E 119°42'500200124.2
2017-Sep-21 06:29N 31°41' E 121°12'1181915.0
2017-Sep-21 06:26N 29°54' E 122°08'381904.0
2017-Sep-21 06:01N 24°32' E 118°19'796955429.0
2017-Sep-21 06:00N 37°33' E 121°23'374448504.1
2017-Sep-21 06:00N 31°20' E 121°59'6791222698.5
2017-Sep-21 06:00N 23°03' E 113°18'667800678.7
2017-Sep-21 06:00N 31°13' E 121°48'26168.7
2017-Sep-21 06:00N 31°12' E 121°50'659107764.7
2017-Sep-21 06:00N 23°01' E 113°35'1062224788.5
2017-Sep-21 06:00N 39°56' E 119°42'51070621.1
2017-Sep-21 05:59N 31°32' E 121°20'111085.2
2017-Sep-21 05:59N 31°41' E 121°12'51812353.1
2017-Sep-21 05:56N 23°39' E 117°36'4422126.6
2017-Sep-21 05:44N 29°50' E 122°06'12141.4
2017-Sep-21 05:38N 29°56' E 121°53'3762878.6
2017-Sep-21 05:31N 24°32' E 118°19'441793543.8
2017-Sep-21 05:30N 31°13' E 121°48'6581184220.7
2017-Sep-21 05:30N 23°02' E 113°36'1611495.3
2017-Sep-21 05:30N 23°03' E 113°18'679349323.7
2017-Sep-21 05:30N 31°20' E 121°59'513307964.6
2017-Sep-21 05:30N 23°42' E 117°39'853341304.2
2017-Sep-21 05:30N 37°33' E 121°23'16428085.7
2017-Sep-21 05:30N 39°56' E 119°42'479574985.0
2017-Sep-21 05:30N 31°58' E 120°19'874079.7
2017-Sep-21 05:28N 31°13' E 121°47'861967.7
2017-Sep-21 05:26N 29°48' E 122°03'112690.2
2017-Sep-21 05:16N 31°33' E 121°18'1073.3
2017-Sep-21 05:08N 31°41' E 121°12'42346.6
2017-Sep-21 05:01N 31°13' E 121°48'441529016.2
2017-Sep-21 05:00N 24°32' E 118°19'58105260.2
2017-Sep-21 05:00N 23°44' E 117°42'850437172.6
2017-Sep-21 05:00N 37°33' E 121°23'341111566.9
2017-Sep-21 05:00N 31°56' E 120°16'649389434.5
2017-Sep-21 05:00N 23°03' E 113°18'169612.4
2017-Sep-21 05:00N 23°02' E 113°36'1061212212.1
2017-Sep-21 05:00N 39°56' E 119°42'50991678.9
2017-Sep-21 04:59N 31°33' E 121°18'11310677.8
2017-Sep-21 04:59N 29°46' E 122°00'1223733.4
2017-Sep-21 04:57N 31°41' E 121°12'411791.3
2017-Sep-21 04:55N 31°13' E 121°47'380919.1
2017-Sep-21 04:31N 37°33' E 121°23'7962866287.0
2017-Sep-21 04:31N 24°32' E 118°19'4411587048.6
2017-Sep-21 04:30N 31°13' E 121°48'1243685.4
2017-Sep-21 04:30N 31°20' E 121°59'6701205903.4
2017-Sep-21 04:30N 23°02' E 113°36'65829630.1
2017-Sep-21 04:29N 31°41' E 121°12'12223187.3
2017-Sep-21 04:29N 29°46' E 122°00'889898.3
2017-Sep-21 04:28N 31°13' E 121°47'66734322.8
2017-Sep-21 04:27N 23°03' E 113°18'106462800.7
2017-Sep-21 04:26N 39°56' E 119°42'50996504.1
2017-Sep-21 04:26N 31°33' E 121°18'4491067.2
2017-Sep-21 04:01N 24°32' E 118°19'274247033.4
2017-Sep-21 04:00N 23°02' E 113°36'6702411806.8
2017-Sep-21 04:00N 31°20' E 121°59'127276.4
2017-Sep-21 04:00N 31°13' E 121°48'38145682.4
2017-Sep-21 04:00N 37°33' E 121°23'46825509.7
2017-Sep-21 03:59N 29°46' E 122°00'8811732.1
2017-Sep-21 03:58N 31°13' E 121°47'411749.1
2017-Sep-21 03:57N 31°41' E 121°12'50040024.8
2017-Sep-21 03:56N 39°56' E 119°42'50913383.8
2017-Sep-21 03:54N 31°33' E 121°18'4241717.1
2017-Sep-21 03:39N 24°49' E 118°53'7755491.9
2017-Sep-21 03:31N 37°33' E 121°23'3811370471.3
2017-Sep-21 03:31N 31°13' E 121°48'441793543.8
2017-Sep-21 03:30N 24°32' E 118°19'274247033.4
2017-Sep-21 03:30N 23°02' E 113°36'65833862.3
2017-Sep-21 03:29N 31°41' E 121°12'12212236.0
2017-Sep-21 03:29N 29°46' E 122°00'8813199.5
2017-Sep-21 03:28N 31°13' E 121°47'53314749.2
2017-Sep-21 03:26N 39°56' E 119°42'50910186.5
2017-Sep-21 03:23N 31°33' E 121°18'6812233.8
2017-Sep-21 03:05N 22°46' E 113°13'98313827.0
2017-Sep-21 03:01N 37°33' E 121°23'7961433143.5
2017-Sep-21 03:00N 24°32' E 118°19'452813273.7
2017-Sep-21 03:00N 31°20' E 121°59'377463.5
2017-Sep-21 03:00N 31°33' E 121°18'681163429.0
2017-Sep-21 03:00N 22°46' E 113°13'68426188.9
2017-Sep-21 02:58N 31°13' E 121°47'53314098.5
2017-Sep-21 02:56N 39°56' E 119°42'6212412.3
2017-Sep-21 02:41N 29°46' E 122°00'1222019.1
2017-Sep-21 02:37N 31°41' E 121°12'6678424.0
2017-Sep-21 02:32N 23°03' E 113°18'6210.7
2017-Sep-21 02:31N 23°05' E 113°24'961864985.0
2017-Sep-21 02:31N 37°33' E 121°23'3601295969.3
2017-Sep-21 02:31N 31°33' E 121°18'3744780.8
2017-Sep-21 02:30N 31°20' E 121°59'127276.4
2017-Sep-21 02:30N 31°13' E 121°48'441132257.3
2017-Sep-21 02:30N 24°32' E 118°19'28315446.6
2017-Sep-21 02:29N 23°05' E 113°24'61044.1
2017-Sep-21 02:29N 23°03' E 113°18'66337886.4
2017-Sep-21 02:28N 31°21' E 121°30'52219382.9
2017-Sep-21 02:26N 39°56' E 119°42'50020706.0
2017-Sep-21 02:25N 31°41' E 121°12'1223794.6
2017-Sep-21 02:23N 29°46' E 122°00'8815085.2
2017-Sep-21 02:22N 31°13' E 121°47'3801045.5
2017-Sep-21 02:01N 37°33' E 121°23'3811370492.8
2017-Sep-21 02:01N 31°13' E 121°48'658789469.7
2017-Sep-21 02:00N 23°02' E 113°36'1611534.9
2017-Sep-21 02:00N 23°03' E 113°18'28980042.0
2017-Sep-21 02:00N 24°32' E 118°19'452406636.9
2017-Sep-21 02:00N 31°20' E 121°59'376717.1
2017-Sep-21 02:00N 31°33' E 121°18'321301.0
2017-Sep-21 01:58N 31°13' E 121°47'4174121.7
2017-Sep-21 01:58N 31°41' E 121°12'66291674.9
2017-Sep-21 01:58N 23°05' E 113°24'106137077.8
2017-Sep-21 01:56N 39°56' E 119°42'62110637.2
2017-Sep-21 01:53N 29°46' E 122°00'62817401.7
2017-Sep-21 01:50N 22°47' E 113°18'9802952.4
2017-Sep-21 01:31N 37°33' E 121°23'3811370536.0
2017-Sep-21 01:31N 31°13' E 121°48'33117554.2
2017-Sep-21 01:30N 31°33' E 121°18'6561180047.9
2017-Sep-21 01:30N 23°02' E 113°36'6701205903.4
2017-Sep-21 01:30N 31°20' E 121°59'690165684.2
2017-Sep-21 01:30N 22°48' E 113°19'679116341.9
2017-Sep-21 01:30N 31°41' E 121°12'667342982.4
2017-Sep-21 01:30N 23°03' E 113°18'66728264.9
2017-Sep-21 01:28N 31°13' E 121°47'66238459.5
2017-Sep-21 01:27N 23°05' E 113°24'106154557.3
2017-Sep-21 01:26N 39°56' E 119°42'164384.5
2017-Sep-21 01:01N 37°33' E 121°23'381685289.6
2017-Sep-21 01:00N 31°13' E 121°48'1210928.1
2017-Sep-21 01:00N 31°20' E 121°59'679815088.7
2017-Sep-21 01:00N 23°03' E 113°18'162218.3
2017-Sep-21 01:00N 23°02' E 113°36'656472002.0
2017-Sep-21 01:00N 31°33' E 121°18'44938496.3
2017-Sep-21 00:59N 24°32' E 118°19'37051280.9
2017-Sep-21 00:59N 29°46' E 122°00'12273364.7
2017-Sep-21 00:59N 31°41' E 121°12'417072.6
2017-Sep-21 00:58N 31°13' E 121°47'53314638.7
2017-Sep-21 00:56N 39°56' E 119°42'1079168913.3
2017-Sep-21 00:56N 22°47' E 113°21'6751607.2
2017-Sep-21 00:30N 31°33' E 121°18'3601295969.3
2017-Sep-21 00:30N 37°33' E 121°23'381195810.7
2017-Sep-21 00:30N 31°12' E 121°48'658473722.2
2017-Sep-21 00:30N 23°02' E 113°36'6702412005.4
2017-Sep-21 00:30N 31°20' E 121°59'943529.8
2017-Sep-21 00:29N 29°46' E 122°00'8814396.6
2017-Sep-21 00:28N 31°13' E 121°47'415712.5
2017-Sep-21 00:28N 31°41' E 121°12'50017156.0
2017-Sep-21 00:26N 39°56' E 119°42'1064153232.0
2017-Sep-21 00:26N 23°03' E 113°18'2693319.2
2017-Sep-21 00:21N 24°07' E 118°04'4701384.4
2017-Sep-21 00:00N 31°12' E 121°48'658197384.4
2017-Sep-21 00:00N 23°02' E 113°36'6701206019.2
2017-Sep-21 00:00N 31°20' E 121°59'37134342.4
2017-Sep-21 00:00N 31°33' E 121°18'476342477.2
2017-Sep-21 00:00N 24°09' E 118°05'822328729.0
2017-Sep-21 00:00N 37°33' E 121°23'979103704.5
2017-Sep-20 23:59N 22°44' E 113°26'62958051.5
2017-Sep-20 23:59N 29°48' E 122°04'8610668.1
2017-Sep-20 23:58N 31°13' E 121°47'667150167.9
2017-Sep-20 23:58N 23°03' E 113°18'106433024.6
2017-Sep-20 23:56N 39°56' E 119°42'5002625.9
2017-Sep-20 23:45N 31°41' E 121°12'3521493.6
2017-Sep-20 23:31N 37°33' E 121°23'381685359.0
2017-Sep-20 23:30N 31°12' E 121°48'6581184298.2
2017-Sep-20 23:30N 23°02' E 113°36'6701206010.9
2017-Sep-20 23:30N 31°20' E 121°59'476856148.0
2017-Sep-20 23:30N 24°11' E 118°07'27314667.9
2017-Sep-20 23:29N 23°03' E 113°18'66740045.3
2017-Sep-20 23:28N 31°13' E 121°47'53314751.3
2017-Sep-20 23:26N 39°56' E 119°42'61610757.5
2017-Sep-20 23:23N 29°52' E 122°08'1196491.1
2017-Sep-20 23:22N 31°41' E 121°12'3521002.8
2017-Sep-20 23:01N 37°33' E 121°23'374192216.0
2017-Sep-20 23:00N 31°20' E 121°59'128735.4
2017-Sep-20 23:00N 31°12' E 121°48'3323566.6
2017-Sep-20 23:00N 31°33' E 121°18'47089037.1
2017-Sep-20 23:00N 24°13' E 118°09'27618369.2
2017-Sep-20 22:59N 23°03' E 113°18'66753390.5
2017-Sep-20 22:58N 31°13' E 121°47'53314865.6
2017-Sep-20 22:56N 39°56' E 119°42'500138567.9
2017-Sep-20 22:56N 31°41' E 121°12'11623292.6
2017-Sep-20 22:56N 29°55' E 122°07'131378.2
2017-Sep-20 22:55N 29°58' E 121°53'75182.7
2017-Sep-20 22:30N 31°12' E 121°48'381456920.4
2017-Sep-20 22:30N 37°33' E 121°23'360323981.5
2017-Sep-20 22:30N 31°33' E 121°18'3722392.8
2017-Sep-20 22:30N 31°20' E 121°59'47026410.9
2017-Sep-20 22:29N 24°15' E 118°13'45930604.2
2017-Sep-20 22:28N 31°13' E 121°47'412395.6
2017-Sep-20 22:27N 31°41' E 121°12'5004169.9
2017-Sep-20 22:20N 39°56' E 119°42'61391950.4
2017-Sep-20 22:20N 29°54' E 122°01'79248.6
2017-Sep-20 22:00N 31°12' E 121°48'128735.4
2017-Sep-20 22:00N 31°20' E 121°59'679271710.8
2017-Sep-20 22:00N 23°03' E 113°18'6681202278.2
2017-Sep-20 22:00N 31°38' E 121°17'361109.0
2017-Sep-20 21:58N 31°13' E 121°47'53314527.9
2017-Sep-20 21:56N 39°56' E 119°42'5005647.0
2017-Sep-20 21:51N 31°41' E 121°12'0 0.0
2017-Sep-20 21:31N 31°41' E 121°12'3521266596.8
2017-Sep-20 21:31N 37°33' E 121°23'37453820.5
2017-Sep-20 21:30N 31°20' E 121°59'6791222698.5
2017-Sep-20 21:30N 23°03' E 113°18'66722667.0
2017-Sep-20 21:28N 31°13' E 121°47'342137.6
2017-Sep-20 21:27N 31°35' E 121°17'50724328.1
2017-Sep-20 21:26N 39°56' E 119°42'5341252.1
2017-Sep-20 21:01N 31°12' E 121°48'3811370761.2
2017-Sep-20 21:01N 37°33' E 121°23'965434235.2
2017-Sep-20 21:00N 23°03' E 113°18'66456930.2
2017-Sep-20 21:00N 31°33' E 121°18'373731.7
2017-Sep-20 20:59N 31°20' E 121°59'12883.6
2017-Sep-20 20:58N 31°13' E 121°47'8212331.9
2017-Sep-20 20:58N 31°58' E 120°27'47916269.4
2017-Sep-20 20:56N 39°56' E 119°42'5002958.0
2017-Sep-20 20:46N 31°41' E 121°12'6547066.1
2017-Sep-20 20:40N 23°06' E 113°38'6533971.4
2017-Sep-20 20:31N 31°12' E 121°48'3811370782.8
2017-Sep-20 20:31N 37°33' E 121°23'374192216.0
2017-Sep-20 20:30N 31°20' E 121°59'67924211.7
2017-Sep-20 20:29N 23°03' E 113°18'66788987.8
2017-Sep-20 20:28N 31°13' E 121°47'653195906.7
2017-Sep-20 20:28N 23°06' E 113°38'65024391.6
2017-Sep-20 20:26N 31°33' E 121°18'50987313.2
2017-Sep-20 20:26N 39°56' E 119°42'47942062.9
2017-Sep-20 20:25N 31°58' E 120°27'4861883.0
2017-Sep-20 20:10N 24°08' E 118°10'48157708.6
2017-Sep-20 20:09N 31°41' E 121°12'3522367.5
2017-Sep-20 20:01N 37°33' E 121°23'955429654.0
2017-Sep-20 20:00N 23°06' E 113°38'653783318.9
2017-Sep-20 20:00N 31°12' E 121°48'122428.8
2017-Sep-20 20:00N 31°20' E 121°59'476107122.0
2017-Sep-20 20:00N 24°09' E 118°10'47428893.3
2017-Sep-20 19:59N 31°33' E 121°18'323702.6
2017-Sep-20 19:58N 31°13' E 121°47'412397.8
2017-Sep-20 19:57N 31°41' E 121°12'50025734.0
2017-Sep-20 19:56N 39°56' E 119°42'106414621.3
2017-Sep-20 19:52N 23°03' E 113°18'6212771.1
2017-Sep-20 19:38N 29°54' E 121°59'86667.9
2017-Sep-20 19:31N 31°20' E 121°59'37461159.6
2017-Sep-20 19:30N 37°33' E 121°23'95552078.7
2017-Sep-20 19:29N 23°06' E 113°38'653293962.4
2017-Sep-20 19:29N 31°41' E 121°12'413917.3
2017-Sep-20 19:28N 31°13' E 121°47'46118426.4
2017-Sep-20 19:27N 24°14' E 118°11'94577297.7
2017-Sep-20 19:26N 39°56' E 119°42'5341252.1
2017-Sep-20 19:00N 31°12' E 121°48'456820961.6
2017-Sep-20 19:00N 24°19' E 118°11'467560524.3
2017-Sep-20 19:00N 31°20' E 121°59'37467275.6
2017-Sep-20 19:00N 37°33' E 121°23'9551718506.7
2017-Sep-20 19:00N 23°06' E 113°38'65322387.6
2017-Sep-20 18:58N 31°13' E 121°47'53314418.9
2017-Sep-20 18:56N 39°56' E 119°42'5002544.1
2017-Sep-20 18:44N 31°41' E 121°12'42184.1
2017-Sep-20 18:31N 31°12' E 121°48'454408490.5
2017-Sep-20 18:30N 24°23' E 118°08'465836885.4
2017-Sep-20 18:30N 31°20' E 121°59'6652393189.7
2017-Sep-20 18:30N 23°06' E 113°38'955143208.1
2017-Sep-20 18:30N 37°33' E 121°23'1642520.5
2017-Sep-20 18:26N 39°56' E 119°42'50014643.6
2017-Sep-20 18:24N 31°41' E 121°12'41520.8
2017-Sep-20 18:19N 31°13' E 121°47'1 2.8
2017-Sep-20 18:01N 31°13' E 121°48'454326594.6
2017-Sep-20 18:00N 24°25' E 118°03'806414628.6
2017-Sep-20 18:00N 37°33' E 121°23'38011119.2
2017-Sep-20 17:58N 31°13' E 121°47'66744496.5
2017-Sep-20 17:57N 23°03' E 113°18'106450405.7
2017-Sep-20 17:56N 39°56' E 119°42'105614400.0
2017-Sep-20 17:52N 23°06' E 113°38'6533674.3
2017-Sep-20 17:41N 31°41' E 121°12'111652.6
2017-Sep-20 17:31N 29°56' E 121°53'7713787.4
2017-Sep-20 17:31N 31°13' E 121°48'653293719.2
2017-Sep-20 17:30N 23°06' E 113°38'955132191.3
2017-Sep-20 17:30N 37°33' E 121°23'457164619.8
2017-Sep-20 17:30N 29°56' E 121°53'773130.9
2017-Sep-20 17:28N 31°13' E 121°47'66742905.8
2017-Sep-20 17:27N 23°03' E 113°18'106449113.5
2017-Sep-20 17:26N 39°56' E 119°42'5005772.8
2017-Sep-20 17:21N 31°41' E 121°12'42123.0
2017-Sep-20 17:00N 31°13' E 121°48'38162298.1
2017-Sep-20 17:00N 37°33' E 121°23'95547736.3
2017-Sep-20 16:59N 23°06' E 113°38'65394027.2
2017-Sep-20 16:58N 31°13' E 121°47'667240274.2
2017-Sep-20 16:58N 23°03' E 113°18'66726975.5
2017-Sep-20 16:57N 31°41' E 121°12'50052973.4
2017-Sep-20 16:56N 39°56' E 119°42'9153259.7
2017-Sep-20 16:39N 24°42' E 118°53'4202877.7
2017-Sep-20 16:31N 31°13' E 121°48'3811370514.4
2017-Sep-20 16:30N 37°33' E 121°23'95573127.1
2017-Sep-20 16:30N 23°06' E 113°38'304136902.0
2017-Sep-20 16:30N 24°43' E 118°54'43526537.3
2017-Sep-20 16:29N 31°41' E 121°12'50012088.0
2017-Sep-20 16:26N 39°56' E 119°42'53340795.7
2017-Sep-20 16:25N 31°13' E 121°47'6671951.8
2017-Sep-20 16:05N 23°03' E 113°18'96513158.8
2017-Sep-20 16:00N 37°33' E 121°23'776254101.3
2017-Sep-20 16:00N 24°46' E 118°57'30822168.8
2017-Sep-20 15:59N 23°06' E 113°38'19421.4
2017-Sep-20 15:57N 23°03' E 113°18'1064100808.9
2017-Sep-20 15:56N 39°56' E 119°42'5335409.8
2017-Sep-20 15:50N 31°13' E 121°48'114.1
2017-Sep-20 15:46N 31°13' E 121°47'411054.4
2017-Sep-20 15:44N 31°41' E 121°12'42188.4
2017-Sep-20 15:31N 31°13' E 121°48'381124590.3
2017-Sep-20 15:30N 37°33' E 121°23'77363227.4
2017-Sep-20 15:30N 24°50' E 119°00'330169799.8
2017-Sep-20 15:29N 23°03' E 113°18'1913531.8
2017-Sep-20 15:29N 23°06' E 113°38'65334569.1
2017-Sep-20 15:28N 31°13' E 121°47'53314525.8
2017-Sep-20 15:26N 39°56' E 119°42'5002063.2
2017-Sep-20 15:12N 31°41' E 121°12'42229.3
2017-Sep-20 15:00N 31°13' E 121°48'38140308.0
2017-Sep-20 15:00N 37°33' E 121°23'95537358.4
2017-Sep-20 14:58N 23°06' E 113°38'31675729.0
2017-Sep-20 14:58N 24°53' E 119°04'33414147.0
2017-Sep-20 14:57N 23°03' E 113°18'66721627.0
2017-Sep-20 14:55N 31°41' E 121°12'5006275.9
2017-Sep-20 14:50N 39°56' E 119°42'53340795.7
2017-Sep-20 14:49N 31°13' E 121°47'45614662.9
2017-Sep-20 14:47N 24°24' E 117°59'3932408.8
2017-Sep-20 14:38N 29°54' E 121°59'3172814.9
2017-Sep-20 14:31N 24°54' E 120°01'111218.5
2017-Sep-20 14:00N 24°25' E 118°03'453326432.9
2017-Sep-20 14:00N 31°13' E 121°48'653335683.6
2017-Sep-20 14:00N 23°06' E 113°38'955859243.7
2017-Sep-20 14:00N 37°33' E 121°23'36035026.2
2017-Sep-20 14:00N 31°33' E 121°18'4061460442.7
2017-Sep-20 14:00N 24°53' E 119°60'90315707.5
2017-Sep-20 13:56N 39°56' E 119°42'53343577.7
2017-Sep-20 13:55N 31°13' E 121°47'1 2.2
2017-Sep-20 13:31N 31°13' E 121°48'453326247.4
2017-Sep-20 13:30N 24°24' E 118°06'257463151.5
2017-Sep-20 13:30N 23°06' E 113°38'6501170754.1
2017-Sep-20 13:30N 31°33' E 121°18'36047998.9
2017-Sep-20 13:30N 37°33' E 121°23'1642586.8
2017-Sep-20 13:26N 39°56' E 119°42'53337596.5
2017-Sep-20 13:25N 31°13' E 121°47'39414184.7
2017-Sep-20 13:24N 24°51' E 119°58'4151453.9
2017-Sep-20 13:06N 31°41' E 121°12'4684629.1
2017-Sep-20 13:00N 24°22' E 118°09'454545190.2
2017-Sep-20 13:00N 31°13' E 121°48'395109296.8
2017-Sep-20 13:00N 24°50' E 119°57'766551555.2
2017-Sep-20 13:00N 37°33' E 121°23'95567395.9
2017-Sep-20 12:59N 23°06' E 113°38'65341241.2
2017-Sep-20 12:58N 31°13' E 121°47'3219061.4
2017-Sep-20 12:58N 31°33' E 121°18'10136.0
2017-Sep-20 12:54N 31°41' E 121°12'5008041.9
2017-Sep-20 12:50N 39°56' E 119°42'164497.3
2017-Sep-20 12:30N 37°33' E 121°23'381274107.2
2017-Sep-20 12:30N 31°13' E 121°48'456149246.1
2017-Sep-20 12:30N 24°19' E 118°11'260467577.2
2017-Sep-20 12:30N 23°06' E 113°38'360161790.2
2017-Sep-20 12:30N 24°49' E 119°56'41127885.3
2017-Sep-20 12:29N 31°33' E 121°18'322550.4
2017-Sep-20 12:28N 31°13' E 121°47'53314865.5
2017-Sep-20 12:26N 39°56' E 119°42'5008497.1
2017-Sep-20 12:23N 31°41' E 121°12'1142452.0
2017-Sep-20 12:20N 29°54' E 121°59'79246.4
2017-Sep-20 12:01N 31°12' E 121°48'398159326.9
2017-Sep-20 12:00N 24°47' E 119°54'9988789.0
2017-Sep-20 12:00N 24°16' E 118°11'467336250.9
2017-Sep-20 12:00N 31°33' E 121°18'36068210.0
2017-Sep-20 12:00N 37°33' E 121°23'955381912.4
2017-Sep-20 12:00N 23°06' E 113°38'65323998.8
2017-Sep-20 11:58N 31°41' E 121°12'50014765.8
2017-Sep-20 11:56N 39°56' E 119°42'53342613.9
2017-Sep-20 11:55N 31°13' E 121°47'1 2.2
2017-Sep-20 11:31N 31°12' E 121°48'337362.1
2017-Sep-20 11:30N 31°33' E 121°18'101607.5
2017-Sep-20 11:30N 31°41' E 121°12'653261322.4
2017-Sep-20 11:30N 23°06' E 113°38'259931122.0
2017-Sep-20 11:30N 24°12' E 118°11'81777404.1
2017-Sep-20 11:29N 37°33' E 121°23'45710355.0
2017-Sep-20 11:26N 29°56' E 121°53'610115510.2
2017-Sep-20 11:26N 39°56' E 119°42'53338352.9
2017-Sep-20 11:25N 31°13' E 121°47'66725559.8
2017-Sep-20 11:24N 23°03' E 113°18'3599803.2
2017-Sep-20 11:22N 25°14' E 119°25'39332.1
2017-Sep-20 11:15N 24°45' E 119°53'4001712.2
2017-Sep-20 11:01N 31°12' E 121°48'337362.9
2017-Sep-20 11:00N 31°33' E 121°18'413124007.7
2017-Sep-20 11:00N 24°46' E 119°54'10172609.0
2017-Sep-20 11:00N 24°09' E 118°11'820210931.5
2017-Sep-20 11:00N 37°33' E 121°23'9553437211.8
2017-Sep-20 11:00N 23°06' E 113°38'181839.4
2017-Sep-20 10:59N 23°03' E 113°19'61989080.5
2017-Sep-20 10:59N 29°57' E 121°54'7712034.5
2017-Sep-20 10:58N 31°13' E 121°47'414950.4
2017-Sep-20 10:58N 31°41' E 121°12'39526862.4
2017-Sep-20 10:57N 25°16' E 119°28'88059766.3
2017-Sep-20 10:56N 39°56' E 119°42'5341253.7
2017-Sep-20 10:31N 31°12' E 121°48'3319634.4
2017-Sep-20 10:30N 31°33' E 121°18'6632386442.4
2017-Sep-20 10:30N 23°02' E 113°22'9653472542.9
2017-Sep-20 10:30N 37°33' E 121°23'769213020.4
2017-Sep-20 10:30N 24°47' E 119°55'35934907.7
2017-Sep-20 10:30N 23°06' E 113°38'25676874.3
2017-Sep-20 10:29N 24°06' E 118°10'48264328.5
2017-Sep-20 10:29N 31°41' E 121°12'39361486.0
2017-Sep-20 10:29N 25°18' E 119°32'37589933.1
2017-Sep-20 10:28N 31°13' E 121°47'53314418.4
2017-Sep-20 10:26N 39°56' E 119°42'6121988.1
2017-Sep-20 10:08N 29°54' E 121°59'79669.4
2017-Sep-20 10:01N 31°12' E 121°48'6632387604.8
2017-Sep-20 10:00N 23°03' E 113°25'137596.6
2017-Sep-20 10:00N 23°06' E 113°38'955859456.3
2017-Sep-20 10:00N 37°33' E 121°23'7682764903.3
2017-Sep-20 10:00N 24°48' E 119°56'411134438.9
2017-Sep-20 10:00N 31°33' E 121°18'731526373.3
2017-Sep-20 10:00N 21°47' E 113°09'73224875.0
2017-Sep-20 09:58N 31°13' E 121°47'411441.9
2017-Sep-20 09:57N 31°41' E 121°12'50062118.1
2017-Sep-20 09:56N 39°56' E 119°42'61276028.3
2017-Sep-20 09:56N 29°54' E 121°59'3028060.4
2017-Sep-20 09:53N 25°19' E 119°38'372975.5
2017-Sep-20 09:30N 31°12' E 121°48'653391775.5
2017-Sep-20 09:30N 23°06' E 113°38'81144901.0
2017-Sep-20 09:30N 21°50' E 113°12'10353727242.8
2017-Sep-20 09:30N 37°33' E 121°23'960432121.2
2017-Sep-20 09:30N 23°05' E 113°27'37218080.3
2017-Sep-20 09:29N 24°49' E 119°58'40992114.5
2017-Sep-20 09:29N 31°33' E 121°18'32562.6
2017-Sep-20 09:25N 31°13' E 121°47'5336166.1
2017-Sep-20 09:20N 39°56' E 119°42'5006598.6
2017-Sep-20 09:16N 31°41' E 121°12'114859.9
2017-Sep-20 09:08N 29°54' E 121°59'6755747.2
2017-Sep-20 09:01N 21°53' E 113°12'7251305601.2
2017-Sep-20 09:00N 31°12' E 121°48'1275.0
2017-Sep-20 09:00N 31°13' E 121°47'380455935.7
2017-Sep-20 09:00N 37°33' E 121°23'961182069.9
2017-Sep-20 09:00N 23°03' E 113°30'37146062.1
2017-Sep-20 08:59N 24°51' E 119°59'415747578.5
2017-Sep-20 08:59N 31°41' E 121°12'653784190.2
2017-Sep-20 08:59N 23°06' E 113°38'65186750.6
2017-Sep-20 08:59N 31°33' E 121°18'50910914.2
2017-Sep-20 08:56N 39°56' E 119°42'6121982.8
2017-Sep-20 08:38N 29°54' E 121°59'6155246.0
2017-Sep-20 08:31N 22°60' E 113°31'6621191589.8
2017-Sep-20 08:31N 31°12' E 121°48'677487347.9
2017-Sep-20 08:30N 22°49' E 113°20'246637.7
2017-Sep-20 08:30N 23°06' E 113°38'9551145935.3
2017-Sep-20 08:30N 37°33' E 121°23'38026304.4
2017-Sep-20 08:29N 31°13' E 121°47'323188.3
2017-Sep-20 08:29N 31°33' E 121°18'1003897.5
2017-Sep-20 08:27N 30°00' E 122°01'10910926.8
2017-Sep-20 08:27N 31°41' E 121°12'50066718.7
2017-Sep-20 08:26N 39°56' E 119°42'9577538.7
2017-Sep-20 08:18N 24°02' E 118°10'4075173.7
2017-Sep-20 08:14N 29°54' E 121°59'79357.3
2017-Sep-20 08:01N 31°12' E 121°48'675809849.9
2017-Sep-20 08:00N 22°53' E 113°18'148123.3
2017-Sep-20 08:00N 22°57' E 113°32'966204465.7
2017-Sep-20 08:00N 37°33' E 121°23'9551145928.7
2017-Sep-20 08:00N 23°06' E 113°38'65352256.6
2017-Sep-20 07:59N 31°13' E 121°47'41900.9
2017-Sep-20 07:57N 31°41' E 121°12'486218739.6
2017-Sep-20 07:56N 24°02' E 118°10'957181327.9
2017-Sep-20 07:56N 39°56' E 119°42'6121986.3
2017-Sep-20 07:38N 29°54' E 121°59'6175229.0
2017-Sep-20 07:30N 22°54' E 113°34'6631193091.1
2017-Sep-20 07:30N 31°33' E 121°18'48069155.0
2017-Sep-20 07:30N 24°02' E 118°10'827992834.4
2017-Sep-20 07:30N 37°33' E 121°23'955491115.1
2017-Sep-20 07:30N 23°06' E 113°38'65363555.8
2017-Sep-20 07:29N 31°13' E 121°47'411791.1
2017-Sep-20 07:28N 31°41' E 121°12'50016526.6
2017-Sep-20 07:26N 39°56' E 119°42'6125667.9
2017-Sep-20 07:20N 29°54' E 121°59'6715575.0
2017-Sep-20 07:12N 22°05' E 113°05'7193637.3
2017-Sep-20 07:00N 31°12' E 121°48'6672399738.5
2017-Sep-20 07:00N 22°52' E 113°34'6652392486.6
2017-Sep-20 07:00N 31°33' E 121°18'6661199067.5
2017-Sep-20 07:00N 22°55' E 113°27'5146260.4
2017-Sep-20 07:00N 22°07' E 113°06'10211838275.5
2017-Sep-20 07:00N 37°33' E 121°23'8272978503.3
2017-Sep-20 07:00N 24°02' E 118°10'25516413.9
2017-Sep-20 06:59N 23°06' E 113°38'65347990.4
2017-Sep-20 06:59N 31°13' E 121°47'66217534.1
2017-Sep-20 06:56N 23°05' E 113°24'1061318251.1
2017-Sep-20 06:56N 39°56' E 119°42'61276027.6
2017-Sep-20 06:56N 29°54' E 121°59'5315.1
2017-Sep-20 06:55N 29°56' E 121°53'1112295.1
2017-Sep-20 06:52N 31°41' E 121°12'7152025.9
2017-Sep-20 06:31N 22°12' E 113°06'7141285473.3
2017-Sep-20 06:30N 31°12' E 121°48'33117873.3
2017-Sep-20 06:30N 31°33' E 121°18'665798073.1
2017-Sep-20 06:30N 22°53' E 113°31'1526415.7
2017-Sep-20 06:30N 23°06' E 113°38'1863047.9
2017-Sep-20 06:30N 22°49' E 113°36'972124942.6
2017-Sep-20 06:30N 37°33' E 121°23'827248208.6
2017-Sep-20 06:30N 24°02' E 118°10'26610755.2
2017-Sep-20 06:28N 23°06' E 113°27'61271122.1
2017-Sep-20 06:28N 29°57' E 121°54'60922828.2
2017-Sep-20 06:26N 39°56' E 119°42'50014643.8
2017-Sep-20 06:24N 31°41' E 121°12'411636.7
2017-Sep-20 06:23N 31°13' E 121°47'3491112.9
2017-Sep-20 06:04N 25°43' E 119°40'3496573.3
2017-Sep-20 06:01N 31°12' E 121°48'710232422.6
2017-Sep-20 06:00N 22°14' E 113°09'5323720.3
2017-Sep-20 06:00N 23°03' E 113°30'961432284.4
2017-Sep-20 06:00N 37°33' E 121°23'827425500.5
2017-Sep-20 06:00N 24°02' E 118°10'26119145.4
2017-Sep-20 05:59N 22°46' E 113°38'66970791.6
2017-Sep-20 05:59N 31°13' E 121°47'411262.4
2017-Sep-20 05:57N 31°41' E 121°12'50058101.3
2017-Sep-20 05:56N 39°56' E 119°42'853180615.5
2017-Sep-20 05:56N 25°43' E 119°40'3608696.9
2017-Sep-20 05:53N 31°33' E 121°18'3385.9
2017-Sep-20 05:30N 31°13' E 121°48'669219046.7
2017-Sep-20 05:30N 22°44' E 113°40'260186941.7
2017-Sep-20 05:30N 24°02' E 118°10'25529644.8
2017-Sep-20 05:30N 23°06' E 113°38'653156779.2
2017-Sep-20 05:29N 31°13' E 121°47'41901.9
2017-Sep-20 05:27N 31°41' E 121°12'50047399.0
2017-Sep-20 05:26N 39°56' E 119°42'110915840.4
2017-Sep-20 05:22N 22°19' E 113°11'7061981.7
2017-Sep-20 05:01N 31°13' E 121°48'381228413.5
2017-Sep-20 05:00N 37°33' E 121°23'970349087.3
2017-Sep-20 05:00N 22°52' E 113°34'26325553.3
2017-Sep-20 05:00N 24°02' E 118°10'29222847.9
2017-Sep-20 04:59N 22°21' E 113°12'70427240.6
2017-Sep-20 04:57N 31°13' E 121°47'413456.9
2017-Sep-20 04:57N 31°41' E 121°12'50056284.9
2017-Sep-20 04:56N 39°56' E 119°42'5331245.5
2017-Sep-20 04:30N 31°13' E 121°48'381685251.2
2017-Sep-20 04:30N 37°33' E 121°23'827110315.5
2017-Sep-20 04:30N 24°02' E 118°10'48658338.0
2017-Sep-20 04:29N 31°41' E 121°12'5009096.7
2017-Sep-20 04:26N 39°56' E 119°42'50948252.1
2017-Sep-20 04:25N 31°33' E 121°18'3378.0
2017-Sep-20 04:00N 31°13' E 121°48'472154439.9
2017-Sep-20 04:00N 24°02' E 118°10'47210063.4
2017-Sep-20 03:57N 31°13' E 121°47'321708.4
2017-Sep-20 03:56N 31°33' E 121°18'509305596.3
2017-Sep-20 03:56N 39°56' E 119°42'50021442.1
2017-Sep-20 03:55N 31°41' E 121°12'6996784.3
2017-Sep-20 03:49N 22°28' E 113°11'6982324.0
2017-Sep-20 03:30N 31°13' E 121°48'38191365.4
2017-Sep-20 03:30N 37°33' E 121°23'99823642.4
2017-Sep-20 03:28N 22°30' E 113°10'69778465.5
2017-Sep-20 03:27N 31°13' E 121°47'53329051.2
2017-Sep-20 03:26N 39°56' E 119°42'5095330.2
2017-Sep-20 03:20N 31°33' E 121°18'4853728.9
2017-Sep-20 03:13N 23°58' E 118°09'4762374.3
2017-Sep-20 03:01N 31°13' E 121°48'1485.3
2017-Sep-20 03:00N 31°13' E 121°47'380195362.7
2017-Sep-20 03:00N 37°33' E 121°23'83337500.6
2017-Sep-20 02:59N 23°56' E 118°09'48611290.4
2017-Sep-20 02:56N 31°33' E 121°18'509122238.5
2017-Sep-20 02:56N 39°56' E 119°42'4795389.2
2017-Sep-20 02:51N 31°58' E 120°27'5553247.5
2017-Sep-20 02:41N 22°58' E 118°04'5495644.2
2017-Sep-20 02:35N 31°41' E 121°12'1112912.4
2017-Sep-20 02:32N 29°56' E 121°53'762414.9
2017-Sep-20 02:31N 31°13' E 121°48'7610976.3
2017-Sep-20 02:30N 29°56' E 121°53'110132591.4
2017-Sep-20 02:30N 31°41' E 121°12'35246903.0
2017-Sep-20 02:30N 37°33' E 121°23'38039072.5
2017-Sep-20 02:29N 31°13' E 121°47'53310956.4
2017-Sep-20 02:26N 39°56' E 119°42'50913286.8
2017-Sep-20 02:24N 31°33' E 121°18'1 3.3
2017-Sep-20 02:00N 31°32' E 121°19'3111315.1
2017-Sep-20 02:00N 31°13' E 121°48'38168524.0
2017-Sep-20 02:00N 37°33' E 121°23'38022792.3
2017-Sep-20 01:59N 31°13' E 121°47'53310894.2
2017-Sep-20 01:56N 39°56' E 119°42'96929573.3
2017-Sep-20 01:54N 23°50' E 118°08'4252762.8
2017-Sep-20 01:45N 29°60' E 122°03'100415.6
2017-Sep-20 01:30N 31°32' E 121°19'495445197.5
2017-Sep-20 01:30N 23°48' E 118°08'427307680.7
2017-Sep-20 01:30N 29°60' E 122°03'4541634109.0
2017-Sep-20 01:30N 37°33' E 121°23'38041441.2
2017-Sep-20 01:30N 31°13' E 121°47'827780.8
2017-Sep-20 01:29N 31°58' E 120°27'4799372.6
2017-Sep-20 01:26N 39°56' E 119°42'6125697.2
2017-Sep-20 01:20N 29°54' E 121°59'114463.0
2017-Sep-20 01:05N 31°41' E 121°12'42587.6
2017-Sep-20 01:00N 31°12' E 121°48'74132628.9
2017-Sep-20 01:00N 29°60' E 122°03'45449519.1
2017-Sep-20 01:00N 37°33' E 121°23'33886794.8
2017-Sep-20 01:00N 31°58' E 120°27'50952366.0
2017-Sep-20 00:59N 23°44' E 118°07'97519497.9
2017-Sep-20 00:56N 39°56' E 119°42'50064335.9
2017-Sep-20 00:56N 31°41' E 121°12'411349.0
2017-Sep-20 00:54N 31°13' E 121°47'4414001.8
2017-Sep-20 00:47N 24°32' E 118°19'4411588.4
2017-Sep-20 00:31N 31°12' E 121°48'38132637.5
2017-Sep-20 00:30N 37°33' E 121°23'380683931.2
2017-Sep-20 00:30N 31°13' E 121°47'7514167.5
2017-Sep-20 00:29N 29°60' E 122°03'1443997.7
2017-Sep-20 00:27N 31°58' E 120°27'42531.2
2017-Sep-20 00:23N 31°41' E 121°12'50012009.2
2017-Sep-20 00:20N 39°56' E 119°42'9264194.6
2017-Sep-20 00:07N 24°32' E 118°19'3774317.4
2017-Sep-20 00:02N 29°54' E 121°59'46025070.9
2017-Sep-20 00:00N 37°33' E 121°23'38032567.9
2017-Sep-20 00:00N 31°13' E 121°47'7810811.1
2017-Sep-19 23:59N 29°56' E 122°04'38110472.1
2017-Sep-19 23:57N 24°32' E 118°19'92650525.6
2017-Sep-19 23:56N 39°56' E 119°42'4797039.0
2017-Sep-19 23:52N 31°58' E 120°27'5036336.1
2017-Sep-19 23:52N 31°33' E 121°18'10447.9
2017-Sep-19 23:51N 31°41' E 121°12'1146753.3
2017-Sep-19 23:50N 29°54' E 121°59'79248.7
2017-Sep-19 23:31N 31°12' E 121°48'381228460.2
2017-Sep-19 23:30N 37°33' E 121°23'460413956.1
2017-Sep-19 23:30N 29°54' E 122°08'38126904.8
2017-Sep-19 23:29N 24°32' E 118°19'92616187.9
2017-Sep-19 23:26N 39°56' E 119°42'50020946.1
2017-Sep-19 23:25N 31°41' E 121°12'422394.4
2017-Sep-19 23:24N 31°58' E 120°27'50173.4
2017-Sep-19 23:06N 31°33' E 121°18'33350.7
2017-Sep-19 23:01N 31°12' E 121°48'13021.3
2017-Sep-19 23:00N 31°13' E 121°48'380136805.4
2017-Sep-19 23:00N 37°33' E 121°23'79657326.2
2017-Sep-19 22:59N 24°32' E 118°19'92616266.9
2017-Sep-19 22:56N 39°56' E 119°42'50020015.4
2017-Sep-19 22:55N 31°41' E 121°12'10357.4
2017-Sep-19 22:53N 31°33' E 121°18'50523.6
2017-Sep-19 22:47N 31°58' E 120°27'147569.2
2017-Sep-19 22:32N 29°54' E 121°59'794310.0
2017-Sep-19 22:31N 31°12' E 121°48'0708.7
2017-Sep-19 22:30N 31°13' E 121°48'381685088.2
2017-Sep-19 22:30N 37°33' E 121°23'3386075.5
2017-Sep-19 22:27N 31°58' E 120°27'47927815.1
2017-Sep-19 22:26N 39°56' E 119°42'92616927.4
2017-Sep-19 22:23N 24°32' E 118°19'45537224.6
2017-Sep-19 22:22N 31°41' E 121°12'1142764.8
2017-Sep-19 22:20N 29°54' E 121°59'83259.6
2017-Sep-19 22:01N 31°16' E 121°45'27938.7
2017-Sep-19 22:00N 31°14' E 121°47'37990997.9
2017-Sep-19 22:00N 37°33' E 121°23'796573261.6
2017-Sep-19 22:00N 24°32' E 118°19'45534123.0
2017-Sep-19 21:59N 31°41' E 121°12'421134.2
2017-Sep-19 21:57N 31°58' E 120°27'47927373.9
2017-Sep-19 21:56N 39°56' E 119°42'61291867.5
2017-Sep-19 21:56N 29°54' E 121°59'6648107.7
2017-Sep-19 21:51N 22°13' E 113°07'66353034.6
2017-Sep-19 21:50N 29°57' E 121°54'82251.6
2017-Sep-19 21:31N 31°18' E 121°43'715183854.9
2017-Sep-19 21:30N 22°13' E 113°05'101670355.9
2017-Sep-19 21:29N 37°33' E 121°23'33813652.9
2017-Sep-19 21:28N 31°58' E 120°27'47922994.1
2017-Sep-19 21:27N 39°56' E 119°42'5007764.6
2017-Sep-19 21:23N 31°41' E 121°12'4552346.5
2017-Sep-19 21:11N 24°32' E 118°19'4602591.9
2017-Sep-19 21:01N 31°58' E 120°27'7488688.0
2017-Sep-19 21:00N 31°20' E 121°41'37356015.7
2017-Sep-19 21:00N 37°33' E 121°23'79618612.4
2017-Sep-19 20:58N 24°32' E 118°19'92638330.0
2017-Sep-19 20:56N 39°56' E 119°42'5001685.1
2017-Sep-19 20:38N 31°41' E 121°12'25191.4
2017-Sep-19 20:30N 31°24' E 121°33'83615.6
2017-Sep-19 20:30N 31°20' E 121°41'37364016.9
2017-Sep-19 20:30N 37°33' E 121°23'36016830.8
2017-Sep-19 20:29N 31°33' E 121°18'505046.7
2017-Sep-19 20:28N 31°58' E 120°27'47914252.5
2017-Sep-19 20:26N 39°56' E 119°42'92615438.5
2017-Sep-19 20:22N 24°32' E 118°19'455102368.9
2017-Sep-19 20:22N 31°41' E 121°12'114333.0
2017-Sep-19 20:02N 29°54' E 121°59'874672.0
2017-Sep-19 20:00N 31°20' E 121°41'373134437.7
2017-Sep-19 20:00N 37°33' E 121°23'36010285.5
2017-Sep-19 19:58N 31°33' E 121°18'101142.0
2017-Sep-19 19:58N 31°41' E 121°12'424076.9
2017-Sep-19 19:57N 31°58' E 120°27'47927815.1
2017-Sep-19 19:56N 39°56' E 119°42'5131202.9
2017-Sep-19 19:30N 31°30' E 121°24'36237274.9
2017-Sep-19 19:30N 37°33' E 121°23'3528616.0
2017-Sep-19 19:27N 31°41' E 121°12'427939.3
2017-Sep-19 19:27N 31°58' E 120°27'47926531.3
2017-Sep-19 19:26N 39°56' E 119°42'5251234.8
2017-Sep-19 19:01N 31°20' E 121°41'2239191.2
2017-Sep-19 19:00N 31°33' E 121°20'526270.0
2017-Sep-19 19:00N 31°58' E 120°27'338121510.6
2017-Sep-19 19:00N 37°33' E 121°23'360647984.7
2017-Sep-19 19:00N 31°33' E 121°18'5098259.3
2017-Sep-19 18:56N 39°56' E 119°42'50025729.5
2017-Sep-19 18:55N 31°41' E 121°12'3380.6
2017-Sep-19 18:31N 31°20' E 121°41'3731344376.6
2017-Sep-19 18:30N 37°33' E 121°23'357142804.1
2017-Sep-19 18:30N 31°36' E 121°17'3574.4
2017-Sep-19 18:30N 31°33' E 121°18'10158.3
2017-Sep-19 18:26N 31°41' E 121°12'500150091.4
2017-Sep-19 18:26N 39°56' E 119°42'47990766.2
2017-Sep-19 18:26N 31°58' E 120°27'46030112.7
2017-Sep-19 18:25N 24°32' E 118°19'4451096.1
2017-Sep-19 18:00N 31°20' E 121°41'29105067.4
2017-Sep-19 18:00N 31°38' E 121°14'354319040.4
2017-Sep-19 18:00N 37°33' E 121°23'36011675.6
2017-Sep-19 17:59N 31°33' E 121°18'101278.6
2017-Sep-19 17:58N 31°41' E 121°12'45545499.9
2017-Sep-19 17:57N 24°32' E 118°19'460207024.6
2017-Sep-19 17:57N 31°58' E 120°27'47922396.9
2017-Sep-19 17:56N 39°56' E 119°42'5251233.2
2017-Sep-19 17:31N 31°20' E 121°41'373122218.0
2017-Sep-19 17:30N 37°33' E 121°23'352140988.4
2017-Sep-19 17:30N 31°40' E 121°12'9488.3
2017-Sep-19 17:29N 31°33' E 121°18'5030280.1
2017-Sep-19 17:29N 31°58' E 120°27'47910204.4
2017-Sep-19 17:26N 39°56' E 119°42'61276027.6
2017-Sep-19 17:26N 29°54' E 121°59'1151467.3
2017-Sep-19 17:21N 31°41' E 121°12'5496587.2
2017-Sep-19 17:16N 22°58' E 118°03'5372084.4
2017-Sep-19 17:00N 31°20' E 121°41'373149377.6
2017-Sep-19 17:00N 37°33' E 121°23'351140426.6
2017-Sep-19 17:00N 31°42' E 121°09'122847.8
2017-Sep-19 17:00N 31°33' E 121°18'501892.5
2017-Sep-19 16:58N 31°58' E 120°27'421474.5
2017-Sep-19 16:57N 31°41' E 121°12'50058098.5
2017-Sep-19 16:56N 39°56' E 119°42'61035975.4
2017-Sep-19 16:55N 29°56' E 121°53'84205.3
2017-Sep-19 16:30N 31°20' E 121°41'3810394.5
2017-Sep-19 16:30N 31°44' E 121°07'349628937.7
2017-Sep-19 16:30N 37°33' E 121°23'36092569.2
2017-Sep-19 16:30N 31°33' E 121°18'102755.2
2017-Sep-19 16:30N 31°41' E 121°12'5008149.6
2017-Sep-19 16:26N 39°56' E 119°42'4792311.7
2017-Sep-19 16:14N 31°58' E 120°27'68719035.4
2017-Sep-19 16:12N 22°31' E 113°10'6943731.0
2017-Sep-19 16:00N 31°33' E 121°18'2384480.9
2017-Sep-19 16:00N 31°20' E 121°41'40143918.0
2017-Sep-19 16:00N 31°45' E 121°05'348139178.0
2017-Sep-19 16:00N 37°33' E 121°23'1642417.1
2017-Sep-19 15:56N 39°56' E 119°42'5004392.8
2017-Sep-19 15:49N 31°41' E 121°12'33105.2
2017-Sep-19 15:31N 31°20' E 121°41'2816883.7
2017-Sep-19 15:30N 31°37' E 121°15'35560921.9
2017-Sep-19 15:30N 37°33' E 121°23'35219482.3
2017-Sep-19 15:29N 31°41' E 121°12'50010175.4
2017-Sep-19 15:26N 39°56' E 119°42'4791138.3
2017-Sep-19 15:01N 31°58' E 120°27'7410642.6
2017-Sep-19 15:00N 31°20' E 121°41'2798533.1
2017-Sep-19 15:00N 31°37' E 121°16'35658257.4
2017-Sep-19 15:00N 37°33' E 121°23'3526561.3
2017-Sep-19 14:57N 31°41' E 121°12'50041885.0
2017-Sep-19 14:56N 39°56' E 119°42'4934115.6
2017-Sep-19 14:49N 31°47' E 120°56'3463059.9
2017-Sep-19 14:42N 37°30' E 119°58'67343.7
2017-Sep-19 14:30N 37°33' E 121°23'373122216.1
2017-Sep-19 14:30N 31°20' E 121°41'37841245.1
2017-Sep-19 14:30N 37°28' E 119°58'1492547.8
2017-Sep-19 14:26N 39°56' E 119°42'490110142.6
2017-Sep-19 14:26N 31°50' E 120°54'1742.9
2017-Sep-19 14:01N 31°41' E 121°12'331964.6
2017-Sep-19 14:00N 31°20' E 121°41'37338410.8
2017-Sep-19 14:00N 37°33' E 121°23'35243673.5
2017-Sep-19 13:59N 31°41' E 121°12'34962888.7
2017-Sep-19 13:59N 37°25' E 119°56'33418768.7
2017-Sep-19 13:58N 31°54' E 120°53'48514798.1
2017-Sep-19 13:56N 39°56' E 119°42'50953928.8
2017-Sep-19 13:55N 31°33' E 121°18'2356.4
2017-Sep-19 13:31N 31°20' E 121°41'233249.3
2017-Sep-19 13:30N 31°33' E 121°18'36021245.4
2017-Sep-19 13:29N 37°33' E 121°23'3528278.3
2017-Sep-19 13:27N 31°41' E 121°12'34948378.4
2017-Sep-19 13:26N 37°25' E 119°56'152272945.4
2017-Sep-19 13:26N 39°56' E 119°42'4795911.4
2017-Sep-19 13:21N 31°60' E 120°49'334968.6
2017-Sep-19 13:00N 37°33' E 121°23'3731342610.9
2017-Sep-19 13:00N 31°20' E 121°40'235476.6
2017-Sep-19 13:00N 31°33' E 121°18'10100.2
2017-Sep-19 12:54N 31°41' E 121°12'117424018.0
2017-Sep-19 12:51N 16°08' E 108°12'142364862.5
2017-Sep-19 12:50N 37°25' E 119°56'152545890.8
2017-Sep-19 12:50N 39°56' E 119°42'5231600.8
2017-Sep-19 12:30N 31°22' E 121°38'371334083.9
2017-Sep-19 12:30N 37°33' E 121°23'36021599.5
2017-Sep-19 12:29N 31°33' E 121°18'1172136046.4
2017-Sep-19 12:29N 16°07' E 108°12'155333076.1
2017-Sep-19 12:26N 39°56' E 119°42'5003581.3
2017-Sep-19 12:18N 31°41' E 121°12'37176.9
2017-Sep-19 12:05N 32°01' E 120°34'63838.5
2017-Sep-19 12:00N 31°24' E 121°34'369147681.4
2017-Sep-19 12:00N 37°33' E 121°23'36047998.9
2017-Sep-19 12:00N 31°33' E 121°18'1012740.8
2017-Sep-19 11:58N 29°56' E 121°53'60923096.8
2017-Sep-19 11:56N 39°56' E 119°42'50011119.6
2017-Sep-19 11:53N 31°41' E 121°12'117524872.4
2017-Sep-19 11:51N 16°06' E 108°14'11733510.2
2017-Sep-19 11:30N 31°26' E 121°29'367132049.0
2017-Sep-19 11:30N 37°33' E 121°23'360215994.9
2017-Sep-19 11:30N 31°33' E 121°18'1019328.9
2017-Sep-19 11:30N 29°56' E 121°53'11111709.3
2017-Sep-19 11:29N 31°41' E 121°12'431997.1
2017-Sep-19 11:28N 32°02' E 120°27'47617470.8
2017-Sep-19 11:26N 39°56' E 119°42'6131505.3
2017-Sep-19 11:02N 29°54' E 122°03'1015339.1
2017-Sep-19 11:00N 31°29' E 121°26'86777.8
2017-Sep-19 11:00N 31°33' E 121°18'5532777.4
2017-Sep-19 11:00N 31°60' E 120°22'337242317.7
2017-Sep-19 11:00N 37°33' E 121°23'1642368.7
2017-Sep-19 10:56N 39°56' E 119°42'61478903.3
2017-Sep-19 10:56N 29°53' E 122°03'116978.4
2017-Sep-19 10:48N 31°41' E 121°12'1241.5
2017-Sep-19 10:30N 31°32' E 121°21'361216541.8
2017-Sep-19 10:30N 37°33' E 121°23'34013160.9
2017-Sep-19 10:29N 31°57' E 120°17'494768.2
2017-Sep-19 10:28N 31°41' E 121°12'50013964.0
2017-Sep-19 10:26N 39°56' E 119°42'6145783.5
2017-Sep-19 10:20N 29°53' E 122°03'62917819.0
2017-Sep-19 10:18N 22°26' E 113°51'6272323.4
2017-Sep-19 10:01N 29°47' E 122°08'1147590.5
2017-Sep-19 10:00N 31°33' E 121°18'6172638.2
2017-Sep-19 10:00N 31°56' E 120°12'6035880.0
2017-Sep-19 10:00N 31°35' E 121°18'11616673.6
2017-Sep-19 10:00N 29°47' E 122°08'46748026.7
2017-Sep-19 09:59N 37°33' E 121°23'4601774.9
2017-Sep-19 09:44N 29°53' E 122°03'6143160.6
2017-Sep-19 09:32N 39°56' E 119°42'50919099.5
2017-Sep-19 09:31N 31°33' E 121°18'6577984.4
2017-Sep-19 09:30N 31°57' E 120°07'165119123.4
2017-Sep-19 09:30N 29°48' E 122°08'12020524.7
2017-Sep-19 09:30N 31°38' E 121°14'355638136.7
2017-Sep-19 09:30N 37°33' E 121°23'46022402.5
2017-Sep-19 09:29N 29°53' E 122°03'11612689.9
2017-Sep-19 09:28N 31°41' E 121°12'50014073.3
2017-Sep-19 09:26N 39°56' E 119°42'4791379.6
2017-Sep-19 09:05N 31°58' E 120°27'21263.7
2017-Sep-19 09:00N 31°58' E 120°02'341122899.3
2017-Sep-19 09:00N 37°33' E 121°23'36051838.8
2017-Sep-19 09:00N 31°33' E 121°18'5098006.9
2017-Sep-19 08:56N 39°56' E 119°42'61471268.1
2017-Sep-19 08:56N 29°53' E 122°03'1161744.8
2017-Sep-19 08:52N 31°41' E 121°12'42986.0
2017-Sep-19 08:49N 31°58' E 120°27'5568665.8
2017-Sep-19 08:45N 22°58' E 117°58'2501341.1
2017-Sep-19 08:34N 23°05' E 113°26'2556322.4
2017-Sep-19 08:32N 22°58' E 118°03'55127152.6
2017-Sep-19 08:30N 31°44' E 121°06'6601188864.8
2017-Sep-19 08:30N 23°05' E 113°26'616739755.5
2017-Sep-19 08:30N 29°48' E 122°08'17338882.0
2017-Sep-19 08:30N 32°00' E 119°58'340203796.1
2017-Sep-19 08:30N 37°33' E 121°23'892401528.0
2017-Sep-19 08:30N 22°58' E 117°58'544217750.6
2017-Sep-19 08:30N 31°33' E 121°18'10333.8
2017-Sep-19 08:28N 31°41' E 121°12'50017156.0
2017-Sep-19 08:26N 39°56' E 119°42'61484973.6
2017-Sep-19 08:26N 29°53' E 122°03'46716025.2
2017-Sep-19 08:24N 22°58' E 118°04'5552286.4
2017-Sep-19 08:09N 31°58' E 120°27'50340.9
2017-Sep-19 08:00N 31°33' E 121°18'11015205.3
2017-Sep-19 08:00N 29°52' E 122°08'462128050.3
2017-Sep-19 08:00N 37°33' E 121°23'34721166.6
2017-Sep-19 07:59N 31°46' E 121°02'49410650.0
2017-Sep-19 07:56N 39°56' E 119°42'61484972.7
2017-Sep-19 07:56N 29°53' E 122°03'1503619.6
2017-Sep-19 07:53N 31°58' E 120°27'338893.5
2017-Sep-19 07:30N 37°33' E 121°23'360185138.5
2017-Sep-19 07:30N 31°33' E 121°18'106380435.3
2017-Sep-19 07:30N 29°55' E 122°06'6128641.3
2017-Sep-19 07:26N 39°56' E 119°42'614100423.3
2017-Sep-19 07:26N 29°53' E 122°03'925.1
2017-Sep-19 07:04N 29°57' E 121°53'46918334.5
2017-Sep-19 07:02N 22°58' E 117°58'47412363.9
2017-Sep-19 07:00N 29°59' E 122°02'45568274.8
2017-Sep-19 07:00N 37°33' E 121°23'36043199.0
2017-Sep-19 06:59N 31°33' E 121°18'544163323.1
2017-Sep-19 06:59N 22°58' E 117°58'102221635.1
2017-Sep-19 06:56N 39°56' E 119°42'61484973.6
2017-Sep-19 06:56N 29°53' E 122°03'116860.3
2017-Sep-19 06:48N 31°41' E 121°12'1101511.7
2017-Sep-19 06:43N 29°57' E 121°53'154984.4
2017-Sep-19 06:34N 31°58' E 120°02'3416198.5
2017-Sep-19 06:30N 37°33' E 121°23'36076337.4
2017-Sep-19 06:30N 31°32' E 121°19'544195974.6
2017-Sep-19 06:30N 22°58' E 117°58'556666884.6
2017-Sep-19 06:30N 31°52' E 120°53'43754.4
2017-Sep-19 06:27N 31°58' E 120°03'47861483.4
2017-Sep-19 06:26N 39°56' E 119°42'61476182.5
2017-Sep-19 06:26N 29°53' E 122°03'116858.7
2017-Sep-19 06:17N 31°41' E 121°12'1035.1
2017-Sep-19 06:00N 31°33' E 121°18'360431989.8
2017-Sep-19 06:00N 37°33' E 121°23'1642251.1
2017-Sep-19 05:56N 39°56' E 119°42'4799269.7
2017-Sep-19 05:53N 31°57' E 120°06'551104448.6
2017-Sep-19 05:53N 22°58' E 117°58'4709446.8
2017-Sep-19 05:50N 29°53' E 122°03'116766.2
2017-Sep-19 05:41N 31°41' E 121°12'1054.1
2017-Sep-19 05:30N 31°33' E 121°18'54447800.9
2017-Sep-19 05:29N 22°58' E 117°58'892401545.3
2017-Sep-19 05:29N 37°33' E 121°23'35210131.0
2017-Sep-19 05:27N 31°41' E 121°12'50056284.9
2017-Sep-19 05:26N 39°56' E 119°42'48011211.3
2017-Sep-19 05:24N 31°57' E 120°09'158966.0
2017-Sep-19 05:14N 29°53' E 122°03'4602074.8
2017-Sep-19 05:00N 37°33' E 121°23'36021245.4
2017-Sep-19 04:59N 31°33' E 121°18'10246.8
2017-Sep-19 04:57N 31°41' E 121°12'50032747.2
2017-Sep-19 04:56N 39°56' E 119°42'61476183.9
2017-Sep-19 04:56N 29°53' E 122°03'1564608.5
2017-Sep-19 04:54N 31°57' E 120°11'1368.5
2017-Sep-19 04:42N 31°58' E 120°27'3381748.4
2017-Sep-19 04:30N 37°33' E 121°23'36092569.2
2017-Sep-19 04:30N 31°33' E 121°18'10431.1
2017-Sep-19 04:29N 31°41' E 121°12'521958.8
2017-Sep-19 04:27N 31°57' E 120°13'1556213.3
2017-Sep-19 04:26N 29°53' E 122°03'6146536.5
2017-Sep-19 04:20N 39°56' E 119°42'4794010.7
2017-Sep-19 04:13N 31°58' E 120°27'50243.5
2017-Sep-19 04:00N 31°33' E 121°18'360431997.0
2017-Sep-19 04:00N 37°33' E 121°23'33825854.2
2017-Sep-19 04:00N 31°58' E 120°27'422425.9
2017-Sep-19 03:59N 31°41' E 121°12'50011849.2
2017-Sep-19 03:56N 39°56' E 119°42'61488373.3
2017-Sep-19 03:56N 29°53' E 122°03'1546103.4
2017-Sep-19 03:54N 31°57' E 120°15'43178.4
2017-Sep-19 03:40N 32°16' E 119°30'102662.3
2017-Sep-19 03:31N 31°33' E 121°18'360323992.3
2017-Sep-19 03:30N 37°33' E 121°23'3409715.4
2017-Sep-19 03:28N 31°57' E 120°16'48012888.1
2017-Sep-19 03:26N 39°56' E 119°42'5005576.1
2017-Sep-19 03:21N 31°41' E 121°12'1167068.7
2017-Sep-19 03:20N 29°54' E 122°02'4633409.1
2017-Sep-19 03:12N 37°25' E 119°56'31162226.0
2017-Sep-19 03:11N 32°15' E 119°24'1243054.0
2017-Sep-19 03:09N 31°24' E 121°37'19134.0
2017-Sep-19 03:00N 31°33' E 121°18'360431989.8
2017-Sep-19 03:00N 37°33' E 121°23'369265917.4
2017-Sep-19 03:00N 31°24' E 121°37'37129004.9
2017-Sep-19 03:00N 37°25' E 119°56'1522613.4
2017-Sep-19 02:56N 39°56' E 119°42'61395992.6
2017-Sep-19 02:56N 29°54' E 122°02'1952877.5
2017-Sep-19 02:52N 32°12' E 119°22'66820921.3
2017-Sep-19 02:50N 22°31' E 113°10'69714343.8
2017-Sep-19 02:47N 31°41' E 121°12'12191.9
2017-Sep-19 02:43N 31°31' E 121°19'52571.2
2017-Sep-19 02:38N 32°02' E 120°29'3342755.0
2017-Sep-19 02:30N 37°33' E 121°23'371267467.1
2017-Sep-19 02:30N 31°21' E 121°40'37317686.0
2017-Sep-19 02:29N 37°25' E 119°56'32416192.8
2017-Sep-19 02:28N 32°02' E 120°27'606980.5
2017-Sep-19 02:27N 32°11' E 119°17'10923177.7
2017-Sep-19 02:27N 31°33' E 121°18'50931077.6
2017-Sep-19 02:26N 39°56' E 119°42'61381770.7
2017-Sep-19 02:26N 29°54' E 122°02'10411750.0
2017-Sep-19 02:25N 31°31' E 121°19'6944022.8
2017-Sep-19 02:15N 22°31' E 113°10'6982943.4
2017-Sep-19 02:01N 31°19' E 121°43'374336925.9
2017-Sep-19 02:00N 37°33' E 121°23'33643228.8
2017-Sep-19 02:00N 32°00' E 120°23'68798910.0
2017-Sep-19 02:00N 22°31' E 113°10'9633465220.2
2017-Sep-19 02:00N 37°27' E 119°57'87520989.0
2017-Sep-19 01:57N 22°58' E 117°58'102160285.1
2017-Sep-19 01:56N 39°56' E 119°42'61384919.8
2017-Sep-19 01:56N 29°54' E 122°02'20215484.8
2017-Sep-19 01:55N 32°14' E 119°12'1129862.0
2017-Sep-19 01:54N 31°36' E 121°17'527.7
2017-Sep-19 01:43N 31°31' E 121°19'3611707.5
2017-Sep-19 01:30N 37°33' E 121°23'377452842.4
2017-Sep-19 01:30N 31°16' E 121°46'3010906.3
2017-Sep-19 01:30N 31°34' E 121°18'11842448.3
2017-Sep-19 01:30N 32°15' E 119°07'637758.6
2017-Sep-19 01:30N 31°57' E 120°18'4798220.0
2017-Sep-19 01:26N 39°56' E 119°42'6135719.8
2017-Sep-19 01:20N 29°54' E 122°02'1041833.4
2017-Sep-19 01:16N 31°31' E 121°19'3611374.0
2017-Sep-19 01:00N 37°33' E 121°23'380456401.1
2017-Sep-19 01:00N 31°13' E 121°49'339153.8
2017-Sep-19 01:00N 31°33' E 121°18'606319.2
2017-Sep-19 01:00N 31°56' E 120°13'4818205.6
2017-Sep-19 00:56N 39°56' E 119°42'61388313.2
2017-Sep-19 00:56N 29°54' E 122°02'10413423.3
2017-Sep-19 00:55N 31°31' E 121°19'46010352.9
2017-Sep-19 00:53N 24°26' E 118°01'2911422.7
2017-Sep-19 00:40N 22°39' E 113°06'9916049.2
2017-Sep-19 00:30N 37°33' E 121°23'383689569.6
2017-Sep-19 00:30N 31°10' E 121°52'3711993.1
2017-Sep-19 00:30N 31°33' E 121°18'646416.7
2017-Sep-19 00:30N 31°56' E 120°08'67033964.4
2017-Sep-19 00:28N 22°41' E 113°06'22213529.5
2017-Sep-19 00:27N 20°06' E 110°16'128757202.1
2017-Sep-19 00:26N 39°56' E 119°42'613122657.3
2017-Sep-19 00:26N 29°54' E 122°02'116896.2
2017-Sep-19 00:18N 31°41' E 121°12'1288.5
2017-Sep-19 00:10N 31°31' E 121°19'210.8
2017-Sep-19 00:00N 31°33' E 121°18'360323992.3
2017-Sep-19 00:00N 37°33' E 121°23'385115529.8
2017-Sep-19 00:00N 31°08' E 121°55'690354941.5
2017-Sep-19 00:00N 22°46' E 113°04'68968857.6
2017-Sep-19 00:00N 31°41' E 121°12'91431055.7
2017-Sep-18 23:58N 20°02' E 110°17'129045996.6
2017-Sep-18 23:56N 39°56' E 119°42'61376131.4
2017-Sep-18 23:56N 29°54' E 122°02'10415659.7
2017-Sep-18 23:55N 31°31' E 121°19'1344.5
2017-Sep-18 23:38N 31°22' E 121°30'53858700.4
2017-Sep-18 23:37N 22°58' E 117°57'8928132.3
2017-Sep-18 23:30N 37°33' E 121°23'360107999.2
2017-Sep-18 23:30N 31°33' E 121°18'4315474.6
2017-Sep-18 23:30N 31°07' E 121°58'53320649.8
2017-Sep-18 23:29N 22°58' E 117°57'53960594.2
2017-Sep-18 23:28N 31°23' E 121°30'52116307.6
2017-Sep-18 23:26N 39°56' E 119°42'475122247.8
2017-Sep-18 23:26N 32°01' E 119°58'16659752.1
2017-Sep-18 23:26N 29°54' E 122°02'104500.4
2017-Sep-18 23:13N 31°31' E 121°19'3611705.3
2017-Sep-18 23:00N 37°33' E 121°23'360323992.3
2017-Sep-18 23:00N 31°33' E 121°18'77893.6
2017-Sep-18 22:55N 32°05' E 119°55'79283304.0
2017-Sep-18 22:55N 31°31' E 121°19'54421746.9
2017-Sep-18 22:54N 22°58' E 117°58'1915788.7
2017-Sep-18 22:52N 25°45' E 119°39'37959369.5
2017-Sep-18 22:51N 22°42' E 113°36'108151867.9
2017-Sep-18 22:50N 39°56' E 119°42'613122657.3
2017-Sep-18 22:50N 29°54' E 122°02'4601429.4
2017-Sep-18 22:30N 37°33' E 121°23'978391008.2
2017-Sep-18 22:30N 22°43' E 113°35'671201337.8
2017-Sep-18 22:30N 31°33' E 121°18'5097639.8
2017-Sep-18 22:26N 39°56' E 119°42'51134059.6
2017-Sep-18 22:25N 31°31' E 121°19'828398.1
2017-Sep-18 22:25N 32°09' E 119°54'924645.0
2017-Sep-18 22:23N 31°26' E 121°29'21453.3
2017-Sep-18 22:21N 31°41' E 121°12'116996.1
2017-Sep-18 22:14N 29°53' E 122°03'9124.6
2017-Sep-18 22:09N 29°57' E 121°53'4573107.1
2017-Sep-18 22:00N 37°33' E 121°23'329169356.4
2017-Sep-18 22:00N 32°12' E 119°53'1698552.5
2017-Sep-18 21:59N 29°58' E 121°53'9925578.0
2017-Sep-18 21:59N 31°33' E 121°18'10310.5
2017-Sep-18 21:57N 31°41' E 121°12'1165040.8
2017-Sep-18 21:56N 29°53' E 122°03'627118736.6
2017-Sep-18 21:55N 22°46' E 113°32'107812433.3
2017-Sep-18 21:50N 39°56' E 119°42'51131711.1
2017-Sep-18 21:49N 31°31' E 121°19'3611158.6
2017-Sep-18 21:30N 37°33' E 121°23'36024452.3
2017-Sep-18 21:30N 31°33' E 121°18'854069.5
2017-Sep-18 21:28N 32°16' E 119°52'3430881.8
2017-Sep-18 21:28N 31°58' E 120°27'66521379.7
2017-Sep-18 21:26N 22°46' E 113°30'1078258710.1
2017-Sep-18 21:26N 39°56' E 119°42'6145767.8
2017-Sep-18 21:20N 29°53' E 122°03'46722711.7
2017-Sep-18 21:18N 22°59' E 118°03'5361.0
2017-Sep-18 21:18N 22°58' E 117°58'54422243.0
2017-Sep-18 21:16N 31°31' E 121°19'3611376.9
2017-Sep-18 21:00N 37°33' E 121°23'36051838.8
2017-Sep-18 21:00N 31°33' E 121°18'5025954.3
2017-Sep-18 21:00N 31°58' E 120°27'557333905.8
2017-Sep-18 21:00N 22°58' E 117°58'1658617.7
2017-Sep-18 20:59N 25°19' E 119°31'38451183.5
2017-Sep-18 20:58N 31°31' E 121°19'51114482.2
2017-Sep-18 20:56N 39°56' E 119°42'108316382.4
2017-Sep-18 20:52N 22°48' E 113°01'27206.0
2017-Sep-18 20:44N 22°46' E 113°30'6285554.3
2017-Sep-18 20:38N 29°53' E 122°03'4603890.9
2017-Sep-18 20:30N 37°33' E 121°23'893123613.4
2017-Sep-18 20:30N 22°58' E 117°58'2748640.6
2017-Sep-18 20:28N 22°48' E 113°01'27825661.5
2017-Sep-18 20:27N 22°59' E 118°03'55532210.1
2017-Sep-18 20:26N 31°58' E 120°27'47978389.0
2017-Sep-18 20:26N 39°56' E 119°42'876631062.6
2017-Sep-18 20:26N 25°20' E 119°26'38526124.4
2017-Sep-18 20:25N 31°31' E 121°19'226.8
2017-Sep-18 20:21N 31°33' E 121°18'1073954.3
2017-Sep-18 20:20N 29°53' E 122°03'1162475.4
2017-Sep-18 20:17N 31°41' E 121°12'3521289.8
2017-Sep-18 20:00N 37°33' E 121°23'89354474.4
2017-Sep-18 19:59N 22°58' E 117°58'55724735.8
2017-Sep-18 19:58N 31°58' E 120°27'501552.8
2017-Sep-18 19:56N 31°33' E 121°18'10711623.8
2017-Sep-18 19:56N 29°53' E 122°03'10515098.5
2017-Sep-18 19:55N 31°31' E 121°19'12219.4
2017-Sep-18 19:52N 31°41' E 121°12'50015396.1
2017-Sep-18 19:50N 39°56' E 119°42'164500.3
2017-Sep-18 19:30N 37°33' E 121°23'3389347.0
2017-Sep-18 19:28N 31°58' E 120°27'47913164.6
2017-Sep-18 19:26N 39°56' E 119°42'61484964.3
2017-Sep-18 19:26N 29°53' E 122°03'1163429.5
2017-Sep-18 19:24N 31°41' E 121°12'10437.3
2017-Sep-18 19:22N 31°33' E 121°18'233.8
2017-Sep-18 19:19N 31°31' E 121°19'54414720.3
2017-Sep-18 19:17N 22°58' E 117°58'5517004.4
2017-Sep-18 19:12N 31°41' E 121°09'3521787.3
2017-Sep-18 19:00N 37°33' E 121°23'893114787.7
2017-Sep-18 19:00N 22°58' E 117°58'52701.2
2017-Sep-18 19:00N 22°59' E 118°03'54930872.4
2017-Sep-18 18:59N 31°42' E 121°08'121183.3
2017-Sep-18 18:58N 31°33' E 121°18'50914786.9
2017-Sep-18 18:56N 39°56' E 119°42'51133440.0
2017-Sep-18 18:55N 31°31' E 121°19'521615.0
2017-Sep-18 18:53N 31°58' E 120°27'6651911.0
2017-Sep-18 18:32N 22°46' E 113°30'97727472.1
2017-Sep-18 18:30N 37°33' E 121°23'8933214055.6
2017-Sep-18 18:30N 22°58' E 117°58'54517056.5
2017-Sep-18 18:28N 31°33' E 121°18'2685.0
2017-Sep-18 18:28N 31°31' E 121°19'5113815.5
2017-Sep-18 18:20N 39°56' E 119°42'61496045.7
2017-Sep-18 18:20N 29°53' E 122°03'46749479.5
2017-Sep-18 18:19N 22°59' E 118°03'55511887.4
2017-Sep-18 18:16N 31°58' E 120°27'6653628.1
2017-Sep-18 18:05N 22°46' E 113°30'97711234.6
2017-Sep-18 18:00N 37°33' E 121°23'893100439.9
2017-Sep-18 18:00N 22°58' E 117°58'54535663.6
2017-Sep-18 17:59N 31°33' E 121°18'2214.6
2017-Sep-18 17:58N 31°31' E 121°19'51114367.4
2017-Sep-18 17:56N 39°56' E 119°42'614100411.4
2017-Sep-18 17:56N 29°53' E 122°03'6287020.3
2017-Sep-18 17:50N 22°46' E 113°30'2525700.0
2017-Sep-18 17:48N 22°59' E 118°03'5495185.5
2017-Sep-18 17:41N 31°41' E 121°12'421880.0
2017-Sep-18 17:40N 31°58' E 120°27'40210566.9
2017-Sep-18 17:38N 25°19' E 119°30'3853102.3
2017-Sep-18 17:30N 31°33' E 121°18'36092570.8
2017-Sep-18 17:30N 37°33' E 121°23'35223892.9
2017-Sep-18 17:29N 31°41' E 121°12'428847.3
2017-Sep-18 17:29N 31°58' E 120°27'47910326.7
2017-Sep-18 17:26N 39°56' E 119°42'107823519.1
2017-Sep-18 17:23N 22°46' E 113°30'2477483.1
2017-Sep-18 17:21N 22°58' E 117°58'47020636.2
2017-Sep-18 17:20N 29°53' E 122°03'1057262.9
2017-Sep-18 17:19N 31°31' E 121°19'38516688.6
2017-Sep-18 17:18N 25°19' E 119°27'2931776.4
2017-Sep-18 17:08N 29°36' E 122°06'4563530.8
2017-Sep-18 17:00N 22°58' E 117°58'893357117.9
2017-Sep-18 17:00N 37°33' E 121°23'47785814.4
2017-Sep-18 17:00N 29°37' E 122°05'122146838.3
2017-Sep-18 17:00N 31°33' E 121°18'5022710.1
2017-Sep-18 16:59N 31°58' E 120°27'665399070.4
2017-Sep-18 16:59N 22°46' E 113°30'35944602.7
2017-Sep-18 16:59N 25°20' E 119°25'87618656.2
2017-Sep-18 16:56N 39°56' E 119°42'61478894.7
2017-Sep-18 16:56N 29°53' E 122°03'10514526.5
2017-Sep-18 16:55N 31°31' E 121°19'71010520.1
2017-Sep-18 16:51N 22°15' E 113°05'2792344.1
2017-Sep-18 16:44N 22°59' E 118°03'5497452.3
2017-Sep-18 16:40N 31°41' E 121°12'1065.8
2017-Sep-18 16:30N 31°33' E 121°18'102753.8
2017-Sep-18 16:30N 31°41' E 121°12'352422108.6
2017-Sep-18 16:30N 37°33' E 121°23'1642359.1
2017-Sep-18 16:26N 39°56' E 119°42'5114442.1
2017-Sep-18 16:19N 31°31' E 121°19'6718418.4
2017-Sep-18 16:14N 22°46' E 113°30'392402.8
2017-Sep-18 16:13N 22°14' E 113°05'3944635.0
2017-Sep-18 16:08N 25°20' E 119°24'30726344.6
2017-Sep-18 16:08N 29°53' E 122°03'9117.3
2017-Sep-18 16:03N 29°45' E 122°03'152987.5
2017-Sep-18 16:03N 29°57' E 121°53'1012512.7
2017-Sep-18 16:00N 31°33' E 121°18'712640767.3
2017-Sep-18 16:00N 22°12' E 113°05'1016118043.8
2017-Sep-18 16:00N 37°33' E 121°23'4608165.5
2017-Sep-18 15:57N 29°53' E 122°03'61492042.9
2017-Sep-18 15:56N 39°56' E 119°42'50012507.3
2017-Sep-18 15:54N 31°41' E 121°12'10998238.0
2017-Sep-18 15:54N 29°58' E 121°53'151650.2
2017-Sep-18 15:53N 29°46' E 122°04'622448027.6
2017-Sep-18 15:53N 22°35' E 113°43'2368247.2
2017-Sep-18 15:51N 22°58' E 117°58'557500862.3
2017-Sep-18 15:51N 31°58' E 120°27'40226807.2
2017-Sep-18 15:50N 25°20' E 119°24'16013074.0
2017-Sep-18 15:50N 22°58' E 118°04'5425026.5
2017-Sep-18 15:43N 31°31' E 121°19'3611663.7
2017-Sep-18 15:30N 37°33' E 121°23'360161998.9
2017-Sep-18 15:30N 31°33' E 121°18'1123381.4
2017-Sep-18 15:28N 29°49' E 122°05'61919886.9
2017-Sep-18 15:26N 39°56' E 119°42'500200117.1
2017-Sep-18 15:26N 31°41' E 121°12'11618205.4
2017-Sep-18 15:26N 29°53' E 122°03'10513988.5
2017-Sep-18 15:25N 31°31' E 121°19'52301.8
2017-Sep-18 15:15N 31°58' E 120°27'6653222.6
2017-Sep-18 15:02N 22°46' E 113°30'97730313.3
2017-Sep-18 15:00N 37°33' E 121°23'36041805.5
2017-Sep-18 15:00N 31°33' E 121°18'11079415.9
2017-Sep-18 15:00N 29°51' E 122°07'1093872.6
2017-Sep-18 14:58N 31°31' E 121°19'67122371.0
2017-Sep-18 14:56N 22°46' E 113°30'1078204242.0
2017-Sep-18 14:56N 39°56' E 119°42'47917778.9
2017-Sep-18 14:54N 31°58' E 120°27'1501857.9
2017-Sep-18 14:50N 29°53' E 122°03'1163460.5
2017-Sep-18 14:48N 31°41' E 121°12'3923486.3
2017-Sep-18 14:41N 25°20' E 119°24'7394238.3
2017-Sep-18 14:30N 37°33' E 121°23'46091965.6
2017-Sep-18 14:30N 29°54' E 122°08'10722759.6
2017-Sep-18 14:30N 31°33' E 121°18'67211794.0
2017-Sep-18 14:26N 22°46' E 113°30'1078204240.9
2017-Sep-18 14:26N 39°56' E 119°42'61481815.9
2017-Sep-18 14:26N 29°53' E 122°03'10513987.0
2017-Sep-18 14:25N 31°31' E 121°19'38410101.9
2017-Sep-18 14:23N 25°20' E 119°24'3924584.3
2017-Sep-18 14:18N 31°41' E 121°12'68815989.3
2017-Sep-18 14:15N 22°48' E 113°01'6862774.0
2017-Sep-18 14:00N 31°33' E 121°18'360647984.7
2017-Sep-18 14:00N 37°33' E 121°23'35284421.7
2017-Sep-18 14:00N 31°41' E 121°12'688826110.3
2017-Sep-18 14:00N 22°48' E 113°01'272526.9
2017-Sep-18 13:59N 22°46' E 113°30'62956610.6
2017-Sep-18 13:59N 29°55' E 122°03'61314134.6
2017-Sep-18 13:56N 39°56' E 119°42'61476174.2
2017-Sep-18 13:56N 29°53' E 122°03'10513022.4
2017-Sep-18 13:55N 31°31' E 121°19'5411711.4
2017-Sep-18 13:36N 22°58' E 118°04'0 0.1
2017-Sep-18 13:30N 22°58' E 118°04'891123383.6
2017-Sep-18 13:30N 37°33' E 121°23'977146514.5
2017-Sep-18 13:29N 22°46' E 113°30'672241777.8
2017-Sep-18 13:29N 31°33' E 121°18'10416278.3
2017-Sep-18 13:29N 29°55' E 122°01'1145609.7
2017-Sep-18 13:28N 31°41' E 121°12'55141307.7
2017-Sep-18 13:27N 22°58' E 117°58'102287597.3
2017-Sep-18 13:26N 39°56' E 119°42'61469032.8
2017-Sep-18 13:26N 29°53' E 122°03'10513987.0
2017-Sep-18 13:25N 31°31' E 121°19'6852878.4
2017-Sep-18 13:11N 22°49' E 113°01'2791613.7
2017-Sep-18 13:00N 22°58' E 118°04'891229137.9
2017-Sep-18 13:00N 37°33' E 121°23'9851181441.1
2017-Sep-18 13:00N 22°49' E 113°02'645580162.8
2017-Sep-18 13:00N 29°57' E 121°60'62852580.6
2017-Sep-18 12:59N 22°46' E 113°30'67241685.8
2017-Sep-18 12:58N 31°33' E 121°18'10472.7
2017-Sep-18 12:57N 31°41' E 121°12'50026884.7
2017-Sep-18 12:56N 39°56' E 119°42'51132842.4
2017-Sep-18 12:55N 31°31' E 121°19'1051140.6
2017-Sep-18 12:50N 29°53' E 122°03'470140968.9
2017-Sep-18 12:49N 22°58' E 117°58'1633807.0
2017-Sep-18 12:47N 25°20' E 119°24'7392702.1
2017-Sep-18 12:30N 37°33' E 121°23'456182337.8
2017-Sep-18 12:30N 29°58' E 121°59'10115181.8
2017-Sep-18 12:30N 31°33' E 121°18'67286349.2
2017-Sep-18 12:29N 22°46' E 113°30'25337885.6
2017-Sep-18 12:29N 22°58' E 118°04'102120766.8
2017-Sep-18 12:26N 39°56' E 119°42'614129936.0
2017-Sep-18 12:26N 29°53' E 122°03'64564462.0
2017-Sep-18 12:25N 22°49' E 113°02'6851232464.2
2017-Sep-18 12:25N 31°31' E 121°19'12335.3
2017-Sep-18 12:23N 31°41' E 121°12'39294118.0
2017-Sep-18 12:23N 25°20' E 119°24'163554.0
2017-Sep-18 12:05N 22°58' E 117°58'5517132.6
2017-Sep-18 12:01N 31°57' E 120°06'653213857.8
2017-Sep-18 12:00N 22°46' E 113°31'674808630.0
2017-Sep-18 12:00N 31°41' E 121°12'108850.1
2017-Sep-18 12:00N 31°33' E 121°18'685411072.9
2017-Sep-18 12:00N 22°49' E 113°02'985443037.9
2017-Sep-18 12:00N 37°33' E 121°23'454233528.2
2017-Sep-18 12:00N 29°59' E 121°57'1526416.7
2017-Sep-18 11:59N 31°57' E 120°06'47911897.9
2017-Sep-18 11:56N 39°56' E 119°42'61492042.9
2017-Sep-18 11:56N 29°53' E 122°03'46711758.8
2017-Sep-18 11:53N 22°58' E 118°03'54227849.0
2017-Sep-18 11:52N 31°31' E 121°19'361963.8
2017-Sep-18 11:30N 37°33' E 121°23'36041805.5
2017-Sep-18 11:29N 31°33' E 121°18'9610473.5
2017-Sep-18 11:29N 30°02' E 121°56'14716047.3
2017-Sep-18 11:28N 31°57' E 120°08'654392333.0
2017-Sep-18 11:28N 22°44' E 113°34'301259.3
2017-Sep-18 11:27N 22°49' E 113°02'1082149878.5
2017-Sep-18 11:26N 39°56' E 119°42'61473634.3
2017-Sep-18 11:26N 29°53' E 122°03'10514519.6
2017-Sep-18 11:25N 31°31' E 121°19'1275.2
2017-Sep-18 11:16N 31°41' E 121°12'1037.9
2017-Sep-18 11:00N 31°33' E 121°18'360161998.9
2017-Sep-18 11:00N 37°33' E 121°23'98568161.3
2017-Sep-18 10:59N 22°49' E 113°02'64614443.1
2017-Sep-18 10:57N 30°04' E 121°55'13757.8
2017-Sep-18 10:56N 29°53' E 122°03'6146653.7
2017-Sep-18 10:50N 39°56' E 119°42'51132842.7
2017-Sep-18 10:49N 31°31' E 121°19'1245.9
2017-Sep-18 10:34N 31°41' E 121°12'3525046.2
2017-Sep-18 10:30N 37°33' E 121°23'360259198.2
2017-Sep-18 10:30N 31°33' E 121°18'68566663.4
2017-Sep-18 10:29N 22°49' E 113°02'108220950.8
2017-Sep-18 10:26N 39°56' E 119°42'51132843.1
2017-Sep-18 10:25N 31°31' E 121°19'12152.2
2017-Sep-18 10:21N 31°41' E 121°12'114978.5
2017-Sep-18 10:14N 29°54' E 121°59'105481.3
2017-Sep-18 10:01N 31°33' E 121°18'36046284.6
2017-Sep-18 10:00N 37°33' E 121°23'352316643.8
2017-Sep-18 10:00N 31°41' E 121°12'68811903.5
2017-Sep-18 09:57N 22°49' E 113°02'1082144325.3
2017-Sep-18 09:56N 39°56' E 119°42'59830748.6
2017-Sep-18 09:55N 30°08' E 121°53'15168.0
2017-Sep-18 09:50N 29°54' E 121°59'10314854.4
2017-Sep-18 09:49N 31°31' E 121°19'3846341.0
2017-Sep-18 09:46N 25°20' E 119°27'3851535.4
2017-Sep-18 09:30N 31°33' E 121°18'3601295969.3
2017-Sep-18 09:30N 37°33' E 121°23'739295691.6
2017-Sep-18 09:30N 25°20' E 119°27'317285664.7
2017-Sep-18 09:30N 30°10' E 121°52'64836458.3
2017-Sep-18 09:29N 22°49' E 113°02'68812505.3
2017-Sep-18 09:26N 31°41' E 121°12'12903.3
2017-Sep-18 09:25N 31°31' E 121°19'95754.0
2017-Sep-18 09:18N 30°02' E 121°59'8127.0
2017-Sep-18 09:14N 29°54' E 121°59'62414300.0
2017-Sep-18 09:11N 22°38' E 113°41'108222139.9
2017-Sep-18 09:08N 39°56' E 119°42'5094029.8
2017-Sep-18 09:00N 31°33' E 121°18'360259193.9
2017-Sep-18 09:00N 37°33' E 121°23'73988708.2
2017-Sep-18 09:00N 25°20' E 119°27'31224386.7
2017-Sep-18 08:59N 30°00' E 122°00'647129495.2
2017-Sep-18 08:59N 22°49' E 113°02'688130318.3
2017-Sep-18 08:59N 31°41' E 121°12'67380794.7
2017-Sep-18 08:58N 22°40' E 113°41'108133543.9
2017-Sep-18 08:56N 39°56' E 119°42'61281660.8
2017-Sep-18 08:56N 29°54' E 121°59'103335.4
2017-Sep-18 08:37N 31°31' E 121°19'3613158.2
2017-Sep-18 08:30N 37°33' E 121°23'360215994.9
2017-Sep-18 08:30N 31°33' E 121°18'3851386740.2
2017-Sep-18 08:30N 25°20' E 119°27'353115543.7
2017-Sep-18 08:30N 22°44' E 113°40'628133019.0
2017-Sep-18 08:30N 30°00' E 122°04'993822.7
2017-Sep-18 08:28N 31°31' E 121°19'9939657.8
2017-Sep-18 08:28N 29°57' E 121°53'60918902.0
2017-Sep-18 08:26N 39°56' E 119°42'50012171.4
2017-Sep-18 08:24N 31°41' E 121°12'68816843.9
2017-Sep-18 08:21N 22°49' E 113°02'6421971.5
2017-Sep-18 08:02N 29°54' E 121°59'9480.0
2017-Sep-18 08:01N 30°00' E 122°06'6281130667.3
2017-Sep-18 08:01N 22°48' E 113°38'617246958.8
2017-Sep-18 08:00N 29°56' E 121°53'457548600.0
2017-Sep-18 08:00N 37°33' E 121°23'36038116.7
2017-Sep-18 08:00N 31°33' E 121°18'265.2
2017-Sep-18 07:58N 31°31' E 121°19'12641.7
2017-Sep-18 07:57N 31°41' E 121°12'50031602.8
2017-Sep-18 07:56N 39°56' E 119°42'6125667.9
2017-Sep-18 07:50N 29°54' E 121°59'31112.1
2017-Sep-18 07:33N 30°24' E 121°55'63714061.2
2017-Sep-18 07:31N 22°51' E 113°34'35485037.5
2017-Sep-18 07:30N 25°20' E 119°27'7391330687.1
2017-Sep-18 07:30N 37°33' E 121°23'3601295969.3
2017-Sep-18 07:30N 31°33' E 121°18'1017585.8
2017-Sep-18 07:29N 30°00' E 122°06'26756.9
2017-Sep-18 07:27N 30°25' E 121°55'58227551.4
2017-Sep-18 07:26N 39°56' E 119°42'61278743.6
2017-Sep-18 07:26N 29°54' E 121°59'10312799.1
2017-Sep-18 07:25N 31°31' E 121°19'1260.7
2017-Sep-18 07:14N 31°41' E 121°12'5515318.7
2017-Sep-18 07:07N 22°58' E 117°57'2432109.0
2017-Sep-18 07:01N 22°56' E 113°33'967217479.4
2017-Sep-18 07:00N 37°33' E 121°23'7391330696.1
2017-Sep-18 07:00N 25°20' E 119°27'38512483.7
2017-Sep-18 06:58N 31°32' E 121°19'111808.7
2017-Sep-18 06:58N 31°41' E 121°12'11144345.3
2017-Sep-18 06:58N 30°00' E 122°06'60720432.1
2017-Sep-18 06:56N 39°56' E 119°42'511167237.9
2017-Sep-18 06:56N 31°31' E 121°19'6722068.9
2017-Sep-18 06:36N 22°19' E 114°09'691075.4
2017-Sep-18 06:33N 22°49' E 113°02'29882.8
2017-Sep-18 06:31N 22°60' E 113°31'3531272060.0
2017-Sep-18 06:31N 25°20' E 119°27'73998570.1
2017-Sep-18 06:30N 37°33' E 121°23'45451046.4
2017-Sep-18 06:30N 30°00' E 122°06'10036023.1
2017-Sep-18 06:29N 31°32' E 121°19'686246787.1
2017-Sep-18 06:29N 22°49' E 113°02'108220951.2
2017-Sep-18 06:26N 39°56' E 119°42'5009790.3
2017-Sep-18 06:23N 31°41' E 121°12'11249.8
2017-Sep-18 06:20N 31°32' E 121°20'1049327.8
2017-Sep-18 06:20N 29°54' E 121°59'6201966.1
2017-Sep-18 06:01N 22°19' E 114°09'6818778.5
2017-Sep-18 06:00N 22°48' E 113°03'2817068.2
2017-Sep-18 06:00N 23°04' E 113°29'622447910.7
2017-Sep-18 06:00N 30°00' E 122°06'3141129138.2
2017-Sep-18 06:00N 25°20' E 119°27'385154090.8
2017-Sep-18 06:00N 31°33' E 121°18'360129594.8
2017-Sep-18 06:00N 37°33' E 121°23'36130915.8
2017-Sep-18 05:59N 31°32' E 121°20'5109517.7
2017-Sep-18 05:56N 39°56' E 119°42'10959388.7
2017-Sep-18 05:49N 22°18' E 114°09'6732174.3
2017-Sep-18 05:30N 31°33' E 121°18'360129596.9
2017-Sep-18 05:30N 37°33' E 121°23'9621731669.8
2017-Sep-18 05:30N 23°04' E 113°25'2619038.9
2017-Sep-18 05:30N 22°45' E 113°05'65168974.7
2017-Sep-18 05:30N 30°00' E 122°06'10018934.9
2017-Sep-18 05:29N 31°32' E 121°20'5109566.4
2017-Sep-18 05:26N 39°56' E 119°42'8772040.0
2017-Sep-18 05:00N 25°19' E 119°31'385462572.1
2017-Sep-18 05:00N 31°33' E 121°18'36044688.6
2017-Sep-18 05:00N 37°33' E 121°23'965347268.4
2017-Sep-18 05:00N 23°02' E 113°22'62842661.5
2017-Sep-18 04:59N 30°00' E 122°06'65320800.9
2017-Sep-18 04:57N 22°42' E 113°06'68979972.8
2017-Sep-18 04:56N 31°32' E 121°20'510141282.5
2017-Sep-18 04:56N 39°56' E 119°42'5091192.2
2017-Sep-18 04:30N 31°33' E 121°18'36038116.7
2017-Sep-18 04:30N 37°33' E 121°23'965128676.8
2017-Sep-18 04:29N 23°03' E 113°18'665199436.1
2017-Sep-18 04:29N 31°32' E 121°20'1006098.8
2017-Sep-18 04:28N 30°00' E 122°06'60716563.0
2017-Sep-18 04:26N 39°56' E 119°42'47910580.1
2017-Sep-18 04:23N 31°58' E 120°27'423581.9
2017-Sep-18 04:23N 31°41' E 121°12'68412376.4
2017-Sep-18 04:19N 22°46' E 113°13'9833127.2
2017-Sep-18 04:00N 37°33' E 121°23'36022343.9
2017-Sep-18 04:00N 31°33' E 121°18'10110711.7
2017-Sep-18 03:59N 30°00' E 122°06'1115963.5
2017-Sep-18 03:58N 31°41' E 121°12'50017318.4
2017-Sep-18 03:56N 39°56' E 119°42'5102601.5
2017-Sep-18 03:44N 31°32' E 121°20'6915196.5
2017-Sep-18 03:36N 22°35' E 113°11'13271.6
2017-Sep-18 03:33N 22°47' E 113°16'98118983.5
2017-Sep-18 03:30N 37°33' E 121°23'36099689.9
2017-Sep-18 03:30N 31°33' E 121°18'1018090.7
2017-Sep-18 03:29N 30°00' E 122°06'1112593.9
2017-Sep-18 03:27N 31°41' E 121°12'50039154.3
2017-Sep-18 03:26N 39°56' E 119°42'1080259215.9
2017-Sep-18 03:26N 22°47' E 113°17'67815963.6
2017-Sep-18 03:23N 31°32' E 121°20'1004653.4
2017-Sep-18 03:22N 29°57' E 121°53'64547386.5
2017-Sep-18 03:21N 22°33' E 113°11'6922006.0
2017-Sep-18 03:00N 31°33' E 121°18'360117815.4
2017-Sep-18 03:00N 37°33' E 121°23'9791762228.1
2017-Sep-18 03:00N 22°48' E 113°19'5650676.1
2017-Sep-18 03:00N 22°17' E 114°10'630188872.5
2017-Sep-18 03:00N 30°00' E 122°06'11115979.2
2017-Sep-18 03:00N 31°41' E 121°12'69823915.5
2017-Sep-18 02:58N 22°31' E 113°10'69526911.2
2017-Sep-18 02:56N 31°32' E 121°20'510153053.0
2017-Sep-18 02:56N 39°56' E 119°42'5091193.7
2017-Sep-18 02:30N 31°33' E 121°18'10172820.3
2017-Sep-18 02:30N 30°00' E 122°06'454272252.5
2017-Sep-18 02:30N 37°33' E 121°23'35279148.1
2017-Sep-18 02:30N 31°41' E 121°12'11180.6
2017-Sep-18 02:26N 31°32' E 121°20'510183661.5
2017-Sep-18 02:26N 39°56' E 119°42'107914389.5
2017-Sep-18 02:22N 22°47' E 113°22'3261047.4
2017-Sep-18 02:03N 24°51' E 118°52'42210481.1
2017-Sep-18 02:00N 31°33' E 121°18'10140466.7
2017-Sep-18 02:00N 30°00' E 122°06'454233377.7
2017-Sep-18 02:00N 37°33' E 121°23'980103732.6
2017-Sep-18 02:00N 22°45' E 113°24'32510847.8
2017-Sep-18 01:58N 24°50' E 118°53'90730507.4
2017-Sep-18 01:56N 39°56' E 119°42'51011131.1
2017-Sep-18 01:53N 31°32' E 121°20'104413.0
2017-Sep-18 01:38N 29°54' E 121°59'4603476.3
2017-Sep-18 01:30N 37°33' E 121°23'36015428.5
2017-Sep-18 01:29N 31°33' E 121°18'50910660.3
2017-Sep-18 01:26N 39°56' E 119°42'90899055.2
2017-Sep-18 01:26N 24°49' E 118°54'3555551.7
2017-Sep-18 01:22N 30°00' E 122°06'1004284.2
2017-Sep-18 01:20N 31°32' E 121°20'111348.5
2017-Sep-18 01:20N 31°41' E 121°12'70514410.9
2017-Sep-18 01:17N 22°21' E 113°12'70215785.7
2017-Sep-18 01:14N 30°56' E 122°05'1 4.9
2017-Sep-18 01:00N 30°57' E 122°05'545699.4
2017-Sep-18 01:00N 31°33' E 121°18'36064799.5
2017-Sep-18 01:00N 37°33' E 121°23'45432673.3
2017-Sep-18 00:59N 30°00' E 122°06'66616528.9
2017-Sep-18 00:56N 22°19' E 113°11'704845004.1
2017-Sep-18 00:56N 31°32' E 121°20'510166976.6
2017-Sep-18 00:56N 39°56' E 119°42'50048685.5
2017-Sep-18 00:55N 31°41' E 121°12'111266.5
2017-Sep-18 00:31N 30°00' E 122°06'5916234.3
2017-Sep-18 00:30N 30°59' E 122°04'39571140.3
2017-Sep-18 00:30N 37°33' E 121°23'360129596.9
2017-Sep-18 00:30N 31°33' E 121°18'423304486.4
2017-Sep-18 00:30N 24°49' E 118°55'90814990.8
2017-Sep-18 00:26N 39°56' E 119°42'111342626.9
2017-Sep-18 00:25N 22°15' E 113°10'70833991.3
2017-Sep-18 00:23N 31°32' E 121°20'6758551.8
2017-Sep-18 00:19N 22°45' E 113°27'37122.3
2017-Sep-18 00:01N 22°13' E 113°07'713233320.6
2017-Sep-18 00:00N 31°01' E 122°03'5059910.1
2017-Sep-18 00:00N 31°33' E 121°18'360143996.6
2017-Sep-18 00:00N 37°33' E 121°23'805362123.6
2017-Sep-18 00:00N 24°26' E 118°03'397286191.7
2017-Sep-18 00:00N 30°00' E 122°06'1001641.7
2017-Sep-17 23:56N 31°32' E 121°20'510183696.3
2017-Sep-17 23:56N 39°56' E 119°42'90840342.6
2017-Sep-17 23:55N 24°49' E 118°55'4291639.9
2017-Sep-17 23:39N 31°41' E 121°12'57401.9
2017-Sep-17 23:31N 31°03' E 122°01'717860305.7
2017-Sep-17 23:30N 22°09' E 113°06'30792206.7
2017-Sep-17 23:30N 24°23' E 118°07'807132046.7
2017-Sep-17 23:30N 37°33' E 121°23'45468069.4
2017-Sep-17 23:29N 30°00' E 122°06'10035954.3
2017-Sep-17 23:29N 31°32' E 121°20'5109469.0
2017-Sep-17 23:26N 39°56' E 119°42'479215569.7
2017-Sep-17 23:26N 31°58' E 120°27'42125.8
2017-Sep-17 23:06N 31°41' E 121°12'10102.3
2017-Sep-17 23:00N 31°33' E 121°18'4581554.6
2017-Sep-17 23:00N 31°05' E 121°59'65232365.0
2017-Sep-17 23:00N 30°00' E 122°06'400119969.4
2017-Sep-17 23:00N 24°20' E 118°10'810324032.9
2017-Sep-17 23:00N 37°33' E 121°23'36146374.4
2017-Sep-17 22:59N 31°32' E 121°20'5109468.9
2017-Sep-17 22:56N 39°56' E 119°42'50025371.3
2017-Sep-17 22:55N 31°41' E 121°12'114648.8
2017-Sep-17 22:44N 29°54' E 121°59'4601988.8
2017-Sep-17 22:30N 37°33' E 121°23'387139449.7
2017-Sep-17 22:30N 31°06' E 121°57'458274745.2
2017-Sep-17 22:30N 24°15' E 118°09'468168476.8
2017-Sep-17 22:30N 31°32' E 121°20'122119.6
2017-Sep-17 22:30N 31°41' E 121°12'11112477.1
2017-Sep-17 22:29N 30°00' E 122°06'47713837.6
2017-Sep-17 22:27N 37°57' E 121°59'1609448.7
2017-Sep-17 22:26N 39°56' E 119°42'5554606.5
2017-Sep-17 22:19N 30°54' E 122°12'67820512.4
2017-Sep-17 22:17N 22°45' E 113°27'62815712.2
2017-Sep-17 22:14N 29°54' E 121°59'74319.4
2017-Sep-17 22:01N 31°08' E 121°54'3935364.1
2017-Sep-17 22:00N 31°33' E 121°18'360323992.3
2017-Sep-17 22:00N 37°33' E 121°23'457823130.5
2017-Sep-17 22:00N 29°57' E 122°07'551410.0
2017-Sep-17 21:58N 30°51' E 122°13'55917186.6
2017-Sep-17 21:56N 39°56' E 119°42'50024018.2
2017-Sep-17 21:55N 31°41' E 121°12'1111322.8
2017-Sep-17 21:50N 29°56' E 121°53'3457821.4
2017-Sep-17 21:47N 24°49' E 118°55'84713737.5
2017-Sep-17 21:43N 38°54' E 117°53'104958078.4
2017-Sep-17 21:42N 21°55' E 113°11'7253675.1
2017-Sep-17 21:31N 31°29' E 121°26'7252611046.4
2017-Sep-17 21:31N 21°53' E 113°12'7251305544.3
2017-Sep-17 21:30N 31°11' E 121°50'7935528.3
2017-Sep-17 21:30N 29°54' E 122°09'461829133.2
2017-Sep-17 21:30N 37°33' E 121°23'821109528.2
2017-Sep-17 21:30N 24°10' E 118°02'476100757.4
2017-Sep-17 21:30N 31°33' E 121°18'1006775.8
2017-Sep-17 21:29N 29°58' E 121°53'34728375.1
2017-Sep-17 21:28N 24°49' E 118°55'90829184.9
2017-Sep-17 21:26N 39°56' E 119°42'5004020.9
2017-Sep-17 21:19N 31°41' E 121°12'7302418.5
2017-Sep-17 21:01N 21°50' E 113°12'7281310666.3
2017-Sep-17 21:00N 31°15' E 121°47'3010951.3
2017-Sep-17 21:00N 31°33' E 121°18'3601295969.3
2017-Sep-17 21:00N 37°33' E 121°23'825247568.1
2017-Sep-17 21:00N 24°06' E 117°59'41018943.5
2017-Sep-17 20:59N 29°52' E 122°07'61613515.2
2017-Sep-17 20:56N 39°56' E 119°42'10922953.8
2017-Sep-17 20:34N 22°26' E 113°51'53948.2
2017-Sep-17 20:31N 21°48' E 113°11'731877568.0
2017-Sep-17 20:30N 31°18' E 121°43'282372.6
2017-Sep-17 20:30N 31°36' E 121°17'35775568.3
2017-Sep-17 20:29N 37°33' E 121°23'4629844.0
2017-Sep-17 20:27N 29°52' E 122°07'61665191.8
2017-Sep-17 20:26N 39°56' E 119°42'50016679.3
2017-Sep-17 20:24N 31°41' E 121°12'68038839.6
2017-Sep-17 20:23N 22°26' E 113°51'53140.4
2017-Sep-17 20:01N 21°48' E 113°11'731877170.7
2017-Sep-17 20:00N 31°21' E 121°38'224211.8
2017-Sep-17 20:00N 31°35' E 121°18'35841566.9
2017-Sep-17 20:00N 37°33' E 121°23'46236969.8
2017-Sep-17 19:59N 29°52' E 122°07'6309074.7
2017-Sep-17 19:55N 22°26' E 113°51'68013746.4
2017-Sep-17 19:52N 31°41' E 121°12'50018013.4
2017-Sep-17 19:50N 39°56' E 119°42'61276027.6
2017-Sep-17 19:50N 29°54' E 121°59'39143.8
2017-Sep-17 19:34N 30°31' E 122°10'4238369.7
2017-Sep-17 19:30N 37°33' E 121°23'3701330342.9
2017-Sep-17 19:30N 31°23' E 121°33'96344645.1
2017-Sep-17 19:30N 29°52' E 122°07'683351494.0
2017-Sep-17 19:30N 21°48' E 113°11'712256341.7
2017-Sep-17 19:30N 30°31' E 122°09'7615185.9
2017-Sep-17 19:30N 31°33' E 121°18'1051747.2
2017-Sep-17 19:26N 29°54' E 121°59'612200440.2
2017-Sep-17 19:26N 39°56' E 119°42'109277089.7
2017-Sep-17 19:25N 22°26' E 113°51'53129.1
2017-Sep-17 19:01N 21°48' E 113°11'729655920.2
2017-Sep-17 19:00N 31°33' E 121°18'676187292.0
2017-Sep-17 19:00N 22°26' E 113°51'988237060.2
2017-Sep-17 19:00N 37°33' E 121°23'4626961.2
2017-Sep-17 18:56N 29°52' E 122°07'361653.4
2017-Sep-17 18:55N 30°28' E 122°03'5807510.9
2017-Sep-17 18:50N 39°56' E 119°42'61281660.8
2017-Sep-17 18:50N 29°54' E 121°59'114641.7
2017-Sep-17 18:39N 31°41' E 121°12'7325137.0
2017-Sep-17 18:30N 21°48' E 113°11'10371244330.0
2017-Sep-17 18:30N 37°33' E 121°23'462138644.0
2017-Sep-17 18:30N 29°52' E 122°07'10912294.1
2017-Sep-17 18:30N 31°33' E 121°18'10231.4
2017-Sep-17 18:27N 31°41' E 121°12'50031058.0
2017-Sep-17 18:26N 39°56' E 119°42'109214507.5
2017-Sep-17 18:22N 22°26' E 113°51'10116920.5
2017-Sep-17 18:13N 38°56' E 117°51'5515293.6
2017-Sep-17 18:07N 30°22' E 121°55'6976969.3
2017-Sep-17 18:01N 21°48' E 113°11'1056158378.0
2017-Sep-17 18:00N 38°57' E 117°48'18948614.7
2017-Sep-17 18:00N 37°33' E 121°23'462166372.8
2017-Sep-17 18:00N 29°52' E 122°07'10998348.2
2017-Sep-17 18:00N 31°33' E 121°18'67690173.4
2017-Sep-17 17:59N 22°26' E 113°51'109220801.6
2017-Sep-17 17:56N 39°56' E 119°42'6125726.8
2017-Sep-17 17:50N 29°54' E 121°59'1142354.3
2017-Sep-17 17:47N 31°41' E 121°12'119432.3
2017-Sep-17 17:30N 29°52' E 122°07'109131137.5
2017-Sep-17 17:30N 31°33' E 121°18'4781720558.3
2017-Sep-17 17:30N 38°58' E 117°44'19234530.3
2017-Sep-17 17:30N 37°33' E 121°23'1642644.7
2017-Sep-17 17:26N 39°56' E 119°42'500900616.7
2017-Sep-17 17:26N 31°41' E 121°12'68034462.2
2017-Sep-17 17:25N 22°26' E 113°51'531462.6
2017-Sep-17 17:23N 21°48' E 113°11'68013154.1
2017-Sep-17 17:20N 29°54' E 121°59'4371575.9
2017-Sep-17 17:03N 23°44' E 117°38'85120553.0
2017-Sep-17 17:00N 37°33' E 121°23'192690526.8
2017-Sep-17 17:00N 38°58' E 117°44'478114710.2
2017-Sep-17 17:00N 31°33' E 121°18'50817405.9
2017-Sep-17 16:58N 23°44' E 117°37'51336229.5
2017-Sep-17 16:58N 31°41' E 121°12'11918637.6
2017-Sep-17 16:57N 29°52' E 122°07'61631665.3
2017-Sep-17 16:56N 39°56' E 119°42'47927815.1
2017-Sep-17 16:55N 31°58' E 120°27'72412344.9
2017-Sep-17 16:52N 21°48' E 113°11'6803108.8
2017-Sep-17 16:38N 29°54' E 121°59'47914248.3
2017-Sep-17 16:36N 37°52' E 121°29'1881901.6
2017-Sep-17 16:30N 38°58' E 117°44'192230172.5
2017-Sep-17 16:30N 37°33' E 121°23'10371866485.9
2017-Sep-17 16:30N 21°48' E 113°11'72353129.8
2017-Sep-17 16:30N 32°18' E 119°50'875904.2
2017-Sep-17 16:29N 31°33' E 121°18'1096902.0
2017-Sep-17 16:28N 29°52' E 122°07'61622851.5
2017-Sep-17 16:26N 39°56' E 119°42'50078307.6
2017-Sep-17 16:26N 31°41' E 121°12'6772317.3
2017-Sep-17 16:08N 22°45' E 113°27'58456.5
2017-Sep-17 16:01N 21°48' E 113°11'10561267541.0
2017-Sep-17 16:00N 38°58' E 117°44'19276724.2
2017-Sep-17 16:00N 37°33' E 121°23'979440731.7
2017-Sep-17 16:00N 22°44' E 113°27'675607058.9
2017-Sep-17 16:00N 31°33' E 121°18'1105561.5
2017-Sep-17 15:59N 29°52' E 122°07'61613125.1
2017-Sep-17 15:56N 39°56' E 119°42'6094678.4
2017-Sep-17 15:48N 29°56' E 121°54'6292108.3
2017-Sep-17 15:30N 22°43' E 113°25'5667435.3
2017-Sep-17 15:30N 21°48' E 113°11'10371866495.9
2017-Sep-17 15:30N 37°33' E 121°23'1929725.6
2017-Sep-17 15:29N 38°58' E 117°44'578519823.0
2017-Sep-17 15:29N 29°58' E 121°53'1003985.8
2017-Sep-17 15:28N 31°33' E 121°18'11218247.2
2017-Sep-17 15:27N 29°49' E 122°06'12112127.9
2017-Sep-17 15:27N 31°41' E 121°12'50064324.9
2017-Sep-17 15:26N 39°56' E 119°42'6121499.9
2017-Sep-17 15:02N 29°54' E 121°59'58329965.4
2017-Sep-17 15:00N 38°58' E 117°44'19249281.3
2017-Sep-17 15:00N 37°33' E 121°23'36061713.9
2017-Sep-17 15:00N 31°33' E 121°18'1124172.2
2017-Sep-17 14:58N 29°47' E 122°03'62017031.3
2017-Sep-17 14:56N 39°56' E 119°42'61273494.0
2017-Sep-17 14:56N 29°54' E 121°59'1159161.8
2017-Sep-17 14:55N 31°41' E 121°12'68320494.0
2017-Sep-17 14:53N 22°40' E 113°23'66299307.8
2017-Sep-17 14:52N 32°12' E 119°39'8634673.8
2017-Sep-17 14:41N 21°40' E 108°39'3188.7
2017-Sep-17 14:40N 21°37' E 108°40'5609339.9
2017-Sep-17 14:37N 24°32' E 118°19'4494210.5
2017-Sep-17 14:30N 31°33' E 121°18'36076233.5
2017-Sep-17 14:30N 37°33' E 121°23'19380.3
2017-Sep-17 14:27N 37°51' E 121°25'1487854.3
2017-Sep-17 14:26N 39°56' E 119°42'61281660.8
2017-Sep-17 14:26N 29°54' E 121°59'8752341.4
2017-Sep-17 14:03N 21°36' E 108°40'116422172.3
2017-Sep-17 14:00N 37°33' E 121°23'36025411.2
2017-Sep-17 13:59N 31°33' E 121°18'90370646.9
2017-Sep-17 13:58N 21°36' E 108°40'123831160.6
2017-Sep-17 13:56N 39°56' E 119°42'61284801.6
2017-Sep-17 13:56N 29°54' E 121°59'3041699.4
2017-Sep-17 13:45N 25°19' E 119°32'3851588.8
2017-Sep-17 13:30N 31°33' E 121°18'385231252.1
2017-Sep-17 13:30N 25°19' E 119°30'74070088.9
2017-Sep-17 13:30N 37°33' E 121°23'1642768.9
2017-Sep-17 13:26N 39°56' E 119°42'61281660.0
2017-Sep-17 13:26N 29°54' E 121°59'1151073.8
2017-Sep-17 13:19N 31°41' E 121°12'3521117.7
2017-Sep-17 13:00N 37°33' E 121°23'36049845.0
2017-Sep-17 13:00N 31°33' E 121°18'5098077.3
2017-Sep-17 12:56N 39°56' E 119°42'61278743.6
2017-Sep-17 12:56N 29°54' E 121°59'1158962.7
2017-Sep-17 12:55N 31°41' E 121°12'0 0.2
2017-Sep-17 12:31N 31°41' E 121°12'35234233.1
2017-Sep-17 12:30N 37°33' E 121°23'36092569.2
2017-Sep-17 12:30N 31°33' E 121°18'5098608.2
2017-Sep-17 12:26N 39°56' E 119°42'6123163.3
2017-Sep-17 12:14N 29°54' E 121°59'105440.4
2017-Sep-17 12:00N 31°33' E 121°18'36035026.2
2017-Sep-17 12:00N 37°33' E 121°23'4606866.0
2017-Sep-17 11:56N 29°54' E 121°59'6126701.6
2017-Sep-17 11:50N 39°56' E 119°42'50090070.2
2017-Sep-17 11:50N 31°41' E 121°12'3521094.7
2017-Sep-17 11:30N 37°33' E 121°23'36038116.7
2017-Sep-17 11:30N 31°33' E 121°18'10258.1
2017-Sep-17 11:28N 31°41' E 121°12'50019369.9
2017-Sep-17 11:26N 39°56' E 119°42'6125817.5
2017-Sep-17 11:20N 29°54' E 121°59'4601424.0
2017-Sep-17 11:00N 37°33' E 121°23'3609391.1
2017-Sep-17 10:58N 31°33' E 121°18'5093827.9
2017-Sep-17 10:50N 39°56' E 119°42'61388275.1
2017-Sep-17 10:50N 29°54' E 122°01'1151379.6
2017-Sep-17 10:45N 31°41' E 121°12'51370995.3
2017-Sep-17 10:44N 23°46' E 117°35'62383.9
2017-Sep-17 10:35N 24°32' E 118°19'79611109.6
2017-Sep-17 10:30N 37°33' E 121°23'36053998.7
2017-Sep-17 10:30N 31°33' E 121°18'5098041.9
2017-Sep-17 10:26N 39°56' E 119°42'61371164.0
2017-Sep-17 10:26N 29°55' E 122°06'1161217.3
2017-Sep-17 10:20N 31°41' E 121°12'3521078.9
2017-Sep-17 10:00N 37°33' E 121°23'360107997.4
2017-Sep-17 10:00N 31°33' E 121°18'36316328.8
2017-Sep-17 09:59N 37°30' E 119°58'1473306.8
2017-Sep-17 09:56N 39°56' E 119°42'5009685.0
2017-Sep-17 09:53N 31°41' E 121°12'1172153.2
2017-Sep-17 09:50N 29°55' E 122°07'4641427.1
2017-Sep-17 09:30N 37°26' E 119°56'69249757.5
2017-Sep-17 09:30N 37°33' E 121°23'36046284.6
2017-Sep-17 09:30N 31°33' E 121°18'5098372.5
2017-Sep-17 09:26N 39°56' E 119°42'6131988.8
2017-Sep-17 09:08N 29°55' E 122°07'4603786.1
2017-Sep-17 09:00N 37°33' E 121°23'360185138.5
2017-Sep-17 09:00N 31°33' E 121°18'10238.9
2017-Sep-17 08:58N 31°41' E 121°12'50018014.0
2017-Sep-17 08:56N 39°56' E 119°42'61378840.1
2017-Sep-17 08:56N 29°55' E 122°07'4601079.3
2017-Sep-17 08:30N 37°33' E 121°23'360431989.8
2017-Sep-17 08:30N 31°33' E 121°18'10115862.8
2017-Sep-17 08:30N 29°56' E 121°53'1112306.9
2017-Sep-17 08:27N 31°41' E 121°12'5004514.8
2017-Sep-17 08:20N 39°56' E 119°42'613110376.2
2017-Sep-17 08:20N 29°55' E 122°07'107328.4
2017-Sep-17 08:00N 31°33' E 121°18'360431989.8
2017-Sep-17 08:00N 37°33' E 121°23'45721652.9
2017-Sep-17 07:59N 29°56' E 121°54'60912906.0
2017-Sep-17 07:56N 39°56' E 119°42'61381759.3
2017-Sep-17 07:56N 29°55' E 122°07'108257.6
2017-Sep-17 07:30N 31°34' E 121°18'359184409.7
2017-Sep-17 07:30N 37°33' E 121°23'35252774.9
2017-Sep-17 07:30N 31°41' E 121°12'5007900.9
2017-Sep-17 07:26N 39°56' E 119°42'61388300.9
2017-Sep-17 07:26N 29°55' E 122°07'109257.5
2017-Sep-17 07:00N 31°36' E 121°19'35758431.6
2017-Sep-17 07:00N 37°33' E 121°23'1642586.8
2017-Sep-17 06:56N 39°56' E 119°42'5005045.9
2017-Sep-17 06:50N 31°41' E 121°12'11718255.8
2017-Sep-17 06:50N 29°55' E 122°07'107332.7
2017-Sep-17 06:30N 31°33' E 121°19'36031572.1
2017-Sep-17 06:30N 37°33' E 121°23'35218356.5
2017-Sep-17 06:29N 31°41' E 121°12'117419999.4
2017-Sep-17 06:29N 29°55' E 122°07'61314151.4
2017-Sep-17 06:26N 39°56' E 119°42'164384.5
2017-Sep-17 06:00N 37°33' E 121°23'36099689.9
2017-Sep-17 06:00N 31°33' E 121°18'5097305.1
2017-Sep-17 05:56N 39°56' E 119°42'61391981.9
2017-Sep-17 05:56N 29°55' E 122°07'8755180.9
2017-Sep-17 05:46N 20°03' E 110°16'12024759.2
2017-Sep-17 05:30N 37°33' E 121°23'360647984.7
2017-Sep-17 05:30N 31°33' E 121°18'91016381.0
2017-Sep-17 05:27N 20°07' E 110°13'128779860.2
2017-Sep-17 05:26N 39°56' E 119°42'6146517.9
2017-Sep-17 05:20N 29°53' E 122°04'107320.3
2017-Sep-17 05:00N 31°33' E 121°18'360259193.9
2017-Sep-17 05:00N 37°33' E 121°23'1642340.5
2017-Sep-17 04:56N 39°56' E 119°42'614100435.4
2017-Sep-17 04:56N 29°53' E 122°04'30773642.6
2017-Sep-17 04:55N 25°19' E 119°29'3925027.2
2017-Sep-17 04:51N 31°41' E 121°12'1029.0
2017-Sep-17 04:30N 31°33' E 121°18'385231254.6
2017-Sep-17 04:30N 25°19' E 119°32'740532839.1
2017-Sep-17 04:30N 37°33' E 121°23'1642331.2
2017-Sep-17 04:26N 39°56' E 119°42'61488383.2
2017-Sep-17 04:26N 29°53' E 122°04'117701.5
2017-Sep-17 04:16N 31°41' E 121°12'3521363.4
2017-Sep-17 04:00N 37°33' E 121°23'36056346.5
2017-Sep-17 04:00N 31°33' E 121°18'5098185.6
2017-Sep-17 03:56N 39°56' E 119°42'108410630.9
2017-Sep-17 03:50N 22°37' E 113°43'627161197.8
2017-Sep-17 03:50N 29°53' E 122°04'1173527.0
2017-Sep-17 03:48N 31°41' E 121°12'3491865.1
2017-Sep-17 03:37N 37°25' E 119°57'69649.8
2017-Sep-17 03:30N 37°33' E 121°23'36071998.3
2017-Sep-17 03:30N 31°33' E 121°18'67047319.0
2017-Sep-17 03:29N 22°39' E 113°42'94339015.5
2017-Sep-17 03:28N 37°25' E 119°57'45939334.6
2017-Sep-17 03:27N 29°56' E 121°53'60947696.8
2017-Sep-17 03:26N 39°56' E 119°42'614110479.0
2017-Sep-17 03:26N 29°53' E 122°04'117506.4
2017-Sep-17 03:12N 31°41' E 121°12'3491837.8
2017-Sep-17 03:01N 37°25' E 119°57'358161237.2
2017-Sep-17 03:00N 31°33' E 121°18'36064798.5
2017-Sep-17 03:00N 37°33' E 121°23'975877673.1
2017-Sep-17 03:00N 22°43' E 113°40'10786520.2
2017-Sep-17 02:50N 39°56' E 119°42'6145830.0
2017-Sep-17 02:44N 29°53' E 122°04'5793224.0
2017-Sep-17 02:33N 38°54' E 117°55'47210417.1
2017-Sep-17 02:30N 31°33' E 121°18'360259198.2
2017-Sep-17 02:30N 37°33' E 121°23'9731751393.3
2017-Sep-17 02:30N 22°47' E 113°38'504604505.3
2017-Sep-17 02:30N 16°06' E 108°14'142431263.6
2017-Sep-17 02:27N 37°25' E 119°57'1527004.3
2017-Sep-17 02:26N 39°56' E 119°42'5005409.0
2017-Sep-17 02:21N 31°41' E 121°12'1177632.2
2017-Sep-17 02:20N 29°53' E 122°04'85305.0
2017-Sep-17 02:03N 31°13' E 121°30'65816212.9
2017-Sep-17 02:00N 22°50' E 113°35'971349544.5
2017-Sep-17 02:00N 37°33' E 121°23'36030856.9
2017-Sep-17 02:00N 31°33' E 121°18'3589554.8
2017-Sep-17 01:57N 37°25' E 119°57'1527004.3
2017-Sep-17 01:56N 39°56' E 119°42'50010119.1
2017-Sep-17 01:53N 31°41' E 121°11'31638.6
2017-Sep-17 01:50N 31°14' E 121°29'868595.9
2017-Sep-17 01:50N 29°53' E 122°04'6201952.3
2017-Sep-17 01:31N 22°54' E 113°34'657236502.4
2017-Sep-17 01:30N 31°15' E 121°31'37850359.2
2017-Sep-17 01:30N 37°33' E 121°23'691630.9
2017-Sep-17 01:27N 37°25' E 119°57'349314277.5
2017-Sep-17 01:27N 31°41' E 121°11'50024675.2
2017-Sep-17 01:26N 39°56' E 119°42'61478912.0
2017-Sep-17 01:26N 29°53' E 122°04'6191479.2
2017-Sep-17 01:00N 22°57' E 113°33'929371549.4
2017-Sep-17 01:00N 37°25' E 119°57'358128989.8
2017-Sep-17 01:00N 31°33' E 121°18'36058907.7
2017-Sep-17 01:00N 37°33' E 121°23'1642656.7
2017-Sep-17 00:56N 39°56' E 119°42'47915967.9
2017-Sep-17 00:54N 31°58' E 120°27'711870.5
2017-Sep-17 00:52N 31°17' E 121°34'872291.1
2017-Sep-17 00:50N 29°53' E 122°04'6161920.6
2017-Sep-17 00:31N 22°59' E 113°34'9631732958.5
2017-Sep-17 00:30N 37°33' E 121°23'3607902.3
2017-Sep-17 00:28N 31°33' E 121°18'502162.9
2017-Sep-17 00:26N 31°58' E 120°27'479114970.5
2017-Sep-17 00:26N 39°56' E 119°42'614105218.1
2017-Sep-17 00:26N 29°53' E 122°04'37846971.2
2017-Sep-17 00:25N 24°32' E 118°19'77750850.1
2017-Sep-17 00:24N 37°25' E 119°57'3742501.1
2017-Sep-17 00:15N 31°20' E 121°33'3731494.4
2017-Sep-17 00:00N 37°33' E 121°23'7036166.7
2017-Sep-17 00:00N 37°26' E 119°55'36024928.2
2017-Sep-16 23:59N 31°33' E 121°18'503493.9
2017-Sep-16 23:59N 31°58' E 120°27'652213238.7
2017-Sep-16 23:58N 22°59' E 113°34'106427753.2
2017-Sep-16 23:56N 39°56' E 119°42'61484983.8
2017-Sep-16 23:56N 29°53' E 122°04'9113139.7
2017-Sep-16 23:55N 31°21' E 121°32'2793.3
2017-Sep-16 23:38N 31°41' E 121°11'1078.8
2017-Sep-16 23:30N 31°33' E 121°18'360117817.4
2017-Sep-16 23:30N 37°33' E 121°23'37128445.1
2017-Sep-16 23:29N 31°21' E 121°30'4169861.3
2017-Sep-16 23:27N 24°48' E 118°56'90996237.6
2017-Sep-16 23:26N 39°56' E 119°42'61478913.5
2017-Sep-16 23:26N 29°53' E 122°04'61611204.1
2017-Sep-16 23:22N 22°59' E 113°34'6615433.3
2017-Sep-16 23:15N 31°41' E 121°11'1041.3
2017-Sep-16 23:01N 31°33' E 121°18'360107997.4
2017-Sep-16 23:00N 37°33' E 121°23'370133114.4
2017-Sep-16 23:00N 31°23' E 121°30'65822343.9
2017-Sep-16 22:58N 22°59' E 113°34'106427553.4
2017-Sep-16 22:56N 39°56' E 119°42'5007008.8
2017-Sep-16 22:52N 31°41' E 121°11'1173359.0
2017-Sep-16 22:50N 29°53' E 122°04'1227217.8
2017-Sep-16 22:49N 31°44' E 121°04'1754.6
2017-Sep-16 22:30N 31°33' E 121°18'360431989.8
2017-Sep-16 22:30N 37°33' E 121°23'348139200.9
2017-Sep-16 22:30N 31°45' E 121°05'312083.2
2017-Sep-16 22:29N 31°24' E 121°31'51910054.6
2017-Sep-16 22:26N 39°56' E 119°42'61388292.0
2017-Sep-16 22:26N 29°54' E 122°02'615110754.1
2017-Sep-16 22:25N 22°59' E 113°34'6619596.4
2017-Sep-16 22:21N 31°41' E 121°11'7135846.6
2017-Sep-16 22:14N 22°13' E 113°08'7103187.8
2017-Sep-16 22:01N 31°33' E 121°18'712320257.7
2017-Sep-16 22:00N 22°12' E 113°06'1016243924.2
2017-Sep-16 22:00N 37°33' E 121°23'96331798.3
2017-Sep-16 21:58N 22°59' E 113°34'66130125.3
2017-Sep-16 21:57N 31°41' E 121°11'50032750.4
2017-Sep-16 21:56N 39°56' E 119°42'6125697.2
2017-Sep-16 21:50N 29°54' E 121°59'3771336.9
2017-Sep-16 21:33N 24°32' E 118°19'44812023.7
2017-Sep-16 21:31N 31°28' E 121°26'36548604.3
2017-Sep-16 21:30N 37°33' E 121°23'36092569.2
2017-Sep-16 21:30N 31°33' E 121°18'65826632.2
2017-Sep-16 21:28N 22°59' E 113°34'106427956.2
2017-Sep-16 21:26N 39°56' E 119°42'926476384.7
2017-Sep-16 21:26N 24°32' E 118°19'4552961.0
2017-Sep-16 21:17N 31°41' E 121°11'1152193.1
2017-Sep-16 21:14N 29°54' E 121°59'105472.3
2017-Sep-16 21:00N 31°33' E 121°18'103595.5
2017-Sep-16 21:00N 31°41' E 121°11'352158331.0
2017-Sep-16 21:00N 37°33' E 121°23'96336104.3
2017-Sep-16 20:58N 22°59' E 113°34'2777600.4
2017-Sep-16 20:56N 24°32' E 118°19'926666938.5
2017-Sep-16 20:56N 39°56' E 119°42'164381.0
2017-Sep-16 20:30N 37°33' E 121°23'360647984.7
2017-Sep-16 20:30N 31°33' E 121°18'503303.3
2017-Sep-16 20:29N 31°58' E 120°27'65238454.9
2017-Sep-16 20:28N 22°59' E 113°34'661216357.8
2017-Sep-16 20:28N 31°41' E 121°11'11404.7
2017-Sep-16 20:26N 31°32' E 121°20'51087430.4
2017-Sep-16 20:26N 39°56' E 119°42'6122931.9
2017-Sep-16 20:14N 29°54' E 121°59'711132.4
2017-Sep-16 20:10N 31°05' E 122°01'46296.2
2017-Sep-16 20:01N 31°33' E 121°18'36035026.2
2017-Sep-16 20:00N 37°33' E 121°23'96337269.0
2017-Sep-16 19:58N 22°59' E 113°34'106428582.1
2017-Sep-16 19:56N 39°56' E 119°42'50060042.4
2017-Sep-16 19:56N 31°41' E 121°11'421483.9
2017-Sep-16 19:54N 31°58' E 120°27'931690.1
2017-Sep-16 19:51N 31°06' E 121°58'46882.5
2017-Sep-16 19:48N 31°36' E 121°17'43149.5
2017-Sep-16 19:30N 31°08' E 121°55'4024088.2
2017-Sep-16 19:30N 31°33' E 121°18'36058907.7
2017-Sep-16 19:30N 37°33' E 121°23'35513759.0
2017-Sep-16 19:28N 31°37' E 121°15'6612377826.4
2017-Sep-16 19:28N 22°59' E 113°34'106427753.6
2017-Sep-16 19:26N 39°56' E 119°42'5009381.6
2017-Sep-16 19:23N 31°41' E 121°11'4213624.7
2017-Sep-16 19:23N 31°58' E 120°27'50136.5
2017-Sep-16 19:00N 31°33' E 121°18'3601295969.3
2017-Sep-16 19:00N 37°33' E 121°23'382343901.7
2017-Sep-16 19:00N 31°11' E 121°50'852493.3
2017-Sep-16 18:58N 31°58' E 120°27'47912406.9
2017-Sep-16 18:56N 39°56' E 119°42'106491190.9
2017-Sep-16 18:55N 22°59' E 113°34'521830.6
2017-Sep-16 18:54N 22°14' E 113°05'7136899.4
2017-Sep-16 18:47N 31°40' E 121°11'39136.5
2017-Sep-16 18:30N 31°15' E 121°46'378453365.8
2017-Sep-16 18:30N 37°33' E 121°23'360215998.5
2017-Sep-16 18:30N 31°33' E 121°18'111558.2
2017-Sep-16 18:30N 31°41' E 121°09'1252268.3
2017-Sep-16 18:27N 29°43' E 121°57'62383089.6
2017-Sep-16 18:26N 39°56' E 119°42'106483261.3
2017-Sep-16 18:25N 22°59' E 113°34'661339988.5
2017-Sep-16 18:25N 31°41' E 121°11'551116672.6
2017-Sep-16 18:25N 22°58' E 117°57'55712765.3
2017-Sep-16 18:22N 31°58' E 120°27'50138.9
2017-Sep-16 18:01N 31°33' E 121°18'2522059.9
2017-Sep-16 18:00N 31°19' E 121°42'374192216.8
2017-Sep-16 18:00N 37°33' E 121°23'468561712.8
2017-Sep-16 18:00N 29°46' E 122°01'1235268.5
2017-Sep-16 17:59N 31°41' E 121°11'5515.7
2017-Sep-16 17:58N 31°43' E 121°07'6602377445.8
2017-Sep-16 17:58N 22°59' E 113°34'106428582.1
2017-Sep-16 17:56N 39°56' E 119°42'5091178.4
2017-Sep-16 17:30N 31°33' E 121°18'194989.0
2017-Sep-16 17:30N 31°22' E 121°37'371267015.3
2017-Sep-16 17:30N 37°33' E 121°23'46479621.9
2017-Sep-16 17:29N 29°50' E 122°05'61810902.4
2017-Sep-16 17:26N 39°56' E 119°42'106483260.8
2017-Sep-16 17:25N 22°59' E 113°34'66137186.2
2017-Sep-16 17:24N 31°41' E 121°11'422270.9
2017-Sep-16 17:23N 31°58' E 120°27'4603896.9
2017-Sep-16 17:16N 24°32' E 118°19'4491729.2
2017-Sep-16 17:00N 31°33' E 121°18'360143999.0
2017-Sep-16 17:00N 37°33' E 121°23'369147413.9
2017-Sep-16 17:00N 31°24' E 121°32'9623002.3
2017-Sep-16 17:00N 29°54' E 122°09'61923724.8
2017-Sep-16 16:58N 22°59' E 113°34'106427553.8
2017-Sep-16 16:56N 39°56' E 119°42'47921829.6
2017-Sep-16 16:55N 31°58' E 120°27'66188189.9
2017-Sep-16 16:54N 22°44' E 113°40'27714474.1
2017-Sep-16 16:53N 24°32' E 118°19'4554133.1
2017-Sep-16 16:47N 31°41' E 121°12'2074.5
2017-Sep-16 16:31N 31°27' E 121°28'366658669.6
2017-Sep-16 16:30N 37°33' E 121°23'459103274.4
2017-Sep-16 16:30N 29°55' E 122°03'105189365.4
2017-Sep-16 16:30N 31°33' E 121°18'8511.3
2017-Sep-16 16:29N 31°40' E 121°13'66145765.4
2017-Sep-16 16:28N 22°59' E 113°34'106428161.6
2017-Sep-16 16:26N 39°56' E 119°42'5131198.6
2017-Sep-16 16:00N 31°30' E 121°25'72032.4
2017-Sep-16 16:00N 31°33' E 121°18'360161998.9
2017-Sep-16 16:00N 37°33' E 121°23'35513738.9
2017-Sep-16 15:59N 31°38' E 121°16'1067190.6
2017-Sep-16 15:58N 29°58' E 121°57'60823288.4
2017-Sep-16 15:56N 39°56' E 119°42'106489069.7
2017-Sep-16 15:55N 22°59' E 113°34'6526045.7
2017-Sep-16 15:49N 31°58' E 120°27'401206463.0
2017-Sep-16 15:49N 25°19' E 119°39'3648738.2
2017-Sep-16 15:46N 22°51' E 113°34'2791604.2
2017-Sep-16 15:36N 24°32' E 118°19'4494858.9
2017-Sep-16 15:30N 31°32' E 121°21'3890.9
2017-Sep-16 15:30N 31°33' E 121°18'360259198.2
2017-Sep-16 15:30N 37°33' E 121°23'35712020.0
2017-Sep-16 15:28N 31°35' E 121°18'50714475.1
2017-Sep-16 15:26N 39°56' E 119°42'106483259.2
2017-Sep-16 15:25N 22°59' E 113°34'65249906.9
2017-Sep-16 15:25N 31°58' E 120°27'65816460.1
2017-Sep-16 15:22N 22°52' E 113°32'36265106.8
2017-Sep-16 15:22N 25°18' E 119°35'83402.4
2017-Sep-16 15:09N 24°32' E 118°19'5056188.2
2017-Sep-16 15:05N 20°14' E 110°29'118616750.2
2017-Sep-16 15:00N 37°33' E 121°23'360143996.6
2017-Sep-16 15:00N 31°33' E 121°18'6652395339.1
2017-Sep-16 15:00N 22°54' E 113°30'667266797.7
2017-Sep-16 15:00N 31°33' E 121°20'2199.4
2017-Sep-16 14:59N 31°35' E 121°18'66040267.4
2017-Sep-16 14:58N 22°59' E 113°34'660139787.0
2017-Sep-16 14:58N 31°45' E 121°04'39488699.9
2017-Sep-16 14:58N 25°19' E 119°31'5875988.3
2017-Sep-16 14:52N 20°13' E 110°28'127642545.9
2017-Sep-16 14:50N 39°56' E 119°42'47914371.3
2017-Sep-16 14:48N 31°58' E 120°27'47157.3
2017-Sep-16 14:30N 31°37' E 121°16'668401048.0
2017-Sep-16 14:30N 22°55' E 113°27'970205366.6
2017-Sep-16 14:30N 37°33' E 121°23'360431989.8
2017-Sep-16 14:30N 31°33' E 121°18'38686869.4
2017-Sep-16 14:30N 25°19' E 119°27'7769661.8
2017-Sep-16 14:30N 24°32' E 118°19'510204006.1
2017-Sep-16 14:29N 20°12' E 110°25'902141150.4
2017-Sep-16 14:29N 31°31' E 121°24'66066048.3
2017-Sep-16 14:28N 22°59' E 113°34'65267020.5
2017-Sep-16 14:28N 31°58' E 120°27'47917075.0
2017-Sep-16 14:26N 39°56' E 119°42'5141203.7
2017-Sep-16 14:00N 31°29' E 121°27'165654.4
2017-Sep-16 14:00N 31°39' E 121°13'905651410.7
2017-Sep-16 14:00N 20°11' E 110°21'1193186696.4
2017-Sep-16 14:00N 37°33' E 121°23'971437049.4
2017-Sep-16 14:00N 22°54' E 113°24'661158648.2
2017-Sep-16 13:59N 31°58' E 120°27'5090840.2
2017-Sep-16 13:59N 31°33' E 121°18'65836465.6
2017-Sep-16 13:58N 22°59' E 113°34'106428370.3
2017-Sep-16 13:56N 39°56' E 119°42'109512283.9
2017-Sep-16 13:51N 22°23' E 113°50'9912933.9
2017-Sep-16 13:30N 37°33' E 121°23'1195537842.1
2017-Sep-16 13:30N 20°10' E 110°16'237142228.6
2017-Sep-16 13:30N 22°54' E 113°21'672161381.9
2017-Sep-16 13:30N 31°26' E 121°30'235141.1
2017-Sep-16 13:30N 31°41' E 121°10'68024239.2
2017-Sep-16 13:28N 22°25' E 113°51'677203200.7
2017-Sep-16 13:28N 31°33' E 121°18'50917462.6
2017-Sep-16 13:26N 39°56' E 119°42'106487045.4
2017-Sep-16 13:25N 22°59' E 113°34'6523735.2
2017-Sep-16 13:15N 31°58' E 120°27'50210.5
2017-Sep-16 13:01N 31°33' E 121°18'909233793.9
2017-Sep-16 13:00N 20°09' E 110°11'912182475.1
2017-Sep-16 13:00N 31°24' E 121°33'301442.7
2017-Sep-16 12:59N 31°44' E 121°07'661108103.0
2017-Sep-16 12:58N 22°59' E 113°34'106428161.7
2017-Sep-16 12:56N 39°56' E 119°42'4795210.2
2017-Sep-16 12:51N 31°58' E 120°27'50151.0
2017-Sep-16 12:31N 31°33' E 121°18'3601295969.3
2017-Sep-16 12:31N 37°33' E 121°23'370666844.9
2017-Sep-16 12:30N 31°22' E 121°37'917206305.6
2017-Sep-16 12:30N 20°09' E 110°06'913131531.1
2017-Sep-16 12:30N 31°46' E 121°03'33563.5
2017-Sep-16 12:26N 31°58' E 120°27'479191619.9
2017-Sep-16 12:26N 39°56' E 119°42'106417174.9
2017-Sep-16 12:22N 22°59' E 113°34'37799.6
2017-Sep-16 12:20N 22°26' E 113°52'6762128.3
2017-Sep-16 12:01N 31°33' E 121°18'2342135.3
2017-Sep-16 12:00N 31°20' E 121°41'373134123.0
2017-Sep-16 12:00N 37°33' E 121°23'988136772.4
2017-Sep-16 12:00N 22°26' E 113°52'371476.2
2017-Sep-16 11:58N 22°59' E 113°34'65230073.5
2017-Sep-16 11:57N 31°58' E 120°27'47930255.4
2017-Sep-16 11:56N 39°56' E 119°42'5091193.0
2017-Sep-16 11:30N 31°33' E 121°18'2796707.4
2017-Sep-16 11:30N 31°17' E 121°44'37645087.7
2017-Sep-16 11:30N 37°33' E 121°23'33816201.4
2017-Sep-16 11:29N 31°58' E 120°27'65297738.9
2017-Sep-16 11:28N 22°59' E 113°34'106428161.7
2017-Sep-16 11:26N 39°56' E 119°42'5091196.9
2017-Sep-16 11:01N 31°33' E 121°18'5013975.4
2017-Sep-16 11:00N 31°58' E 120°27'781860.9
2017-Sep-16 10:58N 31°17' E 121°44'52918848.3
2017-Sep-16 10:56N 39°56' E 119°42'106485110.6
2017-Sep-16 10:55N 22°59' E 113°34'38108.2
2017-Sep-16 10:35N 22°25' E 113°51'67710032.3
2017-Sep-16 10:30N 31°33' E 121°18'2899511.9
2017-Sep-16 10:30N 31°17' E 121°44'37654199.1
2017-Sep-16 10:30N 37°33' E 121°23'1642478.1
2017-Sep-16 10:26N 39°56' E 119°42'106483260.8
2017-Sep-16 10:25N 22°59' E 113°34'385406.7
2017-Sep-16 10:25N 22°25' E 113°51'67338443.9
2017-Sep-16 10:24N 31°58' E 120°27'50128.5
2017-Sep-16 10:00N 31°33' E 121°18'360161996.2
2017-Sep-16 10:00N 37°33' E 121°23'96332392.7
2017-Sep-16 09:58N 22°59' E 113°34'662170116.0
2017-Sep-16 09:58N 31°17' E 121°44'52915604.1
2017-Sep-16 09:56N 39°56' E 119°42'109354644.7
2017-Sep-16 09:55N 22°25' E 113°51'6739003.7
2017-Sep-16 09:50N 31°58' E 120°27'3381006.7
2017-Sep-16 09:30N 37°33' E 121°23'360647984.7
2017-Sep-16 09:30N 31°33' E 121°18'5030278.3
2017-Sep-16 09:30N 31°58' E 120°27'673142468.7
2017-Sep-16 09:30N 22°25' E 113°51'381438.0
2017-Sep-16 09:28N 22°59' E 113°34'66276826.6
2017-Sep-16 09:28N 31°17' E 121°44'52918130.4
2017-Sep-16 09:26N 39°56' E 119°42'5091195.3
2017-Sep-16 09:00N 31°33' E 121°18'36020249.5
2017-Sep-16 08:59N 37°33' E 121°23'96353323.6
2017-Sep-16 08:58N 22°59' E 113°34'65258643.8
2017-Sep-16 08:58N 31°58' E 120°27'47917964.1
2017-Sep-16 08:56N 39°56' E 119°42'109378688.8
2017-Sep-16 08:55N 22°25' E 113°51'67910357.3
2017-Sep-16 08:51N 31°17' E 121°44'14250.2
2017-Sep-16 08:48N 31°23' E 121°30'1448.7
2017-Sep-16 08:30N 31°33' E 121°18'36040499.0
2017-Sep-16 08:30N 37°33' E 121°23'33833752.9
2017-Sep-16 08:29N 31°58' E 120°27'65237834.4
2017-Sep-16 08:28N 22°59' E 113°34'66223580.4
2017-Sep-16 08:27N 31°17' E 121°44'52957687.1
2017-Sep-16 08:26N 39°56' E 119°42'164383.5
2017-Sep-16 08:00N 37°33' E 121°23'36053998.7
2017-Sep-16 08:00N 31°33' E 121°18'65822791.0
2017-Sep-16 07:58N 22°59' E 113°34'65236088.2
2017-Sep-16 07:57N 31°58' E 120°27'785203.8
2017-Sep-16 07:56N 31°17' E 121°44'15660.8
2017-Sep-16 07:55N 31°25' E 121°29'5186386.0
2017-Sep-16 07:50N 39°56' E 119°42'5091560.5
2017-Sep-16 07:30N 31°33' E 121°18'360185138.5
2017-Sep-16 07:30N 37°33' E 121°23'1642303.9
2017-Sep-16 07:26N 39°56' E 119°42'529271959.7
2017-Sep-16 07:26N 31°17' E 121°44'66262673.9
2017-Sep-16 07:25N 22°59' E 113°34'6581589.7
2017-Sep-16 07:01N 31°33' E 121°18'36039271.8
2017-Sep-16 07:00N 37°33' E 121°23'37690331.9
2017-Sep-16 07:00N 31°17' E 121°44'66228694.1
2017-Sep-16 06:58N 22°59' E 113°34'106428161.7
2017-Sep-16 06:56N 39°56' E 119°42'10935109.9
2017-Sep-16 06:43N 22°25' E 113°51'9894586.4
2017-Sep-16 06:30N 37°33' E 121°23'989148292.1
2017-Sep-16 06:30N 22°25' E 113°51'67744326.0
2017-Sep-16 06:29N 31°33' E 121°18'282073.2
2017-Sep-16 06:28N 31°17' E 121°44'66213927.6
2017-Sep-16 06:25N 22°59' E 113°34'106412120.2
2017-Sep-16 06:20N 39°56' E 119°42'5091544.7
2017-Sep-16 06:00N 31°33' E 121°18'36031609.0
2017-Sep-16 06:00N 37°33' E 121°23'37623771.2
2017-Sep-16 05:59N 31°17' E 121°44'52912524.3
2017-Sep-16 05:56N 39°56' E 119°42'106483260.8
2017-Sep-16 05:55N 22°59' E 113°34'6522221.3
2017-Sep-16 05:38N 31°58' E 120°27'50411.9
2017-Sep-16 05:30N 31°33' E 121°18'36080998.1
2017-Sep-16 05:30N 37°33' E 121°23'376225826.2
2017-Sep-16 05:30N 31°17' E 121°44'66223349.3
2017-Sep-16 05:28N 22°59' E 113°34'106428582.1
2017-Sep-16 05:26N 39°56' E 119°42'4793329.3
2017-Sep-16 05:17N 31°58' E 120°27'50178.5
2017-Sep-16 05:00N 31°33' E 121°18'36047998.9
2017-Sep-16 05:00N 37°33' E 121°23'96333980.5
2017-Sep-16 04:58N 22°59' E 113°34'66219206.6
2017-Sep-16 04:56N 31°17' E 121°44'529146438.2
2017-Sep-16 04:56N 39°56' E 119°42'4799854.6
2017-Sep-16 04:53N 31°58' E 120°27'6733814.3
2017-Sep-16 04:43N 22°25' E 113°51'6773312.4
2017-Sep-16 04:30N 31°33' E 121°18'360161993.5
2017-Sep-16 04:30N 37°33' E 121°23'96332392.5
2017-Sep-16 04:28N 22°59' E 113°34'66224056.8
2017-Sep-16 04:27N 31°17' E 121°44'52947592.4
2017-Sep-16 04:26N 39°56' E 119°42'10933891.8
2017-Sep-16 04:09N 22°25' E 113°51'6774626.1
2017-Sep-16 04:00N 31°33' E 121°18'360161996.2
2017-Sep-16 04:00N 37°33' E 121°23'3763816.8
2017-Sep-16 03:54N 31°17' E 121°44'66219682.8
2017-Sep-16 03:52N 22°59' E 113°34'106427753.8
2017-Sep-16 03:50N 39°56' E 119°42'5091561.8
2017-Sep-16 03:30N 31°33' E 121°18'36035026.2
2017-Sep-16 03:30N 37°33' E 121°23'37629455.6
2017-Sep-16 03:29N 31°17' E 121°44'66250673.2
2017-Sep-16 03:28N 22°59' E 113°34'106428370.5
2017-Sep-16 03:26N 39°56' E 119°42'4968881.3
2017-Sep-16 03:23N 31°45' E 121°06'465.8
2017-Sep-16 03:19N 31°42' E 121°09'391133.5
2017-Sep-16 03:17N 31°58' E 120°27'50176.5
2017-Sep-16 03:00N 31°33' E 121°18'360259193.9
2017-Sep-16 03:00N 37°33' E 121°23'96340302.5
2017-Sep-16 02:58N 22°59' E 113°34'381253.8
2017-Sep-16 02:57N 22°25' E 113°51'1093140523.9
2017-Sep-16 02:56N 39°56' E 119°42'498128070.3
2017-Sep-16 02:56N 31°43' E 121°08'4116210.4
2017-Sep-16 02:56N 31°17' E 121°44'78697.3
2017-Sep-16 02:49N 31°58' E 120°27'50163.7
2017-Sep-16 02:30N 31°33' E 121°18'36017052.5
2017-Sep-16 02:29N 37°33' E 121°23'33836822.0
2017-Sep-16 02:29N 31°58' E 120°27'652130318.5
2017-Sep-16 02:28N 22°59' E 113°34'66261066.1
2017-Sep-16 02:28N 31°17' E 121°44'388455.2
2017-Sep-16 02:27N 31°41' E 121°11'50021435.2
2017-Sep-16 02:26N 39°56' E 119°42'5111830.3
2017-Sep-16 02:09N 31°31' E 121°19'213.3
2017-Sep-16 02:00N 31°33' E 121°18'27071.9
2017-Sep-16 02:00N 31°31' E 121°19'361260229.5
2017-Sep-16 02:00N 37°33' E 121°23'33819920.5
2017-Sep-16 01:59N 31°58' E 120°27'65238454.4
2017-Sep-16 01:58N 22°59' E 113°34'66252923.9
2017-Sep-16 01:58N 31°17' E 121°44'341469.4
2017-Sep-16 01:56N 31°39' E 121°14'503301509.3
2017-Sep-16 01:56N 39°56' E 119°42'164381.0
2017-Sep-16 01:30N 37°33' E 121°23'360161998.9
2017-Sep-16 01:30N 31°33' E 121°18'278.4
2017-Sep-16 01:29N 31°31' E 121°19'7880.0
2017-Sep-16 01:28N 31°37' E 121°16'323787.5
2017-Sep-16 01:28N 31°17' E 121°44'783649.7
2017-Sep-16 01:26N 31°58' E 120°27'47990765.1
2017-Sep-16 01:26N 39°56' E 119°42'106417098.1
2017-Sep-16 01:22N 22°59' E 113°34'6581803.2
2017-Sep-16 01:00N 31°31' E 121°19'361118286.1
2017-Sep-16 01:00N 37°33' E 121°23'33830378.7
2017-Sep-16 01:00N 31°58' E 120°27'65231276.2
2017-Sep-16 00:58N 22°59' E 113°34'66250671.8
2017-Sep-16 00:58N 31°17' E 121°44'52921390.3
2017-Sep-16 00:56N 39°56' E 119°42'11154772.3
2017-Sep-16 00:42N 22°14' E 113°05'7113670.2
2017-Sep-16 00:30N 31°31' E 121°19'2641.5
2017-Sep-16 00:30N 31°33' E 121°18'360259193.9
2017-Sep-16 00:30N 37°33' E 121°23'10161219229.9
2017-Sep-16 00:30N 22°13' E 113°05'705317280.7
2017-Sep-16 00:30N 31°58' E 120°27'783054.7
2017-Sep-16 00:28N 31°17' E 121°44'662264619.6
2017-Sep-16 00:28N 22°59' E 113°34'106428370.3
2017-Sep-16 00:26N 39°56' E 119°42'4973030.1
2017-Sep-16 00:16N 31°43' E 121°08'18130.7
2017-Sep-16 00:08N 31°31' E 121°23'3612808.7
2017-Sep-16 00:00N 37°33' E 121°23'360647984.7
2017-Sep-16 00:00N 31°33' E 121°18'2227.6
2017-Sep-16 00:00N 31°31' E 121°19'1410302.4
2017-Sep-16 00:00N 31°43' E 121°09'66129025.8
2017-Sep-15 23:58N 22°59' E 113°34'662198466.0
2017-Sep-15 23:58N 31°17' E 121°44'221240.7
2017-Sep-15 23:57N 31°31' E 121°24'51231783.1
2017-Sep-15 23:56N 39°56' E 119°42'5091193.0
2017-Sep-15 23:30N 31°33' E 121°18'27056.0
2017-Sep-15 23:30N 31°31' E 121°19'36150043.3
2017-Sep-15 23:30N 37°33' E 121°23'364262078.4
2017-Sep-15 23:30N 31°29' E 121°27'66124265.4
2017-Sep-15 23:28N 22°59' E 113°34'66279385.9
2017-Sep-15 23:28N 31°17' E 121°44'52918483.1
2017-Sep-15 23:26N 39°56' E 119°42'909218147.0
2017-Sep-15 23:26N 24°48' E 118°55'43815158.0
2017-Sep-15 23:24N 31°58' E 120°27'50128.1
2017-Sep-15 23:00N 31°33' E 121°18'36076233.5
2017-Sep-15 23:00N 37°33' E 121°23'36181320.4
2017-Sep-15 23:00N 31°31' E 121°19'10780.2
2017-Sep-15 22:59N 31°26' E 121°30'66049518.0
2017-Sep-15 22:58N 22°59' E 113°34'66223348.9
2017-Sep-15 22:57N 31°17' E 121°44'5294807.4
2017-Sep-15 22:50N 39°56' E 119°42'1064201588.9
2017-Sep-15 22:50N 23°03' E 113°19'32512437.3
2017-Sep-15 22:48N 24°48' E 118°56'4231432.8
2017-Sep-15 22:30N 31°31' E 121°19'361118282.2
2017-Sep-15 22:30N 37°33' E 121°23'96586836.8
2017-Sep-15 22:30N 23°02' E 113°21'66470320.3
2017-Sep-15 22:29N 31°24' E 121°31'65953911.7
2017-Sep-15 22:28N 22°59' E 113°34'66264367.4
2017-Sep-15 22:28N 31°17' E 121°44'52919626.2
2017-Sep-15 22:26N 39°56' E 119°42'9099565.1
2017-Sep-15 22:20N 24°48' E 118°56'4161254.4
2017-Sep-15 22:00N 31°17' E 121°44'2692633.7
2017-Sep-15 22:00N 31°31' E 121°19'36121685.4
2017-Sep-15 21:59N 37°33' E 121°23'37149448.8
2017-Sep-15 21:59N 31°22' E 121°28'6601187551.2
2017-Sep-15 21:59N 23°02' E 113°24'10912.2
2017-Sep-15 21:58N 22°59' E 113°34'3149409.2
2017-Sep-15 21:56N 24°48' E 118°56'909204447.3
2017-Sep-15 21:56N 39°56' E 119°42'5091193.0
2017-Sep-15 21:30N 31°33' E 121°18'27071.9
2017-Sep-15 21:30N 31°31' E 121°19'36148189.8
2017-Sep-15 21:30N 37°33' E 121°23'961133089.1
2017-Sep-15 21:30N 23°04' E 113°26'66319878.6
2017-Sep-15 21:28N 31°17' E 121°44'52921152.7
2017-Sep-15 21:26N 39°56' E 119°42'10649503.7
2017-Sep-15 21:19N 22°59' E 113°34'65241888.1
2017-Sep-15 21:18N 31°58' E 120°27'50169.0
2017-Sep-15 21:01N 31°33' E 121°18'360431989.8
2017-Sep-15 21:00N 37°33' E 121°23'3611301104.2
2017-Sep-15 21:00N 31°31' E 121°19'657147910.3
2017-Sep-15 21:00N 23°05' E 113°28'66169993.0
2017-Sep-15 21:00N 31°17' E 121°44'66231336.7
2017-Sep-15 20:58N 22°59' E 113°34'652167551.1
2017-Sep-15 20:58N 31°58' E 120°27'47914020.8
2017-Sep-15 20:56N 39°56' E 119°42'10622494.4
2017-Sep-15 20:31N 23°03' E 113°30'6581183958.8
2017-Sep-15 20:30N 31°33' E 121°18'360185138.5
2017-Sep-15 20:30N 37°33' E 121°23'361260220.8
2017-Sep-15 20:30N 31°31' E 121°19'65820426.4
2017-Sep-15 20:28N 22°59' E 113°34'66270046.4
2017-Sep-15 20:28N 31°17' E 121°44'52918482.9
2017-Sep-15 20:26N 39°56' E 119°42'9262461.0
2017-Sep-15 20:03N 24°32' E 118°19'4498982.6
2017-Sep-15 20:00N 31°33' E 121°18'22357.3
2017-Sep-15 20:00N 31°31' E 121°19'361144569.5
2017-Sep-15 20:00N 37°33' E 121°23'37664524.8
2017-Sep-15 20:00N 31°17' E 121°44'66154117.0
2017-Sep-15 19:59N 23°02' E 113°31'27923328.0
2017-Sep-15 19:58N 24°32' E 118°19'277110628.8
2017-Sep-15 19:58N 22°59' E 113°34'106428582.2
2017-Sep-15 19:56N 39°56' E 119°42'164384.0
2017-Sep-15 19:31N 37°33' E 121°23'3601295969.3
2017-Sep-15 19:30N 31°33' E 121°18'22352.0
2017-Sep-15 19:30N 31°31' E 121°19'65860728.5
2017-Sep-15 19:30N 23°02' E 113°31'27955727.6
2017-Sep-15 19:29N 24°32' E 118°19'27714860.6
2017-Sep-15 19:28N 22°59' E 113°34'106427554.1
2017-Sep-15 19:26N 39°56' E 119°42'52973220.7
2017-Sep-15 19:26N 31°17' E 121°44'787594.8
2017-Sep-15 19:25N 31°58' E 120°27'6884700.8
2017-Sep-15 19:16N 22°11' E 113°43'6922640.7
2017-Sep-15 19:00N 31°33' E 121°18'658394867.2
2017-Sep-15 19:00N 23°02' E 113°31'961314656.2
2017-Sep-15 19:00N 37°33' E 121°23'361433701.4
2017-Sep-15 19:00N 31°31' E 121°19'65821540.7
2017-Sep-15 18:58N 22°59' E 113°34'66218752.7
2017-Sep-15 18:56N 31°17' E 121°44'529211528.9
2017-Sep-15 18:56N 39°56' E 119°42'4797126.3
2017-Sep-15 18:52N 31°58' E 120°27'50140.6
2017-Sep-15 18:30N 31°33' E 121°18'22352.0
2017-Sep-15 18:30N 31°31' E 121°19'6581184239.2
2017-Sep-15 18:30N 23°02' E 113°31'9611153759.0
2017-Sep-15 18:30N 37°33' E 121°23'96328883.8
2017-Sep-15 18:28N 22°59' E 113°34'66274424.8
2017-Sep-15 18:28N 31°17' E 121°44'52918305.4
2017-Sep-15 18:26N 39°56' E 119°42'479101444.6
2017-Sep-15 18:26N 31°58' E 120°27'52124.0
2017-Sep-15 18:00N 31°31' E 121°19'21414.4
2017-Sep-15 18:00N 31°33' E 121°18'36061712.8
2017-Sep-15 18:00N 37°33' E 121°23'96196144.4
2017-Sep-15 17:59N 23°02' E 113°31'4233.0
2017-Sep-15 17:58N 22°59' E 113°34'65236088.5
2017-Sep-15 17:57N 31°58' E 120°27'7813382.4
2017-Sep-15 17:57N 31°17' E 121°44'5096684.8
2017-Sep-15 17:52N 23°37' E 117°39'9857147.4
2017-Sep-15 17:44N 39°56' E 119°42'5092252.6
2017-Sep-15 17:30N 31°33' E 121°18'2336.0
2017-Sep-15 17:30N 31°31' E 121°19'361118284.2
2017-Sep-15 17:30N 37°33' E 121°23'96141204.7
2017-Sep-15 17:29N 23°02' E 113°31'41420.6
2017-Sep-15 17:28N 22°59' E 113°34'66221455.8
2017-Sep-15 17:27N 31°17' E 121°44'52973221.6
2017-Sep-15 17:26N 39°56' E 119°42'108216373.1
2017-Sep-15 17:22N 22°46' E 113°13'6747240.5
2017-Sep-15 17:17N 31°58' E 120°27'3294067.7
2017-Sep-15 17:12N 37°26' E 119°55'3601931.2
2017-Sep-15 17:01N 31°33' E 121°18'21764.0
2017-Sep-15 17:00N 31°31' E 121°19'5226922.3
2017-Sep-15 17:00N 31°58' E 120°27'338607563.5
2017-Sep-15 17:00N 37°33' E 121°23'706443.5
2017-Sep-15 17:00N 37°25' E 119°56'924110929.7
2017-Sep-15 16:59N 23°02' E 113°31'4332.2
2017-Sep-15 16:58N 22°59' E 113°34'66251773.4
2017-Sep-15 16:58N 31°17' E 121°44'52921390.6
2017-Sep-15 16:56N 39°56' E 119°42'108159869.5
2017-Sep-15 16:55N 22°47' E 113°14'2772218.7
2017-Sep-15 16:48N 23°56' E 118°07'4871717.9
2017-Sep-15 16:31N 31°33' E 121°18'678110882.1
2017-Sep-15 16:30N 22°47' E 113°17'980220542.7
2017-Sep-15 16:30N 37°33' E 121°23'961432649.8
2017-Sep-15 16:30N 23°02' E 113°31'4188.1
2017-Sep-15 16:28N 22°59' E 113°34'66222258.0
2017-Sep-15 16:27N 31°17' E 121°44'4216136.9
2017-Sep-15 16:22N 38°18' E 121°49'1393486.8
2017-Sep-15 16:20N 39°56' E 119°42'9597795.6
2017-Sep-15 16:13N 23°60' E 118°08'4772352.6
2017-Sep-15 16:01N 31°17' E 121°44'679814789.9
2017-Sep-15 16:00N 22°48' E 113°19'183937.7
2017-Sep-15 16:00N 23°02' E 113°31'658592054.3
2017-Sep-15 16:00N 31°31' E 121°19'361185872.3
2017-Sep-15 16:00N 37°33' E 121°23'828596264.5
2017-Sep-15 16:00N 24°02' E 118°08'95814988.6
2017-Sep-15 15:56N 39°56' E 119°42'106487045.4
2017-Sep-15 15:55N 22°59' E 113°34'926277908.9
2017-Sep-15 15:55N 37°25' E 119°56'69168.5
2017-Sep-15 15:30N 37°33' E 121°23'360129599.1
2017-Sep-15 15:30N 31°33' E 121°18'477245505.5
2017-Sep-15 15:30N 24°05' E 118°10'47771475.1
2017-Sep-15 15:30N 31°31' E 121°19'233539.6
2017-Sep-15 15:29N 31°19' E 121°42'66262675.0
2017-Sep-15 15:29N 23°02' E 113°31'4649.9
2017-Sep-15 15:28N 22°59' E 113°34'106428370.2
2017-Sep-15 15:26N 39°56' E 119°42'5241226.7
2017-Sep-15 15:00N 31°21' E 121°39'2071001.7
2017-Sep-15 15:00N 31°31' E 121°19'4731701345.9
2017-Sep-15 15:00N 24°09' E 118°10'279250990.3
2017-Sep-15 15:00N 22°53' E 113°18'153898.8
2017-Sep-15 15:00N 23°02' E 113°31'65871804.9
2017-Sep-15 15:00N 31°33' E 121°18'35834868.2
2017-Sep-15 14:59N 37°25' E 119°56'92690132.6
2017-Sep-15 14:58N 22°59' E 113°34'98249083.4
2017-Sep-15 14:57N 38°57' E 117°48'1065792.0
2017-Sep-15 14:56N 39°56' E 119°42'5111197.5
2017-Sep-15 14:30N 31°31' E 121°19'361325265.7
2017-Sep-15 14:30N 37°33' E 121°23'371102670.1
2017-Sep-15 14:30N 31°22' E 121°36'466419000.1
2017-Sep-15 14:30N 24°13' E 118°11'26795965.3
2017-Sep-15 14:30N 22°59' E 113°31'660396007.4
2017-Sep-15 14:30N 31°33' E 121°18'5060556.5
2017-Sep-15 14:30N 31°58' E 120°27'32724049.3
2017-Sep-15 14:29N 37°25' E 119°56'92685510.4
2017-Sep-15 14:28N 22°59' E 113°34'98250508.7
2017-Sep-15 14:27N 38°58' E 117°44'1086056.4
2017-Sep-15 14:26N 39°56' E 119°42'108252.3
2017-Sep-15 14:00N 38°58' E 117°44'480863604.6
2017-Sep-15 14:00N 31°31' E 121°19'1510442.7
2017-Sep-15 14:00N 31°23' E 121°34'370266056.4
2017-Sep-15 14:00N 37°33' E 121°23'812243575.6
2017-Sep-15 14:00N 24°18' E 118°11'26874104.4
2017-Sep-15 14:00N 22°57' E 113°33'66154113.7
2017-Sep-15 13:59N 31°33' E 121°18'65851527.5
2017-Sep-15 13:58N 22°59' E 113°34'106427956.2
2017-Sep-15 13:56N 39°56' E 119°42'15268266.4
2017-Sep-15 13:56N 37°25' E 119°56'7891861.1
2017-Sep-15 13:31N 24°21' E 118°09'8771578118.6
2017-Sep-15 13:30N 38°58' E 117°44'4901763173.0
2017-Sep-15 13:30N 31°24' E 121°31'664398519.4
2017-Sep-15 13:30N 22°54' E 113°34'663596357.9
2017-Sep-15 13:30N 31°31' E 121°19'361216847.4
2017-Sep-15 13:30N 37°33' E 121°23'36086398.0
2017-Sep-15 13:30N 31°33' E 121°18'35821502.4
2017-Sep-15 13:29N 37°25' E 119°56'92687761.2
2017-Sep-15 13:28N 22°59' E 113°34'106428796.8
2017-Sep-15 13:26N 39°56' E 119°42'47924289.2
2017-Sep-15 13:25N 31°58' E 120°27'6581616.9
2017-Sep-15 13:00N 22°51' E 113°35'9903564858.8
2017-Sep-15 13:00N 38°58' E 117°44'4801727189.2
2017-Sep-15 13:00N 31°31' E 121°19'361433694.7
2017-Sep-15 13:00N 37°33' E 121°23'692903.2
2017-Sep-15 12:59N 37°25' E 119°56'92687760.7
2017-Sep-15 12:58N 22°59' E 113°34'106412197.4
2017-Sep-15 12:53N 39°56' E 119°42'5097393.4
2017-Sep-15 12:49N 31°33' E 121°18'2 6.2
2017-Sep-15 12:30N 31°31' E 121°19'82483.4
2017-Sep-15 12:30N 31°27' E 121°28'486291758.5
2017-Sep-15 12:30N 38°58' E 117°44'993714624.6
2017-Sep-15 12:30N 22°48' E 113°37'9721749778.0
2017-Sep-15 12:30N 37°33' E 121°23'16410347.4
2017-Sep-15 12:29N 39°56' E 119°42'106487045.4
2017-Sep-15 12:28N 22°59' E 113°34'65845582.0
2017-Sep-15 12:27N 31°33' E 121°18'35814177.2
2017-Sep-15 12:26N 37°25' E 119°56'327962.8
2017-Sep-15 12:06N 31°58' E 120°27'4405190.7
2017-Sep-15 12:00N 38°58' E 117°44'480863594.6
2017-Sep-15 12:00N 31°31' E 121°19'666299875.3
2017-Sep-15 12:00N 22°46' E 113°39'668267144.0
2017-Sep-15 12:00N 31°28' E 121°26'364100887.3
2017-Sep-15 12:00N 37°33' E 121°23'36030138.8
2017-Sep-15 11:59N 31°33' E 121°18'509152798.2
2017-Sep-15 11:59N 39°56' E 119°42'106495748.6
2017-Sep-15 11:58N 22°59' E 113°34'9632056.9
2017-Sep-15 11:30N 37°33' E 121°23'363654005.8
2017-Sep-15 11:30N 31°29' E 121°24'4340.0
2017-Sep-15 11:29N 31°31' E 121°19'47886117.8
2017-Sep-15 11:29N 38°57' E 117°46'107192030.3
2017-Sep-15 11:29N 39°56' E 119°42'106485110.3
2017-Sep-15 11:28N 22°59' E 113°34'181206.3
2017-Sep-15 11:27N 22°43' E 113°41'6681484.0
2017-Sep-15 11:00N 31°31' E 121°19'2490.1
2017-Sep-15 11:00N 31°30' E 121°22'36221033.3
2017-Sep-15 10:59N 37°33' E 121°23'164196587.3
2017-Sep-15 10:59N 39°56' E 119°42'106417022.1
2017-Sep-15 10:55N 22°59' E 113°34'22106.0
2017-Sep-15 10:43N 22°39' E 113°44'67011933.2
2017-Sep-15 10:39N 31°33' E 121°18'215.9
2017-Sep-15 10:30N 31°32' E 121°20'14028.1
2017-Sep-15 10:30N 31°31' E 121°19'36131733.8
2017-Sep-15 10:30N 37°33' E 121°23'360129599.1
2017-Sep-15 10:30N 31°33' E 121°18'50957299.3
2017-Sep-15 10:29N 39°56' E 119°42'106485111.5
2017-Sep-15 10:28N 22°59' E 113°34'6591419.8
2017-Sep-15 10:00N 31°33' E 121°19'26801.8
2017-Sep-15 10:00N 31°31' E 121°19'21380.0
2017-Sep-15 10:00N 31°33' E 121°18'50923812.7
2017-Sep-15 09:59N 39°56' E 119°42'106416946.9
2017-Sep-15 09:55N 22°59' E 113°34'99415618.4
2017-Sep-15 09:52N 37°55' E 121°52'92014458.3
2017-Sep-15 09:48N 22°58' E 117°58'28656.5
2017-Sep-15 09:45N 23°25' E 118°05'5162110.0
2017-Sep-15 09:30N 31°31' E 121°19'2431.3
2017-Sep-15 09:30N 31°33' E 121°18'2359.0
2017-Sep-15 09:30N 31°35' E 121°18'35885920.2
2017-Sep-15 09:30N 37°33' E 121°23'96344435.1
2017-Sep-15 09:28N 22°59' E 113°34'25114561.4
2017-Sep-15 09:27N 23°27' E 118°05'89020799.3
2017-Sep-15 09:25N 37°55' E 121°52'3872262.9
2017-Sep-15 09:14N 31°29' E 121°27'5935602.2
2017-Sep-15 09:14N 31°58' E 120°27'50218.4
2017-Sep-15 09:00N 31°33' E 121°18'11013247.4
2017-Sep-15 09:00N 29°53' E 122°14'10352774.2
2017-Sep-15 09:00N 31°28' E 121°28'36521877.3
2017-Sep-15 08:59N 37°33' E 121°23'8926590.6
2017-Sep-15 08:51N 22°59' E 117°58'2421970.5
2017-Sep-15 08:43N 22°59' E 113°34'25253299.8
2017-Sep-15 08:43N 23°32' E 118°06'98729615.7
2017-Sep-15 08:41N 39°56' E 119°42'5092883.0
2017-Sep-15 08:30N 31°33' E 121°18'1113407.9
2017-Sep-15 08:30N 31°27' E 121°29'3661316762.8
2017-Sep-15 08:30N 37°33' E 121°23'85656036.0
2017-Sep-15 08:30N 23°34' E 118°06'986131432.1
2017-Sep-15 08:29N 39°56' E 119°42'106487044.2
2017-Sep-15 08:28N 22°59' E 113°34'2422249.4
2017-Sep-15 08:22N 22°59' E 117°58'66189.3
2017-Sep-15 08:01N 23°08' E 116°47'55969370.4
2017-Sep-15 08:01N 31°33' E 121°18'23458.1
2017-Sep-15 08:00N 31°31' E 121°19'113553.1
2017-Sep-15 08:00N 31°26' E 121°30'367264316.9
2017-Sep-15 08:00N 37°33' E 121°23'45947211.9
2017-Sep-15 08:00N 29°56' E 122°16'61369015.7
2017-Sep-15 07:59N 39°56' E 119°42'106489069.2
2017-Sep-15 07:58N 22°59' E 113°34'24212467.9
2017-Sep-15 07:57N 22°59' E 117°57'662710.1
2017-Sep-15 07:56N 23°08' E 116°46'791311.2
2017-Sep-15 07:52N 23°38' E 118°06'5031395.1
2017-Sep-15 07:30N 31°31' E 121°19'361118280.4
2017-Sep-15 07:30N 37°33' E 121°23'360323992.3
2017-Sep-15 07:30N 31°33' E 121°18'502150573.6
2017-Sep-15 07:30N 23°40' E 118°06'8450404.4
2017-Sep-15 07:30N 23°05' E 116°43'56048042.8
2017-Sep-15 07:29N 31°24' E 121°31'9615055.7
2017-Sep-15 07:29N 29°56' E 122°16'46423507.8
2017-Sep-15 07:28N 37°25' E 119°56'34865923.4
2017-Sep-15 07:27N 31°42' E 121°09'66020144.3
2017-Sep-15 07:25N 22°59' E 113°34'106410214.4
2017-Sep-15 07:19N 39°56' E 119°42'4792492.8
2017-Sep-15 07:08N 31°58' E 120°27'52443.0
2017-Sep-15 07:00N 31°31' E 121°19'2364.0
2017-Sep-15 07:00N 31°33' E 121°18'151593.6
2017-Sep-15 07:00N 31°22' E 121°30'65731537.1
2017-Sep-15 06:58N 22°59' E 113°34'92675779.3
2017-Sep-15 06:58N 37°25' E 119°56'87268221.0
2017-Sep-15 06:57N 22°59' E 117°57'55522218.0
2017-Sep-15 06:55N 31°58' E 120°27'479123210.4
2017-Sep-15 06:55N 39°56' E 119°42'5111243.9
2017-Sep-15 06:30N 31°31' E 121°19'2576.4
2017-Sep-15 06:30N 31°33' E 121°18'36068210.0
2017-Sep-15 06:30N 37°33' E 121°23'89247209.7
2017-Sep-15 06:29N 22°59' E 117°57'2424194.1
2017-Sep-15 06:25N 22°59' E 113°34'92674095.3
2017-Sep-15 06:25N 37°25' E 119°56'3273244.4
2017-Sep-15 06:19N 31°58' E 120°27'4791650.7
2017-Sep-15 06:01N 39°56' E 119°42'50947025.2
2017-Sep-15 06:00N 31°33' E 121°18'360107997.4
2017-Sep-15 06:00N 37°33' E 121°23'36143369.5
2017-Sep-15 06:00N 31°31' E 121°19'65826924.5
2017-Sep-15 05:58N 22°59' E 113°34'92675779.3
2017-Sep-15 05:58N 37°25' E 119°56'819226777.7
2017-Sep-15 05:57N 23°51' E 118°08'96825447.0
2017-Sep-15 05:55N 39°56' E 119°42'5111245.6
2017-Sep-15 05:30N 31°31' E 121°19'2988.0
2017-Sep-15 05:30N 31°33' E 121°18'488159744.1
2017-Sep-15 05:30N 23°54' E 118°08'835231314.5
2017-Sep-15 05:30N 37°33' E 121°23'96335367.5
2017-Sep-15 05:28N 22°59' E 113°34'106419744.2
2017-Sep-15 05:25N 39°56' E 119°42'1522593.4
2017-Sep-15 05:22N 37°25' E 119°56'14246763.2
2017-Sep-15 05:09N 16°06' E 108°14'11728302.9
2017-Sep-15 05:00N 31°33' E 121°18'26916.3
2017-Sep-15 05:00N 31°31' E 121°19'4841740662.5
2017-Sep-15 05:00N 23°58' E 118°09'83276757.6
2017-Sep-15 05:00N 37°33' E 121°23'459165256.9
2017-Sep-15 05:00N 29°56' E 122°16'62630053.5
2017-Sep-15 04:58N 22°59' E 113°34'92669464.3
2017-Sep-15 04:58N 37°25' E 119°56'1523672.7
2017-Sep-15 04:55N 39°56' E 119°42'5222288.1
2017-Sep-15 04:41N 31°21' E 121°31'3712038.5
2017-Sep-15 04:30N 37°33' E 121°23'3611301062.6
2017-Sep-15 04:30N 31°31' E 121°19'2864.5
2017-Sep-15 04:30N 31°33' E 121°18'48013302.9
2017-Sep-15 04:28N 24°02' E 118°09'80883069.0
2017-Sep-15 04:28N 37°25' E 119°56'92625069.8
2017-Sep-15 04:25N 22°59' E 113°34'1064273597.5
2017-Sep-15 04:25N 39°56' E 119°42'164397.7
2017-Sep-15 04:00N 37°33' E 121°23'36186738.9
2017-Sep-15 04:00N 31°31' E 121°19'476856720.9
2017-Sep-15 04:00N 24°06' E 118°10'477143050.2
2017-Sep-15 04:00N 31°33' E 121°18'503493.4
2017-Sep-15 03:59N 31°58' E 120°27'65257212.6
2017-Sep-15 03:58N 22°59' E 113°34'92670942.3
2017-Sep-15 03:58N 37°25' E 119°56'1523672.7
2017-Sep-15 03:55N 39°56' E 119°42'5091243.4
2017-Sep-15 03:30N 31°33' E 121°18'23450.1
2017-Sep-15 03:30N 31°31' E 121°19'361130106.3
2017-Sep-15 03:30N 37°33' E 121°23'82062792.9
2017-Sep-15 03:30N 24°10' E 118°10'80024614.8
2017-Sep-15 03:28N 37°25' E 119°56'92610686.8
2017-Sep-15 03:22N 22°59' E 113°34'65712786.5
2017-Sep-15 03:19N 31°21' E 121°31'522235104.3
2017-Sep-15 03:19N 39°56' E 119°42'5091640.4
2017-Sep-15 03:01N 31°33' E 121°18'22300.0
2017-Sep-15 03:00N 31°31' E 121°19'361130106.3
2017-Sep-15 03:00N 37°33' E 121°23'81691770.3
2017-Sep-15 03:00N 24°14' E 118°10'25022510.8
2017-Sep-15 02:59N 22°18' E 114°09'95536983.2
2017-Sep-15 02:58N 37°25' E 119°56'1523722.5
2017-Sep-15 02:55N 39°56' E 119°42'106411070.4
2017-Sep-15 02:49N 22°59' E 113°34'6573673.2
2017-Sep-15 02:39N 31°21' E 121°31'16117.6
2017-Sep-15 02:30N 31°33' E 121°18'36076233.5
2017-Sep-15 02:30N 37°33' E 121°23'691561.0
2017-Sep-15 02:28N 37°25' E 119°56'1523800.1
2017-Sep-15 02:25N 39°56' E 119°42'106422664.9
2017-Sep-15 02:22N 22°59' E 113°34'6522482.2
2017-Sep-15 02:07N 31°58' E 120°27'50497.7
2017-Sep-15 02:00N 31°33' E 121°18'2768.5
2017-Sep-15 02:00N 31°31' E 121°19'361216847.4
2017-Sep-15 02:00N 37°33' E 121°23'164196756.6
2017-Sep-15 02:00N 39°56' E 119°42'1521614.6
2017-Sep-15 01:55N 37°25' E 119°56'92610755.6
2017-Sep-15 01:49N 22°59' E 113°34'6582089.3
2017-Sep-15 01:30N 31°31' E 121°19'36150042.5
2017-Sep-15 01:30N 37°33' E 121°23'36047999.7
2017-Sep-15 01:30N 31°33' E 121°18'65831187.7
2017-Sep-15 01:28N 22°59' E 113°34'106417731.5
2017-Sep-15 01:25N 39°56' E 119°42'5223482.3
2017-Sep-15 01:16N 31°21' E 121°31'67124394.5
2017-Sep-15 01:14N 22°17' E 114°11'6732943.9
2017-Sep-15 01:00N 31°31' E 121°19'36154211.8
2017-Sep-15 01:00N 37°33' E 121°23'33810475.2
2017-Sep-15 00:58N 31°58' E 120°27'4798622.9
2017-Sep-15 00:55N 39°56' E 119°42'106427163.1
2017-Sep-15 00:52N 22°59' E 113°34'65713914.7
2017-Sep-15 00:50N 31°21' E 121°31'16440.0
2017-Sep-15 00:47N 31°33' E 121°18'3601266.8
2017-Sep-15 00:30N 37°33' E 121°23'36053998.7
2017-Sep-15 00:30N 31°33' E 121°18'23458.1
2017-Sep-15 00:30N 31°31' E 121°19'5115933.4
2017-Sep-15 00:25N 39°56' E 119°42'52217909.1
2017-Sep-15 00:23N 31°21' E 121°31'65769573.3
2017-Sep-15 00:22N 22°59' E 113°34'6581783.5
2017-Sep-15 00:00N 31°33' E 121°18'21150.0
2017-Sep-15 00:00N 31°31' E 121°19'36186737.5
2017-Sep-15 00:00N 37°33' E 121°23'96338511.3
2017-Sep-14 23:58N 22°59' E 113°34'106417174.9
2017-Sep-14 23:55N 39°56' E 119°42'6149860.0
2017-Sep-14 23:51N 29°56' E 122°16'94499.5
2017-Sep-14 23:40N 31°21' E 121°31'1491.3
2017-Sep-14 23:30N 31°31' E 121°19'10724160.0
2017-Sep-14 23:30N 29°56' E 122°16'45975117.5
2017-Sep-14 23:30N 37°33' E 121°23'96339839.5
2017-Sep-14 23:28N 22°59' E 113°34'65876460.1
2017-Sep-14 23:28N 31°33' E 121°18'16362.0
2017-Sep-14 23:25N 31°21' E 121°31'52264843.2
2017-Sep-14 23:25N 39°56' E 119°42'164405.1
2017-Sep-14 23:00N 37°33' E 121°23'360143994.2
2017-Sep-14 23:00N 31°33' E 121°18'2691.6
2017-Sep-14 23:00N 31°31' E 121°19'65821938.6
2017-Sep-14 22:58N 22°59' E 113°34'657147843.4
2017-Sep-14 22:58N 31°21' E 121°31'5229263.2
2017-Sep-14 22:55N 39°56' E 119°42'5111264.1
2017-Sep-14 22:30N 31°31' E 121°19'361325265.7
2017-Sep-14 22:30N 37°33' E 121°23'37117596.2
2017-Sep-14 22:29N 31°21' E 121°31'65753758.4
2017-Sep-14 22:28N 22°59' E 113°34'106417174.5
2017-Sep-14 22:25N 39°56' E 119°42'5098296.6
2017-Sep-14 22:21N 31°33' E 121°18'50164.6
2017-Sep-14 22:03N 31°58' E 120°27'3389643.7
2017-Sep-14 22:00N 37°33' E 121°23'3611301084.2
2017-Sep-14 22:00N 31°31' E 121°19'2691.6
2017-Sep-14 22:00N 31°33' E 121°18'65820433.3
2017-Sep-14 21:58N 22°59' E 113°34'106417568.8
2017-Sep-14 21:55N 39°56' E 119°42'5225768.3
2017-Sep-14 21:49N 31°21' E 121°31'661348.4
2017-Sep-14 21:46N 31°58' E 120°27'6662894.5
2017-Sep-14 21:33N 22°54' E 113°15'67319387.6
2017-Sep-14 21:30N 31°31' E 121°19'361260216.8
2017-Sep-14 21:30N 37°33' E 121°23'36026448.4
2017-Sep-14 21:30N 31°33' E 121°18'65832920.3
2017-Sep-14 21:28N 22°59' E 113°34'6574647.3
2017-Sep-14 21:20N 31°21' E 121°31'52226117.1
2017-Sep-14 21:19N 39°56' E 119°42'5111679.8
2017-Sep-14 21:00N 31°31' E 121°19'10732207.9
2017-Sep-14 21:00N 29°56' E 122°16'459826295.0
2017-Sep-14 21:00N 37°33' E 121°23'37123057.1
2017-Sep-14 20:59N 31°21' E 121°31'65743805.4
2017-Sep-14 20:58N 22°59' E 113°34'65827244.4
2017-Sep-14 20:57N 31°33' E 121°18'50913786.1
2017-Sep-14 20:55N 39°56' E 119°42'164400.4
2017-Sep-14 20:30N 37°33' E 121°23'45938428.3
2017-Sep-14 20:29N 29°56' E 122°16'10722727.1
2017-Sep-14 20:29N 31°31' E 121°19'65852650.0
2017-Sep-14 20:28N 22°59' E 113°34'65815096.5
2017-Sep-14 20:26N 31°33' E 121°18'50928649.3
2017-Sep-14 20:25N 39°56' E 119°42'4791975.4
2017-Sep-14 20:10N 31°58' E 120°27'52313.3
2017-Sep-14 20:00N 31°31' E 121°19'361260216.8
2017-Sep-14 20:00N 37°33' E 121°23'459103276.1
2017-Sep-14 20:00N 29°56' E 122°16'62626208.9
2017-Sep-14 19:58N 22°59' E 113°34'65819917.2
2017-Sep-14 19:56N 31°33' E 121°18'50918154.2
2017-Sep-14 19:55N 39°56' E 119°42'47938323.5
2017-Sep-14 19:54N 31°58' E 120°27'52133.8
2017-Sep-14 19:30N 31°31' E 121°19'107193170.4
2017-Sep-14 19:30N 29°56' E 122°16'459330483.6
2017-Sep-14 19:30N 37°33' E 121°23'96328644.1
2017-Sep-14 19:28N 22°59' E 113°34'65850428.6
2017-Sep-14 19:28N 31°33' E 121°18'50910660.3
2017-Sep-14 19:25N 39°56' E 119°42'47966329.2
2017-Sep-14 19:24N 31°58' E 120°27'52131.9
2017-Sep-14 19:00N 31°31' E 121°19'10796580.4
2017-Sep-14 19:00N 29°56' E 122°16'459275399.4
2017-Sep-14 19:00N 37°33' E 121°23'36030856.4
2017-Sep-14 19:00N 31°33' E 121°18'6589294.7
2017-Sep-14 18:55N 22°59' E 113°34'1064100788.0
2017-Sep-14 18:55N 39°56' E 119°42'4792616.9
2017-Sep-14 18:44N 31°58' E 120°27'52230.7
2017-Sep-14 18:30N 31°31' E 121°19'10796575.6
2017-Sep-14 18:30N 29°56' E 122°16'45991799.8
2017-Sep-14 18:30N 37°33' E 121°23'36011571.3
2017-Sep-14 18:28N 31°33' E 121°18'65815390.5
2017-Sep-14 18:25N 22°59' E 113°34'106495748.6
2017-Sep-14 18:25N 39°56' E 119°42'47913164.6
2017-Sep-14 18:22N 31°58' E 120°27'52142.5
2017-Sep-14 18:00N 31°31' E 121°19'36132527.6
2017-Sep-14 18:00N 37°33' E 121°23'36037028.3
2017-Sep-14 17:59N 31°33' E 121°18'65846473.4
2017-Sep-14 17:58N 22°59' E 113°34'652146600.5
2017-Sep-14 17:58N 31°58' E 120°27'4798412.6
2017-Sep-14 17:55N 39°56' E 119°42'164405.9
2017-Sep-14 17:30N 37°33' E 121°23'360647995.5
2017-Sep-14 17:30N 31°33' E 121°18'  
Track history (hours):
 
Tides and Currents Weather Stations Pressure Air Temp Water Temp Dewpoint Dewpoint Depression Visibility Wind Speed Wind Dir Waves Ship Positions

Graceful Lady

Last reported at 2017-Sep-24 17:30 UTC. Time now 2017-Sep-24 17:52 UTC.
Position N 37°33' E 121°23'.

Type: Towing. MMSI: 200009587.

Date/timePositionNaut miles runAvg speedWind from/ knotsBaromVisibWave heightAir tempDewpointWater temp
2017-Sep-24 17:30N 37°33' E 121°23'369332507.4
2017-Sep-24 17:30N 31°23' E 121°37'2850057.5
2017-Sep-24 17:30N 31°40' E 121°11'45490822.7
2017-Sep-24 17:30N 24°32' E 118°19'375122730.1
2017-Sep-24 17:30N 29°47' E 122°08'61571381.3
2017-Sep-24 17:29N 22°59' E 113°34'65246937.7
2017-Sep-24 17:28N 31°59' E 120°27'478114804.1
2017-Sep-24 17:28N 39°56' E 119°42'47995802.1
2017-Sep-24 17:28N 31°57' E 120°05'1604792.3
2017-Sep-24 17:26N 29°53' E 122°03'6272108.6
2017-Sep-24 17:08N 40°20' E 122°01'5124077.1
2017-Sep-24 17:00N 31°57' E 120°08'342615272.9
2017-Sep-24 17:00N 37°33' E 121°23'4671680978.8
2017-Sep-24 17:00N 29°47' E 122°08'375135004.9
2017-Sep-24 17:00N 24°32' E 118°19'447536125.4
2017-Sep-24 17:00N 31°23' E 121°37'706776.5
2017-Sep-24 17:00N 31°59' E 120°27'458114.1
2017-Sep-24 16:59N 31°38' E 121°14'6602377128.5
2017-Sep-24 16:59N 22°59' E 113°34'106458915.6
2017-Sep-24 16:58N 39°56' E 119°42'61415026.4
2017-Sep-24 16:56N 29°53' E 122°03'6129153218.3
2017-Sep-24 16:53N 33°37' W 117°55'613590150.0
2017-Sep-24 16:49N 29°56' E 121°53'112115405.7
2017-Sep-24 16:45N 16°06' E 108°14'162736369.9
2017-Sep-24 16:42N 40°20' E 122°01'9664997.9
2017-Sep-24 16:30N 24°32' E 118°19'461829209.2
2017-Sep-24 16:30N 31°59' E 120°27'1425047.1
2017-Sep-24 16:30N 31°56' E 120°11'342153849.1
2017-Sep-24 16:30N 37°33' E 121°23'369190004.2
2017-Sep-24 16:30N 31°23' E 121°37'249592.4
2017-Sep-24 16:30N 31°38' E 121°14'66044850.3
2017-Sep-24 16:29N 22°59' E 113°34'615245868.8
2017-Sep-24 16:29N 29°47' E 122°08'62039888.7
2017-Sep-24 16:28N 39°56' E 119°42'11010385.5
2017-Sep-24 16:27N 40°20' E 122°01'1626650427.7
2017-Sep-24 16:27N 16°07' E 108°13'112541328.7
2017-Sep-24 16:26N 29°53' E 122°03'872198.4
2017-Sep-24 16:23N 31°20' E 121°59'97254.4
2017-Sep-24 16:00N 31°56' E 120°13'9769666.8
2017-Sep-24 16:00N 31°20' E 121°59'194935.4
2017-Sep-24 16:00N 31°23' E 121°37'1911223.3
2017-Sep-24 16:00N 31°33' E 121°18'3601295969.3
2017-Sep-24 16:00N 37°33' E 121°23'467560319.1
2017-Sep-24 16:00N 29°47' E 122°08'61546100.7
2017-Sep-24 15:59N 22°59' E 113°34'1127811224.1
2017-Sep-24 15:59N 40°20' E 122°01'62710795.3
2017-Sep-24 15:56N 29°53' E 122°03'37828941.6
2017-Sep-24 15:55N 24°32' E 118°19'46130711.5
2017-Sep-24 15:54N 31°59' E 120°27'47815375.4
2017-Sep-24 15:52N 39°56' E 119°42'9262577.0
2017-Sep-24 15:30N 24°32' E 118°19'449202105.5
2017-Sep-24 15:30N 31°33' E 121°18'114204973.0
2017-Sep-24 15:30N 29°47' E 122°08'10032655.4
2017-Sep-24 15:30N 31°23' E 121°37'7630566.0
2017-Sep-24 15:30N 31°57' E 120°16'9688.6
2017-Sep-24 15:29N 31°59' E 120°27'65212824.5
2017-Sep-24 15:26N 22°59' E 113°34'61567129.9
2017-Sep-24 15:26N 29°53' E 122°03'62722339.1
2017-Sep-24 15:24N 40°20' E 122°01'110836.1
2017-Sep-24 15:16N 39°56' E 119°42'5282039.0
2017-Sep-24 15:01N 31°20' E 121°59'192995.3
2017-Sep-24 15:00N 31°23' E 121°37'7538529.5
2017-Sep-24 15:00N 31°58' E 120°19'3391219021.1
2017-Sep-24 15:00N 37°33' E 121°23'467168046.2
2017-Sep-24 15:00N 29°47' E 122°08'37564307.7
2017-Sep-24 14:59N 24°32' E 118°19'27649757.5
2017-Sep-24 14:59N 22°59' E 113°34'65267053.9
2017-Sep-24 14:59N 31°59' E 120°27'47855549.7
2017-Sep-24 14:58N 39°56' E 119°42'61415233.8
2017-Sep-24 14:56N 29°53' E 122°03'6276985.3
2017-Sep-24 14:50N 40°20' E 122°01'9662933.0
2017-Sep-24 14:30N 24°32' E 118°19'461110561.2
2017-Sep-24 14:30N 31°59' E 120°27'337606369.3
2017-Sep-24 14:30N 37°33' E 121°23'3741345512.2
2017-Sep-24 14:30N 31°20' E 121°59'1917225.6
2017-Sep-24 14:30N 31°23' E 121°37'9858791.0
2017-Sep-24 14:30N 29°49' E 122°08'1129181.8
2017-Sep-24 14:29N 31°33' E 121°18'658296216.3
2017-Sep-24 14:29N 22°59' E 113°34'650334438.1
2017-Sep-24 14:29N 32°00' E 120°22'47728623.1
2017-Sep-24 14:28N 39°56' E 119°42'6134412.7
2017-Sep-24 14:20N 29°54' E 122°00'4601436.1
2017-Sep-24 14:00N 37°33' E 121°23'462127978.0
2017-Sep-24 14:00N 29°52' E 122°08'379195104.2
2017-Sep-24 14:00N 24°32' E 118°19'46348994.9
2017-Sep-24 14:00N 32°02' E 120°24'65387038.2
2017-Sep-24 13:59N 22°59' E 113°34'652391147.6
2017-Sep-24 13:59N 31°59' E 120°27'47829690.7
2017-Sep-24 13:58N 39°56' E 119°42'52810272.2
2017-Sep-24 13:55N 31°20' E 121°59'376717.1
2017-Sep-24 13:55N 31°33' E 121°18'1051515.7
2017-Sep-24 13:51N 29°54' E 121°59'86258.5
2017-Sep-24 13:31N 31°20' E 121°59'8662001.4
2017-Sep-24 13:30N 29°54' E 122°08'107386718.4
2017-Sep-24 13:30N 31°33' E 121°18'195623.2
2017-Sep-24 13:30N 31°23' E 121°37'447402122.6
2017-Sep-24 13:30N 24°32' E 118°19'796318476.3
2017-Sep-24 13:30N 37°33' E 121°23'33252034.0
2017-Sep-24 13:30N 32°04' E 120°26'65584275.9
2017-Sep-24 13:29N 22°59' E 113°34'106458915.6
2017-Sep-24 13:28N 39°56' E 119°42'61214998.8
2017-Sep-24 13:26N 29°54' E 121°59'1482850.1
2017-Sep-24 13:23N 31°59' E 120°27'150408.2
2017-Sep-24 13:01N 29°55' E 122°04'10554159.9
2017-Sep-24 13:00N 31°33' E 121°18'360259193.9
2017-Sep-24 13:00N 37°33' E 121°23'796318476.3
2017-Sep-24 13:00N 24°32' E 118°19'27616313.9
2017-Sep-24 12:59N 22°59' E 113°34'65876408.3
2017-Sep-24 12:59N 32°04' E 120°30'1513145.5
2017-Sep-24 12:56N 29°54' E 121°59'6129931.6
2017-Sep-24 12:52N 39°56' E 119°42'110747.4
2017-Sep-24 12:43N 40°20' E 122°01'5402541.5
2017-Sep-24 12:31N 31°20' E 121°59'3741345512.2
2017-Sep-24 12:30N 37°33' E 121°23'4571644464.6
2017-Sep-24 12:30N 29°57' E 122°00'8915220.0
2017-Sep-24 12:30N 31°23' E 121°37'196137.3
2017-Sep-24 12:30N 31°33' E 121°18'65850419.8
2017-Sep-24 12:29N 22°59' E 113°34'106457157.2
2017-Sep-24 12:28N 39°56' E 119°42'61215637.2
2017-Sep-24 12:26N 29°54' E 121°59'550.5
2017-Sep-24 12:19N 29°56' E 121°53'620.0
2017-Sep-24 12:00N 30°01' E 121°59'7940870.8
2017-Sep-24 12:00N 31°20' E 121°59'3744778.3
2017-Sep-24 12:00N 31°33' E 121°18'360431989.8
2017-Sep-24 12:00N 37°33' E 121°23'369189992.7
2017-Sep-24 12:00N 31°23' E 121°37'44743473.2
2017-Sep-24 12:00N 24°32' E 118°19'27647388.1
2017-Sep-24 11:59N 22°59' E 113°34'106458915.9
2017-Sep-24 11:58N 39°56' E 119°42'60939835.8
2017-Sep-24 11:57N 29°57' E 121°53'646.3
2017-Sep-24 11:50N 29°54' E 121°59'3044103.8
2017-Sep-24 11:45N 25°19' E 119°31'91012357.1
2017-Sep-24 11:41N 40°20' E 122°01'5054119.0
2017-Sep-24 11:33N 31°60' E 120°39'4058389.7
2017-Sep-24 11:31N 25°19' E 119°29'3841383981.6
2017-Sep-24 11:30N 31°20' E 121°59'374149501.4
2017-Sep-24 11:30N 37°33' E 121°23'369120910.3
2017-Sep-24 11:30N 31°23' E 121°37'53780564.2
2017-Sep-24 11:30N 40°20' E 122°01'52922387.5
2017-Sep-24 11:28N 31°33' E 121°18'509101865.4
2017-Sep-24 11:28N 39°56' E 119°42'60280234.3
2017-Sep-24 11:28N 30°05' E 121°57'61926222.7
2017-Sep-24 11:26N 22°59' E 113°34'276995150.0
2017-Sep-24 11:26N 24°32' E 118°19'37739871.6
2017-Sep-24 11:26N 29°54' E 121°59'377900.8
2017-Sep-24 11:01N 24°32' E 118°19'4521626547.5
2017-Sep-24 11:00N 31°20' E 121°59'37496108.0
2017-Sep-24 11:00N 37°33' E 121°23'369221658.1
2017-Sep-24 11:00N 31°23' E 121°37'66239074.5
2017-Sep-24 10:59N 22°59' E 113°34'65850419.8
2017-Sep-24 10:58N 31°33' E 121°18'509107857.5
2017-Sep-24 10:58N 39°56' E 119°42'1104486.2
2017-Sep-24 10:57N 40°20' E 122°01'6265354.1
2017-Sep-24 10:50N 29°54' E 121°59'86269.0
2017-Sep-24 10:30N 31°20' E 121°59'374112127.8
2017-Sep-24 10:30N 37°33' E 121°23'3691329991.9
2017-Sep-24 10:30N 31°23' E 121°37'191405.8
2017-Sep-24 10:29N 31°33' E 121°18'658197477.5
2017-Sep-24 10:29N 22°59' E 113°34'106455500.5
2017-Sep-24 10:28N 39°56' E 119°42'6124383.3
2017-Sep-24 10:20N 29°54' E 121°59'3771885.5
2017-Sep-24 10:08N 24°32' E 118°19'4523809.2
2017-Sep-24 10:01N 31°20' E 121°59'452542182.5
2017-Sep-24 10:00N 24°32' E 118°19'796286630.8
2017-Sep-24 10:00N 37°33' E 121°23'360647995.5
2017-Sep-24 10:00N 31°33' E 121°18'196747.8
2017-Sep-24 10:00N 31°23' E 121°37'66239725.5
2017-Sep-24 09:59N 22°59' E 113°34'106461766.4
2017-Sep-24 09:58N 39°56' E 119°42'6122543.0
2017-Sep-24 09:44N 29°54' E 121°59'86389.8
2017-Sep-24 09:30N 31°20' E 121°59'3722390.4
2017-Sep-24 09:30N 31°33' E 121°18'360647984.7
2017-Sep-24 09:30N 37°33' E 121°23'796477714.5
2017-Sep-24 09:30N 24°32' E 118°19'4471608297.2
2017-Sep-24 09:30N 31°23' E 121°37'66241091.5
2017-Sep-24 09:29N 22°59' E 113°34'106458023.3
2017-Sep-24 09:28N 39°56' E 119°42'6122537.2
2017-Sep-24 09:14N 29°54' E 121°59'130874.7
2017-Sep-24 09:05N 31°51' E 120°54'825077.0
2017-Sep-24 09:04N 30°60' E 122°09'4388164.0
2017-Sep-24 09:01N 24°32' E 118°19'449179647.1
2017-Sep-24 09:00N 31°33' E 121°18'3744780.8
2017-Sep-24 09:00N 31°20' E 121°59'374168189.0
2017-Sep-24 09:00N 37°33' E 121°23'3691330072.8
2017-Sep-24 09:00N 31°23' E 121°37'364928.9
2017-Sep-24 09:00N 31°00' E 122°08'66466396.4
2017-Sep-24 08:59N 22°59' E 113°34'106458915.6
2017-Sep-24 08:58N 39°56' E 119°42'61215205.7
2017-Sep-24 08:56N 29°54' E 121°59'126532.8
2017-Sep-24 08:41N 31°48' E 120°56'3461891.4
2017-Sep-24 08:30N 37°33' E 121°23'392282178.4
2017-Sep-24 08:30N 31°02' E 122°05'5060184.7
2017-Sep-24 08:30N 31°33' E 121°18'195613.4
2017-Sep-24 08:30N 31°23' E 121°37'1969087.9
2017-Sep-24 08:30N 31°20' E 121°59'45285607.8
2017-Sep-24 08:30N 24°32' E 118°19'92631459.4
2017-Sep-24 08:28N 39°56' E 119°42'4938967.0
2017-Sep-24 08:25N 31°47' E 120°59'65924448.4
2017-Sep-24 08:23N 22°59' E 113°34'11276211.7
2017-Sep-24 08:12N 40°20' E 122°01'6268050.7
2017-Sep-24 08:08N 29°54' E 121°59'580.6
2017-Sep-24 08:04N 29°56' E 121°53'3767044.9
2017-Sep-24 08:00N 24°32' E 118°19'796573257.4
2017-Sep-24 08:00N 37°33' E 121°23'360647984.7
2017-Sep-24 08:00N 31°33' E 121°18'3744780.8
2017-Sep-24 08:00N 31°20' E 121°59'196280.4
2017-Sep-24 08:00N 31°23' E 121°37'66241812.7
2017-Sep-24 07:59N 22°59' E 113°34'662397377.2
2017-Sep-24 07:59N 31°04' E 122°01'54431058.2
2017-Sep-24 07:58N 39°56' E 119°42'1104486.5
2017-Sep-24 07:57N 40°20' E 122°01'623320557.6
2017-Sep-24 07:56N 29°57' E 121°53'6425.4
2017-Sep-24 07:56N 29°54' E 121°59'911450.8
2017-Sep-24 07:52N 31°22' E 121°30'4431246.1
2017-Sep-24 07:31N 24°32' E 118°19'439315867.7
2017-Sep-24 07:30N 31°06' E 121°57'1450642.7
2017-Sep-24 07:30N 31°20' E 121°59'374269102.4
2017-Sep-24 07:30N 37°33' E 121°23'369221675.2
2017-Sep-24 07:30N 31°23' E 121°37'537241713.1
2017-Sep-24 07:30N 40°20' E 122°01'52943251.2
2017-Sep-24 07:29N 31°33' E 121°18'133554.0
2017-Sep-24 07:29N 31°43' E 121°08'49826778.4
2017-Sep-24 07:28N 39°56' E 119°42'610182852.0
2017-Sep-24 07:28N 29°56' E 121°53'1443079.7
2017-Sep-24 07:25N 31°59' E 120°27'651507.5
2017-Sep-24 07:22N 31°22' E 121°30'921950.5
2017-Sep-24 07:20N 29°54' E 121°59'150568.9
2017-Sep-24 07:04N 31°57' E 120°18'3406277.1
2017-Sep-24 07:01N 37°33' E 121°23'386277853.5
2017-Sep-24 07:00N 31°08' E 121°54'4018018.9
2017-Sep-24 07:00N 31°33' E 121°18'529951526.3
2017-Sep-24 07:00N 40°20' E 122°01'537483426.3
2017-Sep-24 07:00N 31°23' E 121°37'263131.0
2017-Sep-24 07:00N 31°40' E 121°13'233395.1
2017-Sep-24 06:59N 31°22' E 121°30'657236535.5
2017-Sep-24 06:59N 22°59' E 113°34'106458023.3
2017-Sep-24 06:58N 39°56' E 119°42'47825324.4
2017-Sep-24 06:57N 31°59' E 120°27'1481216.5
2017-Sep-24 06:50N 29°54' E 121°59'15130137.5
2017-Sep-24 06:49N 31°57' E 120°17'75392.4
2017-Sep-24 06:38N 31°31' E 121°39'4553685.2
2017-Sep-24 06:30N 24°32' E 118°19'452542182.5
2017-Sep-24 06:30N 31°20' E 121°59'3970776.3
2017-Sep-24 06:30N 31°36' E 121°17'40144573.9
2017-Sep-24 06:30N 31°09' E 121°52'384153627.0
2017-Sep-24 06:30N 37°33' E 121°23'369266010.3
2017-Sep-24 06:30N 31°23' E 121°37'66239722.4
2017-Sep-24 06:29N 22°59' E 113°34'65238473.8
2017-Sep-24 06:28N 31°59' E 120°27'478246005.8
2017-Sep-24 06:28N 39°56' E 119°42'50979720.8
2017-Sep-24 06:28N 31°33' E 121°18'596209.2
2017-Sep-24 06:27N 31°56' E 120°15'723621.2
2017-Sep-24 06:26N 31°22' E 121°30'1180.1
2017-Sep-24 06:17N 31°30' E 121°39'98372.5
2017-Sep-24 06:02N 29°54' E 121°59'37720856.2
2017-Sep-24 06:01N 24°32' E 118°19'452406636.9
2017-Sep-24 06:00N 31°20' E 121°59'1221796.2
2017-Sep-24 06:00N 31°11' E 121°50'1934926.9
2017-Sep-24 06:00N 31°29' E 121°41'3641311343.7
2017-Sep-24 06:00N 37°33' E 121°23'36995003.7
2017-Sep-24 06:00N 31°23' E 121°37'1911226.9
2017-Sep-24 06:00N 31°33' E 121°18'65846465.3
2017-Sep-24 05:59N 22°59' E 113°34'106457157.2
2017-Sep-24 05:58N 39°56' E 119°42'47847835.1
2017-Sep-24 05:57N 31°59' E 120°27'655729.5
2017-Sep-24 05:57N 31°22' E 121°30'761389.6
2017-Sep-24 05:54N 31°56' E 120°10'153939.3
2017-Sep-24 05:44N 29°54' E 121°59'6266669.1
2017-Sep-24 05:38N 40°20' E 122°01'9667645.0
2017-Sep-24 05:30N 24°32' E 118°19'449269431.2
2017-Sep-24 05:30N 31°30' E 121°26'2749015.8
2017-Sep-24 05:30N 31°11' E 121°49'164396.4
2017-Sep-24 05:30N 31°23' E 121°37'369332518.2
2017-Sep-24 05:30N 37°33' E 121°23'360647984.7
2017-Sep-24 05:30N 31°33' E 121°18'65844711.9
2017-Sep-24 05:29N 22°59' E 113°34'106459836.5
2017-Sep-24 05:28N 39°56' E 119°42'52044586.8
2017-Sep-24 05:27N 31°26' E 121°45'7517972.4
2017-Sep-24 05:27N 31°59' E 120°27'651654.3
2017-Sep-24 05:25N 31°22' E 121°30'793829.6
2017-Sep-24 05:24N 31°56' E 120°07'159961.8
2017-Sep-24 05:14N 29°53' E 122°03'3781727.6
2017-Sep-24 05:01N 24°32' E 118°19'449269645.2
2017-Sep-24 05:00N 31°22' E 121°48'1628040.0
2017-Sep-24 05:00N 31°26' E 121°30'367220052.2
2017-Sep-24 05:00N 37°33' E 121°23'37496108.0
2017-Sep-24 05:00N 31°20' E 121°59'125475.8
2017-Sep-24 05:00N 31°11' E 121°49'66054032.0
2017-Sep-24 04:59N 22°59' E 113°34'657295629.8
2017-Sep-24 04:59N 31°22' E 121°30'52131284.1
2017-Sep-24 04:58N 39°56' E 119°42'50973343.1
2017-Sep-24 04:58N 31°33' E 121°18'519653.0
2017-Sep-24 04:57N 31°59' E 120°27'7031344.0
2017-Sep-24 04:57N 31°23' E 121°37'933757.6
2017-Sep-24 04:56N 29°53' E 122°03'1621042.0
2017-Sep-24 04:46N 31°58' E 120°02'6597258.4
2017-Sep-24 04:41N 22°27' E 113°51'33417925.4
2017-Sep-24 04:40N 24°56' E 119°17'93582078.7
2017-Sep-24 04:39N 40°20' E 122°01'9666754.4
2017-Sep-24 04:31N 24°32' E 118°19'446229432.0
2017-Sep-24 04:30N 31°23' E 121°35'369332496.5
2017-Sep-24 04:30N 37°33' E 121°23'369110839.4
2017-Sep-24 04:30N 31°23' E 121°37'1614288.4
2017-Sep-24 04:30N 31°11' E 121°49'3461415.3
2017-Sep-24 04:30N 31°33' E 121°18'2912962.2
2017-Sep-24 04:30N 31°18' E 121°47'66453146.4
2017-Sep-24 04:29N 22°59' E 113°34'65241173.4
2017-Sep-24 04:28N 31°59' E 120°27'478172206.2
2017-Sep-24 04:28N 39°56' E 119°42'1106926.1
2017-Sep-24 04:27N 40°20' E 122°01'62729689.9
2017-Sep-24 04:26N 29°53' E 122°03'6286030.3
2017-Sep-24 04:20N 22°27' E 113°51'33011012.8
2017-Sep-24 04:18N 24°54' E 119°14'4063740.8
2017-Sep-24 04:11N 31°22' E 121°30'949.1
2017-Sep-24 04:00N 31°21' E 121°40'1629098.4
2017-Sep-24 04:00N 31°20' E 121°59'126260.3
2017-Sep-24 04:00N 31°11' E 121°49'440316983.4
2017-Sep-24 04:00N 24°32' E 118°19'449230977.7
2017-Sep-24 04:00N 31°33' E 121°18'360161993.5
2017-Sep-24 04:00N 37°33' E 121°23'375674834.3
2017-Sep-24 04:00N 31°18' E 121°45'785503.8
2017-Sep-24 03:59N 31°59' E 120°27'65117568.1
2017-Sep-24 03:59N 31°22' E 121°30'52134131.0
2017-Sep-24 03:58N 39°56' E 119°42'106433013.2
2017-Sep-24 03:56N 22°59' E 113°34'6165670.0
2017-Sep-24 03:50N 29°53' E 122°03'6275599.2
2017-Sep-24 03:43N 40°20' E 122°01'9664675.4
2017-Sep-24 03:31N 24°32' E 118°19'4521626547.5
2017-Sep-24 03:30N 31°20' E 121°59'1214595.3
2017-Sep-24 03:30N 31°11' E 121°49'33057.1
2017-Sep-24 03:30N 31°14' E 121°47'31112224.9
2017-Sep-24 03:30N 31°33' E 121°18'194813.1
2017-Sep-24 03:30N 31°23' E 121°37'369443364.8
2017-Sep-24 03:30N 37°33' E 121°23'96364176.3
2017-Sep-24 03:29N 22°59' E 113°34'112772430.7
2017-Sep-24 03:28N 40°20' E 122°01'11032886.7
2017-Sep-24 03:28N 39°56' E 119°42'478114804.1
2017-Sep-24 03:28N 31°59' E 120°27'652282.8
2017-Sep-24 03:26N 31°22' E 121°30'4161345.5
2017-Sep-24 03:08N 24°46' E 119°05'4233615.5
2017-Sep-24 03:01N 31°20' E 121°59'3741345512.2
2017-Sep-24 03:00N 37°33' E 121°23'380273676.8
2017-Sep-24 03:00N 31°13' E 121°48'142925.0
2017-Sep-24 03:00N 31°23' E 121°37'420756374.3
2017-Sep-24 03:00N 24°45' E 119°04'41330968.7
2017-Sep-24 02:59N 31°11' E 121°51'661264535.7
2017-Sep-24 02:59N 22°59' E 113°34'112794328.8
2017-Sep-24 02:58N 40°20' E 122°01'507107350.2
2017-Sep-24 02:58N 31°59' E 120°27'478430515.5
2017-Sep-24 02:58N 39°56' E 119°42'50927366.8
2017-Sep-24 02:57N 31°33' E 121°18'4217358.1
2017-Sep-24 02:54N 24°52' E 118°52'3458515.1
2017-Sep-24 02:51N 29°58' E 121°53'10410.0
2017-Sep-24 02:50N 29°53' E 122°03'3781187.9
2017-Sep-24 02:30N 24°32' E 118°19'4401584766.2
2017-Sep-24 02:30N 31°10' E 121°52'813996.0
2017-Sep-24 02:30N 31°16' E 121°46'3781359285.8
2017-Sep-24 02:30N 37°33' E 121°23'385230888.3
2017-Sep-24 02:30N 31°09' E 121°55'219508.8
2017-Sep-24 02:30N 31°23' E 121°37'192700.8
2017-Sep-24 02:30N 31°33' E 121°18'52910513.9
2017-Sep-24 02:27N 40°20' E 122°01'1127122912.7
2017-Sep-24 02:26N 22°59' E 113°34'65219395.7
2017-Sep-24 02:24N 31°59' E 120°27'47813667.2
2017-Sep-24 02:22N 39°56' E 119°42'52113999.8
2017-Sep-24 02:20N 31°22' E 121°30'9437446.0
2017-Sep-24 02:20N 29°53' E 122°03'3781181.7
2017-Sep-24 02:00N 24°32' E 118°19'440316488.7
2017-Sep-24 02:00N 31°08' E 121°56'1629248.1
2017-Sep-24 02:00N 31°19' E 121°42'374449345.9
2017-Sep-24 02:00N 37°33' E 121°23'369120918.2
2017-Sep-24 02:00N 31°23' E 121°37'66241814.9
2017-Sep-24 01:59N 22°59' E 113°34'112786301.3
2017-Sep-24 01:58N 40°20' E 122°01'11019732.5
2017-Sep-24 01:58N 39°56' E 119°42'54142361.9
2017-Sep-24 01:57N 31°06' E 121°59'449264.5
2017-Sep-24 01:57N 31°33' E 121°18'1074578.0
2017-Sep-24 01:56N 29°53' E 122°03'6193656.7
2017-Sep-24 01:45N 23°05' E 113°24'2831135.3
2017-Sep-24 01:31N 24°32' E 118°19'445267139.1
2017-Sep-24 01:30N 31°21' E 121°38'372267551.6
2017-Sep-24 01:30N 37°33' E 121°23'389466728.4
2017-Sep-24 01:30N 31°05' E 122°00'2710796.3
2017-Sep-24 01:30N 31°23' E 121°37'66242561.3
2017-Sep-24 01:29N 22°59' E 113°34'106458023.6
2017-Sep-24 01:28N 39°56' E 119°42'61414929.9
2017-Sep-24 01:26N 29°53' E 122°03'1072136.5
2017-Sep-24 01:23N 31°33' E 121°18'6763903.8
2017-Sep-24 01:12N 22°27' E 113°51'2761407.4
2017-Sep-24 01:00N 24°32' E 118°19'438315684.2
2017-Sep-24 01:00N 31°03' E 122°03'33117489.6
2017-Sep-24 01:00N 31°23' E 121°33'369147784.2
2017-Sep-24 01:00N 37°33' E 121°23'369332535.8
2017-Sep-24 01:00N 31°23' E 121°37'197508.3
2017-Sep-24 01:00N 31°33' E 121°18'65844712.8
2017-Sep-24 00:59N 22°59' E 113°34'106458915.9
2017-Sep-24 00:58N 39°56' E 119°42'61415896.5
2017-Sep-24 00:56N 29°53' E 122°03'6282791.9
2017-Sep-24 00:42N 22°27' E 113°51'6718418.3
2017-Sep-24 00:37N 31°58' E 120°27'4603971.9
2017-Sep-24 00:31N 24°32' E 118°19'43898611.1
2017-Sep-24 00:30N 31°01' E 122°07'393283046.4
2017-Sep-24 00:30N 37°33' E 121°23'36026999.8
2017-Sep-24 00:29N 31°33' E 121°18'658236974.7
2017-Sep-24 00:29N 22°59' E 113°34'106454707.9
2017-Sep-24 00:28N 39°56' E 119°42'9262018.6
2017-Sep-24 00:00N 24°32' E 118°19'438315413.6
2017-Sep-24 00:00N 30°59' E 122°11'3711243.2
2017-Sep-24 00:00N 31°23' E 121°37'369166265.2
2017-Sep-24 00:00N 37°33' E 121°23'96361884.6
2017-Sep-23 23:59N 22°59' E 113°34'106459836.8
2017-Sep-23 23:58N 39°56' E 119°42'113245807.1
2017-Sep-23 23:57N 21°53' E 113°14'7172921.5
2017-Sep-23 23:42N 31°58' E 120°27'4602428.4
2017-Sep-23 23:30N 24°32' E 118°19'44780416.6
2017-Sep-23 23:30N 31°23' E 121°37'369133016.5
2017-Sep-23 23:30N 37°33' E 121°23'96367951.7
2017-Sep-23 23:29N 22°59' E 113°34'106457157.5
2017-Sep-23 23:28N 39°56' E 119°42'4799968.5
2017-Sep-23 23:25N 31°58' E 120°27'10928070.0
2017-Sep-23 23:25N 30°56' E 122°12'398972.4
2017-Sep-23 23:00N 37°33' E 121°23'796286630.8
2017-Sep-23 23:00N 24°32' E 118°19'447804156.3
2017-Sep-23 23:00N 31°23' E 121°37'66242560.8
2017-Sep-23 22:59N 22°59' E 113°34'65818089.7
2017-Sep-23 22:57N 31°33' E 121°18'6712093.2
2017-Sep-23 22:38N 22°56' E 113°17'36621938.3
2017-Sep-23 22:37N 25°20' E 119°25'87619120.9
2017-Sep-23 22:34N 39°56' E 119°42'92615729.7
2017-Sep-23 22:30N 24°32' E 118°19'44773105.1
2017-Sep-23 22:30N 31°23' E 121°37'369102320.4
2017-Sep-23 22:30N 37°33' E 121°23'96315402.4
2017-Sep-23 22:26N 22°59' E 113°34'65822147.2
2017-Sep-23 22:24N 31°33' E 121°18'67252568.7
2017-Sep-23 22:24N 22°55' E 113°17'107341079.1
2017-Sep-23 22:22N 39°56' E 119°42'47918153.0
2017-Sep-23 22:20N 31°58' E 120°27'4601383.6
2017-Sep-23 22:01N 24°32' E 118°19'44789352.9
2017-Sep-23 22:00N 31°23' E 121°37'36957832.3
2017-Sep-23 22:00N 37°33' E 121°23'96391198.4
2017-Sep-23 21:59N 22°59' E 113°34'106456317.0
2017-Sep-23 21:58N 39°56' E 119°42'509366715.6
2017-Sep-23 21:58N 31°33' E 121°18'67375688.5
2017-Sep-23 21:57N 22°54' E 113°17'6652952.9
2017-Sep-23 21:44N 31°58' E 120°27'4602054.8
2017-Sep-23 21:30N 24°32' E 118°19'449134738.7
2017-Sep-23 21:30N 31°33' E 121°18'199650.5
2017-Sep-23 21:30N 31°23' E 121°37'8718451.7
2017-Sep-23 21:30N 29°57' E 121°54'61248961.3
2017-Sep-23 21:29N 22°59' E 113°34'106457157.5
2017-Sep-23 21:28N 39°56' E 119°42'107485907.3
2017-Sep-23 21:27N 22°53' E 113°19'66562960.0
2017-Sep-23 21:27N 31°58' E 120°27'169499.0
2017-Sep-23 21:06N 29°47' E 122°31'3874022.2
2017-Sep-23 21:01N 24°32' E 118°19'796477714.5
2017-Sep-23 21:00N 37°33' E 121°23'973205973.7
2017-Sep-23 21:00N 22°54' E 113°21'670109655.9
2017-Sep-23 21:00N 31°33' E 121°18'50917976.3
2017-Sep-23 20:58N 39°56' E 119°42'106433300.5
2017-Sep-23 20:56N 22°59' E 113°34'66219861.8
2017-Sep-23 20:54N 31°23' E 121°37'1947.6
2017-Sep-23 20:30N 31°33' E 121°18'360129596.9
2017-Sep-23 20:30N 37°33' E 121°23'369133015.9
2017-Sep-23 20:30N 31°23' E 121°37'672806586.0
2017-Sep-23 20:30N 22°54' E 113°24'11709.2
2017-Sep-23 20:29N 22°59' E 113°34'106456317.0
2017-Sep-23 20:28N 39°56' E 119°42'98410674.0
2017-Sep-23 20:23N 23°37' E 117°39'66179.4
2017-Sep-23 20:00N 24°32' E 118°19'285256502.7
2017-Sep-23 20:00N 22°55' E 113°26'970581980.9
2017-Sep-23 20:00N 37°33' E 121°23'369190019.7
2017-Sep-23 20:00N 31°23' E 121°37'191225.5
2017-Sep-23 19:59N 31°33' E 121°18'50924447.7
2017-Sep-23 19:58N 39°56' E 119°42'106434192.5
2017-Sep-23 19:56N 22°59' E 113°34'9834223.0
2017-Sep-23 19:42N 38°58' E 117°50'98923.7
2017-Sep-22 02:01N 22°53' E 113°34'2791003949.7
2017-Sep-22 02:00N 24°32' E 118°19'278125243.6
2017-Sep-22 02:00N 22°37' E 113°42'980141150.2
2017-Sep-22 02:00N 37°33' E 121°23'374336378.1
2017-Sep-22 02:00N 31°20' E 121°59'528135740.2
2017-Sep-22 02:00N 39°56' E 119°42'50996504.1
2017-Sep-22 01:59N 31°33' E 121°18'65913114.5
2017-Sep-22 01:56N 23°05' E 113°24'65236659.7
2017-Sep-22 01:55N 31°58' E 120°27'522940.7
2017-Sep-22 01:54N 31°32' E 121°20'1164.7
2017-Sep-22 01:44N 31°41' E 121°12'3521609.4
2017-Sep-22 01:31N 37°33' E 121°23'9651158432.2
2017-Sep-22 01:30N 22°57' E 113°32'661339987.3
2017-Sep-22 01:30N 31°33' E 121°18'3719191.8
2017-Sep-22 01:30N 31°20' E 121°59'6872474998.5
2017-Sep-22 01:30N 22°33' E 113°44'1087122270.2
2017-Sep-22 01:30N 39°56' E 119°42'926107570.7
2017-Sep-22 01:29N 24°32' E 118°19'28330892.9
2017-Sep-22 01:29N 23°05' E 113°24'65224696.7
2017-Sep-22 01:27N 31°58' E 120°27'42815.4
2017-Sep-22 01:24N 31°41' E 121°12'352902.1
2017-Sep-22 01:01N 37°33' E 121°23'962692394.9
2017-Sep-22 01:00N 23°02' E 113°31'6732421904.7
2017-Sep-22 01:00N 31°20' E 121°59'452101660.4
2017-Sep-22 01:00N 24°32' E 118°19'92698079.2
2017-Sep-22 01:00N 39°56' E 119°42'5091833556.7
2017-Sep-22 01:00N 31°33' E 121°18'10599.7
2017-Sep-22 00:59N 31°41' E 121°12'11460.4
2017-Sep-22 00:57N 31°32' E 121°20'52980.2
2017-Sep-22 00:54N 31°58' E 120°27'338865.5
2017-Sep-22 00:31N 37°33' E 121°23'7961433164.7
2017-Sep-22 00:30N 24°32' E 118°19'2821014199.1
2017-Sep-22 00:30N 23°05' E 113°26'673202048.4
2017-Sep-22 00:30N 31°20' E 121°59'3733548.4
2017-Sep-22 00:30N 31°35' E 121°19'50752141.1
2017-Sep-22 00:30N 39°56' E 119°42'50017660.6
2017-Sep-22 00:28N 31°41' E 121°12'423592.0
2017-Sep-22 00:27N 31°58' E 120°27'5294103.3
2017-Sep-22 00:27N 31°32' E 121°20'361811.5
2017-Sep-22 00:01N 37°33' E 121°23'3591291613.2
2017-Sep-22 00:01N 31°34' E 121°18'4501621379.0
2017-Sep-22 00:00N 24°32' E 118°19'452125120.5
2017-Sep-22 00:00N 31°20' E 121°59'6782441831.6
2017-Sep-22 00:00N 23°02' E 113°21'1064103563.2
2017-Sep-22 00:00N 39°56' E 119°42'50014765.4
2017-Sep-21 23:58N 31°41' E 121°12'111412.5
2017-Sep-21 23:57N 31°32' E 121°20'3591905.4
2017-Sep-21 23:46N 37°25' E 119°56'69272.6
2017-Sep-21 23:31N 37°33' E 121°23'7962866308.2
2017-Sep-21 23:31N 24°32' E 118°19'289520175.9
2017-Sep-21 23:30N 23°03' E 113°18'6792445249.7
2017-Sep-21 23:30N 31°20' E 121°59'377463.5
2017-Sep-21 23:30N 31°33' E 121°18'50959147.7
2017-Sep-21 23:30N 39°56' E 119°42'1524964.6
2017-Sep-21 23:28N 37°25' E 119°56'349104794.2
2017-Sep-21 23:28N 31°41' E 121°12'2393.1
2017-Sep-21 23:13N 31°25' E 121°31'3681793.8
2017-Sep-21 23:01N 37°33' E 121°23'7962866308.2
2017-Sep-21 23:00N 24°32' E 118°19'452542189.0
2017-Sep-21 23:00N 31°20' E 121°59'2615514.3
2017-Sep-21 23:00N 31°26' E 121°29'666266268.3
2017-Sep-21 23:00N 23°03' E 113°18'1064116086.6
2017-Sep-21 23:00N 39°56' E 119°42'50973343.1
2017-Sep-21 22:59N 31°33' E 121°18'101220.1
2017-Sep-21 22:59N 31°41' E 121°12'34922455.9
2017-Sep-21 22:58N 37°25' E 119°56'35934968.4
2017-Sep-21 22:57N 31°32' E 121°20'361811.5
2017-Sep-21 22:31N 37°33' E 121°23'374269102.4
2017-Sep-21 22:30N 31°20' E 121°59'378396.4
2017-Sep-21 22:30N 31°33' E 121°18'4491616864.3
2017-Sep-21 22:30N 24°32' E 118°19'28961197.2
2017-Sep-21 22:30N 23°03' E 113°18'667800246.2
2017-Sep-21 22:30N 31°41' E 121°12'34910392.8
2017-Sep-21 22:28N 37°25' E 119°56'35934047.6
2017-Sep-21 22:27N 31°32' E 121°20'5108747.5
2017-Sep-21 22:24N 39°56' E 119°42'164424.6
2017-Sep-21 22:01N 37°33' E 121°23'7961433154.1
2017-Sep-21 22:00N 24°32' E 118°19'4521626567.1
2017-Sep-21 22:00N 31°20' E 121°59'380124305.0
2017-Sep-21 22:00N 37°26' E 119°55'928208863.6
2017-Sep-21 22:00N 23°03' E 113°18'664125845.6
2017-Sep-21 22:00N 31°33' E 121°18'509305596.3
2017-Sep-21 22:00N 39°56' E 119°42'51012328.7
2017-Sep-21 21:57N 31°32' E 121°20'11196.9
2017-Sep-21 21:54N 31°41' E 121°12'114311.4
2017-Sep-21 21:32N 29°54' E 121°59'46025456.9
2017-Sep-21 21:31N 37°33' E 121°23'7962866308.2
2017-Sep-21 21:31N 24°32' E 118°19'452542189.0
2017-Sep-21 21:30N 31°20' E 121°59'679174661.9
2017-Sep-21 21:30N 23°03' E 113°18'62097009.9
2017-Sep-21 21:30N 29°58' E 121°53'608198928.1
2017-Sep-21 21:30N 39°56' E 119°42'51012085.2
2017-Sep-21 21:27N 31°32' E 121°20'257.6
2017-Sep-21 21:25N 31°33' E 121°18'1051127.2
2017-Sep-21 21:20N 29°54' E 121°60'4601444.3
2017-Sep-21 21:01N 37°33' E 121°23'374672756.1
2017-Sep-21 21:00N 31°20' E 121°59'45240664.2
2017-Sep-21 21:00N 24°32' E 118°19'289173393.1
2017-Sep-21 21:00N 23°03' E 113°18'10641276940.1
2017-Sep-21 21:00N 39°56' E 119°42'51012246.4
2017-Sep-21 20:57N 31°32' E 121°20'2328.6
2017-Sep-21 20:57N 31°33' E 121°18'1075045.2
2017-Sep-21 20:56N 29°54' E 122°04'4601102.1
2017-Sep-21 20:31N 37°33' E 121°23'7961433154.1
2017-Sep-21 20:30N 24°32' E 118°19'92664129.1
2017-Sep-21 20:30N 39°56' E 119°42'52850009.5
2017-Sep-21 20:29N 31°20' E 121°59'361161.8
2017-Sep-21 20:27N 31°32' E 121°20'105838.7
2017-Sep-21 20:20N 29°55' E 122°07'4591441.6
2017-Sep-21 20:01N 37°33' E 121°23'7962866308.2
2017-Sep-21 20:00N 24°32' E 118°19'452813283.6
2017-Sep-21 20:00N 31°20' E 121°59'3440999.2
2017-Sep-21 20:00N 31°31' E 121°21'66557011.3
2017-Sep-21 20:00N 23°03' E 113°18'1064766167.2
2017-Sep-21 20:00N 39°56' E 119°42'5009050.4
2017-Sep-21 19:56N 31°41' E 121°12'1199949.0
2017-Sep-21 19:56N 29°53' E 122°09'4611104.5
2017-Sep-21 19:31N 37°33' E 121°23'7961433154.1
2017-Sep-21 19:30N 24°32' E 118°19'452813283.6
2017-Sep-21 19:30N 31°20' E 121°59'679489049.9
2017-Sep-21 19:30N 23°03' E 113°18'66579855.9
2017-Sep-21 19:30N 31°29' E 121°25'514132059.4
2017-Sep-21 19:30N 39°56' E 119°42'5091539.5
2017-Sep-21 19:10N 31°33' E 121°18'3602330.9
2017-Sep-21 19:01N 37°33' E 121°23'796136490.9
2017-Sep-21 19:00N 24°32' E 118°19'289130067.5
2017-Sep-21 19:00N 23°03' E 113°18'666218024.8
2017-Sep-21 19:00N 31°27' E 121°28'2724409.5
2017-Sep-21 19:00N 31°20' E 121°59'528190036.3
2017-Sep-21 19:00N 39°56' E 119°42'5093118.3
2017-Sep-21 18:50N 31°33' E 121°18'54199.4
2017-Sep-21 18:34N 31°00' E 122°08'40781.4
2017-Sep-21 18:31N 31°25' E 121°32'3681325098.1
2017-Sep-21 18:31N 37°33' E 121°23'374672766.9
2017-Sep-21 18:30N 31°20' E 121°59'67997814.6
2017-Sep-21 18:30N 23°03' E 113°18'28974323.8
2017-Sep-21 18:30N 24°32' E 118°19'926333471.4
2017-Sep-21 18:30N 39°56' E 119°42'54922697.3
2017-Sep-21 18:28N 31°01' E 122°08'531938.6
2017-Sep-21 18:27N 31°33' E 121°18'59157.2
2017-Sep-21 18:04N 30°57' E 122°13'4377521.8
2017-Sep-21 18:01N 24°32' E 118°19'44684489.5
2017-Sep-21 18:00N 31°23' E 121°37'52258706.9
2017-Sep-21 18:00N 39°56' E 119°42'106454724.8
2017-Sep-21 17:58N 23°03' E 113°18'67022539.1
2017-Sep-21 17:57N 31°03' E 122°04'184562.8
2017-Sep-21 17:56N 31°20' E 121°59'251812.1
2017-Sep-21 17:56N 30°58' E 122°12'397947.9
2017-Sep-21 17:31N 37°33' E 121°23'374336383.4
2017-Sep-21 17:30N 31°20' E 121°59'1518389.4
2017-Sep-21 17:30N 31°20' E 121°41'238304.5
2017-Sep-21 17:30N 31°04' E 122°01'43868620.0
2017-Sep-21 17:30N 24°32' E 118°19'926303155.8
2017-Sep-21 17:30N 39°56' E 119°42'54933502.9
2017-Sep-21 17:29N 31°01' E 122°11'67341779.9
2017-Sep-21 17:28N 23°03' E 113°18'6674840.0
2017-Sep-21 17:19N 31°41' E 121°12'2 8.7
2017-Sep-21 17:05N 31°42' E 121°09'12449489.6
2017-Sep-21 17:05N 29°46' E 122°01'62460761.2
2017-Sep-21 17:04N 22°55' E 113°17'2934842.2
2017-Sep-21 17:00N 24°32' E 118°19'289148622.6
2017-Sep-21 17:00N 23°03' E 113°18'668240606.1
2017-Sep-21 17:00N 31°17' E 121°45'376169362.2
2017-Sep-21 17:00N 37°33' E 121°23'974206205.0
2017-Sep-21 17:00N 22°54' E 113°17'1073429247.7
2017-Sep-21 17:00N 39°56' E 119°42'62039167.0
2017-Sep-21 16:59N 29°46' E 122°01'9467433.5
2017-Sep-21 16:59N 31°20' E 121°59'1412766.7
2017-Sep-21 16:59N 31°06' E 121°58'91445.1
2017-Sep-21 16:58N 31°03' E 122°08'611419.9
2017-Sep-21 16:56N 31°41' E 121°12'10316.7
2017-Sep-21 16:54N 31°33' E 121°18'4491161.5
2017-Sep-21 16:31N 24°32' E 118°19'452406636.9
2017-Sep-21 16:30N 31°20' E 121°59'1312105.4
2017-Sep-21 16:30N 31°07' E 121°56'668240455.9
2017-Sep-21 16:30N 23°03' E 113°18'61823650.8
2017-Sep-21 16:29N 29°46' E 122°01'46734330.0
2017-Sep-21 16:28N 37°33' E 121°23'35232470.4
2017-Sep-21 16:27N 31°41' E 121°12'586715.4
2017-Sep-21 16:27N 31°04' E 122°04'54410827.0
2017-Sep-21 16:24N 39°56' E 119°42'50914786.9
2017-Sep-21 16:22N 31°33' E 121°18'675.2
2017-Sep-21 16:17N 31°38' E 121°15'3551286.3
2017-Sep-21 16:01N 37°33' E 121°23'7962866308.1
2017-Sep-21 16:00N 24°32' E 118°19'439263150.4
2017-Sep-21 16:00N 31°07' E 121°54'28102.2
2017-Sep-21 16:00N 31°09' E 121°53'813950.8
2017-Sep-21 16:00N 31°05' E 122°01'1518261.6
2017-Sep-21 16:00N 31°20' E 121°59'39141394.9
2017-Sep-21 16:00N 31°36' E 121°17'667599924.8
2017-Sep-21 16:00N 23°03' E 113°18'1064109452.5
2017-Sep-21 16:00N 39°56' E 119°42'50991677.8
2017-Sep-21 15:59N 31°33' E 121°18'670109706.3
2017-Sep-21 15:59N 22°54' E 113°21'6242257.4
2017-Sep-21 15:42N 29°56' E 121°53'11139917.7
2017-Sep-21 15:42N 31°41' E 121°12'6673434.6
2017-Sep-21 15:31N 23°03' E 113°18'9651736981.4
2017-Sep-21 15:30N 37°33' E 121°23'9711165544.7
2017-Sep-21 15:30N 22°54' E 113°24'671805151.0
2017-Sep-21 15:30N 31°07' E 121°54'5059653.7
2017-Sep-21 15:30N 31°41' E 121°12'4654703.2
2017-Sep-21 15:30N 31°20' E 121°59'3733585.6
2017-Sep-21 15:30N 31°33' E 121°18'4411219.6
2017-Sep-21 15:30N 31°06' E 121°58'439158014.7
2017-Sep-21 15:30N 24°32' E 118°19'926370521.4
2017-Sep-21 15:30N 39°56' E 119°42'50917788.9
2017-Sep-21 15:28N 31°33' E 121°20'1004224.6
2017-Sep-21 15:27N 29°58' E 121°53'4561050.3
2017-Sep-21 15:01N 37°33' E 121°23'7962866287.0
2017-Sep-21 15:00N 24°32' E 118°19'452542182.5
2017-Sep-21 15:00N 31°20' E 121°59'6812450371.2
2017-Sep-21 15:00N 22°55' E 113°27'6691203643.5
2017-Sep-21 15:00N 31°07' E 121°54'1128.0
2017-Sep-21 15:00N 31°07' E 121°56'540162016.4
2017-Sep-21 15:00N 39°56' E 119°42'509366711.3
2017-Sep-21 15:00N 31°33' E 121°18'4815796.4
2017-Sep-21 14:59N 31°05' E 122°04'582156.5
2017-Sep-21 14:58N 31°41' E 121°12'122659.6
2017-Sep-21 14:47N 29°46' E 122°01'4671728.8
2017-Sep-21 14:30N 37°33' E 121°23'965434247.8
2017-Sep-21 14:30N 23°03' E 113°18'153577.9
2017-Sep-21 14:30N 22°53' E 113°30'1071132902.2
2017-Sep-21 14:30N 39°56' E 119°42'540647556.4
2017-Sep-21 14:30N 31°07' E 121°54'1423.8
2017-Sep-21 14:29N 31°08' E 121°53'394990.1
2017-Sep-21 14:29N 31°33' E 121°18'11244978.5
2017-Sep-21 14:29N 29°46' E 122°01'10722667.4
2017-Sep-21 14:28N 31°29' E 121°27'4496262.6
2017-Sep-21 14:24N 24°32' E 118°19'4558950.0
2017-Sep-21 14:21N 31°41' E 121°12'453211.0
2017-Sep-21 14:20N 31°20' E 121°59'5713155.1
2017-Sep-21 14:09N 23°04' E 116°40'5593778.2
2017-Sep-21 14:01N 31°10' E 121°52'667400179.4
2017-Sep-21 14:00N 22°52' E 113°34'9703491398.1
2017-Sep-21 14:00N 37°33' E 121°23'9651157994.2
2017-Sep-21 14:00N 23°03' E 113°18'679611349.2
2017-Sep-21 14:00N 31°20' E 121°59'375167.0
2017-Sep-21 14:00N 31°33' E 121°18'509130969.9
2017-Sep-21 14:00N 39°56' E 119°42'62039866.8
2017-Sep-21 13:59N 29°46' E 122°01'10513475.8
2017-Sep-21 13:58N 31°28' E 121°29'448537404.2
2017-Sep-21 13:58N 24°32' E 118°19'45533425.7
2017-Sep-21 13:57N 31°41' E 121°12'56914026.1
2017-Sep-21 13:55N 23°05' E 116°42'5571370.0
2017-Sep-21 13:31N 31°07' E 121°54'622330.2
2017-Sep-21 13:31N 31°12' E 121°49'3821373522.0
2017-Sep-21 13:31N 37°33' E 121°23'366659157.9
2017-Sep-21 13:30N 31°27' E 121°30'127047.1
2017-Sep-21 13:30N 31°33' E 121°18'663149121.0
2017-Sep-21 13:30N 22°54' E 113°34'172438.8
2017-Sep-21 13:30N 23°03' E 113°18'28994578.6
2017-Sep-21 13:30N 24°32' E 118°19'45556477.3
2017-Sep-21 13:29N 31°41' E 121°12'12218303.2
2017-Sep-21 13:29N 29°46' E 122°01'6207466.7
2017-Sep-21 13:24N 39°56' E 119°42'10209560.0
2017-Sep-21 13:17N 23°08' E 116°44'8983220.1
2017-Sep-21 13:01N 37°33' E 121°23'374672756.1
2017-Sep-21 13:00N 31°20' E 121°59'139662.8
2017-Sep-21 13:00N 31°07' E 121°54'552496515.1
2017-Sep-21 13:00N 23°09' E 116°46'55967064.9
2017-Sep-21 13:00N 31°33' E 121°18'661595134.6
2017-Sep-21 13:00N 22°57' E 113°33'6631193746.5
2017-Sep-21 13:00N 31°25' E 121°31'518466452.1
2017-Sep-21 13:00N 39°56' E 119°42'926107570.0
2017-Sep-21 12:59N 24°32' E 118°19'4552738.9
2017-Sep-21 12:49N 31°41' E 121°12'1222909.3
2017-Sep-21 12:47N 29°46' E 122°01'4671735.9
2017-Sep-21 12:31N 37°33' E 121°23'369663841.8
2017-Sep-21 12:30N 31°24' E 121°32'660791429.1
2017-Sep-21 12:30N 22°59' E 113°34'27627646.4
2017-Sep-21 12:30N 24°32' E 118°19'926333469.3
2017-Sep-21 12:30N 39°56' E 119°42'540647660.1
2017-Sep-21 12:30N 31°07' E 121°54'86820.3
2017-Sep-21 12:30N 31°12' E 121°48'122913.6
2017-Sep-21 12:29N 31°20' E 121°59'3716792.8
2017-Sep-21 12:29N 31°33' E 121°18'664140651.0
2017-Sep-21 12:29N 23°03' E 113°18'66716443.4
2017-Sep-21 12:26N 31°41' E 121°12'1228977.8
2017-Sep-21 12:26N 29°46' E 122°01'4832788.5
2017-Sep-21 12:15N 23°12' E 116°50'48614005.3
2017-Sep-21 12:13N 29°56' E 121°53'6228776.5
2017-Sep-21 12:09N 22°28' E 113°52'6744808.2
2017-Sep-21 12:00N 31°12' E 121°48'658182223.4
2017-Sep-21 12:00N 23°02' E 113°35'1619104.5
2017-Sep-21 12:00N 23°03' E 113°18'664125846.5
2017-Sep-21 12:00N 31°33' E 121°18'3719191.8
2017-Sep-21 12:00N 31°20' E 121°59'1222288.5
2017-Sep-21 12:00N 31°09' E 121°52'222295.0
2017-Sep-21 11:59N 31°21' E 121°31'9710539.1
2017-Sep-21 11:59N 29°49' E 122°05'6187416.3
2017-Sep-21 11:54N 39°56' E 119°42'50039160.5
2017-Sep-21 11:53N 31°41' E 121°12'1116541.3
2017-Sep-21 11:52N 29°56' E 121°53'4848289.9
2017-Sep-21 11:48N 23°14' E 116°53'8902988.0
2017-Sep-21 11:30N 37°33' E 121°23'9601728052.8
2017-Sep-21 11:30N 23°02' E 113°35'163821.2
2017-Sep-21 11:30N 23°03' E 113°18'6671200805.9
2017-Sep-21 11:30N 31°12' E 121°48'53461963.9
2017-Sep-21 11:30N 39°56' E 119°42'52543945.1
2017-Sep-21 11:29N 31°19' E 121°34'295183.7
2017-Sep-21 11:29N 31°41' E 121°12'1117389.2
2017-Sep-21 11:28N 29°56' E 121°53'3343709.7
2017-Sep-21 11:22N 24°39' E 119°55'40715247.6
2017-Sep-21 11:21N 31°13' E 121°48'824691.7
2017-Sep-21 11:20N 29°53' E 122°08'87679.4
2017-Sep-21 11:12N 31°20' E 121°59'3722390.4
2017-Sep-21 11:12N 31°33' E 121°18'6643526.6
2017-Sep-21 11:01N 23°03' E 113°18'6672401658.8
2017-Sep-21 11:01N 31°12' E 121°48'381685413.0
2017-Sep-21 11:00N 37°33' E 121°23'9601152041.6
2017-Sep-21 11:00N 23°02' E 113°35'67047298.7
2017-Sep-21 11:00N 31°20' E 121°59'84438.5
2017-Sep-21 10:48N 29°56' E 121°53'61084401.9
2017-Sep-21 10:48N 39°56' E 119°42'91533602.0
2017-Sep-21 10:46N 24°41' E 119°53'42585071.6
2017-Sep-21 10:46N 31°41' E 121°12'31623.7
2017-Sep-21 10:43N 31°15' E 121°31'861003.4
2017-Sep-21 10:38N 29°54' E 122°07'6307814.8
2017-Sep-21 10:33N 22°28' E 113°52'67618298.7
2017-Sep-21 10:31N 31°20' E 121°41'933005.2
2017-Sep-21 10:31N 31°12' E 121°48'33117859.9
2017-Sep-21 10:30N 31°33' E 121°18'3726868.5
2017-Sep-21 10:30N 31°20' E 121°59'374269106.8
2017-Sep-21 10:30N 37°33' E 121°23'457149665.4
2017-Sep-21 10:30N 29°56' E 121°53'60895229.9
2017-Sep-21 10:30N 23°02' E 113°35'1061636704.4
2017-Sep-21 10:30N 39°56' E 119°42'52955975.0
2017-Sep-21 10:29N 31°15' E 121°30'402180936.3
2017-Sep-21 10:29N 24°42' E 119°53'43828127.9
2017-Sep-21 10:28N 31°58' E 120°27'1513964.5
2017-Sep-21 10:26N 29°54' E 122°07'6301856.1
2017-Sep-21 10:05N 22°28' E 113°52'6758327.5
2017-Sep-21 10:01N 31°22' E 121°37'371445115.5
2017-Sep-21 10:00N 37°33' E 121°23'960157095.7
2017-Sep-21 10:00N 23°02' E 113°35'1061141489.1
2017-Sep-21 10:00N 39°56' E 119°42'479431134.1
2017-Sep-21 10:00N 31°58' E 120°27'8726213.3
2017-Sep-21 09:59N 31°20' E 121°59'1214563.5
2017-Sep-21 09:59N 31°12' E 121°48'3323569.3
2017-Sep-21 09:59N 31°33' E 121°18'416136208.0
2017-Sep-21 09:59N 24°43' E 119°53'3319085.6
2017-Sep-21 09:57N 29°56' E 121°53'12595.3
2017-Sep-21 09:56N 29°54' E 122°07'117993.1
2017-Sep-21 09:49N 31°41' E 121°12'4552785.5
2017-Sep-21 09:39N 24°32' E 118°19'2742926.6
2017-Sep-21 09:33N 22°28' E 113°52'67414988.2
2017-Sep-21 09:31N 31°12' E 121°48'658473751.9
2017-Sep-21 09:30N 23°02' E 113°35'1619174.6
2017-Sep-21 09:30N 23°03' E 113°18'6662396501.9
2017-Sep-21 09:30N 31°24' E 121°32'445145747.1
2017-Sep-21 09:30N 24°32' E 118°19'449323368.8
2017-Sep-21 09:30N 31°33' E 121°18'36080998.1
2017-Sep-21 09:30N 37°33' E 121°23'16445369.2
2017-Sep-21 09:30N 39°56' E 119°42'50034642.0
2017-Sep-21 09:29N 31°41' E 121°12'6779711.7
2017-Sep-21 09:25N 22°28' E 113°52'6303481.2
2017-Sep-21 09:14N 29°54' E 122°07'3811731.2
2017-Sep-21 09:01N 24°32' E 118°19'7962866308.1
2017-Sep-21 09:00N 37°33' E 121°23'374448511.3
2017-Sep-21 09:00N 31°20' E 121°59'1210926.0
2017-Sep-21 09:00N 31°12' E 121°48'53443654.9
2017-Sep-21 09:00N 39°56' E 119°42'1064957705.1
2017-Sep-21 09:00N 23°03' E 113°18'161006.8
2017-Sep-21 08:59N 23°02' E 113°35'65943118.0
2017-Sep-21 08:58N 31°41' E 121°12'10552.8
2017-Sep-21 08:57N 31°33' E 121°18'1077131.6
2017-Sep-21 08:56N 29°54' E 122°07'93340.8
2017-Sep-21 08:39N 31°21' E 121°26'42507.0
2017-Sep-21 08:34N 31°02' E 122°10'4406915.3
2017-Sep-21 08:30N 24°32' E 118°19'7962866287.0
2017-Sep-21 08:30N 37°33' E 121°23'374336378.1
2017-Sep-21 08:30N 31°20' E 121°59'67083214.8
2017-Sep-21 08:30N 23°01' E 113°36'164451.5
2017-Sep-21 08:30N 23°03' E 113°18'10641276959.0
2017-Sep-21 08:30N 39°56' E 119°42'5099307.5
2017-Sep-21 08:26N 31°33' E 121°18'1079169.2
2017-Sep-21 08:26N 29°54' E 122°07'1171363.9
2017-Sep-21 08:21N 31°41' E 121°12'621960.6
2017-Sep-21 08:19N 31°03' E 122°08'4401454.7
2017-Sep-21 08:01N 24°32' E 118°19'4411586875.5
2017-Sep-21 08:00N 31°12' E 121°48'3811370804.4
2017-Sep-21 08:00N 37°33' E 121°23'9603457341.1
2017-Sep-21 08:00N 23°01' E 113°36'6701206598.5
2017-Sep-21 08:00N 31°20' E 121°59'679611345.2
2017-Sep-21 08:00N 23°03' E 113°18'671201441.9
2017-Sep-21 08:00N 31°04' E 122°05'54565400.6
2017-Sep-21 08:00N 39°56' E 119°42'5091833578.0
2017-Sep-21 08:00N 31°33' E 121°18'1071598.0
2017-Sep-21 07:56N 29°54' E 122°07'117652.7
2017-Sep-21 07:45N 31°41' E 121°12'1146.3
2017-Sep-21 07:31N 31°32' E 121°19'4491616679.0
2017-Sep-21 07:30N 24°32' E 118°19'7962866287.0
2017-Sep-21 07:30N 37°33' E 121°23'374448504.1
2017-Sep-21 07:30N 31°20' E 121°59'670120658.2
2017-Sep-21 07:30N 23°01' E 113°36'1619221.5
2017-Sep-21 07:30N 23°03' E 113°18'1064159616.7
2017-Sep-21 07:30N 39°56' E 119°42'6139434.6
2017-Sep-21 07:26N 29°54' E 122°07'1171243.8
2017-Sep-21 07:20N 31°41' E 121°12'42129.5
2017-Sep-21 07:01N 31°12' E 121°48'31113168.4
2017-Sep-21 07:01N 31°32' E 121°19'40144690.1
2017-Sep-21 07:00N 31°07' E 121°56'387696089.7
2017-Sep-21 07:00N 37°33' E 121°23'965868475.3
2017-Sep-21 07:00N 23°03' E 113°18'679271694.4
2017-Sep-21 07:00N 31°20' E 121°59'452406636.9
2017-Sep-21 07:00N 24°32' E 118°19'4552360.1
2017-Sep-21 06:49N 31°41' E 121°12'50030018.6
2017-Sep-21 06:48N 39°56' E 119°42'106254593.2
2017-Sep-21 06:46N 23°01' E 113°36'61713139.5
2017-Sep-21 06:44N 29°54' E 122°07'80364.3
2017-Sep-21 06:30N 31°13' E 121°48'381685283.5
2017-Sep-21 06:30N 37°33' E 121°23'9603457301.3
2017-Sep-21 06:30N 23°01' E 113°36'6701206581.9
2017-Sep-21 06:30N 31°20' E 121°59'6792445249.7
2017-Sep-21 06:30N 23°03' E 113°18'667480539.5
2017-Sep-21 06:30N 31°09' E 121°52'364670.2
2017-Sep-21 06:30N 31°32' E 121°19'510141228.1
2017-Sep-21 06:30N 39°56' E 119°42'500200124.2
2017-Sep-21 06:29N 31°41' E 121°12'1181915.0
2017-Sep-21 06:26N 29°54' E 122°08'381904.0
2017-Sep-21 06:01N 24°32' E 118°19'796955429.0
2017-Sep-21 06:00N 37°33' E 121°23'374448504.1
2017-Sep-21 06:00N 31°20' E 121°59'6791222698.5
2017-Sep-21 06:00N 23°03' E 113°18'667800678.7
2017-Sep-21 06:00N 31°13' E 121°48'26168.7
2017-Sep-21 06:00N 31°12' E 121°50'659107764.7
2017-Sep-21 06:00N 23°01' E 113°35'1062224788.5
2017-Sep-21 06:00N 39°56' E 119°42'51070621.1
2017-Sep-21 05:59N 31°32' E 121°20'111085.2
2017-Sep-21 05:59N 31°41' E 121°12'51812353.1
2017-Sep-21 05:56N 23°39' E 117°36'4422126.6
2017-Sep-21 05:44N 29°50' E 122°06'12141.4
2017-Sep-21 05:38N 29°56' E 121°53'3762878.6
2017-Sep-21 05:31N 24°32' E 118°19'441793543.8
2017-Sep-21 05:30N 31°13' E 121°48'6581184220.7
2017-Sep-21 05:30N 23°02' E 113°36'1611495.3
2017-Sep-21 05:30N 23°03' E 113°18'679349323.7
2017-Sep-21 05:30N 31°20' E 121°59'513307964.6
2017-Sep-21 05:30N 23°42' E 117°39'853341304.2
2017-Sep-21 05:30N 37°33' E 121°23'16428085.7
2017-Sep-21 05:30N 39°56' E 119°42'479574985.0
2017-Sep-21 05:30N 31°58' E 120°19'874079.7
2017-Sep-21 05:28N 31°13' E 121°47'861967.7
2017-Sep-21 05:26N 29°48' E 122°03'112690.2
2017-Sep-21 05:16N 31°33' E 121°18'1073.3
2017-Sep-21 05:08N 31°41' E 121°12'42346.6
2017-Sep-21 05:01N 31°13' E 121°48'441529016.2
2017-Sep-21 05:00N 24°32' E 118°19'58105260.2
2017-Sep-21 05:00N 23°44' E 117°42'850437172.6
2017-Sep-21 05:00N 37°33' E 121°23'341111566.9
2017-Sep-21 05:00N 31°56' E 120°16'649389434.5
2017-Sep-21 05:00N 23°03' E 113°18'169612.4
2017-Sep-21 05:00N 23°02' E 113°36'1061212212.1
2017-Sep-21 05:00N 39°56' E 119°42'50991678.9
2017-Sep-21 04:59N 31°33' E 121°18'11310677.8
2017-Sep-21 04:59N 29°46' E 122°00'1223733.4
2017-Sep-21 04:57N 31°41' E 121°12'411791.3
2017-Sep-21 04:55N 31°13' E 121°47'380919.1
2017-Sep-21 04:31N 37°33' E 121°23'7962866287.0
2017-Sep-21 04:31N 24°32' E 118°19'4411587048.6
2017-Sep-21 04:30N 31°13' E 121°48'1243685.4
2017-Sep-21 04:30N 31°20' E 121°59'6701205903.4
2017-Sep-21 04:30N 23°02' E 113°36'65829630.1
2017-Sep-21 04:29N 31°41' E 121°12'12223187.3
2017-Sep-21 04:29N 29°46' E 122°00'889898.3
2017-Sep-21 04:28N 31°13' E 121°47'66734322.8
2017-Sep-21 04:27N 23°03' E 113°18'106462800.7
2017-Sep-21 04:26N 39°56' E 119°42'50996504.1
2017-Sep-21 04:26N 31°33' E 121°18'4491067.2
2017-Sep-21 04:01N 24°32' E 118°19'274247033.4
2017-Sep-21 04:00N 23°02' E 113°36'6702411806.8
2017-Sep-21 04:00N 31°20' E 121°59'127276.4
2017-Sep-21 04:00N 31°13' E 121°48'38145682.4
2017-Sep-21 04:00N 37°33' E 121°23'46825509.7
2017-Sep-21 03:59N 29°46' E 122°00'8811732.1
2017-Sep-21 03:58N 31°13' E 121°47'411749.1
2017-Sep-21 03:57N 31°41' E 121°12'50040024.8
2017-Sep-21 03:56N 39°56' E 119°42'50913383.8
2017-Sep-21 03:54N 31°33' E 121°18'4241717.1
2017-Sep-21 03:39N 24°49' E 118°53'7755491.9
2017-Sep-21 03:31N 37°33' E 121°23'3811370471.3
2017-Sep-21 03:31N 31°13' E 121°48'441793543.8
2017-Sep-21 03:30N 24°32' E 118°19'274247033.4
2017-Sep-21 03:30N 23°02' E 113°36'65833862.3
2017-Sep-21 03:29N 31°41' E 121°12'12212236.0
2017-Sep-21 03:29N 29°46' E 122°00'8813199.5
2017-Sep-21 03:28N 31°13' E 121°47'53314749.2
2017-Sep-21 03:26N 39°56' E 119°42'50910186.5
2017-Sep-21 03:23N 31°33' E 121°18'6812233.8
2017-Sep-21 03:05N 22°46' E 113°13'98313827.0
2017-Sep-21 03:01N 37°33' E 121°23'7961433143.5
2017-Sep-21 03:00N 24°32' E 118°19'452813273.7
2017-Sep-21 03:00N 31°20' E 121°59'377463.5
2017-Sep-21 03:00N 31°33' E 121°18'681163429.0
2017-Sep-21 03:00N 22°46' E 113°13'68426188.9
2017-Sep-21 02:58N 31°13' E 121°47'53314098.5
2017-Sep-21 02:56N 39°56' E 119°42'6212412.3
2017-Sep-21 02:41N 29°46' E 122°00'1222019.1
2017-Sep-21 02:37N 31°41' E 121°12'6678424.0
2017-Sep-21 02:32N 23°03' E 113°18'6210.7
2017-Sep-21 02:31N 23°05' E 113°24'961864985.0
2017-Sep-21 02:31N 37°33' E 121°23'3601295969.3
2017-Sep-21 02:31N 31°33' E 121°18'3744780.8
2017-Sep-21 02:30N 31°20' E 121°59'127276.4
2017-Sep-21 02:30N 31°13' E 121°48'441132257.3
2017-Sep-21 02:30N 24°32' E 118°19'28315446.6
2017-Sep-21 02:29N 23°05' E 113°24'61044.1
2017-Sep-21 02:29N 23°03' E 113°18'66337886.4
2017-Sep-21 02:28N 31°21' E 121°30'52219382.9
2017-Sep-21 02:26N 39°56' E 119°42'50020706.0
2017-Sep-21 02:25N 31°41' E 121°12'1223794.6
2017-Sep-21 02:23N 29°46' E 122°00'8815085.2
2017-Sep-21 02:22N 31°13' E 121°47'3801045.5
2017-Sep-21 02:01N 37°33' E 121°23'3811370492.8
2017-Sep-21 02:01N 31°13' E 121°48'658789469.7
2017-Sep-21 02:00N 23°02' E 113°36'1611534.9
2017-Sep-21 02:00N 23°03' E 113°18'28980042.0
2017-Sep-21 02:00N 24°32' E 118°19'452406636.9
2017-Sep-21 02:00N 31°20' E 121°59'376717.1
2017-Sep-21 02:00N 31°33' E 121°18'321301.0
2017-Sep-21 01:58N 31°13' E 121°47'4174121.7
2017-Sep-21 01:58N 31°41' E 121°12'66291674.9
2017-Sep-21 01:58N 23°05' E 113°24'106137077.8
2017-Sep-21 01:56N 39°56' E 119°42'62110637.2
2017-Sep-21 01:53N 29°46' E 122°00'62817401.7
2017-Sep-21 01:50N 22°47' E 113°18'9802952.4
2017-Sep-21 01:31N 37°33' E 121°23'3811370536.0
2017-Sep-21 01:31N 31°13' E 121°48'33117554.2
2017-Sep-21 01:30N 31°33' E 121°18'6561180047.9
2017-Sep-21 01:30N 23°02' E 113°36'6701205903.4
2017-Sep-21 01:30N 31°20' E 121°59'690165684.2
2017-Sep-21 01:30N 22°48' E 113°19'679116341.9
2017-Sep-21 01:30N 31°41' E 121°12'667342982.4
2017-Sep-21 01:30N 23°03' E 113°18'66728264.9
2017-Sep-21 01:28N 31°13' E 121°47'66238459.5
2017-Sep-21 01:27N 23°05' E 113°24'106154557.3
2017-Sep-21 01:26N 39°56' E 119°42'164384.5
2017-Sep-21 01:01N 37°33' E 121°23'381685289.6
2017-Sep-21 01:00N 31°13' E 121°48'1210928.1
2017-Sep-21 01:00N 31°20' E 121°59'679815088.7
2017-Sep-21 01:00N 23°03' E 113°18'162218.3
2017-Sep-21 01:00N 23°02' E 113°36'656472002.0
2017-Sep-21 01:00N 31°33' E 121°18'44938496.3
2017-Sep-21 00:59N 24°32' E 118°19'37051280.9
2017-Sep-21 00:59N 29°46' E 122°00'12273364.7
2017-Sep-21 00:59N 31°41' E 121°12'417072.6
2017-Sep-21 00:58N 31°13' E 121°47'53314638.7
2017-Sep-21 00:56N 39°56' E 119°42'1079168913.3
2017-Sep-21 00:56N 22°47' E 113°21'6751607.2
2017-Sep-21 00:30N 31°33' E 121°18'3601295969.3
2017-Sep-21 00:30N 37°33' E 121°23'381195810.7
2017-Sep-21 00:30N 31°12' E 121°48'658473722.2
2017-Sep-21 00:30N 23°02' E 113°36'6702412005.4
2017-Sep-21 00:30N 31°20' E 121°59'943529.8
2017-Sep-21 00:29N 29°46' E 122°00'8814396.6
2017-Sep-21 00:28N 31°13' E 121°47'415712.5
2017-Sep-21 00:28N 31°41' E 121°12'50017156.0
2017-Sep-21 00:26N 39°56' E 119°42'1064153232.0
2017-Sep-21 00:26N 23°03' E 113°18'2693319.2
2017-Sep-21 00:21N 24°07' E 118°04'4701384.4
2017-Sep-21 00:00N 31°12' E 121°48'658197384.4
2017-Sep-21 00:00N 23°02' E 113°36'6701206019.2
2017-Sep-21 00:00N 31°20' E 121°59'37134342.4
2017-Sep-21 00:00N 31°33' E 121°18'476342477.2
2017-Sep-21 00:00N 24°09' E 118°05'822328729.0
2017-Sep-21 00:00N 37°33' E 121°23'979103704.5
2017-Sep-20 23:59N 22°44' E 113°26'62958051.5
2017-Sep-20 23:59N 29°48' E 122°04'8610668.1
2017-Sep-20 23:58N 31°13' E 121°47'667150167.9
2017-Sep-20 23:58N 23°03' E 113°18'106433024.6
2017-Sep-20 23:56N 39°56' E 119°42'5002625.9
2017-Sep-20 23:45N 31°41' E 121°12'3521493.6
2017-Sep-20 23:31N 37°33' E 121°23'381685359.0
2017-Sep-20 23:30N 31°12' E 121°48'6581184298.2
2017-Sep-20 23:30N 23°02' E 113°36'6701206010.9
2017-Sep-20 23:30N 31°20' E 121°59'476856148.0
2017-Sep-20 23:30N 24°11' E 118°07'27314667.9
2017-Sep-20 23:29N 23°03' E 113°18'66740045.3
2017-Sep-20 23:28N 31°13' E 121°47'53314751.3
2017-Sep-20 23:26N 39°56' E 119°42'61610757.5
2017-Sep-20 23:23N 29°52' E 122°08'1196491.1
2017-Sep-20 23:22N 31°41' E 121°12'3521002.8
2017-Sep-20 23:01N 37°33' E 121°23'374192216.0
2017-Sep-20 23:00N 31°20' E 121°59'128735.4
2017-Sep-20 23:00N 31°12' E 121°48'3323566.6
2017-Sep-20 23:00N 31°33' E 121°18'47089037.1
2017-Sep-20 23:00N 24°13' E 118°09'27618369.2
2017-Sep-20 22:59N 23°03' E 113°18'66753390.5
2017-Sep-20 22:58N 31°13' E 121°47'53314865.6
2017-Sep-20 22:56N 39°56' E 119°42'500138567.9
2017-Sep-20 22:56N 31°41' E 121°12'11623292.6
2017-Sep-20 22:56N 29°55' E 122°07'131378.2
2017-Sep-20 22:55N 29°58' E 121°53'75182.7
2017-Sep-20 22:30N 31°12' E 121°48'381456920.4
2017-Sep-20 22:30N 37°33' E 121°23'360323981.5
2017-Sep-20 22:30N 31°33' E 121°18'3722392.8
2017-Sep-20 22:30N 31°20' E 121°59'47026410.9
2017-Sep-20 22:29N 24°15' E 118°13'45930604.2
2017-Sep-20 22:28N 31°13' E 121°47'412395.6
2017-Sep-20 22:27N 31°41' E 121°12'5004169.9
2017-Sep-20 22:20N 39°56' E 119°42'61391950.4
2017-Sep-20 22:20N 29°54' E 122°01'79248.6
2017-Sep-20 22:00N 31°12' E 121°48'128735.4
2017-Sep-20 22:00N 31°20' E 121°59'679271710.8
2017-Sep-20 22:00N 23°03' E 113°18'6681202278.2
2017-Sep-20 22:00N 31°38' E 121°17'361109.0
2017-Sep-20 21:58N 31°13' E 121°47'53314527.9
2017-Sep-20 21:56N 39°56' E 119°42'5005647.0
2017-Sep-20 21:51N 31°41' E 121°12'0 0.0
2017-Sep-20 21:31N 31°41' E 121°12'3521266596.8
2017-Sep-20 21:31N 37°33' E 121°23'37453820.5
2017-Sep-20 21:30N 31°20' E 121°59'6791222698.5
2017-Sep-20 21:30N 23°03' E 113°18'66722667.0
2017-Sep-20 21:28N 31°13' E 121°47'342137.6
2017-Sep-20 21:27N 31°35' E 121°17'50724328.1
2017-Sep-20 21:26N 39°56' E 119°42'5341252.1
2017-Sep-20 21:01N 31°12' E 121°48'3811370761.2
2017-Sep-20 21:01N 37°33' E 121°23'965434235.2
2017-Sep-20 21:00N 23°03' E 113°18'66456930.2
2017-Sep-20 21:00N 31°33' E 121°18'373731.7
2017-Sep-20 20:59N 31°20' E 121°59'12883.6
2017-Sep-20 20:58N 31°13' E 121°47'8212331.9
2017-Sep-20 20:58N 31°58' E 120°27'47916269.4
2017-Sep-20 20:56N 39°56' E 119°42'5002958.0
2017-Sep-20 20:46N 31°41' E 121°12'6547066.1
2017-Sep-20 20:40N 23°06' E 113°38'6533971.4
2017-Sep-20 20:31N 31°12' E 121°48'3811370782.8
2017-Sep-20 20:31N 37°33' E 121°23'374192216.0
2017-Sep-20 20:30N 31°20' E 121°59'67924211.7
2017-Sep-20 20:29N 23°03' E 113°18'66788987.8
2017-Sep-20 20:28N 31°13' E 121°47'653195906.7
2017-Sep-20 20:28N 23°06' E 113°38'65024391.6
2017-Sep-20 20:26N 31°33' E 121°18'50987313.2
2017-Sep-20 20:26N 39°56' E 119°42'47942062.9
2017-Sep-20 20:25N 31°58' E 120°27'4861883.0
2017-Sep-20 20:10N 24°08' E 118°10'48157708.6
2017-Sep-20 20:09N 31°41' E 121°12'3522367.5
2017-Sep-20 20:01N 37°33' E 121°23'955429654.0
2017-Sep-20 20:00N 23°06' E 113°38'653783318.9
2017-Sep-20 20:00N 31°12' E 121°48'122428.8
2017-Sep-20 20:00N 31°20' E 121°59'476107122.0
2017-Sep-20 20:00N 24°09' E 118°10'47428893.3
2017-Sep-20 19:59N 31°33' E 121°18'323702.6
2017-Sep-20 19:58N 31°13' E 121°47'412397.8
2017-Sep-20 19:57N 31°41' E 121°12'50025734.0
2017-Sep-20 19:56N 39°56' E 119°42'106414621.3
2017-Sep-20 19:52N 23°03' E 113°18'6212771.1
2017-Sep-20 19:38N 29°54' E 121°59'86667.9
2017-Sep-20 19:31N 31°20' E 121°59'37461159.6
2017-Sep-20 19:30N 37°33' E 121°23'95552078.7
2017-Sep-20 19:29N 23°06' E 113°38'653293962.4
2017-Sep-20 19:29N 31°41' E 121°12'413917.3
2017-Sep-20 19:28N 31°13' E 121°47'46118426.4
2017-Sep-20 19:27N 24°14' E 118°11'94577297.7
2017-Sep-20 19:26N 39°56' E 119°42'5341252.1
2017-Sep-20 19:00N 31°12' E 121°48'456820961.6
2017-Sep-20 19:00N 24°19' E 118°11'467560524.3
2017-Sep-20 19:00N 31°20' E 121°59'37467275.6
2017-Sep-20 19:00N 37°33' E 121°23'9551718506.7
2017-Sep-20 19:00N 23°06' E 113°38'65322387.6
2017-Sep-20 18:58N 31°13' E 121°47'53314418.9
2017-Sep-20 18:56N 39°56' E 119°42'5002544.1
2017-Sep-20 18:44N 31°41' E 121°12'42184.1
2017-Sep-20 18:31N 31°12' E 121°48'454408490.5
2017-Sep-20 18:30N 24°23' E 118°08'465836885.4
2017-Sep-20 18:30N 31°20' E 121°59'6652393189.7
2017-Sep-20 18:30N 23°06' E 113°38'955143208.1
2017-Sep-20 18:30N 37°33' E 121°23'1642520.5
2017-Sep-20 18:26N 39°56' E 119°42'50014643.6
2017-Sep-20 18:24N 31°41' E 121°12'41520.8
2017-Sep-20 18:19N 31°13' E 121°47'1 2.8
2017-Sep-20 18:01N 31°13' E 121°48'454326594.6
2017-Sep-20 18:00N 24°25' E 118°03'806414628.6
2017-Sep-20 18:00N 37°33' E 121°23'38011119.2
2017-Sep-20 17:58N 31°13' E 121°47'66744496.5
2017-Sep-20 17:57N 23°03' E 113°18'106450405.7
2017-Sep-20 17:56N 39°56' E 119°42'105614400.0
2017-Sep-20 17:52N 23°06' E 113°38'6533674.3
2017-Sep-20 17:41N 31°41' E 121°12'111652.6
2017-Sep-20 17:31N 29°56' E 121°53'7713787.4
2017-Sep-20 17:31N 31°13' E 121°48'653293719.2
2017-Sep-20 17:30N 23°06' E 113°38'955132191.3
2017-Sep-20 17:30N 37°33' E 121°23'457164619.8
2017-Sep-20 17:30N 29°56' E 121°53'773130.9
2017-Sep-20 17:28N 31°13' E 121°47'66742905.8
2017-Sep-20 17:27N 23°03' E 113°18'106449113.5
2017-Sep-20 17:26N 39°56' E 119°42'5005772.8
2017-Sep-20 17:21N 31°41' E 121°12'42123.0
2017-Sep-20 17:00N 31°13' E 121°48'38162298.1
2017-Sep-20 17:00N 37°33' E 121°23'95547736.3
2017-Sep-20 16:59N 23°06' E 113°38'65394027.2
2017-Sep-20 16:58N 31°13' E 121°47'667240274.2
2017-Sep-20 16:58N 23°03' E 113°18'66726975.5
2017-Sep-20 16:57N 31°41' E 121°12'50052973.4
2017-Sep-20 16:56N 39°56' E 119°42'9153259.7
2017-Sep-20 16:39N 24°42' E 118°53'4202877.7
2017-Sep-20 16:31N 31°13' E 121°48'3811370514.4
2017-Sep-20 16:30N 37°33' E 121°23'95573127.1
2017-Sep-20 16:30N 23°06' E 113°38'304136902.0
2017-Sep-20 16:30N 24°43' E 118°54'43526537.3
2017-Sep-20 16:29N 31°41' E 121°12'50012088.0
2017-Sep-20 16:26N 39°56' E 119°42'53340795.7
2017-Sep-20 16:25N 31°13' E 121°47'6671951.8
2017-Sep-20 16:05N 23°03' E 113°18'96513158.8
2017-Sep-20 16:00N 37°33' E 121°23'776254101.3
2017-Sep-20 16:00N 24°46' E 118°57'30822168.8
2017-Sep-20 15:59N 23°06' E 113°38'19421.4
2017-Sep-20 15:57N 23°03' E 113°18'1064100808.9
2017-Sep-20 15:56N 39°56' E 119°42'5335409.8
2017-Sep-20 15:50N 31°13' E 121°48'114.1
2017-Sep-20 15:46N 31°13' E 121°47'411054.4
2017-Sep-20 15:44N 31°41' E 121°12'42188.4
2017-Sep-20 15:31N 31°13' E 121°48'381124590.3
2017-Sep-20 15:30N 37°33' E 121°23'77363227.4
2017-Sep-20 15:30N 24°50' E 119°00'330169799.8
2017-Sep-20 15:29N 23°03' E 113°18'1913531.8
2017-Sep-20 15:29N 23°06' E 113°38'65334569.1
2017-Sep-20 15:28N 31°13' E 121°47'53314525.8
2017-Sep-20 15:26N 39°56' E 119°42'5002063.2
2017-Sep-20 15:12N 31°41' E 121°12'42229.3
2017-Sep-20 15:00N 31°13' E 121°48'38140308.0
2017-Sep-20 15:00N 37°33' E 121°23'95537358.4
2017-Sep-20 14:58N 23°06' E 113°38'31675729.0
2017-Sep-20 14:58N 24°53' E 119°04'33414147.0
2017-Sep-20 14:57N 23°03' E 113°18'66721627.0
2017-Sep-20 14:55N 31°41' E 121°12'5006275.9
2017-Sep-20 14:50N 39°56' E 119°42'53340795.7
2017-Sep-20 14:49N 31°13' E 121°47'45614662.9
2017-Sep-20 14:47N 24°24' E 117°59'3932408.8
2017-Sep-20 14:38N 29°54' E 121°59'3172814.9
2017-Sep-20 14:31N 24°54' E 120°01'111218.5
2017-Sep-20 14:00N 24°25' E 118°03'453326432.9
2017-Sep-20 14:00N 31°13' E 121°48'653335683.6
2017-Sep-20 14:00N 23°06' E 113°38'955859243.7
2017-Sep-20 14:00N 37°33' E 121°23'36035026.2
2017-Sep-20 14:00N 31°33' E 121°18'4061460442.7
2017-Sep-20 14:00N 24°53' E 119°60'90315707.5
2017-Sep-20 13:56N 39°56' E 119°42'53343577.7
2017-Sep-20 13:55N 31°13' E 121°47'1 2.2
2017-Sep-20 13:31N 31°13' E 121°48'453326247.4
2017-Sep-20 13:30N 24°24' E 118°06'257463151.5
2017-Sep-20 13:30N 23°06' E 113°38'6501170754.1
2017-Sep-20 13:30N 31°33' E 121°18'36047998.9
2017-Sep-20 13:30N 37°33' E 121°23'1642586.8
2017-Sep-20 13:26N 39°56' E 119°42'53337596.5
2017-Sep-20 13:25N 31°13' E 121°47'39414184.7
2017-Sep-20 13:24N 24°51' E 119°58'4151453.9
2017-Sep-20 13:06N 31°41' E 121°12'4684629.1
2017-Sep-20 13:00N 24°22' E 118°09'454545190.2
2017-Sep-20 13:00N 31°13' E 121°48'395109296.8
2017-Sep-20 13:00N 24°50' E 119°57'766551555.2
2017-Sep-20 13:00N 37°33' E 121°23'95567395.9
2017-Sep-20 12:59N 23°06' E 113°38'65341241.2
2017-Sep-20 12:58N 31°13' E 121°47'3219061.4
2017-Sep-20 12:58N 31°33' E 121°18'10136.0
2017-Sep-20 12:54N 31°41' E 121°12'5008041.9
2017-Sep-20 12:50N 39°56' E 119°42'164497.3
2017-Sep-20 12:30N 37°33' E 121°23'381274107.2
2017-Sep-20 12:30N 31°13' E 121°48'456149246.1
2017-Sep-20 12:30N 24°19' E 118°11'260467577.2
2017-Sep-20 12:30N 23°06' E 113°38'360161790.2
2017-Sep-20 12:30N 24°49' E 119°56'41127885.3
2017-Sep-20 12:29N 31°33' E 121°18'322550.4
2017-Sep-20 12:28N 31°13' E 121°47'53314865.5
2017-Sep-20 12:26N 39°56' E 119°42'5008497.1
2017-Sep-20 12:23N 31°41' E 121°12'1142452.0
2017-Sep-20 12:20N 29°54' E 121°59'79246.4
2017-Sep-20 12:01N 31°12' E 121°48'398159326.9
2017-Sep-20 12:00N 24°47' E 119°54'9988789.0
2017-Sep-20 12:00N 24°16' E 118°11'467336250.9
2017-Sep-20 12:00N 31°33' E 121°18'36068210.0
2017-Sep-20 12:00N 37°33' E 121°23'955381912.4
2017-Sep-20 12:00N 23°06' E 113°38'65323998.8
2017-Sep-20 11:58N 31°41' E 121°12'50014765.8
2017-Sep-20 11:56N 39°56' E 119°42'53342613.9
2017-Sep-20 11:55N 31°13' E 121°47'1 2.2
2017-Sep-20 11:31N 31°12' E 121°48'337362.1
2017-Sep-20 11:30N 31°33' E 121°18'101607.5
2017-Sep-20 11:30N 31°41' E 121°12'653261322.4
2017-Sep-20 11:30N 23°06' E 113°38'259931122.0
2017-Sep-20 11:30N 24°12' E 118°11'81777404.1
2017-Sep-20 11:29N 37°33' E 121°23'45710355.0
2017-Sep-20 11:26N 29°56' E 121°53'610115510.2
2017-Sep-20 11:26N 39°56' E 119°42'53338352.9
2017-Sep-20 11:25N 31°13' E 121°47'66725559.8
2017-Sep-20 11:24N 23°03' E 113°18'3599803.2
2017-Sep-20 11:22N 25°14' E 119°25'39332.1
2017-Sep-20 11:15N 24°45' E 119°53'4001712.2
2017-Sep-20 11:01N 31°12' E 121°48'337362.9
2017-Sep-20 11:00N 31°33' E 121°18'413124007.7
2017-Sep-20 11:00N 24°46' E 119°54'10172609.0
2017-Sep-20 11:00N 24°09' E 118°11'820210931.5
2017-Sep-20 11:00N 37°33' E 121°23'9553437211.8
2017-Sep-20 11:00N 23°06' E 113°38'181839.4
2017-Sep-20 10:59N 23°03' E 113°19'61989080.5
2017-Sep-20 10:59N 29°57' E 121°54'7712034.5
2017-Sep-20 10:58N 31°13' E 121°47'414950.4
2017-Sep-20 10:58N 31°41' E 121°12'39526862.4
2017-Sep-20 10:57N 25°16' E 119°28'88059766.3
2017-Sep-20 10:56N 39°56' E 119°42'5341253.7
2017-Sep-20 10:31N 31°12' E 121°48'3319634.4
2017-Sep-20 10:30N 31°33' E 121°18'6632386442.4
2017-Sep-20 10:30N 23°02' E 113°22'9653472542.9
2017-Sep-20 10:30N 37°33' E 121°23'769213020.4
2017-Sep-20 10:30N 24°47' E 119°55'35934907.7
2017-Sep-20 10:30N 23°06' E 113°38'25676874.3
2017-Sep-20 10:29N 24°06' E 118°10'48264328.5
2017-Sep-20 10:29N 31°41' E 121°12'39361486.0
2017-Sep-20 10:29N 25°18' E 119°32'37589933.1
2017-Sep-20 10:28N 31°13' E 121°47'53314418.4
2017-Sep-20 10:26N 39°56' E 119°42'6121988.1
2017-Sep-20 10:08N 29°54' E 121°59'79669.4
2017-Sep-20 10:01N 31°12' E 121°48'6632387604.8
2017-Sep-20 10:00N 23°03' E 113°25'137596.6
2017-Sep-20 10:00N 23°06' E 113°38'955859456.3
2017-Sep-20 10:00N 37°33' E 121°23'7682764903.3
2017-Sep-20 10:00N 24°48' E 119°56'411134438.9
2017-Sep-20 10:00N 31°33' E 121°18'731526373.3
2017-Sep-20 10:00N 21°47' E 113°09'73224875.0
2017-Sep-20 09:58N 31°13' E 121°47'411441.9
2017-Sep-20 09:57N 31°41' E 121°12'50062118.1
2017-Sep-20 09:56N 39°56' E 119°42'61276028.3
2017-Sep-20 09:56N 29°54' E 121°59'3028060.4
2017-Sep-20 09:53N 25°19' E 119°38'372975.5
2017-Sep-20 09:30N 31°12' E 121°48'653391775.5
2017-Sep-20 09:30N 23°06' E 113°38'81144901.0
2017-Sep-20 09:30N 21°50' E 113°12'10353727242.8
2017-Sep-20 09:30N 37°33' E 121°23'960432121.2
2017-Sep-20 09:30N 23°05' E 113°27'37218080.3
2017-Sep-20 09:29N 24°49' E 119°58'40992114.5
2017-Sep-20 09:29N 31°33' E 121°18'32562.6
2017-Sep-20 09:25N 31°13' E 121°47'5336166.1
2017-Sep-20 09:20N 39°56' E 119°42'5006598.6
2017-Sep-20 09:16N 31°41' E 121°12'114859.9
2017-Sep-20 09:08N 29°54' E 121°59'6755747.2
2017-Sep-20 09:01N 21°53' E 113°12'7251305601.2
2017-Sep-20 09:00N 31°12' E 121°48'1275.0
2017-Sep-20 09:00N 31°13' E 121°47'380455935.7
2017-Sep-20 09:00N 37°33' E 121°23'961182069.9
2017-Sep-20 09:00N 23°03' E 113°30'37146062.1
2017-Sep-20 08:59N 24°51' E 119°59'415747578.5
2017-Sep-20 08:59N 31°41' E 121°12'653784190.2
2017-Sep-20 08:59N 23°06' E 113°38'65186750.6
2017-Sep-20 08:59N 31°33' E 121°18'50910914.2
2017-Sep-20 08:56N 39°56' E 119°42'6121982.8
2017-Sep-20 08:38N 29°54' E 121°59'6155246.0
2017-Sep-20 08:31N 22°60' E 113°31'6621191589.8
2017-Sep-20 08:31N 31°12' E 121°48'677487347.9
2017-Sep-20 08:30N 22°49' E 113°20'246637.7
2017-Sep-20 08:30N 23°06' E 113°38'9551145935.3
2017-Sep-20 08:30N 37°33' E 121°23'38026304.4
2017-Sep-20 08:29N 31°13' E 121°47'323188.3
2017-Sep-20 08:29N 31°33' E 121°18'1003897.5
2017-Sep-20 08:27N 30°00' E 122°01'10910926.8
2017-Sep-20 08:27N 31°41' E 121°12'50066718.7
2017-Sep-20 08:26N 39°56' E 119°42'9577538.7
2017-Sep-20 08:18N 24°02' E 118°10'4075173.7
2017-Sep-20 08:14N 29°54' E 121°59'79357.3
2017-Sep-20 08:01N 31°12' E 121°48'675809849.9
2017-Sep-20 08:00N 22°53' E 113°18'148123.3
2017-Sep-20 08:00N 22°57' E 113°32'966204465.7
2017-Sep-20 08:00N 37°33' E 121°23'9551145928.7
2017-Sep-20 08:00N 23°06' E 113°38'65352256.6
2017-Sep-20 07:59N 31°13' E 121°47'41900.9
2017-Sep-20 07:57N 31°41' E 121°12'486218739.6
2017-Sep-20 07:56N 24°02' E 118°10'957181327.9
2017-Sep-20 07:56N 39°56' E 119°42'6121986.3
2017-Sep-20 07:38N 29°54' E 121°59'6175229.0
2017-Sep-20 07:30N 22°54' E 113°34'6631193091.1
2017-Sep-20 07:30N 31°33' E 121°18'48069155.0
2017-Sep-20 07:30N 24°02' E 118°10'827992834.4
2017-Sep-20 07:30N 37°33' E 121°23'955491115.1
2017-Sep-20 07:30N 23°06' E 113°38'65363555.8
2017-Sep-20 07:29N 31°13' E 121°47'411791.1
2017-Sep-20 07:28N 31°41' E 121°12'50016526.6
2017-Sep-20 07:26N 39°56' E 119°42'6125667.9
2017-Sep-20 07:20N 29°54' E 121°59'6715575.0
2017-Sep-20 07:12N 22°05' E 113°05'7193637.3
2017-Sep-20 07:00N 31°12' E 121°48'6672399738.5
2017-Sep-20 07:00N 22°52' E 113°34'6652392486.6
2017-Sep-20 07:00N 31°33' E 121°18'6661199067.5
2017-Sep-20 07:00N 22°55' E 113°27'5146260.4
2017-Sep-20 07:00N 22°07' E 113°06'10211838275.5
2017-Sep-20 07:00N 37°33' E 121°23'8272978503.3
2017-Sep-20 07:00N 24°02' E 118°10'25516413.9
2017-Sep-20 06:59N 23°06' E 113°38'65347990.4
2017-Sep-20 06:59N 31°13' E 121°47'66217534.1
2017-Sep-20 06:56N 23°05' E 113°24'1061318251.1
2017-Sep-20 06:56N 39°56' E 119°42'61276027.6
2017-Sep-20 06:56N 29°54' E 121°59'5315.1
2017-Sep-20 06:55N 29°56' E 121°53'1112295.1
2017-Sep-20 06:52N 31°41' E 121°12'7152025.9
2017-Sep-20 06:31N 22°12' E 113°06'7141285473.3
2017-Sep-20 06:30N 31°12' E 121°48'33117873.3
2017-Sep-20 06:30N 31°33' E 121°18'665798073.1
2017-Sep-20 06:30N 22°53' E 113°31'1526415.7
2017-Sep-20 06:30N 23°06' E 113°38'1863047.9
2017-Sep-20 06:30N 22°49' E 113°36'972124942.6
2017-Sep-20 06:30N 37°33' E 121°23'827248208.6
2017-Sep-20 06:30N 24°02' E 118°10'26610755.2
2017-Sep-20 06:28N 23°06' E 113°27'61271122.1
2017-Sep-20 06:28N 29°57' E 121°54'60922828.2
2017-Sep-20 06:26N 39°56' E 119°42'50014643.8
2017-Sep-20 06:24N 31°41' E 121°12'411636.7
2017-Sep-20 06:23N 31°13' E 121°47'3491112.9
2017-Sep-20 06:04N 25°43' E 119°40'3496573.3
2017-Sep-20 06:01N 31°12' E 121°48'710232422.6
2017-Sep-20 06:00N 22°14' E 113°09'5323720.3
2017-Sep-20 06:00N 23°03' E 113°30'961432284.4
2017-Sep-20 06:00N 37°33' E 121°23'827425500.5
2017-Sep-20 06:00N 24°02' E 118°10'26119145.4
2017-Sep-20 05:59N 22°46' E 113°38'66970791.6
2017-Sep-20 05:59N 31°13' E 121°47'411262.4
2017-Sep-20 05:57N 31°41' E 121°12'50058101.3
2017-Sep-20 05:56N 39°56' E 119°42'853180615.5
2017-Sep-20 05:56N 25°43' E 119°40'3608696.9
2017-Sep-20 05:53N 31°33' E 121°18'3385.9
2017-Sep-20 05:30N 31°13' E 121°48'669219046.7
2017-Sep-20 05:30N 22°44' E 113°40'260186941.7
2017-Sep-20 05:30N 24°02' E 118°10'25529644.8
2017-Sep-20 05:30N 23°06' E 113°38'653156779.2
2017-Sep-20 05:29N 31°13' E 121°47'41901.9
2017-Sep-20 05:27N 31°41' E 121°12'50047399.0
2017-Sep-20 05:26N 39°56' E 119°42'110915840.4
2017-Sep-20 05:22N 22°19' E 113°11'7061981.7
2017-Sep-20 05:01N 31°13' E 121°48'381228413.5
2017-Sep-20 05:00N 37°33' E 121°23'970349087.3
2017-Sep-20 05:00N 22°52' E 113°34'26325553.3
2017-Sep-20 05:00N 24°02' E 118°10'29222847.9
2017-Sep-20 04:59N 22°21' E 113°12'70427240.6
2017-Sep-20 04:57N 31°13' E 121°47'413456.9
2017-Sep-20 04:57N 31°41' E 121°12'50056284.9
2017-Sep-20 04:56N 39°56' E 119°42'5331245.5
2017-Sep-20 04:30N 31°13' E 121°48'381685251.2
2017-Sep-20 04:30N 37°33' E 121°23'827110315.5
2017-Sep-20 04:30N 24°02' E 118°10'48658338.0
2017-Sep-20 04:29N 31°41' E 121°12'5009096.7
2017-Sep-20 04:26N 39°56' E 119°42'50948252.1
2017-Sep-20 04:25N 31°33' E 121°18'3378.0
2017-Sep-20 04:00N 31°13' E 121°48'472154439.9
2017-Sep-20 04:00N 24°02' E 118°10'47210063.4
2017-Sep-20 03:57N 31°13' E 121°47'321708.4
2017-Sep-20 03:56N 31°33' E 121°18'509305596.3
2017-Sep-20 03:56N 39°56' E 119°42'50021442.1
2017-Sep-20 03:55N 31°41' E 121°12'6996784.3
2017-Sep-20 03:49N 22°28' E 113°11'6982324.0
2017-Sep-20 03:30N 31°13' E 121°48'38191365.4
2017-Sep-20 03:30N 37°33' E 121°23'99823642.4
2017-Sep-20 03:28N 22°30' E 113°10'69778465.5
2017-Sep-20 03:27N 31°13' E 121°47'53329051.2
2017-Sep-20 03:26N 39°56' E 119°42'5095330.2
2017-Sep-20 03:20N 31°33' E 121°18'4853728.9
2017-Sep-20 03:13N 23°58' E 118°09'4762374.3
2017-Sep-20 03:01N 31°13' E 121°48'1485.3
2017-Sep-20 03:00N 31°13' E 121°47'380195362.7
2017-Sep-20 03:00N 37°33' E 121°23'83337500.6
2017-Sep-20 02:59N 23°56' E 118°09'48611290.4
2017-Sep-20 02:56N 31°33' E 121°18'509122238.5
2017-Sep-20 02:56N 39°56' E 119°42'4795389.2
2017-Sep-20 02:51N 31°58' E 120°27'5553247.5
2017-Sep-20 02:41N 22°58' E 118°04'5495644.2
2017-Sep-20 02:35N 31°41' E 121°12'1112912.4
2017-Sep-20 02:32N 29°56' E 121°53'762414.9
2017-Sep-20 02:31N 31°13' E 121°48'7610976.3
2017-Sep-20 02:30N 29°56' E 121°53'110132591.4
2017-Sep-20 02:30N 31°41' E 121°12'35246903.0
2017-Sep-20 02:30N 37°33' E 121°23'38039072.5
2017-Sep-20 02:29N 31°13' E 121°47'53310956.4
2017-Sep-20 02:26N 39°56' E 119°42'50913286.8
2017-Sep-20 02:24N 31°33' E 121°18'1 3.3
2017-Sep-20 02:00N 31°32' E 121°19'3111315.1
2017-Sep-20 02:00N 31°13' E 121°48'38168524.0
2017-Sep-20 02:00N 37°33' E 121°23'38022792.3
2017-Sep-20 01:59N 31°13' E 121°47'53310894.2
2017-Sep-20 01:56N 39°56' E 119°42'96929573.3
2017-Sep-20 01:54N 23°50' E 118°08'4252762.8
2017-Sep-20 01:45N 29°60' E 122°03'100415.6
2017-Sep-20 01:30N 31°32' E 121°19'495445197.5
2017-Sep-20 01:30N 23°48' E 118°08'427307680.7
2017-Sep-20 01:30N 29°60' E 122°03'4541634109.0
2017-Sep-20 01:30N 37°33' E 121°23'38041441.2
2017-Sep-20 01:30N 31°13' E 121°47'827780.8
2017-Sep-20 01:29N 31°58' E 120°27'4799372.6
2017-Sep-20 01:26N 39°56' E 119°42'6125697.2
2017-Sep-20 01:20N 29°54' E 121°59'114463.0
2017-Sep-20 01:05N 31°41' E 121°12'42587.6
2017-Sep-20 01:00N 31°12' E 121°48'74132628.9
2017-Sep-20 01:00N 29°60' E 122°03'45449519.1
2017-Sep-20 01:00N 37°33' E 121°23'33886794.8
2017-Sep-20 01:00N 31°58' E 120°27'50952366.0
2017-Sep-20 00:59N 23°44' E 118°07'97519497.9
2017-Sep-20 00:56N 39°56' E 119°42'50064335.9
2017-Sep-20 00:56N 31°41' E 121°12'411349.0
2017-Sep-20 00:54N 31°13' E 121°47'4414001.8
2017-Sep-20 00:47N 24°32' E 118°19'4411588.4
2017-Sep-20 00:31N 31°12' E 121°48'38132637.5
2017-Sep-20 00:30N 37°33' E 121°23'380683931.2
2017-Sep-20 00:30N 31°13' E 121°47'7514167.5
2017-Sep-20 00:29N 29°60' E 122°03'1443997.7
2017-Sep-20 00:27N 31°58' E 120°27'42531.2
2017-Sep-20 00:23N 31°41' E 121°12'50012009.2
2017-Sep-20 00:20N 39°56' E 119°42'9264194.6
2017-Sep-20 00:07N 24°32' E 118°19'3774317.4
2017-Sep-20 00:02N 29°54' E 121°59'46025070.9
2017-Sep-20 00:00N 37°33' E 121°23'38032567.9
2017-Sep-20 00:00N 31°13' E 121°47'7810811.1
2017-Sep-19 23:59N 29°56' E 122°04'38110472.1
2017-Sep-19 23:57N 24°32' E 118°19'92650525.6
2017-Sep-19 23:56N 39°56' E 119°42'4797039.0
2017-Sep-19 23:52N 31°58' E 120°27'5036336.1
2017-Sep-19 23:52N 31°33' E 121°18'10447.9
2017-Sep-19 23:51N 31°41' E 121°12'1146753.3
2017-Sep-19 23:50N 29°54' E 121°59'79248.7
2017-Sep-19 23:31N 31°12' E 121°48'381228460.2
2017-Sep-19 23:30N 37°33' E 121°23'460413956.1
2017-Sep-19 23:30N 29°54' E 122°08'38126904.8
2017-Sep-19 23:29N 24°32' E 118°19'92616187.9
2017-Sep-19 23:26N 39°56' E 119°42'50020946.1
2017-Sep-19 23:25N 31°41' E 121°12'422394.4
2017-Sep-19 23:24N 31°58' E 120°27'50173.4
2017-Sep-19 23:06N 31°33' E 121°18'33350.7
2017-Sep-19 23:01N 31°12' E 121°48'13021.3
2017-Sep-19 23:00N 31°13' E 121°48'380136805.4
2017-Sep-19 23:00N 37°33' E 121°23'79657326.2
2017-Sep-19 22:59N 24°32' E 118°19'92616266.9
2017-Sep-19 22:56N 39°56' E 119°42'50020015.4
2017-Sep-19 22:55N 31°41' E 121°12'10357.4
2017-Sep-19 22:53N 31°33' E 121°18'50523.6
2017-Sep-19 22:47N 31°58' E 120°27'147569.2
2017-Sep-19 22:32N 29°54' E 121°59'794310.0
2017-Sep-19 22:31N 31°12' E 121°48'0708.7
2017-Sep-19 22:30N 31°13' E 121°48'381685088.2
2017-Sep-19 22:30N 37°33' E 121°23'3386075.5
2017-Sep-19 22:27N 31°58' E 120°27'47927815.1
2017-Sep-19 22:26N 39°56' E 119°42'92616927.4
2017-Sep-19 22:23N 24°32' E 118°19'45537224.6
2017-Sep-19 22:22N 31°41' E 121°12'1142764.8
2017-Sep-19 22:20N 29°54' E 121°59'83259.6
2017-Sep-19 22:01N 31°16' E 121°45'27938.7
2017-Sep-19 22:00N 31°14' E 121°47'37990997.9
2017-Sep-19 22:00N 37°33' E 121°23'796573261.6
2017-Sep-19 22:00N 24°32' E 118°19'45534123.0
2017-Sep-19 21:59N 31°41' E 121°12'421134.2
2017-Sep-19 21:57N 31°58' E 120°27'47927373.9
2017-Sep-19 21:56N 39°56' E 119°42'61291867.5
2017-Sep-19 21:56N 29°54' E 121°59'6648107.7
2017-Sep-19 21:51N 22°13' E 113°07'66353034.6
2017-Sep-19 21:50N 29°57' E 121°54'82251.6
2017-Sep-19 21:31N 31°18' E 121°43'715183854.9
2017-Sep-19 21:30N 22°13' E 113°05'101670355.9
2017-Sep-19 21:29N 37°33' E 121°23'33813652.9
2017-Sep-19 21:28N 31°58' E 120°27'47922994.1
2017-Sep-19 21:27N 39°56' E 119°42'5007764.6
2017-Sep-19 21:23N 31°41' E 121°12'4552346.5
2017-Sep-19 21:11N 24°32' E 118°19'4602591.9
2017-Sep-19 21:01N 31°58' E 120°27'7488688.0
2017-Sep-19 21:00N 31°20' E 121°41'37356015.7
2017-Sep-19 21:00N 37°33' E 121°23'79618612.4
2017-Sep-19 20:58N 24°32' E 118°19'92638330.0
2017-Sep-19 20:56N 39°56' E 119°42'5001685.1
2017-Sep-19 20:38N 31°41' E 121°12'25191.4
2017-Sep-19 20:30N 31°24' E 121°33'83615.6
2017-Sep-19 20:30N 31°20' E 121°41'37364016.9
2017-Sep-19 20:30N 37°33' E 121°23'36016830.8
2017-Sep-19 20:29N 31°33' E 121°18'505046.7
2017-Sep-19 20:28N 31°58' E 120°27'47914252.5
2017-Sep-19 20:26N 39°56' E 119°42'92615438.5
2017-Sep-19 20:22N 24°32' E 118°19'455102368.9
2017-Sep-19 20:22N 31°41' E 121°12'114333.0
2017-Sep-19 20:02N 29°54' E 121°59'874672.0
2017-Sep-19 20:00N 31°20' E 121°41'373134437.7
2017-Sep-19 20:00N 37°33' E 121°23'36010285.5
2017-Sep-19 19:58N 31°33' E 121°18'101142.0
2017-Sep-19 19:58N 31°41' E 121°12'424076.9
2017-Sep-19 19:57N 31°58' E 120°27'47927815.1
2017-Sep-19 19:56N 39°56' E 119°42'5131202.9
2017-Sep-19 19:30N 31°30' E 121°24'36237274.9
2017-Sep-19 19:30N 37°33' E 121°23'3528616.0
2017-Sep-19 19:27N 31°41' E 121°12'427939.3
2017-Sep-19 19:27N 31°58' E 120°27'47926531.3
2017-Sep-19 19:26N 39°56' E 119°42'5251234.8
2017-Sep-19 19:01N 31°20' E 121°41'2239191.2
2017-Sep-19 19:00N 31°33' E 121°20'526270.0
2017-Sep-19 19:00N 31°58' E 120°27'338121510.6
2017-Sep-19 19:00N 37°33' E 121°23'360647984.7
2017-Sep-19 19:00N 31°33' E 121°18'5098259.3
2017-Sep-19 18:56N 39°56' E 119°42'50025729.5
2017-Sep-19 18:55N 31°41' E 121°12'3380.6
2017-Sep-19 18:31N 31°20' E 121°41'3731344376.6
2017-Sep-19 18:30N 37°33' E 121°23'357142804.1
2017-Sep-19 18:30N 31°36' E 121°17'3574.4
2017-Sep-19 18:30N 31°33' E 121°18'10158.3
2017-Sep-19 18:26N 31°41' E 121°12'500150091.4
2017-Sep-19 18:26N 39°56' E 119°42'47990766.2
2017-Sep-19 18:26N 31°58' E 120°27'46030112.7
2017-Sep-19 18:25N 24°32' E 118°19'4451096.1
2017-Sep-19 18:00N 31°20' E 121°41'29105067.4
2017-Sep-19 18:00N 31°38' E 121°14'354319040.4
2017-Sep-19 18:00N 37°33' E 121°23'36011675.6
2017-Sep-19 17:59N 31°33' E 121°18'101278.6
2017-Sep-19 17:58N 31°41' E 121°12'45545499.9
2017-Sep-19 17:57N 24°32' E 118°19'460207024.6
2017-Sep-19 17:57N 31°58' E 120°27'47922396.9
2017-Sep-19 17:56N 39°56' E 119°42'5251233.2
2017-Sep-19 17:31N 31°20' E 121°41'373122218.0
2017-Sep-19 17:30N 37°33' E 121°23'352140988.4
2017-Sep-19 17:30N 31°40' E 121°12'9488.3
2017-Sep-19 17:29N 31°33' E 121°18'5030280.1
2017-Sep-19 17:29N 31°58' E 120°27'47910204.4
2017-Sep-19 17:26N 39°56' E 119°42'61276027.6
2017-Sep-19 17:26N 29°54' E 121°59'1151467.3
2017-Sep-19 17:21N 31°41' E 121°12'5496587.2
2017-Sep-19 17:16N 22°58' E 118°03'5372084.4
2017-Sep-19 17:00N 31°20' E 121°41'373149377.6
2017-Sep-19 17:00N 37°33' E 121°23'351140426.6
2017-Sep-19 17:00N 31°42' E 121°09'122847.8
2017-Sep-19 17:00N 31°33' E 121°18'501892.5
2017-Sep-19 16:58N 31°58' E 120°27'421474.5
2017-Sep-19 16:57N 31°41' E 121°12'50058098.5
2017-Sep-19 16:56N 39°56' E 119°42'61035975.4
2017-Sep-19 16:55N 29°56' E 121°53'84205.3
2017-Sep-19 16:30N 31°20' E 121°41'3810394.5
2017-Sep-19 16:30N 31°44' E 121°07'349628937.7
2017-Sep-19 16:30N 37°33' E 121°23'36092569.2
2017-Sep-19 16:30N 31°33' E 121°18'102755.2
2017-Sep-19 16:30N 31°41' E 121°12'5008149.6
2017-Sep-19 16:26N 39°56' E 119°42'4792311.7
2017-Sep-19 16:14N 31°58' E 120°27'68719035.4
2017-Sep-19 16:12N 22°31' E 113°10'6943731.0
2017-Sep-19 16:00N 31°33' E 121°18'2384480.9
2017-Sep-19 16:00N 31°20' E 121°41'40143918.0
2017-Sep-19 16:00N 31°45' E 121°05'348139178.0
2017-Sep-19 16:00N 37°33' E 121°23'1642417.1
2017-Sep-19 15:56N 39°56' E 119°42'5004392.8
2017-Sep-19 15:49N 31°41' E 121°12'33105.2
2017-Sep-19 15:31N 31°20' E 121°41'2816883.7
2017-Sep-19 15:30N 31°37' E 121°15'35560921.9
2017-Sep-19 15:30N 37°33' E 121°23'35219482.3
2017-Sep-19 15:29N 31°41' E 121°12'50010175.4
2017-Sep-19 15:26N 39°56' E 119°42'4791138.3
2017-Sep-19 15:01N 31°58' E 120°27'7410642.6
2017-Sep-19 15:00N 31°20' E 121°41'2798533.1
2017-Sep-19 15:00N 31°37' E 121°16'35658257.4
2017-Sep-19 15:00N 37°33' E 121°23'3526561.3
2017-Sep-19 14:57N 31°41' E 121°12'50041885.0
2017-Sep-19 14:56N 39°56' E 119°42'4934115.6
2017-Sep-19 14:49N 31°47' E 120°56'3463059.9
2017-Sep-19 14:42N 37°30' E 119°58'67343.7
2017-Sep-19 14:30N 37°33' E 121°23'373122216.1
2017-Sep-19 14:30N 31°20' E 121°41'37841245.1
2017-Sep-19 14:30N 37°28' E 119°58'1492547.8
2017-Sep-19 14:26N 39°56' E 119°42'490110142.6
2017-Sep-19 14:26N 31°50' E 120°54'1742.9
2017-Sep-19 14:01N 31°41' E 121°12'331964.6
2017-Sep-19 14:00N 31°20' E 121°41'37338410.8
2017-Sep-19 14:00N 37°33' E 121°23'35243673.5
2017-Sep-19 13:59N 31°41' E 121°12'34962888.7
2017-Sep-19 13:59N 37°25' E 119°56'33418768.7
2017-Sep-19 13:58N 31°54' E 120°53'48514798.1
2017-Sep-19 13:56N 39°56' E 119°42'50953928.8
2017-Sep-19 13:55N 31°33' E 121°18'2356.4
2017-Sep-19 13:31N 31°20' E 121°41'233249.3
2017-Sep-19 13:30N 31°33' E 121°18'36021245.4
2017-Sep-19 13:29N 37°33' E 121°23'3528278.3
2017-Sep-19 13:27N 31°41' E 121°12'34948378.4
2017-Sep-19 13:26N 37°25' E 119°56'152272945.4
2017-Sep-19 13:26N 39°56' E 119°42'4795911.4
2017-Sep-19 13:21N 31°60' E 120°49'334968.6
2017-Sep-19 13:00N 37°33' E 121°23'3731342610.9
2017-Sep-19 13:00N 31°20' E 121°40'235476.6
2017-Sep-19 13:00N 31°33' E 121°18'10100.2
2017-Sep-19 12:54N 31°41' E 121°12'117424018.0
2017-Sep-19 12:51N 16°08' E 108°12'142364862.5
2017-Sep-19 12:50N 37°25' E 119°56'152545890.8
2017-Sep-19 12:50N 39°56' E 119°42'5231600.8
2017-Sep-19 12:30N 31°22' E 121°38'371334083.9
2017-Sep-19 12:30N 37°33' E 121°23'36021599.5
2017-Sep-19 12:29N 31°33' E 121°18'1172136046.4
2017-Sep-19 12:29N 16°07' E 108°12'155333076.1
2017-Sep-19 12:26N 39°56' E 119°42'5003581.3
2017-Sep-19 12:18N 31°41' E 121°12'37176.9
2017-Sep-19 12:05N 32°01' E 120°34'63838.5
2017-Sep-19 12:00N 31°24' E 121°34'369147681.4
2017-Sep-19 12:00N 37°33' E 121°23'36047998.9
2017-Sep-19 12:00N 31°33' E 121°18'1012740.8
2017-Sep-19 11:58N 29°56' E 121°53'60923096.8
2017-Sep-19 11:56N 39°56' E 119°42'50011119.6
2017-Sep-19 11:53N 31°41' E 121°12'117524872.4
2017-Sep-19 11:51N 16°06' E 108°14'11733510.2
2017-Sep-19 11:30N 31°26' E 121°29'367132049.0
2017-Sep-19 11:30N 37°33' E 121°23'360215994.9
2017-Sep-19 11:30N 31°33' E 121°18'1019328.9
2017-Sep-19 11:30N 29°56' E 121°53'11111709.3
2017-Sep-19 11:29N 31°41' E 121°12'431997.1
2017-Sep-19 11:28N 32°02' E 120°27'47617470.8
2017-Sep-19 11:26N 39°56' E 119°42'6131505.3
2017-Sep-19 11:02N 29°54' E 122°03'1015339.1
2017-Sep-19 11:00N 31°29' E 121°26'86777.8
2017-Sep-19 11:00N 31°33' E 121°18'5532777.4
2017-Sep-19 11:00N 31°60' E 120°22'337242317.7
2017-Sep-19 11:00N 37°33' E 121°23'1642368.7
2017-Sep-19 10:56N 39°56' E 119°42'61478903.3
2017-Sep-19 10:56N 29°53' E 122°03'116978.4
2017-Sep-19 10:48N 31°41' E 121°12'1241.5
2017-Sep-19 10:30N 31°32' E 121°21'361216541.8
2017-Sep-19 10:30N 37°33' E 121°23'34013160.9
2017-Sep-19 10:29N 31°57' E 120°17'494768.2
2017-Sep-19 10:28N 31°41' E 121°12'50013964.0
2017-Sep-19 10:26N 39°56' E 119°42'6145783.5
2017-Sep-19 10:20N 29°53' E 122°03'62917819.0
2017-Sep-19 10:18N 22°26' E 113°51'6272323.4
2017-Sep-19 10:01N 29°47' E 122°08'1147590.5
2017-Sep-19 10:00N 31°33' E 121°18'6172638.2
2017-Sep-19 10:00N 31°56' E 120°12'6035880.0
2017-Sep-19 10:00N 31°35' E 121°18'11616673.6
2017-Sep-19 10:00N 29°47' E 122°08'46748026.7
2017-Sep-19 09:59N 37°33' E 121°23'4601774.9
2017-Sep-19 09:44N 29°53' E 122°03'6143160.6
2017-Sep-19 09:32N 39°56' E 119°42'50919099.5
2017-Sep-19 09:31N 31°33' E 121°18'6577984.4
2017-Sep-19 09:30N 31°57' E 120°07'165119123.4
2017-Sep-19 09:30N 29°48' E 122°08'12020524.7
2017-Sep-19 09:30N 31°38' E 121°14'355638136.7
2017-Sep-19 09:30N 37°33' E 121°23'46022402.5
2017-Sep-19 09:29N 29°53' E 122°03'11612689.9
2017-Sep-19 09:28N 31°41' E 121°12'50014073.3
2017-Sep-19 09:26N 39°56' E 119°42'4791379.6
2017-Sep-19 09:05N 31°58' E 120°27'21263.7
2017-Sep-19 09:00N 31°58' E 120°02'341122899.3
2017-Sep-19 09:00N 37°33' E 121°23'36051838.8
2017-Sep-19 09:00N 31°33' E 121°18'5098006.9
2017-Sep-19 08:56N 39°56' E 119°42'61471268.1
2017-Sep-19 08:56N 29°53' E 122°03'1161744.8
2017-Sep-19 08:52N 31°41' E 121°12'42986.0
2017-Sep-19 08:49N 31°58' E 120°27'5568665.8
2017-Sep-19 08:45N 22°58' E 117°58'2501341.1
2017-Sep-19 08:34N 23°05' E 113°26'2556322.4
2017-Sep-19 08:32N 22°58' E 118°03'55127152.6
2017-Sep-19 08:30N 31°44' E 121°06'6601188864.8
2017-Sep-19 08:30N 23°05' E 113°26'616739755.5
2017-Sep-19 08:30N 29°48' E 122°08'17338882.0
2017-Sep-19 08:30N 32°00' E 119°58'340203796.1
2017-Sep-19 08:30N 37°33' E 121°23'892401528.0
2017-Sep-19 08:30N 22°58' E 117°58'544217750.6
2017-Sep-19 08:30N 31°33' E 121°18'10333.8
2017-Sep-19 08:28N 31°41' E 121°12'50017156.0
2017-Sep-19 08:26N 39°56' E 119°42'61484973.6
2017-Sep-19 08:26N 29°53' E 122°03'46716025.2
2017-Sep-19 08:24N 22°58' E 118°04'5552286.4
2017-Sep-19 08:09N 31°58' E 120°27'50340.9
2017-Sep-19 08:00N 31°33' E 121°18'11015205.3
2017-Sep-19 08:00N 29°52' E 122°08'462128050.3
2017-Sep-19 08:00N 37°33' E 121°23'34721166.6
2017-Sep-19 07:59N 31°46' E 121°02'49410650.0
2017-Sep-19 07:56N 39°56' E 119°42'61484972.7
2017-Sep-19 07:56N 29°53' E 122°03'1503619.6
2017-Sep-19 07:53N 31°58' E 120°27'338893.5
2017-Sep-19 07:30N 37°33' E 121°23'360185138.5
2017-Sep-19 07:30N 31°33' E 121°18'106380435.3
2017-Sep-19 07:30N 29°55' E 122°06'6128641.3
2017-Sep-19 07:26N 39°56' E 119°42'614100423.3
2017-Sep-19 07:26N 29°53' E 122°03'925.1
2017-Sep-19 07:04N 29°57' E 121°53'46918334.5
2017-Sep-19 07:02N 22°58' E 117°58'47412363.9
2017-Sep-19 07:00N 29°59' E 122°02'45568274.8
2017-Sep-19 07:00N 37°33' E 121°23'36043199.0
2017-Sep-19 06:59N 31°33' E 121°18'544163323.1
2017-Sep-19 06:59N 22°58' E 117°58'102221635.1
2017-Sep-19 06:56N 39°56' E 119°42'61484973.6
2017-Sep-19 06:56N 29°53' E 122°03'116860.3
2017-Sep-19 06:48N 31°41' E 121°12'1101511.7
2017-Sep-19 06:43N 29°57' E 121°53'154984.4
2017-Sep-19 06:34N 31°58' E 120°02'3416198.5
2017-Sep-19 06:30N 37°33' E 121°23'36076337.4
2017-Sep-19 06:30N 31°32' E 121°19'544195974.6
2017-Sep-19 06:30N 22°58' E 117°58'556666884.6
2017-Sep-19 06:30N 31°52' E 120°53'43754.4
2017-Sep-19 06:27N 31°58' E 120°03'47861483.4
2017-Sep-19 06:26N 39°56' E 119°42'61476182.5
2017-Sep-19 06:26N 29°53' E 122°03'116858.7
2017-Sep-19 06:17N 31°41' E 121°12'1035.1
2017-Sep-19 06:00N 31°33' E 121°18'360431989.8
2017-Sep-19 06:00N 37°33' E 121°23'1642251.1
2017-Sep-19 05:56N 39°56' E 119°42'4799269.7
2017-Sep-19 05:53N 31°57' E 120°06'551104448.6
2017-Sep-19 05:53N 22°58' E 117°58'4709446.8
2017-Sep-19 05:50N 29°53' E 122°03'116766.2
2017-Sep-19 05:41N 31°41' E 121°12'1054.1
2017-Sep-19 05:30N 31°33' E 121°18'54447800.9
2017-Sep-19 05:29N 22°58' E 117°58'892401545.3
2017-Sep-19 05:29N 37°33' E 121°23'35210131.0
2017-Sep-19 05:27N 31°41' E 121°12'50056284.9
2017-Sep-19 05:26N 39°56' E 119°42'48011211.3
2017-Sep-19 05:24N 31°57' E 120°09'158966.0
2017-Sep-19 05:14N 29°53' E 122°03'4602074.8
2017-Sep-19 05:00N 37°33' E 121°23'36021245.4
2017-Sep-19 04:59N 31°33' E 121°18'10246.8
2017-Sep-19 04:57N 31°41' E 121°12'50032747.2
2017-Sep-19 04:56N 39°56' E 119°42'61476183.9
2017-Sep-19 04:56N 29°53' E 122°03'1564608.5
2017-Sep-19 04:54N 31°57' E 120°11'1368.5
2017-Sep-19 04:42N 31°58' E 120°27'3381748.4
2017-Sep-19 04:30N 37°33' E 121°23'36092569.2
2017-Sep-19 04:30N 31°33' E 121°18'10431.1
2017-Sep-19 04:29N 31°41' E 121°12'521958.8
2017-Sep-19 04:27N 31°57' E 120°13'1556213.3
2017-Sep-19 04:26N 29°53' E 122°03'6146536.5
2017-Sep-19 04:20N 39°56' E 119°42'4794010.7
2017-Sep-19 04:13N 31°58' E 120°27'50243.5
2017-Sep-19 04:00N 31°33' E 121°18'360431997.0
2017-Sep-19 04:00N 37°33' E 121°23'33825854.2
2017-Sep-19 04:00N 31°58' E 120°27'422425.9
2017-Sep-19 03:59N 31°41' E 121°12'50011849.2
2017-Sep-19 03:56N 39°56' E 119°42'61488373.3
2017-Sep-19 03:56N 29°53' E 122°03'1546103.4
2017-Sep-19 03:54N 31°57' E 120°15'43178.4
2017-Sep-19 03:40N 32°16' E 119°30'102662.3
2017-Sep-19 03:31N 31°33' E 121°18'360323992.3
2017-Sep-19 03:30N 37°33' E 121°23'3409715.4
2017-Sep-19 03:28N 31°57' E 120°16'48012888.1
2017-Sep-19 03:26N 39°56' E 119°42'5005576.1
2017-Sep-19 03:21N 31°41' E 121°12'1167068.7
2017-Sep-19 03:20N 29°54' E 122°02'4633409.1
2017-Sep-19 03:12N 37°25' E 119°56'31162226.0
2017-Sep-19 03:11N 32°15' E 119°24'1243054.0
2017-Sep-19 03:09N 31°24' E 121°37'19134.0
2017-Sep-19 03:00N 31°33' E 121°18'360431989.8
2017-Sep-19 03:00N 37°33' E 121°23'369265917.4
2017-Sep-19 03:00N 31°24' E 121°37'37129004.9
2017-Sep-19 03:00N 37°25' E 119°56'1522613.4
2017-Sep-19 02:56N 39°56' E 119°42'61395992.6
2017-Sep-19 02:56N 29°54' E 122°02'1952877.5
2017-Sep-19 02:52N 32°12' E 119°22'66820921.3
2017-Sep-19 02:50N 22°31' E 113°10'69714343.8
2017-Sep-19 02:47N 31°41' E 121°12'12191.9
2017-Sep-19 02:43N 31°31' E 121°19'52571.2
2017-Sep-19 02:38N 32°02' E 120°29'3342755.0
2017-Sep-19 02:30N 37°33' E 121°23'371267467.1
2017-Sep-19 02:30N 31°21' E 121°40'37317686.0
2017-Sep-19 02:29N 37°25' E 119°56'32416192.8
2017-Sep-19 02:28N 32°02' E 120°27'606980.5
2017-Sep-19 02:27N 32°11' E 119°17'10923177.7
2017-Sep-19 02:27N 31°33' E 121°18'50931077.6
2017-Sep-19 02:26N 39°56' E 119°42'61381770.7
2017-Sep-19 02:26N 29°54' E 122°02'10411750.0
2017-Sep-19 02:25N 31°31' E 121°19'6944022.8
2017-Sep-19 02:15N 22°31' E 113°10'6982943.4
2017-Sep-19 02:01N 31°19' E 121°43'374336925.9
2017-Sep-19 02:00N 37°33' E 121°23'33643228.8
2017-Sep-19 02:00N 32°00' E 120°23'68798910.0
2017-Sep-19 02:00N 22°31' E 113°10'9633465220.2
2017-Sep-19 02:00N 37°27' E 119°57'87520989.0
2017-Sep-19 01:57N 22°58' E 117°58'102160285.1
2017-Sep-19 01:56N 39°56' E 119°42'61384919.8
2017-Sep-19 01:56N 29°54' E 122°02'20215484.8
2017-Sep-19 01:55N 32°14' E 119°12'1129862.0
2017-Sep-19 01:54N 31°36' E 121°17'527.7
2017-Sep-19 01:43N 31°31' E 121°19'3611707.5
2017-Sep-19 01:30N 37°33' E 121°23'377452842.4
2017-Sep-19 01:30N 31°16' E 121°46'3010906.3
2017-Sep-19 01:30N 31°34' E 121°18'11842448.3
2017-Sep-19 01:30N 32°15' E 119°07'637758.6
2017-Sep-19 01:30N 31°57' E 120°18'4798220.0
2017-Sep-19 01:26N 39°56' E 119°42'6135719.8
2017-Sep-19 01:20N 29°54' E 122°02'1041833.4
2017-Sep-19 01:16N 31°31' E 121°19'3611374.0
2017-Sep-19 01:00N 37°33' E 121°23'380456401.1
2017-Sep-19 01:00N 31°13' E 121°49'339153.8
2017-Sep-19 01:00N 31°33' E 121°18'606319.2
2017-Sep-19 01:00N 31°56' E 120°13'4818205.6
2017-Sep-19 00:56N 39°56' E 119°42'61388313.2
2017-Sep-19 00:56N 29°54' E 122°02'10413423.3
2017-Sep-19 00:55N 31°31' E 121°19'46010352.9
2017-Sep-19 00:53N 24°26' E 118°01'2911422.7
2017-Sep-19 00:40N 22°39' E 113°06'9916049.2
2017-Sep-19 00:30N 37°33' E 121°23'383689569.6
2017-Sep-19 00:30N 31°10' E 121°52'3711993.1
2017-Sep-19 00:30N 31°33' E 121°18'646416.7
2017-Sep-19 00:30N 31°56' E 120°08'67033964.4
2017-Sep-19 00:28N 22°41' E 113°06'22213529.5
2017-Sep-19 00:27N 20°06' E 110°16'128757202.1
2017-Sep-19 00:26N 39°56' E 119°42'613122657.3
2017-Sep-19 00:26N 29°54' E 122°02'116896.2
2017-Sep-19 00:18N 31°41' E 121°12'1288.5
2017-Sep-19 00:10N 31°31' E 121°19'210.8
2017-Sep-19 00:00N 31°33' E 121°18'360323992.3
2017-Sep-19 00:00N 37°33' E 121°23'385115529.8
2017-Sep-19 00:00N 31°08' E 121°55'690354941.5
2017-Sep-19 00:00N 22°46' E 113°04'68968857.6
2017-Sep-19 00:00N 31°41' E 121°12'91431055.7
2017-Sep-18 23:58N 20°02' E 110°17'129045996.6
2017-Sep-18 23:56N 39°56' E 119°42'61376131.4
2017-Sep-18 23:56N 29°54' E 122°02'10415659.7
2017-Sep-18 23:55N 31°31' E 121°19'1344.5
2017-Sep-18 23:38N 31°22' E 121°30'53858700.4
2017-Sep-18 23:37N 22°58' E 117°57'8928132.3
2017-Sep-18 23:30N 37°33' E 121°23'360107999.2
2017-Sep-18 23:30N 31°33' E 121°18'4315474.6
2017-Sep-18 23:30N 31°07' E 121°58'53320649.8
2017-Sep-18 23:29N 22°58' E 117°57'53960594.2
2017-Sep-18 23:28N 31°23' E 121°30'52116307.6
2017-Sep-18 23:26N 39°56' E 119°42'475122247.8
2017-Sep-18 23:26N 32°01' E 119°58'16659752.1
2017-Sep-18 23:26N 29°54' E 122°02'104500.4
2017-Sep-18 23:13N 31°31' E 121°19'3611705.3
2017-Sep-18 23:00N 37°33' E 121°23'360323992.3
2017-Sep-18 23:00N 31°33' E 121°18'77893.6
2017-Sep-18 22:55N 32°05' E 119°55'79283304.0
2017-Sep-18 22:55N 31°31' E 121°19'54421746.9
2017-Sep-18 22:54N 22°58' E 117°58'1915788.7
2017-Sep-18 22:52N 25°45' E 119°39'37959369.5
2017-Sep-18 22:51N 22°42' E 113°36'108151867.9
2017-Sep-18 22:50N 39°56' E 119°42'613122657.3
2017-Sep-18 22:50N 29°54' E 122°02'4601429.4
2017-Sep-18 22:30N 37°33' E 121°23'978391008.2
2017-Sep-18 22:30N 22°43' E 113°35'671201337.8
2017-Sep-18 22:30N 31°33' E 121°18'5097639.8
2017-Sep-18 22:26N 39°56' E 119°42'51134059.6
2017-Sep-18 22:25N 31°31' E 121°19'828398.1
2017-Sep-18 22:25N 32°09' E 119°54'924645.0
2017-Sep-18 22:23N 31°26' E 121°29'21453.3
2017-Sep-18 22:21N 31°41' E 121°12'116996.1
2017-Sep-18 22:14N 29°53' E 122°03'9124.6
2017-Sep-18 22:09N 29°57' E 121°53'4573107.1
2017-Sep-18 22:00N 37°33' E 121°23'329169356.4
2017-Sep-18 22:00N 32°12' E 119°53'1698552.5
2017-Sep-18 21:59N 29°58' E 121°53'9925578.0
2017-Sep-18 21:59N 31°33' E 121°18'10310.5
2017-Sep-18 21:57N 31°41' E 121°12'1165040.8
2017-Sep-18 21:56N 29°53' E 122°03'627118736.6
2017-Sep-18 21:55N 22°46' E 113°32'107812433.3
2017-Sep-18 21:50N 39°56' E 119°42'51131711.1
2017-Sep-18 21:49N 31°31' E 121°19'3611158.6
2017-Sep-18 21:30N 37°33' E 121°23'36024452.3
2017-Sep-18 21:30N 31°33' E 121°18'854069.5
2017-Sep-18 21:28N 32°16' E 119°52'3430881.8
2017-Sep-18 21:28N 31°58' E 120°27'66521379.7
2017-Sep-18 21:26N 22°46' E 113°30'1078258710.1
2017-Sep-18 21:26N 39°56' E 119°42'6145767.8
2017-Sep-18 21:20N 29°53' E 122°03'46722711.7
2017-Sep-18 21:18N 22°59' E 118°03'5361.0
2017-Sep-18 21:18N 22°58' E 117°58'54422243.0
2017-Sep-18 21:16N 31°31' E 121°19'3611376.9
2017-Sep-18 21:00N 37°33' E 121°23'36051838.8
2017-Sep-18 21:00N 31°33' E 121°18'5025954.3
2017-Sep-18 21:00N 31°58' E 120°27'557333905.8
2017-Sep-18 21:00N 22°58' E 117°58'1658617.7
2017-Sep-18 20:59N 25°19' E 119°31'38451183.5
2017-Sep-18 20:58N 31°31' E 121°19'51114482.2
2017-Sep-18 20:56N 39°56' E 119°42'108316382.4
2017-Sep-18 20:52N 22°48' E 113°01'27206.0
2017-Sep-18 20:44N 22°46' E 113°30'6285554.3
2017-Sep-18 20:38N 29°53' E 122°03'4603890.9
2017-Sep-18 20:30N 37°33' E 121°23'893123613.4
2017-Sep-18 20:30N 22°58' E 117°58'2748640.6
2017-Sep-18 20:28N 22°48' E 113°01'27825661.5
2017-Sep-18 20:27N 22°59' E 118°03'55532210.1
2017-Sep-18 20:26N 31°58' E 120°27'47978389.0
2017-Sep-18 20:26N 39°56' E 119°42'876631062.6
2017-Sep-18 20:26N 25°20' E 119°26'38526124.4
2017-Sep-18 20:25N 31°31' E 121°19'226.8
2017-Sep-18 20:21N 31°33' E 121°18'1073954.3
2017-Sep-18 20:20N 29°53' E 122°03'1162475.4
2017-Sep-18 20:17N 31°41' E 121°12'3521289.8
2017-Sep-18 20:00N 37°33' E 121°23'89354474.4
2017-Sep-18 19:59N 22°58' E 117°58'55724735.8
2017-Sep-18 19:58N 31°58' E 120°27'501552.8
2017-Sep-18 19:56N 31°33' E 121°18'10711623.8
2017-Sep-18 19:56N 29°53' E 122°03'10515098.5
2017-Sep-18 19:55N 31°31' E 121°19'12219.4
2017-Sep-18 19:52N 31°41' E 121°12'50015396.1
2017-Sep-18 19:50N 39°56' E 119°42'164500.3
2017-Sep-18 19:30N 37°33' E 121°23'3389347.0
2017-Sep-18 19:28N 31°58' E 120°27'47913164.6
2017-Sep-18 19:26N 39°56' E 119°42'61484964.3
2017-Sep-18 19:26N 29°53' E 122°03'1163429.5
2017-Sep-18 19:24N 31°41' E 121°12'10437.3
2017-Sep-18 19:22N 31°33' E 121°18'233.8
2017-Sep-18 19:19N 31°31' E 121°19'54414720.3
2017-Sep-18 19:17N 22°58' E 117°58'5517004.4
2017-Sep-18 19:12N 31°41' E 121°09'3521787.3
2017-Sep-18 19:00N 37°33' E 121°23'893114787.7
2017-Sep-18 19:00N 22°58' E 117°58'52701.2
2017-Sep-18 19:00N 22°59' E 118°03'54930872.4
2017-Sep-18 18:59N 31°42' E 121°08'121183.3
2017-Sep-18 18:58N 31°33' E 121°18'50914786.9
2017-Sep-18 18:56N 39°56' E 119°42'51133440.0
2017-Sep-18 18:55N 31°31' E 121°19'521615.0
2017-Sep-18 18:53N 31°58' E 120°27'6651911.0
2017-Sep-18 18:32N 22°46' E 113°30'97727472.1
2017-Sep-18 18:30N 37°33' E 121°23'8933214055.6
2017-Sep-18 18:30N 22°58' E 117°58'54517056.5
2017-Sep-18 18:28N 31°33' E 121°18'2685.0
2017-Sep-18 18:28N 31°31' E 121°19'5113815.5
2017-Sep-18 18:20N 39°56' E 119°42'61496045.7
2017-Sep-18 18:20N 29°53' E 122°03'46749479.5
2017-Sep-18 18:19N 22°59' E 118°03'55511887.4
2017-Sep-18 18:16N 31°58' E 120°27'6653628.1
2017-Sep-18 18:05N 22°46' E 113°30'97711234.6
2017-Sep-18 18:00N 37°33' E 121°23'893100439.9
2017-Sep-18 18:00N 22°58' E 117°58'54535663.6
2017-Sep-18 17:59N 31°33' E 121°18'2214.6
2017-Sep-18 17:58N 31°31' E 121°19'51114367.4
2017-Sep-18 17:56N 39°56' E 119°42'614100411.4
2017-Sep-18 17:56N 29°53' E 122°03'6287020.3
2017-Sep-18 17:50N 22°46' E 113°30'2525700.0
2017-Sep-18 17:48N 22°59' E 118°03'5495185.5
2017-Sep-18 17:41N 31°41' E 121°12'421880.0
2017-Sep-18 17:40N 31°58' E 120°27'40210566.9
2017-Sep-18 17:38N 25°19' E 119°30'3853102.3
2017-Sep-18 17:30N 31°33' E 121°18'36092570.8
2017-Sep-18 17:30N 37°33' E 121°23'35223892.9
2017-Sep-18 17:29N 31°41' E 121°12'428847.3
2017-Sep-18 17:29N 31°58' E 120°27'47910326.7
2017-Sep-18 17:26N 39°56' E 119°42'107823519.1
2017-Sep-18 17:23N 22°46' E 113°30'2477483.1
2017-Sep-18 17:21N 22°58' E 117°58'47020636.2
2017-Sep-18 17:20N 29°53' E 122°03'1057262.9
2017-Sep-18 17:19N 31°31' E 121°19'38516688.6
2017-Sep-18 17:18N 25°19' E 119°27'2931776.4
2017-Sep-18 17:08N 29°36' E 122°06'4563530.8
2017-Sep-18 17:00N 22°58' E 117°58'893357117.9
2017-Sep-18 17:00N 37°33' E 121°23'47785814.4
2017-Sep-18 17:00N 29°37' E 122°05'122146838.3
2017-Sep-18 17:00N 31°33' E 121°18'5022710.1
2017-Sep-18 16:59N 31°58' E 120°27'665399070.4
2017-Sep-18 16:59N 22°46' E 113°30'35944602.7
2017-Sep-18 16:59N 25°20' E 119°25'87618656.2
2017-Sep-18 16:56N 39°56' E 119°42'61478894.7
2017-Sep-18 16:56N 29°53' E 122°03'10514526.5
2017-Sep-18 16:55N 31°31' E 121°19'71010520.1
2017-Sep-18 16:51N 22°15' E 113°05'2792344.1
2017-Sep-18 16:44N 22°59' E 118°03'5497452.3
2017-Sep-18 16:40N 31°41' E 121°12'1065.8
2017-Sep-18 16:30N 31°33' E 121°18'102753.8
2017-Sep-18 16:30N 31°41' E 121°12'352422108.6
2017-Sep-18 16:30N 37°33' E 121°23'1642359.1
2017-Sep-18 16:26N 39°56' E 119°42'5114442.1
2017-Sep-18 16:19N 31°31' E 121°19'6718418.4
2017-Sep-18 16:14N 22°46' E 113°30'392402.8
2017-Sep-18 16:13N 22°14' E 113°05'3944635.0
2017-Sep-18 16:08N 25°20' E 119°24'30726344.6
2017-Sep-18 16:08N 29°53' E 122°03'9117.3
2017-Sep-18 16:03N 29°45' E 122°03'152987.5
2017-Sep-18 16:03N 29°57' E 121°53'1012512.7
2017-Sep-18 16:00N 31°33' E 121°18'712640767.3
2017-Sep-18 16:00N 22°12' E 113°05'1016118043.8
2017-Sep-18 16:00N 37°33' E 121°23'4608165.5
2017-Sep-18 15:57N 29°53' E 122°03'61492042.9
2017-Sep-18 15:56N 39°56' E 119°42'50012507.3
2017-Sep-18 15:54N 31°41' E 121°12'10998238.0
2017-Sep-18 15:54N 29°58' E 121°53'151650.2
2017-Sep-18 15:53N 29°46' E 122°04'622448027.6
2017-Sep-18 15:53N 22°35' E 113°43'2368247.2
2017-Sep-18 15:51N 22°58' E 117°58'557500862.3
2017-Sep-18 15:51N 31°58' E 120°27'40226807.2
2017-Sep-18 15:50N 25°20' E 119°24'16013074.0
2017-Sep-18 15:50N 22°58' E 118°04'5425026.5
2017-Sep-18 15:43N 31°31' E 121°19'3611663.7
2017-Sep-18 15:30N 37°33' E 121°23'360161998.9
2017-Sep-18 15:30N 31°33' E 121°18'1123381.4
2017-Sep-18 15:28N 29°49' E 122°05'61919886.9
2017-Sep-18 15:26N 39°56' E 119°42'500200117.1
2017-Sep-18 15:26N 31°41' E 121°12'11618205.4
2017-Sep-18 15:26N 29°53' E 122°03'10513988.5
2017-Sep-18 15:25N 31°31' E 121°19'52301.8
2017-Sep-18 15:15N 31°58' E 120°27'6653222.6
2017-Sep-18 15:02N 22°46' E 113°30'97730313.3
2017-Sep-18 15:00N 37°33' E 121°23'36041805.5
2017-Sep-18 15:00N 31°33' E 121°18'11079415.9
2017-Sep-18 15:00N 29°51' E 122°07'1093872.6
2017-Sep-18 14:58N 31°31' E 121°19'67122371.0
2017-Sep-18 14:56N 22°46' E 113°30'1078204242.0
2017-Sep-18 14:56N 39°56' E 119°42'47917778.9
2017-Sep-18 14:54N 31°58' E 120°27'1501857.9
2017-Sep-18 14:50N 29°53' E 122°03'1163460.5
2017-Sep-18 14:48N 31°41' E 121°12'3923486.3
2017-Sep-18 14:41N 25°20' E 119°24'7394238.3
2017-Sep-18 14:30N 37°33' E 121°23'46091965.6
2017-Sep-18 14:30N 29°54' E 122°08'10722759.6
2017-Sep-18 14:30N 31°33' E 121°18'67211794.0
2017-Sep-18 14:26N 22°46' E 113°30'1078204240.9
2017-Sep-18 14:26N 39°56' E 119°42'61481815.9
2017-Sep-18 14:26N 29°53' E 122°03'10513987.0
2017-Sep-18 14:25N 31°31' E 121°19'38410101.9
2017-Sep-18 14:23N 25°20' E 119°24'3924584.3
2017-Sep-18 14:18N 31°41' E 121°12'68815989.3
2017-Sep-18 14:15N 22°48' E 113°01'6862774.0
2017-Sep-18 14:00N 31°33' E 121°18'360647984.7
2017-Sep-18 14:00N 37°33' E 121°23'35284421.7
2017-Sep-18 14:00N 31°41' E 121°12'688826110.3
2017-Sep-18 14:00N 22°48' E 113°01'272526.9
2017-Sep-18 13:59N 22°46' E 113°30'62956610.6
2017-Sep-18 13:59N 29°55' E 122°03'61314134.6
2017-Sep-18 13:56N 39°56' E 119°42'61476174.2
2017-Sep-18 13:56N 29°53' E 122°03'10513022.4
2017-Sep-18 13:55N 31°31' E 121°19'5411711.4
2017-Sep-18 13:36N 22°58' E 118°04'0 0.1
2017-Sep-18 13:30N 22°58' E 118°04'891123383.6
2017-Sep-18 13:30N 37°33' E 121°23'977146514.5
2017-Sep-18 13:29N 22°46' E 113°30'672241777.8
2017-Sep-18 13:29N 31°33' E 121°18'10416278.3
2017-Sep-18 13:29N 29°55' E 122°01'1145609.7
2017-Sep-18 13:28N 31°41' E 121°12'55141307.7
2017-Sep-18 13:27N 22°58' E 117°58'102287597.3
2017-Sep-18 13:26N 39°56' E 119°42'61469032.8
2017-Sep-18 13:26N 29°53' E 122°03'10513987.0
2017-Sep-18 13:25N 31°31' E 121°19'6852878.4
2017-Sep-18 13:11N 22°49' E 113°01'2791613.7
2017-Sep-18 13:00N 22°58' E 118°04'891229137.9
2017-Sep-18 13:00N 37°33' E 121°23'9851181441.1
2017-Sep-18 13:00N 22°49' E 113°02'645580162.8
2017-Sep-18 13:00N 29°57' E 121°60'62852580.6
2017-Sep-18 12:59N 22°46' E 113°30'67241685.8
2017-Sep-18 12:58N 31°33' E 121°18'10472.7
2017-Sep-18 12:57N 31°41' E 121°12'50026884.7
2017-Sep-18 12:56N 39°56' E 119°42'51132842.4
2017-Sep-18 12:55N 31°31' E 121°19'1051140.6
2017-Sep-18 12:50N 29°53' E 122°03'470140968.9
2017-Sep-18 12:49N 22°58' E 117°58'1633807.0
2017-Sep-18 12:47N 25°20' E 119°24'7392702.1
2017-Sep-18 12:30N 37°33' E 121°23'456182337.8
2017-Sep-18 12:30N 29°58' E 121°59'10115181.8
2017-Sep-18 12:30N 31°33' E 121°18'67286349.2
2017-Sep-18 12:29N 22°46' E 113°30'25337885.6
2017-Sep-18 12:29N 22°58' E 118°04'102120766.8
2017-Sep-18 12:26N 39°56' E 119°42'614129936.0
2017-Sep-18 12:26N 29°53' E 122°03'64564462.0
2017-Sep-18 12:25N 22°49' E 113°02'6851232464.2
2017-Sep-18 12:25N 31°31' E 121°19'12335.3
2017-Sep-18 12:23N 31°41' E 121°12'39294118.0
2017-Sep-18 12:23N 25°20' E 119°24'163554.0
2017-Sep-18 12:05N 22°58' E 117°58'5517132.6
2017-Sep-18 12:01N 31°57' E 120°06'653213857.8
2017-Sep-18 12:00N 22°46' E 113°31'674808630.0
2017-Sep-18 12:00N 31°41' E 121°12'108850.1
2017-Sep-18 12:00N 31°33' E 121°18'685411072.9
2017-Sep-18 12:00N 22°49' E 113°02'985443037.9
2017-Sep-18 12:00N 37°33' E 121°23'454233528.2
2017-Sep-18 12:00N 29°59' E 121°57'1526416.7
2017-Sep-18 11:59N 31°57' E 120°06'47911897.9
2017-Sep-18 11:56N 39°56' E 119°42'61492042.9
2017-Sep-18 11:56N 29°53' E 122°03'46711758.8
2017-Sep-18 11:53N 22°58' E 118°03'54227849.0
2017-Sep-18 11:52N 31°31' E 121°19'361963.8
2017-Sep-18 11:30N 37°33' E 121°23'36041805.5
2017-Sep-18 11:29N 31°33' E 121°18'9610473.5
2017-Sep-18 11:29N 30°02' E 121°56'14716047.3
2017-Sep-18 11:28N 31°57' E 120°08'654392333.0
2017-Sep-18 11:28N 22°44' E 113°34'301259.3
2017-Sep-18 11:27N 22°49' E 113°02'1082149878.5
2017-Sep-18 11:26N 39°56' E 119°42'61473634.3
2017-Sep-18 11:26N 29°53' E 122°03'10514519.6
2017-Sep-18 11:25N 31°31' E 121°19'1275.2
2017-Sep-18 11:16N 31°41' E 121°12'1037.9
2017-Sep-18 11:00N 31°33' E 121°18'360161998.9
2017-Sep-18 11:00N 37°33' E 121°23'98568161.3
2017-Sep-18 10:59N 22°49' E 113°02'64614443.1
2017-Sep-18 10:57N 30°04' E 121°55'13757.8
2017-Sep-18 10:56N 29°53' E 122°03'6146653.7
2017-Sep-18 10:50N 39°56' E 119°42'51132842.7
2017-Sep-18 10:49N 31°31' E 121°19'1245.9
2017-Sep-18 10:34N 31°41' E 121°12'3525046.2
2017-Sep-18 10:30N 37°33' E 121°23'360259198.2
2017-Sep-18 10:30N 31°33' E 121°18'68566663.4
2017-Sep-18 10:29N 22°49' E 113°02'108220950.8
2017-Sep-18 10:26N 39°56' E 119°42'51132843.1
2017-Sep-18 10:25N 31°31' E 121°19'12152.2
2017-Sep-18 10:21N 31°41' E 121°12'114978.5
2017-Sep-18 10:14N 29°54' E 121°59'105481.3
2017-Sep-18 10:01N 31°33' E 121°18'36046284.6
2017-Sep-18 10:00N 37°33' E 121°23'352316643.8
2017-Sep-18 10:00N 31°41' E 121°12'68811903.5
2017-Sep-18 09:57N 22°49' E 113°02'1082144325.3
2017-Sep-18 09:56N 39°56' E 119°42'59830748.6
2017-Sep-18 09:55N 30°08' E 121°53'15168.0
2017-Sep-18 09:50N 29°54' E 121°59'10314854.4
2017-Sep-18 09:49N 31°31' E 121°19'3846341.0
2017-Sep-18 09:46N 25°20' E 119°27'3851535.4
2017-Sep-18 09:30N 31°33' E 121°18'3601295969.3
2017-Sep-18 09:30N 37°33' E 121°23'739295691.6
2017-Sep-18 09:30N 25°20' E 119°27'317285664.7
2017-Sep-18 09:30N 30°10' E 121°52'64836458.3
2017-Sep-18 09:29N 22°49' E 113°02'68812505.3
2017-Sep-18 09:26N 31°41' E 121°12'12903.3
2017-Sep-18 09:25N 31°31' E 121°19'95754.0
2017-Sep-18 09:18N 30°02' E 121°59'8127.0
2017-Sep-18 09:14N 29°54' E 121°59'62414300.0
2017-Sep-18 09:11N 22°38' E 113°41'108222139.9
2017-Sep-18 09:08N 39°56' E 119°42'5094029.8
2017-Sep-18 09:00N 31°33' E 121°18'360259193.9
2017-Sep-18 09:00N 37°33' E 121°23'73988708.2
2017-Sep-18 09:00N 25°20' E 119°27'31224386.7
2017-Sep-18 08:59N 30°00' E 122°00'647129495.2
2017-Sep-18 08:59N 22°49' E 113°02'688130318.3
2017-Sep-18 08:59N 31°41' E 121°12'67380794.7
2017-Sep-18 08:58N 22°40' E 113°41'108133543.9
2017-Sep-18 08:56N 39°56' E 119°42'61281660.8
2017-Sep-18 08:56N 29°54' E 121°59'103335.4
2017-Sep-18 08:37N 31°31' E 121°19'3613158.2
2017-Sep-18 08:30N 37°33' E 121°23'360215994.9
2017-Sep-18 08:30N 31°33' E 121°18'3851386740.2
2017-Sep-18 08:30N 25°20' E 119°27'353115543.7
2017-Sep-18 08:30N 22°44' E 113°40'628133019.0
2017-Sep-18 08:30N 30°00' E 122°04'993822.7
2017-Sep-18 08:28N 31°31' E 121°19'9939657.8
2017-Sep-18 08:28N 29°57' E 121°53'60918902.0
2017-Sep-18 08:26N 39°56' E 119°42'50012171.4
2017-Sep-18 08:24N 31°41' E 121°12'68816843.9
2017-Sep-18 08:21N 22°49' E 113°02'6421971.5
2017-Sep-18 08:02N 29°54' E 121°59'9480.0
2017-Sep-18 08:01N 30°00' E 122°06'6281130667.3
2017-Sep-18 08:01N 22°48' E 113°38'617246958.8
2017-Sep-18 08:00N 29°56' E 121°53'457548600.0
2017-Sep-18 08:00N 37°33' E 121°23'36038116.7
2017-Sep-18 08:00N 31°33' E 121°18'265.2
2017-Sep-18 07:58N 31°31' E 121°19'12641.7
2017-Sep-18 07:57N 31°41' E 121°12'50031602.8
2017-Sep-18 07:56N 39°56' E 119°42'6125667.9
2017-Sep-18 07:50N 29°54' E 121°59'31112.1
2017-Sep-18 07:33N 30°24' E 121°55'63714061.2
2017-Sep-18 07:31N 22°51' E 113°34'35485037.5
2017-Sep-18 07:30N 25°20' E 119°27'7391330687.1
2017-Sep-18 07:30N 37°33' E 121°23'3601295969.3
2017-Sep-18 07:30N 31°33' E 121°18'1017585.8
2017-Sep-18 07:29N 30°00' E 122°06'26756.9
2017-Sep-18 07:27N 30°25' E 121°55'58227551.4
2017-Sep-18 07:26N 39°56' E 119°42'61278743.6
2017-Sep-18 07:26N 29°54' E 121°59'10312799.1
2017-Sep-18 07:25N 31°31' E 121°19'1260.7
2017-Sep-18 07:14N 31°41' E 121°12'5515318.7
2017-Sep-18 07:07N 22°58' E 117°57'2432109.0
2017-Sep-18 07:01N 22°56' E 113°33'967217479.4
2017-Sep-18 07:00N 37°33' E 121°23'7391330696.1
2017-Sep-18 07:00N 25°20' E 119°27'38512483.7
2017-Sep-18 06:58N 31°32' E 121°19'111808.7
2017-Sep-18 06:58N 31°41' E 121°12'11144345.3
2017-Sep-18 06:58N 30°00' E 122°06'60720432.1
2017-Sep-18 06:56N 39°56' E 119°42'511167237.9
2017-Sep-18 06:56N 31°31' E 121°19'6722068.9
2017-Sep-18 06:36N 22°19' E 114°09'691075.4
2017-Sep-18 06:33N 22°49' E 113°02'29882.8
2017-Sep-18 06:31N 22°60' E 113°31'3531272060.0
2017-Sep-18 06:31N 25°20' E 119°27'73998570.1
2017-Sep-18 06:30N 37°33' E 121°23'45451046.4
2017-Sep-18 06:30N 30°00' E 122°06'10036023.1
2017-Sep-18 06:29N 31°32' E 121°19'686246787.1
2017-Sep-18 06:29N 22°49' E 113°02'108220951.2
2017-Sep-18 06:26N 39°56' E 119°42'5009790.3
2017-Sep-18 06:23N 31°41' E 121°12'11249.8
2017-Sep-18 06:20N 31°32' E 121°20'1049327.8
2017-Sep-18 06:20N 29°54' E 121°59'6201966.1
2017-Sep-18 06:01N 22°19' E 114°09'6818778.5
2017-Sep-18 06:00N 22°48' E 113°03'2817068.2
2017-Sep-18 06:00N 23°04' E 113°29'622447910.7
2017-Sep-18 06:00N 30°00' E 122°06'3141129138.2
2017-Sep-18 06:00N 25°20' E 119°27'385154090.8
2017-Sep-18 06:00N 31°33' E 121°18'360129594.8
2017-Sep-18 06:00N 37°33' E 121°23'36130915.8
2017-Sep-18 05:59N 31°32' E 121°20'5109517.7
2017-Sep-18 05:56N 39°56' E 119°42'10959388.7
2017-Sep-18 05:49N 22°18' E 114°09'6732174.3
2017-Sep-18 05:30N 31°33' E 121°18'360129596.9
2017-Sep-18 05:30N 37°33' E 121°23'9621731669.8
2017-Sep-18 05:30N 23°04' E 113°25'2619038.9
2017-Sep-18 05:30N 22°45' E 113°05'65168974.7
2017-Sep-18 05:30N 30°00' E 122°06'10018934.9
2017-Sep-18 05:29N 31°32' E 121°20'5109566.4
2017-Sep-18 05:26N 39°56' E 119°42'8772040.0
2017-Sep-18 05:00N 25°19' E 119°31'385462572.1
2017-Sep-18 05:00N 31°33' E 121°18'36044688.6
2017-Sep-18 05:00N 37°33' E 121°23'965347268.4
2017-Sep-18 05:00N 23°02' E 113°22'62842661.5
2017-Sep-18 04:59N 30°00' E 122°06'65320800.9
2017-Sep-18 04:57N 22°42' E 113°06'68979972.8
2017-Sep